<?xml version="1.0" encoding="UTF-8" standalone="no" ?>
<gpx xmlns="http://www.topografix.com/GPX/1/1" xmlns:xsi="http://www.w3.org/2001/XMLSchema-instance" xsi:schemaLocation="http://www.topografix.com/GPX/1/1 http://www.topografix.com/GPX/1/1/gpx.xsd" version="1.1" creator="VisuGPX - https://www.visugpx.com">
  <metadata>
    <name>Lac des Rouges Truites-Le Bugnon-La Norbière-La Grange à L'Olive.</name>
  </metadata>
  <trk>
    <name><![CDATA[Lac des Rouges Truites-Le Bugnon-La Norbière-La Grange à L'Olive._1]]></name>
    <extensions>
      <line xmlns="http://www.topografix.com/GPX/gpx_style/0/2">
        <color>0000FF</color>
        <width>4</width>
      </line>
    </extensions>
    <trkseg>
      <trkpt lat="46.6034" lon="6.00407">
        <ele>927.8</ele>
        <time>2021-11-25T07:30:44Z</time>
      </trkpt>
      <trkpt lat="46.60337" lon="6.00403">
        <ele>931.2</ele>
        <time>2021-11-25T07:30:57Z</time>
      </trkpt>
      <trkpt lat="46.60333" lon="6.00399">
        <ele>929.6</ele>
        <time>2021-11-25T07:31:06Z</time>
      </trkpt>
      <trkpt lat="46.60328" lon="6.00399">
        <ele>929.3</ele>
        <time>2021-11-25T07:31:11Z</time>
      </trkpt>
      <trkpt lat="46.60323" lon="6.00402">
        <ele>929.4</ele>
        <time>2021-11-25T07:31:15Z</time>
      </trkpt>
      <trkpt lat="46.60318" lon="6.00401">
        <ele>929.9</ele>
        <time>2021-11-25T07:31:24Z</time>
      </trkpt>
      <trkpt lat="46.60314" lon="6.00402">
        <ele>930.7</ele>
        <time>2021-11-25T07:31:35Z</time>
      </trkpt>
      <trkpt lat="46.60308" lon="6.00404">
        <ele>929.9</ele>
        <time>2021-11-25T07:31:40Z</time>
      </trkpt>
      <trkpt lat="46.60304" lon="6.00407">
        <ele>929.4</ele>
        <time>2021-11-25T07:31:44Z</time>
      </trkpt>
      <trkpt lat="46.60299" lon="6.00407">
        <ele>929.4</ele>
        <time>2021-11-25T07:31:49Z</time>
      </trkpt>
      <trkpt lat="46.60295" lon="6.00411">
        <ele>930</ele>
        <time>2021-11-25T07:31:55Z</time>
      </trkpt>
      <trkpt lat="46.60291" lon="6.00414">
        <ele>930.3</ele>
        <time>2021-11-25T07:32:00Z</time>
      </trkpt>
      <trkpt lat="46.60286" lon="6.00418">
        <ele>930.4</ele>
        <time>2021-11-25T07:32:07Z</time>
      </trkpt>
      <trkpt lat="46.60282" lon="6.00422">
        <ele>930.7</ele>
        <time>2021-11-25T07:32:11Z</time>
      </trkpt>
      <trkpt lat="46.60278" lon="6.00426">
        <ele>931.2</ele>
        <time>2021-11-25T07:32:15Z</time>
      </trkpt>
      <trkpt lat="46.60273" lon="6.00428">
        <ele>931.9</ele>
        <time>2021-11-25T07:32:21Z</time>
      </trkpt>
      <trkpt lat="46.60268" lon="6.00429">
        <ele>933</ele>
        <time>2021-11-25T07:32:26Z</time>
      </trkpt>
      <trkpt lat="46.60264" lon="6.00432">
        <ele>934.1</ele>
        <time>2021-11-25T07:32:31Z</time>
      </trkpt>
      <trkpt lat="46.6026" lon="6.00436">
        <ele>934.5</ele>
        <time>2021-11-25T07:32:37Z</time>
      </trkpt>
      <trkpt lat="46.60255" lon="6.0044">
        <ele>934.6</ele>
        <time>2021-11-25T07:32:42Z</time>
      </trkpt>
      <trkpt lat="46.60251" lon="6.00442">
        <ele>935</ele>
        <time>2021-11-25T07:32:48Z</time>
      </trkpt>
      <trkpt lat="46.60246" lon="6.00445">
        <ele>935.5</ele>
        <time>2021-11-25T07:32:53Z</time>
      </trkpt>
      <trkpt lat="46.60243" lon="6.00449">
        <ele>935.7</ele>
        <time>2021-11-25T07:32:57Z</time>
      </trkpt>
      <trkpt lat="46.60239" lon="6.00454">
        <ele>936</ele>
        <time>2021-11-25T07:33:04Z</time>
      </trkpt>
      <trkpt lat="46.60235" lon="6.00459">
        <ele>936.3</ele>
        <time>2021-11-25T07:33:09Z</time>
      </trkpt>
      <trkpt lat="46.60231" lon="6.00464">
        <ele>936.6</ele>
        <time>2021-11-25T07:33:13Z</time>
      </trkpt>
      <trkpt lat="46.60228" lon="6.0047">
        <ele>938.1</ele>
        <time>2021-11-25T07:33:21Z</time>
      </trkpt>
      <trkpt lat="46.60227" lon="6.00476">
        <ele>941.3</ele>
        <time>2021-11-25T07:33:31Z</time>
      </trkpt>
      <trkpt lat="46.60224" lon="6.00482">
        <ele>942</ele>
        <time>2021-11-25T07:33:37Z</time>
      </trkpt>
      <trkpt lat="46.6022" lon="6.00487">
        <ele>942</ele>
        <time>2021-11-25T07:33:42Z</time>
      </trkpt>
      <trkpt lat="46.60217" lon="6.00494">
        <ele>942.7</ele>
        <time>2021-11-25T07:33:47Z</time>
      </trkpt>
      <trkpt lat="46.60215" lon="6.005">
        <ele>943.1</ele>
        <time>2021-11-25T07:33:52Z</time>
      </trkpt>
      <trkpt lat="46.60212" lon="6.00507">
        <ele>942.6</ele>
        <time>2021-11-25T07:33:57Z</time>
      </trkpt>
      <trkpt lat="46.60208" lon="6.00511">
        <ele>941.7</ele>
        <time>2021-11-25T07:34:01Z</time>
      </trkpt>
      <trkpt lat="46.60204" lon="6.00516">
        <ele>940.9</ele>
        <time>2021-11-25T07:34:06Z</time>
      </trkpt>
      <trkpt lat="46.602" lon="6.0052">
        <ele>940.6</ele>
        <time>2021-11-25T07:34:12Z</time>
      </trkpt>
      <trkpt lat="46.60196" lon="6.00524">
        <ele>940.9</ele>
        <time>2021-11-25T07:34:18Z</time>
      </trkpt>
      <trkpt lat="46.60192" lon="6.00528">
        <ele>941.6</ele>
        <time>2021-11-25T07:34:24Z</time>
      </trkpt>
      <trkpt lat="46.60189" lon="6.00533">
        <ele>941.9</ele>
        <time>2021-11-25T07:34:29Z</time>
      </trkpt>
      <trkpt lat="46.60185" lon="6.00536">
        <ele>941.5</ele>
        <time>2021-11-25T07:34:33Z</time>
      </trkpt>
      <trkpt lat="46.60179" lon="6.00537">
        <ele>941.1</ele>
        <time>2021-11-25T07:34:37Z</time>
      </trkpt>
      <trkpt lat="46.60174" lon="6.00538">
        <ele>940.8</ele>
        <time>2021-11-25T07:34:41Z</time>
      </trkpt>
      <trkpt lat="46.60169" lon="6.00537">
        <ele>940.8</ele>
        <time>2021-11-25T07:34:46Z</time>
      </trkpt>
      <trkpt lat="46.60164" lon="6.00537">
        <ele>941.1</ele>
        <time>2021-11-25T07:34:51Z</time>
      </trkpt>
      <trkpt lat="46.60158" lon="6.00537">
        <ele>941.4</ele>
        <time>2021-11-25T07:34:54Z</time>
      </trkpt>
      <trkpt lat="46.60154" lon="6.00538">
        <ele>941.8</ele>
        <time>2021-11-25T07:34:57Z</time>
      </trkpt>
      <trkpt lat="46.60149" lon="6.00538">
        <ele>942.8</ele>
        <time>2021-11-25T07:35:00Z</time>
      </trkpt>
      <trkpt lat="46.60144" lon="6.00536">
        <ele>944.7</ele>
        <time>2021-11-25T07:35:05Z</time>
      </trkpt>
      <trkpt lat="46.60139" lon="6.00536">
        <ele>946.5</ele>
        <time>2021-11-25T07:35:11Z</time>
      </trkpt>
      <trkpt lat="46.60134" lon="6.00536">
        <ele>947.6</ele>
        <time>2021-11-25T07:35:19Z</time>
      </trkpt>
      <trkpt lat="46.60128" lon="6.00536">
        <ele>948.1</ele>
        <time>2021-11-25T07:35:24Z</time>
      </trkpt>
      <trkpt lat="46.60123" lon="6.00534">
        <ele>948.3</ele>
        <time>2021-11-25T07:35:30Z</time>
      </trkpt>
      <trkpt lat="46.60119" lon="6.00531">
        <ele>948.4</ele>
        <time>2021-11-25T07:35:35Z</time>
      </trkpt>
      <trkpt lat="46.60113" lon="6.00529">
        <ele>948.8</ele>
        <time>2021-11-25T07:35:40Z</time>
      </trkpt>
      <trkpt lat="46.60109" lon="6.00527">
        <ele>949</ele>
        <time>2021-11-25T07:35:44Z</time>
      </trkpt>
      <trkpt lat="46.60104" lon="6.00525">
        <ele>949.1</ele>
        <time>2021-11-25T07:35:49Z</time>
      </trkpt>
      <trkpt lat="46.60099" lon="6.00524">
        <ele>949</ele>
        <time>2021-11-25T07:35:56Z</time>
      </trkpt>
      <trkpt lat="46.60094" lon="6.00522">
        <ele>949</ele>
        <time>2021-11-25T07:36:00Z</time>
      </trkpt>
      <trkpt lat="46.60089" lon="6.00519">
        <ele>949.1</ele>
        <time>2021-11-25T07:36:04Z</time>
      </trkpt>
      <trkpt lat="46.60084" lon="6.00515">
        <ele>949.2</ele>
        <time>2021-11-25T07:36:09Z</time>
      </trkpt>
      <trkpt lat="46.60079" lon="6.00513">
        <ele>949.1</ele>
        <time>2021-11-25T07:36:15Z</time>
      </trkpt>
      <trkpt lat="46.60073" lon="6.00512">
        <ele>948.7</ele>
        <time>2021-11-25T07:36:20Z</time>
      </trkpt>
      <trkpt lat="46.60069" lon="6.00511">
        <ele>947.8</ele>
        <time>2021-11-25T07:36:24Z</time>
      </trkpt>
      <trkpt lat="46.60064" lon="6.00511">
        <ele>946.6</ele>
        <time>2021-11-25T07:36:29Z</time>
      </trkpt>
      <trkpt lat="46.6006" lon="6.00512">
        <ele>945.8</ele>
        <time>2021-11-25T07:36:33Z</time>
      </trkpt>
      <trkpt lat="46.60055" lon="6.00511">
        <ele>944.5</ele>
        <time>2021-11-25T07:36:38Z</time>
      </trkpt>
      <trkpt lat="46.60049" lon="6.0051">
        <ele>943.4</ele>
        <time>2021-11-25T07:36:43Z</time>
      </trkpt>
      <trkpt lat="46.60044" lon="6.00511">
        <ele>942.8</ele>
        <time>2021-11-25T07:36:48Z</time>
      </trkpt>
      <trkpt lat="46.60039" lon="6.00511">
        <ele>942.7</ele>
        <time>2021-11-25T07:36:52Z</time>
      </trkpt>
      <trkpt lat="46.60034" lon="6.0051">
        <ele>942.1</ele>
        <time>2021-11-25T07:36:57Z</time>
      </trkpt>
      <trkpt lat="46.60029" lon="6.00508">
        <ele>941.4</ele>
        <time>2021-11-25T07:37:02Z</time>
      </trkpt>
      <trkpt lat="46.60024" lon="6.00505">
        <ele>941</ele>
        <time>2021-11-25T07:37:06Z</time>
      </trkpt>
      <trkpt lat="46.60019" lon="6.00503">
        <ele>941.3</ele>
        <time>2021-11-25T07:37:09Z</time>
      </trkpt>
      <trkpt lat="46.60014" lon="6.00503">
        <ele>942.1</ele>
        <time>2021-11-25T07:37:12Z</time>
      </trkpt>
      <trkpt lat="46.60009" lon="6.00504">
        <ele>943.4</ele>
        <time>2021-11-25T07:37:16Z</time>
      </trkpt>
      <trkpt lat="46.60004" lon="6.00505">
        <ele>945.1</ele>
        <time>2021-11-25T07:37:21Z</time>
      </trkpt>
      <trkpt lat="46.6" lon="6.00505">
        <ele>947.7</ele>
        <time>2021-11-25T07:37:28Z</time>
      </trkpt>
      <trkpt lat="46.59995" lon="6.00503">
        <ele>949.4</ele>
        <time>2021-11-25T07:37:33Z</time>
      </trkpt>
      <trkpt lat="46.5999" lon="6.00501">
        <ele>950.2</ele>
        <time>2021-11-25T07:37:39Z</time>
      </trkpt>
      <trkpt lat="46.59985" lon="6.00498">
        <ele>950.8</ele>
        <time>2021-11-25T07:37:46Z</time>
      </trkpt>
      <trkpt lat="46.5998" lon="6.00495">
        <ele>951</ele>
        <time>2021-11-25T07:37:52Z</time>
      </trkpt>
      <trkpt lat="46.59975" lon="6.00492">
        <ele>951</ele>
        <time>2021-11-25T07:37:58Z</time>
      </trkpt>
      <trkpt lat="46.59971" lon="6.00489">
        <ele>951</ele>
        <time>2021-11-25T07:38:04Z</time>
      </trkpt>
      <trkpt lat="46.59967" lon="6.00484">
        <ele>950.7</ele>
        <time>2021-11-25T07:38:11Z</time>
      </trkpt>
      <trkpt lat="46.59963" lon="6.00479">
        <ele>950.4</ele>
        <time>2021-11-25T07:38:17Z</time>
      </trkpt>
      <trkpt lat="46.59959" lon="6.00475">
        <ele>949.9</ele>
        <time>2021-11-25T07:38:21Z</time>
      </trkpt>
      <trkpt lat="46.59956" lon="6.00469">
        <ele>949.3</ele>
        <time>2021-11-25T07:38:26Z</time>
      </trkpt>
      <trkpt lat="46.59952" lon="6.00464">
        <ele>949.2</ele>
        <time>2021-11-25T07:38:30Z</time>
      </trkpt>
      <trkpt lat="46.59948" lon="6.0046">
        <ele>949</ele>
        <time>2021-11-25T07:38:33Z</time>
      </trkpt>
      <trkpt lat="46.59943" lon="6.00455">
        <ele>948.9</ele>
        <time>2021-11-25T07:38:37Z</time>
      </trkpt>
      <trkpt lat="46.5994" lon="6.00451">
        <ele>949.2</ele>
        <time>2021-11-25T07:38:40Z</time>
      </trkpt>
      <trkpt lat="46.59935" lon="6.00448">
        <ele>949.8</ele>
        <time>2021-11-25T07:38:45Z</time>
      </trkpt>
      <trkpt lat="46.5993" lon="6.00444">
        <ele>950.7</ele>
        <time>2021-11-25T07:38:49Z</time>
      </trkpt>
      <trkpt lat="46.59925" lon="6.00442">
        <ele>951.7</ele>
        <time>2021-11-25T07:38:53Z</time>
      </trkpt>
      <trkpt lat="46.5992" lon="6.0044">
        <ele>952.9</ele>
        <time>2021-11-25T07:38:58Z</time>
      </trkpt>
      <trkpt lat="46.59916" lon="6.00437">
        <ele>953.8</ele>
        <time>2021-11-25T07:39:03Z</time>
      </trkpt>
      <trkpt lat="46.59912" lon="6.00434">
        <ele>954.6</ele>
        <time>2021-11-25T07:39:07Z</time>
      </trkpt>
      <trkpt lat="46.59907" lon="6.00431">
        <ele>955.6</ele>
        <time>2021-11-25T07:39:12Z</time>
      </trkpt>
      <trkpt lat="46.59902" lon="6.00431">
        <ele>956.6</ele>
        <time>2021-11-25T07:39:20Z</time>
      </trkpt>
      <trkpt lat="46.59898" lon="6.00433">
        <ele>956.3</ele>
        <time>2021-11-25T07:39:26Z</time>
      </trkpt>
      <trkpt lat="46.59893" lon="6.00433">
        <ele>956.2</ele>
        <time>2021-11-25T07:39:31Z</time>
      </trkpt>
      <trkpt lat="46.59888" lon="6.00434">
        <ele>956.2</ele>
        <time>2021-11-25T07:39:35Z</time>
      </trkpt>
      <trkpt lat="46.59883" lon="6.00436">
        <ele>956.2</ele>
        <time>2021-11-25T07:39:39Z</time>
      </trkpt>
      <trkpt lat="46.59879" lon="6.00439">
        <ele>956.5</ele>
        <time>2021-11-25T07:39:44Z</time>
      </trkpt>
      <trkpt lat="46.59875" lon="6.00443">
        <ele>957.7</ele>
        <time>2021-11-25T07:39:50Z</time>
      </trkpt>
      <trkpt lat="46.5987" lon="6.00445">
        <ele>959</ele>
        <time>2021-11-25T07:39:56Z</time>
      </trkpt>
      <trkpt lat="46.59865" lon="6.00448">
        <ele>959.7</ele>
        <time>2021-11-25T07:40:02Z</time>
      </trkpt>
      <trkpt lat="46.59861" lon="6.00452">
        <ele>960.2</ele>
        <time>2021-11-25T07:40:09Z</time>
      </trkpt>
      <trkpt lat="46.59857" lon="6.00456">
        <ele>960.6</ele>
        <time>2021-11-25T07:40:14Z</time>
      </trkpt>
      <trkpt lat="46.59853" lon="6.0046">
        <ele>960.6</ele>
        <time>2021-11-25T07:40:19Z</time>
      </trkpt>
      <trkpt lat="46.59849" lon="6.00463">
        <ele>960.5</ele>
        <time>2021-11-25T07:40:24Z</time>
      </trkpt>
      <trkpt lat="46.59845" lon="6.00469">
        <ele>960.8</ele>
        <time>2021-11-25T07:40:29Z</time>
      </trkpt>
      <trkpt lat="46.59842" lon="6.00474">
        <ele>960.8</ele>
        <time>2021-11-25T07:40:35Z</time>
      </trkpt>
      <trkpt lat="46.59839" lon="6.00479">
        <ele>960.8</ele>
        <time>2021-11-25T07:40:40Z</time>
      </trkpt>
      <trkpt lat="46.59841" lon="6.00486">
        <ele>960.4</ele>
        <time>2021-11-25T07:40:45Z</time>
      </trkpt>
      <trkpt lat="46.59845" lon="6.00491">
        <ele>960</ele>
        <time>2021-11-25T07:40:50Z</time>
      </trkpt>
      <trkpt lat="46.59844" lon="6.00498">
        <ele>959.8</ele>
        <time>2021-11-25T07:40:54Z</time>
      </trkpt>
      <trkpt lat="46.59844" lon="6.00505">
        <ele>959.5</ele>
        <time>2021-11-25T07:41:00Z</time>
      </trkpt>
      <trkpt lat="46.59847" lon="6.00511">
        <ele>959.4</ele>
        <time>2021-11-25T07:41:05Z</time>
      </trkpt>
      <trkpt lat="46.59849" lon="6.00517">
        <ele>959.4</ele>
        <time>2021-11-25T07:41:09Z</time>
      </trkpt>
      <trkpt lat="46.59851" lon="6.00524">
        <ele>959.2</ele>
        <time>2021-11-25T07:41:15Z</time>
      </trkpt>
      <trkpt lat="46.59854" lon="6.00531">
        <ele>959.3</ele>
        <time>2021-11-25T07:41:22Z</time>
      </trkpt>
      <trkpt lat="46.59856" lon="6.00537">
        <ele>959.3</ele>
        <time>2021-11-25T07:41:26Z</time>
      </trkpt>
      <trkpt lat="46.5986" lon="6.00542">
        <ele>959.3</ele>
        <time>2021-11-25T07:41:31Z</time>
      </trkpt>
      <trkpt lat="46.59863" lon="6.00547">
        <ele>959.7</ele>
        <time>2021-11-25T07:41:38Z</time>
      </trkpt>
      <trkpt lat="46.59867" lon="6.00552">
        <ele>960.4</ele>
        <time>2021-11-25T07:41:43Z</time>
      </trkpt>
      <trkpt lat="46.59871" lon="6.00557">
        <ele>962</ele>
        <time>2021-11-25T07:41:48Z</time>
      </trkpt>
      <trkpt lat="46.59874" lon="6.00562">
        <ele>963.4</ele>
        <time>2021-11-25T07:41:53Z</time>
      </trkpt>
      <trkpt lat="46.59877" lon="6.00568">
        <ele>964.4</ele>
        <time>2021-11-25T07:41:58Z</time>
      </trkpt>
      <trkpt lat="46.59878" lon="6.00574">
        <ele>964.8</ele>
        <time>2021-11-25T07:42:04Z</time>
      </trkpt>
      <trkpt lat="46.59881" lon="6.00579">
        <ele>964.9</ele>
        <time>2021-11-25T07:42:09Z</time>
      </trkpt>
      <trkpt lat="46.59885" lon="6.00585">
        <ele>965.1</ele>
        <time>2021-11-25T07:42:14Z</time>
      </trkpt>
      <trkpt lat="46.59888" lon="6.0059">
        <ele>965.5</ele>
        <time>2021-11-25T07:42:17Z</time>
      </trkpt>
      <trkpt lat="46.59891" lon="6.00595">
        <ele>966.2</ele>
        <time>2021-11-25T07:42:21Z</time>
      </trkpt>
      <trkpt lat="46.59893" lon="6.00602">
        <ele>966.7</ele>
        <time>2021-11-25T07:42:26Z</time>
      </trkpt>
      <trkpt lat="46.59896" lon="6.00606">
        <ele>967.1</ele>
        <time>2021-11-25T07:42:30Z</time>
      </trkpt>
      <trkpt lat="46.599" lon="6.00612">
        <ele>967.6</ele>
        <time>2021-11-25T07:42:35Z</time>
      </trkpt>
      <trkpt lat="46.59902" lon="6.00618">
        <ele>968.4</ele>
        <time>2021-11-25T07:42:42Z</time>
      </trkpt>
      <trkpt lat="46.59903" lon="6.00625">
        <ele>969</ele>
        <time>2021-11-25T07:42:47Z</time>
      </trkpt>
      <trkpt lat="46.59906" lon="6.00631">
        <ele>969.2</ele>
        <time>2021-11-25T07:42:52Z</time>
      </trkpt>
      <trkpt lat="46.59909" lon="6.00637">
        <ele>969.4</ele>
        <time>2021-11-25T07:42:57Z</time>
      </trkpt>
      <trkpt lat="46.59911" lon="6.00644">
        <ele>968.7</ele>
        <time>2021-11-25T07:43:02Z</time>
      </trkpt>
      <trkpt lat="46.59911" lon="6.00652">
        <ele>968</ele>
        <time>2021-11-25T07:43:07Z</time>
      </trkpt>
      <trkpt lat="46.59915" lon="6.00657">
        <ele>967.5</ele>
        <time>2021-11-25T07:43:11Z</time>
      </trkpt>
      <trkpt lat="46.59919" lon="6.00662">
        <ele>967</ele>
        <time>2021-11-25T07:43:15Z</time>
      </trkpt>
      <trkpt lat="46.59923" lon="6.00666">
        <ele>966.6</ele>
        <time>2021-11-25T07:43:19Z</time>
      </trkpt>
      <trkpt lat="46.59926" lon="6.00671">
        <ele>966.3</ele>
        <time>2021-11-25T07:43:25Z</time>
      </trkpt>
      <trkpt lat="46.59926" lon="6.00678">
        <ele>966.2</ele>
        <time>2021-11-25T07:43:30Z</time>
      </trkpt>
      <trkpt lat="46.59929" lon="6.00685">
        <ele>966.5</ele>
        <time>2021-11-25T07:43:35Z</time>
      </trkpt>
      <trkpt lat="46.59933" lon="6.00689">
        <ele>967.6</ele>
        <time>2021-11-25T07:43:40Z</time>
      </trkpt>
      <trkpt lat="46.59936" lon="6.00694">
        <ele>968.7</ele>
        <time>2021-11-25T07:43:45Z</time>
      </trkpt>
      <trkpt lat="46.59938" lon="6.00701">
        <ele>969.6</ele>
        <time>2021-11-25T07:43:50Z</time>
      </trkpt>
      <trkpt lat="46.59937" lon="6.00708">
        <ele>970.1</ele>
        <time>2021-11-25T07:43:55Z</time>
      </trkpt>
      <trkpt lat="46.59938" lon="6.00715">
        <ele>970.1</ele>
        <time>2021-11-25T07:44:00Z</time>
      </trkpt>
      <trkpt lat="46.59941" lon="6.0072">
        <ele>970.8</ele>
        <time>2021-11-25T07:44:06Z</time>
      </trkpt>
      <trkpt lat="46.59944" lon="6.00726">
        <ele>971.7</ele>
        <time>2021-11-25T07:44:10Z</time>
      </trkpt>
      <trkpt lat="46.59948" lon="6.0073">
        <ele>973.1</ele>
        <time>2021-11-25T07:44:15Z</time>
      </trkpt>
      <trkpt lat="46.5995" lon="6.00737">
        <ele>974.3</ele>
        <time>2021-11-25T07:44:20Z</time>
      </trkpt>
      <trkpt lat="46.59947" lon="6.00742">
        <ele>974.4</ele>
        <time>2021-11-25T07:44:26Z</time>
      </trkpt>
      <trkpt lat="46.5995" lon="6.00737">
        <ele>974.4</ele>
        <time>2021-11-25T07:44:34Z</time>
      </trkpt>
      <trkpt lat="46.59951" lon="6.00745">
        <ele>976.9</ele>
        <time>2021-11-25T07:46:07Z</time>
      </trkpt>
      <trkpt lat="46.59955" lon="6.00751">
        <ele>978</ele>
        <time>2021-11-25T07:46:11Z</time>
      </trkpt>
      <trkpt lat="46.59956" lon="6.00758">
        <ele>978.8</ele>
        <time>2021-11-25T07:46:14Z</time>
      </trkpt>
      <trkpt lat="46.59957" lon="6.00766">
        <ele>979.9</ele>
        <time>2021-11-25T07:46:18Z</time>
      </trkpt>
      <trkpt lat="46.59958" lon="6.00772">
        <ele>980.7</ele>
        <time>2021-11-25T07:46:21Z</time>
      </trkpt>
      <trkpt lat="46.5996" lon="6.0078">
        <ele>981.3</ele>
        <time>2021-11-25T07:46:25Z</time>
      </trkpt>
      <trkpt lat="46.59962" lon="6.00786">
        <ele>981.8</ele>
        <time>2021-11-25T07:46:29Z</time>
      </trkpt>
      <trkpt lat="46.59965" lon="6.00793">
        <ele>982.6</ele>
        <time>2021-11-25T07:46:33Z</time>
      </trkpt>
      <trkpt lat="46.59966" lon="6.008">
        <ele>983.4</ele>
        <time>2021-11-25T07:46:37Z</time>
      </trkpt>
      <trkpt lat="46.59967" lon="6.00807">
        <ele>983.9</ele>
        <time>2021-11-25T07:46:40Z</time>
      </trkpt>
      <trkpt lat="46.59966" lon="6.00814">
        <ele>984</ele>
        <time>2021-11-25T07:46:43Z</time>
      </trkpt>
      <trkpt lat="46.59966" lon="6.00822">
        <ele>983.9</ele>
        <time>2021-11-25T07:46:47Z</time>
      </trkpt>
      <trkpt lat="46.59966" lon="6.00829">
        <ele>983.7</ele>
        <time>2021-11-25T07:46:52Z</time>
      </trkpt>
      <trkpt lat="46.59967" lon="6.00836">
        <ele>983.4</ele>
        <time>2021-11-25T07:46:56Z</time>
      </trkpt>
      <trkpt lat="46.59968" lon="6.00843">
        <ele>983.5</ele>
        <time>2021-11-25T07:47:00Z</time>
      </trkpt>
      <trkpt lat="46.59969" lon="6.00851">
        <ele>984.6</ele>
        <time>2021-11-25T07:47:05Z</time>
      </trkpt>
      <trkpt lat="46.59973" lon="6.00856">
        <ele>986.7</ele>
        <time>2021-11-25T07:47:10Z</time>
      </trkpt>
      <trkpt lat="46.59977" lon="6.00862">
        <ele>988.8</ele>
        <time>2021-11-25T07:47:15Z</time>
      </trkpt>
      <trkpt lat="46.5998" lon="6.00867">
        <ele>990.1</ele>
        <time>2021-11-25T07:47:19Z</time>
      </trkpt>
      <trkpt lat="46.59984" lon="6.00873">
        <ele>992</ele>
        <time>2021-11-25T07:47:23Z</time>
      </trkpt>
      <trkpt lat="46.59986" lon="6.00879">
        <ele>993.4</ele>
        <time>2021-11-25T07:47:27Z</time>
      </trkpt>
      <trkpt lat="46.59989" lon="6.00885">
        <ele>995.6</ele>
        <time>2021-11-25T07:47:33Z</time>
      </trkpt>
      <trkpt lat="46.5999" lon="6.00891">
        <ele>996.7</ele>
        <time>2021-11-25T07:47:38Z</time>
      </trkpt>
      <trkpt lat="46.59992" lon="6.00898">
        <ele>998</ele>
        <time>2021-11-25T07:47:42Z</time>
      </trkpt>
      <trkpt lat="46.59994" lon="6.00904">
        <ele>999.2</ele>
        <time>2021-11-25T07:47:46Z</time>
      </trkpt>
      <trkpt lat="46.59994" lon="6.00912">
        <ele>1000.9</ele>
        <time>2021-11-25T07:47:51Z</time>
      </trkpt>
      <trkpt lat="46.59992" lon="6.00919">
        <ele>1003.1</ele>
        <time>2021-11-25T07:47:57Z</time>
      </trkpt>
      <trkpt lat="46.5999" lon="6.00925">
        <ele>1005.5</ele>
        <time>2021-11-25T07:48:02Z</time>
      </trkpt>
      <trkpt lat="46.59988" lon="6.0093">
        <ele>1007.8</ele>
        <time>2021-11-25T07:48:07Z</time>
      </trkpt>
      <trkpt lat="46.59984" lon="6.00937">
        <ele>1008.9</ele>
        <time>2021-11-25T07:48:11Z</time>
      </trkpt>
      <trkpt lat="46.59982" lon="6.00943">
        <ele>1009.2</ele>
        <time>2021-11-25T07:48:15Z</time>
      </trkpt>
      <trkpt lat="46.5998" lon="6.00949">
        <ele>1009.3</ele>
        <time>2021-11-25T07:48:19Z</time>
      </trkpt>
      <trkpt lat="46.59978" lon="6.00956">
        <ele>1009</ele>
        <time>2021-11-25T07:48:24Z</time>
      </trkpt>
      <trkpt lat="46.59977" lon="6.00962">
        <ele>1009.1</ele>
        <time>2021-11-25T07:48:27Z</time>
      </trkpt>
      <trkpt lat="46.59975" lon="6.0097">
        <ele>1009.1</ele>
        <time>2021-11-25T07:48:31Z</time>
      </trkpt>
      <trkpt lat="46.59973" lon="6.00978">
        <ele>1009.2</ele>
        <time>2021-11-25T07:48:36Z</time>
      </trkpt>
      <trkpt lat="46.59972" lon="6.00985">
        <ele>1009.5</ele>
        <time>2021-11-25T07:48:41Z</time>
      </trkpt>
      <trkpt lat="46.59972" lon="6.00992">
        <ele>1009.8</ele>
        <time>2021-11-25T07:48:45Z</time>
      </trkpt>
      <trkpt lat="46.59971" lon="6.00998">
        <ele>1010.1</ele>
        <time>2021-11-25T07:48:49Z</time>
      </trkpt>
      <trkpt lat="46.5997" lon="6.01005">
        <ele>1010.5</ele>
        <time>2021-11-25T07:48:53Z</time>
      </trkpt>
      <trkpt lat="46.5997" lon="6.01012">
        <ele>1010.7</ele>
        <time>2021-11-25T07:48:57Z</time>
      </trkpt>
      <trkpt lat="46.59971" lon="6.01019">
        <ele>1010.9</ele>
        <time>2021-11-25T07:49:02Z</time>
      </trkpt>
      <trkpt lat="46.59971" lon="6.01026">
        <ele>1012.3</ele>
        <time>2021-11-25T07:49:09Z</time>
      </trkpt>
      <trkpt lat="46.59972" lon="6.01034">
        <ele>1014.1</ele>
        <time>2021-11-25T07:49:16Z</time>
      </trkpt>
      <trkpt lat="46.59974" lon="6.01041">
        <ele>1015.6</ele>
        <time>2021-11-25T07:49:22Z</time>
      </trkpt>
      <trkpt lat="46.59973" lon="6.01048">
        <ele>1016.8</ele>
        <time>2021-11-25T07:49:26Z</time>
      </trkpt>
      <trkpt lat="46.59971" lon="6.01055">
        <ele>1017.1</ele>
        <time>2021-11-25T07:49:30Z</time>
      </trkpt>
      <trkpt lat="46.59967" lon="6.01062">
        <ele>1017.3</ele>
        <time>2021-11-25T07:49:34Z</time>
      </trkpt>
      <trkpt lat="46.59963" lon="6.01067">
        <ele>1017.4</ele>
        <time>2021-11-25T07:49:38Z</time>
      </trkpt>
      <trkpt lat="46.5996" lon="6.01072">
        <ele>1017.1</ele>
        <time>2021-11-25T07:49:44Z</time>
      </trkpt>
      <trkpt lat="46.59957" lon="6.01077">
        <ele>1016.5</ele>
        <time>2021-11-25T07:49:50Z</time>
      </trkpt>
      <trkpt lat="46.59953" lon="6.01081">
        <ele>1015.9</ele>
        <time>2021-11-25T07:49:56Z</time>
      </trkpt>
      <trkpt lat="46.59949" lon="6.01085">
        <ele>1015.7</ele>
        <time>2021-11-25T07:50:02Z</time>
      </trkpt>
      <trkpt lat="46.59945" lon="6.01089">
        <ele>1016</ele>
        <time>2021-11-25T07:50:08Z</time>
      </trkpt>
      <trkpt lat="46.59941" lon="6.01094">
        <ele>1016.6</ele>
        <time>2021-11-25T07:50:16Z</time>
      </trkpt>
      <trkpt lat="46.59938" lon="6.01099">
        <ele>1017.1</ele>
        <time>2021-11-25T07:50:21Z</time>
      </trkpt>
      <trkpt lat="46.59933" lon="6.011">
        <ele>1018</ele>
        <time>2021-11-25T07:50:26Z</time>
      </trkpt>
      <trkpt lat="46.59929" lon="6.01104">
        <ele>1020.1</ele>
        <time>2021-11-25T07:50:33Z</time>
      </trkpt>
      <trkpt lat="46.59926" lon="6.0111">
        <ele>1021.3</ele>
        <time>2021-11-25T07:50:38Z</time>
      </trkpt>
      <trkpt lat="46.59923" lon="6.01115">
        <ele>1022.2</ele>
        <time>2021-11-25T07:50:43Z</time>
      </trkpt>
      <trkpt lat="46.59921" lon="6.0112">
        <ele>1023.4</ele>
        <time>2021-11-25T07:50:48Z</time>
      </trkpt>
      <trkpt lat="46.59918" lon="6.01125">
        <ele>1024.7</ele>
        <time>2021-11-25T07:50:53Z</time>
      </trkpt>
      <trkpt lat="46.59915" lon="6.0113">
        <ele>1025.7</ele>
        <time>2021-11-25T07:50:57Z</time>
      </trkpt>
      <trkpt lat="46.59911" lon="6.01135">
        <ele>1026.8</ele>
        <time>2021-11-25T07:51:03Z</time>
      </trkpt>
      <trkpt lat="46.59907" lon="6.0114">
        <ele>1027.3</ele>
        <time>2021-11-25T07:51:12Z</time>
      </trkpt>
      <trkpt lat="46.59905" lon="6.01146">
        <ele>1029.9</ele>
        <time>2021-11-25T07:51:22Z</time>
      </trkpt>
      <trkpt lat="46.59902" lon="6.01152">
        <ele>1033.6</ele>
        <time>2021-11-25T07:51:33Z</time>
      </trkpt>
      <trkpt lat="46.59901" lon="6.01159">
        <ele>1037.2</ele>
        <time>2021-11-25T07:51:44Z</time>
      </trkpt>
      <trkpt lat="46.59899" lon="6.01166">
        <ele>1038.1</ele>
        <time>2021-11-25T07:51:48Z</time>
      </trkpt>
      <trkpt lat="46.59896" lon="6.01173">
        <ele>1038.9</ele>
        <time>2021-11-25T07:51:52Z</time>
      </trkpt>
      <trkpt lat="46.59894" lon="6.01179">
        <ele>1039.2</ele>
        <time>2021-11-25T07:51:55Z</time>
      </trkpt>
      <trkpt lat="46.59891" lon="6.01186">
        <ele>1038.8</ele>
        <time>2021-11-25T07:51:59Z</time>
      </trkpt>
      <trkpt lat="46.59889" lon="6.01193">
        <ele>1038.2</ele>
        <time>2021-11-25T07:52:03Z</time>
      </trkpt>
      <trkpt lat="46.59892" lon="6.01197">
        <ele>1036.3</ele>
        <time>2021-11-25T07:52:09Z</time>
      </trkpt>
      <trkpt lat="46.59894" lon="6.01203">
        <ele>1034.8</ele>
        <time>2021-11-25T07:52:19Z</time>
      </trkpt>
      <trkpt lat="46.59897" lon="6.01209">
        <ele>1036</ele>
        <time>2021-11-25T07:52:25Z</time>
      </trkpt>
      <trkpt lat="46.59899" lon="6.01216">
        <ele>1037.1</ele>
        <time>2021-11-25T07:52:31Z</time>
      </trkpt>
      <trkpt lat="46.59899" lon="6.01223">
        <ele>1037.5</ele>
        <time>2021-11-25T07:52:37Z</time>
      </trkpt>
      <trkpt lat="46.599" lon="6.01231">
        <ele>1036.8</ele>
        <time>2021-11-25T07:52:43Z</time>
      </trkpt>
      <trkpt lat="46.59902" lon="6.01237">
        <ele>1037</ele>
        <time>2021-11-25T07:52:50Z</time>
      </trkpt>
      <trkpt lat="46.59904" lon="6.01244">
        <ele>1038</ele>
        <time>2021-11-25T07:52:57Z</time>
      </trkpt>
      <trkpt lat="46.59906" lon="6.01252">
        <ele>1038.6</ele>
        <time>2021-11-25T07:53:02Z</time>
      </trkpt>
      <trkpt lat="46.59908" lon="6.01258">
        <ele>1039.3</ele>
        <time>2021-11-25T07:53:07Z</time>
      </trkpt>
      <trkpt lat="46.59911" lon="6.01265">
        <ele>1039.9</ele>
        <time>2021-11-25T07:53:12Z</time>
      </trkpt>
      <trkpt lat="46.59913" lon="6.01271">
        <ele>1040.9</ele>
        <time>2021-11-25T07:53:17Z</time>
      </trkpt>
      <trkpt lat="46.59913" lon="6.01279">
        <ele>1042.2</ele>
        <time>2021-11-25T07:53:22Z</time>
      </trkpt>
      <trkpt lat="46.59912" lon="6.01285">
        <ele>1043.1</ele>
        <time>2021-11-25T07:53:26Z</time>
      </trkpt>
      <trkpt lat="46.59911" lon="6.01293">
        <ele>1044</ele>
        <time>2021-11-25T07:53:32Z</time>
      </trkpt>
      <trkpt lat="46.59913" lon="6.01299">
        <ele>1044.6</ele>
        <time>2021-11-25T07:53:40Z</time>
      </trkpt>
      <trkpt lat="46.59912" lon="6.01306">
        <ele>1044.4</ele>
        <time>2021-11-25T07:53:47Z</time>
      </trkpt>
      <trkpt lat="46.59914" lon="6.01313">
        <ele>1044.7</ele>
        <time>2021-11-25T07:53:55Z</time>
      </trkpt>
      <trkpt lat="46.59916" lon="6.01319">
        <ele>1045.4</ele>
        <time>2021-11-25T07:54:02Z</time>
      </trkpt>
      <trkpt lat="46.5992" lon="6.01323">
        <ele>1045.9</ele>
        <time>2021-11-25T07:54:08Z</time>
      </trkpt>
      <trkpt lat="46.59923" lon="6.01328">
        <ele>1046.3</ele>
        <time>2021-11-25T07:54:15Z</time>
      </trkpt>
      <trkpt lat="46.59927" lon="6.01333">
        <ele>1046.6</ele>
        <time>2021-11-25T07:54:20Z</time>
      </trkpt>
      <trkpt lat="46.59932" lon="6.01338">
        <ele>1046.5</ele>
        <time>2021-11-25T07:54:25Z</time>
      </trkpt>
      <trkpt lat="46.59935" lon="6.01342">
        <ele>1046.9</ele>
        <time>2021-11-25T07:54:30Z</time>
      </trkpt>
      <trkpt lat="46.59938" lon="6.01347">
        <ele>1047.7</ele>
        <time>2021-11-25T07:54:36Z</time>
      </trkpt>
      <trkpt lat="46.59941" lon="6.01353">
        <ele>1048.3</ele>
        <time>2021-11-25T07:54:42Z</time>
      </trkpt>
      <trkpt lat="46.59945" lon="6.01358">
        <ele>1049.5</ele>
        <time>2021-11-25T07:54:48Z</time>
      </trkpt>
      <trkpt lat="46.59948" lon="6.01363">
        <ele>1051.1</ele>
        <time>2021-11-25T07:54:54Z</time>
      </trkpt>
      <trkpt lat="46.59951" lon="6.01369">
        <ele>1052.2</ele>
        <time>2021-11-25T07:54:59Z</time>
      </trkpt>
      <trkpt lat="46.59953" lon="6.01375">
        <ele>1053.8</ele>
        <time>2021-11-25T07:55:06Z</time>
      </trkpt>
      <trkpt lat="46.59956" lon="6.0138">
        <ele>1054.4</ele>
        <time>2021-11-25T07:55:13Z</time>
      </trkpt>
      <trkpt lat="46.59959" lon="6.01386">
        <ele>1054.5</ele>
        <time>2021-11-25T07:55:19Z</time>
      </trkpt>
      <trkpt lat="46.59961" lon="6.01392">
        <ele>1054.7</ele>
        <time>2021-11-25T07:55:25Z</time>
      </trkpt>
      <trkpt lat="46.59964" lon="6.01397">
        <ele>1055.6</ele>
        <time>2021-11-25T07:55:30Z</time>
      </trkpt>
      <trkpt lat="46.59968" lon="6.01402">
        <ele>1056.2</ele>
        <time>2021-11-25T07:55:35Z</time>
      </trkpt>
      <trkpt lat="46.59971" lon="6.01408">
        <ele>1057</ele>
        <time>2021-11-25T07:55:40Z</time>
      </trkpt>
      <trkpt lat="46.59974" lon="6.01413">
        <ele>1057.8</ele>
        <time>2021-11-25T07:55:47Z</time>
      </trkpt>
      <trkpt lat="46.59977" lon="6.01419">
        <ele>1058</ele>
        <time>2021-11-25T07:55:54Z</time>
      </trkpt>
      <trkpt lat="46.59978" lon="6.01426">
        <ele>1057.9</ele>
        <time>2021-11-25T07:56:00Z</time>
      </trkpt>
      <trkpt lat="46.59981" lon="6.01433">
        <ele>1058.5</ele>
        <time>2021-11-25T07:56:07Z</time>
      </trkpt>
      <trkpt lat="46.59983" lon="6.01439">
        <ele>1058.5</ele>
        <time>2021-11-25T07:56:14Z</time>
      </trkpt>
      <trkpt lat="46.59984" lon="6.01447">
        <ele>1058.3</ele>
        <time>2021-11-25T07:56:20Z</time>
      </trkpt>
      <trkpt lat="46.59986" lon="6.01453">
        <ele>1058.2</ele>
        <time>2021-11-25T07:56:27Z</time>
      </trkpt>
      <trkpt lat="46.5999" lon="6.01457">
        <ele>1058.3</ele>
        <time>2021-11-25T07:56:32Z</time>
      </trkpt>
      <trkpt lat="46.59995" lon="6.0146">
        <ele>1058.6</ele>
        <time>2021-11-25T07:56:37Z</time>
      </trkpt>
      <trkpt lat="46.6" lon="6.01461">
        <ele>1059</ele>
        <time>2021-11-25T07:56:43Z</time>
      </trkpt>
      <trkpt lat="46.60003" lon="6.01467">
        <ele>1059.5</ele>
        <time>2021-11-25T07:56:50Z</time>
      </trkpt>
      <trkpt lat="46.60006" lon="6.01473">
        <ele>1060.7</ele>
        <time>2021-11-25T07:56:56Z</time>
      </trkpt>
      <trkpt lat="46.60008" lon="6.01479">
        <ele>1062.3</ele>
        <time>2021-11-25T07:57:03Z</time>
      </trkpt>
      <trkpt lat="46.60011" lon="6.01485">
        <ele>1063.7</ele>
        <time>2021-11-25T07:57:14Z</time>
      </trkpt>
      <trkpt lat="46.60016" lon="6.01489">
        <ele>1064.7</ele>
        <time>2021-11-25T07:57:20Z</time>
      </trkpt>
      <trkpt lat="46.60019" lon="6.01493">
        <ele>1066.1</ele>
        <time>2021-11-25T07:57:25Z</time>
      </trkpt>
      <trkpt lat="46.60022" lon="6.015">
        <ele>1068</ele>
        <time>2021-11-25T07:57:32Z</time>
      </trkpt>
      <trkpt lat="46.60024" lon="6.01505">
        <ele>1069.2</ele>
        <time>2021-11-25T07:57:38Z</time>
      </trkpt>
      <trkpt lat="46.60026" lon="6.01513">
        <ele>1070.2</ele>
        <time>2021-11-25T07:57:43Z</time>
      </trkpt>
      <trkpt lat="46.60029" lon="6.01518">
        <ele>1070.3</ele>
        <time>2021-11-25T07:57:47Z</time>
      </trkpt>
      <trkpt lat="46.60031" lon="6.01524">
        <ele>1070.7</ele>
        <time>2021-11-25T07:57:51Z</time>
      </trkpt>
      <trkpt lat="46.60034" lon="6.0153">
        <ele>1071.7</ele>
        <time>2021-11-25T07:57:56Z</time>
      </trkpt>
      <trkpt lat="46.60036" lon="6.01536">
        <ele>1072.9</ele>
        <time>2021-11-25T07:58:02Z</time>
      </trkpt>
      <trkpt lat="46.60038" lon="6.01543">
        <ele>1073.3</ele>
        <time>2021-11-25T07:58:09Z</time>
      </trkpt>
      <trkpt lat="46.60038" lon="6.0155">
        <ele>1073.5</ele>
        <time>2021-11-25T07:58:15Z</time>
      </trkpt>
      <trkpt lat="46.6004" lon="6.01556">
        <ele>1074.1</ele>
        <time>2021-11-25T07:58:20Z</time>
      </trkpt>
      <trkpt lat="46.60044" lon="6.0156">
        <ele>1075.4</ele>
        <time>2021-11-25T07:58:26Z</time>
      </trkpt>
      <trkpt lat="46.60047" lon="6.01564">
        <ele>1076.8</ele>
        <time>2021-11-25T07:58:32Z</time>
      </trkpt>
      <trkpt lat="46.60051" lon="6.01569">
        <ele>1078.5</ele>
        <time>2021-11-25T07:58:38Z</time>
      </trkpt>
      <trkpt lat="46.60054" lon="6.01575">
        <ele>1079.6</ele>
        <time>2021-11-25T07:58:44Z</time>
      </trkpt>
      <trkpt lat="46.60058" lon="6.01578">
        <ele>1080</ele>
        <time>2021-11-25T07:58:50Z</time>
      </trkpt>
      <trkpt lat="46.60061" lon="6.01585">
        <ele>1080.2</ele>
        <time>2021-11-25T07:58:57Z</time>
      </trkpt>
      <trkpt lat="46.60061" lon="6.01591">
        <ele>1080.6</ele>
        <time>2021-11-25T07:59:03Z</time>
      </trkpt>
      <trkpt lat="46.60065" lon="6.01597">
        <ele>1080.9</ele>
        <time>2021-11-25T07:59:11Z</time>
      </trkpt>
      <trkpt lat="46.60068" lon="6.01603">
        <ele>1081.4</ele>
        <time>2021-11-25T07:59:16Z</time>
      </trkpt>
      <trkpt lat="46.60071" lon="6.01608">
        <ele>1081.8</ele>
        <time>2021-11-25T07:59:20Z</time>
      </trkpt>
      <trkpt lat="46.60073" lon="6.01615">
        <ele>1082.1</ele>
        <time>2021-11-25T07:59:25Z</time>
      </trkpt>
      <trkpt lat="46.60077" lon="6.01621">
        <ele>1082.6</ele>
        <time>2021-11-25T07:59:31Z</time>
      </trkpt>
      <trkpt lat="46.6008" lon="6.01626">
        <ele>1083.4</ele>
        <time>2021-11-25T07:59:36Z</time>
      </trkpt>
      <trkpt lat="46.60083" lon="6.01631">
        <ele>1084.6</ele>
        <time>2021-11-25T07:59:41Z</time>
      </trkpt>
      <trkpt lat="46.60088" lon="6.01637">
        <ele>1085.1</ele>
        <time>2021-11-25T07:59:47Z</time>
      </trkpt>
      <trkpt lat="46.60091" lon="6.01641">
        <ele>1085.7</ele>
        <time>2021-11-25T07:59:52Z</time>
      </trkpt>
      <trkpt lat="46.60093" lon="6.01647">
        <ele>1085.5</ele>
        <time>2021-11-25T07:59:57Z</time>
      </trkpt>
      <trkpt lat="46.60094" lon="6.01654">
        <ele>1085.2</ele>
        <time>2021-11-25T08:00:03Z</time>
      </trkpt>
      <trkpt lat="46.60096" lon="6.0166">
        <ele>1085.8</ele>
        <time>2021-11-25T08:00:08Z</time>
      </trkpt>
      <trkpt lat="46.60099" lon="6.01665">
        <ele>1085.7</ele>
        <time>2021-11-25T08:00:14Z</time>
      </trkpt>
      <trkpt lat="46.60102" lon="6.01671">
        <ele>1086.2</ele>
        <time>2021-11-25T08:00:19Z</time>
      </trkpt>
      <trkpt lat="46.60106" lon="6.01676">
        <ele>1086.6</ele>
        <time>2021-11-25T08:00:24Z</time>
      </trkpt>
      <trkpt lat="46.6011" lon="6.01681">
        <ele>1087.1</ele>
        <time>2021-11-25T08:00:29Z</time>
      </trkpt>
      <trkpt lat="46.60113" lon="6.01688">
        <ele>1087.5</ele>
        <time>2021-11-25T08:00:35Z</time>
      </trkpt>
      <trkpt lat="46.60116" lon="6.01694">
        <ele>1088.1</ele>
        <time>2021-11-25T08:00:40Z</time>
      </trkpt>
      <trkpt lat="46.60118" lon="6.01701">
        <ele>1088.3</ele>
        <time>2021-11-25T08:00:45Z</time>
      </trkpt>
      <trkpt lat="46.60121" lon="6.01706">
        <ele>1087.9</ele>
        <time>2021-11-25T08:00:50Z</time>
      </trkpt>
      <trkpt lat="46.60124" lon="6.01711">
        <ele>1087.6</ele>
        <time>2021-11-25T08:00:56Z</time>
      </trkpt>
      <trkpt lat="46.60127" lon="6.01717">
        <ele>1087.3</ele>
        <time>2021-11-25T08:01:02Z</time>
      </trkpt>
      <trkpt lat="46.60131" lon="6.01723">
        <ele>1087.1</ele>
        <time>2021-11-25T08:01:08Z</time>
      </trkpt>
      <trkpt lat="46.60133" lon="6.01729">
        <ele>1086.9</ele>
        <time>2021-11-25T08:01:13Z</time>
      </trkpt>
      <trkpt lat="46.60135" lon="6.01736">
        <ele>1086.5</ele>
        <time>2021-11-25T08:01:18Z</time>
      </trkpt>
      <trkpt lat="46.60138" lon="6.01742">
        <ele>1085.9</ele>
        <time>2021-11-25T08:01:23Z</time>
      </trkpt>
      <trkpt lat="46.6014" lon="6.01749">
        <ele>1084.9</ele>
        <time>2021-11-25T08:01:29Z</time>
      </trkpt>
      <trkpt lat="46.60145" lon="6.01753">
        <ele>1084</ele>
        <time>2021-11-25T08:01:35Z</time>
      </trkpt>
      <trkpt lat="46.60149" lon="6.01756">
        <ele>1083.4</ele>
        <time>2021-11-25T08:01:40Z</time>
      </trkpt>
      <trkpt lat="46.60153" lon="6.0176">
        <ele>1082.9</ele>
        <time>2021-11-25T08:01:45Z</time>
      </trkpt>
      <trkpt lat="46.60156" lon="6.01766">
        <ele>1082</ele>
        <time>2021-11-25T08:01:51Z</time>
      </trkpt>
      <trkpt lat="46.60162" lon="6.01768">
        <ele>1081.4</ele>
        <time>2021-11-25T08:01:56Z</time>
      </trkpt>
      <trkpt lat="46.60166" lon="6.01772">
        <ele>1080.8</ele>
        <time>2021-11-25T08:02:02Z</time>
      </trkpt>
      <trkpt lat="46.60171" lon="6.01775">
        <ele>1080.5</ele>
        <time>2021-11-25T08:02:07Z</time>
      </trkpt>
      <trkpt lat="46.60175" lon="6.0178">
        <ele>1080.2</ele>
        <time>2021-11-25T08:02:13Z</time>
      </trkpt>
      <trkpt lat="46.60178" lon="6.01786">
        <ele>1079.7</ele>
        <time>2021-11-25T08:02:18Z</time>
      </trkpt>
      <trkpt lat="46.60181" lon="6.01791">
        <ele>1079.7</ele>
        <time>2021-11-25T08:02:24Z</time>
      </trkpt>
      <trkpt lat="46.60185" lon="6.01796">
        <ele>1080</ele>
        <time>2021-11-25T08:02:29Z</time>
      </trkpt>
      <trkpt lat="46.6019" lon="6.01798">
        <ele>1080.6</ele>
        <time>2021-11-25T08:02:34Z</time>
      </trkpt>
      <trkpt lat="46.60194" lon="6.01802">
        <ele>1081</ele>
        <time>2021-11-25T08:02:39Z</time>
      </trkpt>
      <trkpt lat="46.60198" lon="6.01806">
        <ele>1081.2</ele>
        <time>2021-11-25T08:02:43Z</time>
      </trkpt>
      <trkpt lat="46.60202" lon="6.01811">
        <ele>1081.5</ele>
        <time>2021-11-25T08:02:49Z</time>
      </trkpt>
      <trkpt lat="46.60205" lon="6.01816">
        <ele>1082.2</ele>
        <time>2021-11-25T08:02:55Z</time>
      </trkpt>
      <trkpt lat="46.60206" lon="6.01822">
        <ele>1082</ele>
        <time>2021-11-25T08:03:00Z</time>
      </trkpt>
      <trkpt lat="46.60207" lon="6.0183">
        <ele>1081.3</ele>
        <time>2021-11-25T08:03:05Z</time>
      </trkpt>
      <trkpt lat="46.6021" lon="6.01835">
        <ele>1080.5</ele>
        <time>2021-11-25T08:03:11Z</time>
      </trkpt>
      <trkpt lat="46.60214" lon="6.0184">
        <ele>1080.1</ele>
        <time>2021-11-25T08:03:16Z</time>
      </trkpt>
      <trkpt lat="46.60219" lon="6.01843">
        <ele>1080.2</ele>
        <time>2021-11-25T08:03:20Z</time>
      </trkpt>
      <trkpt lat="46.60224" lon="6.01845">
        <ele>1080.4</ele>
        <time>2021-11-25T08:03:24Z</time>
      </trkpt>
      <trkpt lat="46.60229" lon="6.01849">
        <ele>1080.8</ele>
        <time>2021-11-25T08:03:28Z</time>
      </trkpt>
      <trkpt lat="46.60232" lon="6.01853">
        <ele>1081.6</ele>
        <time>2021-11-25T08:03:33Z</time>
      </trkpt>
      <trkpt lat="46.60235" lon="6.01858">
        <ele>1082.2</ele>
        <time>2021-11-25T08:03:38Z</time>
      </trkpt>
      <trkpt lat="46.60238" lon="6.01865">
        <ele>1082.7</ele>
        <time>2021-11-25T08:03:44Z</time>
      </trkpt>
      <trkpt lat="46.60242" lon="6.01869">
        <ele>1083</ele>
        <time>2021-11-25T08:03:49Z</time>
      </trkpt>
      <trkpt lat="46.60246" lon="6.01874">
        <ele>1083.5</ele>
        <time>2021-11-25T08:03:53Z</time>
      </trkpt>
      <trkpt lat="46.6025" lon="6.01878">
        <ele>1083.4</ele>
        <time>2021-11-25T08:04:00Z</time>
      </trkpt>
      <trkpt lat="46.60254" lon="6.01882">
        <ele>1083.2</ele>
        <time>2021-11-25T08:04:06Z</time>
      </trkpt>
      <trkpt lat="46.60258" lon="6.01887">
        <ele>1082.9</ele>
        <time>2021-11-25T08:04:10Z</time>
      </trkpt>
      <trkpt lat="46.60261" lon="6.01892">
        <ele>1082.8</ele>
        <time>2021-11-25T08:04:16Z</time>
      </trkpt>
      <trkpt lat="46.60263" lon="6.01899">
        <ele>1083</ele>
        <time>2021-11-25T08:04:22Z</time>
      </trkpt>
      <trkpt lat="46.60264" lon="6.01906">
        <ele>1082.9</ele>
        <time>2021-11-25T08:04:27Z</time>
      </trkpt>
      <trkpt lat="46.60267" lon="6.01913">
        <ele>1083.3</ele>
        <time>2021-11-25T08:04:32Z</time>
      </trkpt>
      <trkpt lat="46.60269" lon="6.01919">
        <ele>1083.6</ele>
        <time>2021-11-25T08:04:36Z</time>
      </trkpt>
      <trkpt lat="46.60272" lon="6.01926">
        <ele>1083.7</ele>
        <time>2021-11-25T08:04:41Z</time>
      </trkpt>
      <trkpt lat="46.60275" lon="6.01931">
        <ele>1083.4</ele>
        <time>2021-11-25T08:04:45Z</time>
      </trkpt>
      <trkpt lat="46.60278" lon="6.01936">
        <ele>1082.4</ele>
        <time>2021-11-25T08:04:49Z</time>
      </trkpt>
      <trkpt lat="46.60281" lon="6.0194">
        <ele>1081.4</ele>
        <time>2021-11-25T08:04:53Z</time>
      </trkpt>
      <trkpt lat="46.60285" lon="6.01946">
        <ele>1080.7</ele>
        <time>2021-11-25T08:04:57Z</time>
      </trkpt>
      <trkpt lat="46.60289" lon="6.0195">
        <ele>1080.1</ele>
        <time>2021-11-25T08:05:02Z</time>
      </trkpt>
      <trkpt lat="46.60293" lon="6.01955">
        <ele>1080.1</ele>
        <time>2021-11-25T08:05:07Z</time>
      </trkpt>
      <trkpt lat="46.60296" lon="6.01959">
        <ele>1080</ele>
        <time>2021-11-25T08:05:11Z</time>
      </trkpt>
      <trkpt lat="46.60301" lon="6.01962">
        <ele>1080.2</ele>
        <time>2021-11-25T08:05:16Z</time>
      </trkpt>
      <trkpt lat="46.60304" lon="6.01968">
        <ele>1080.3</ele>
        <time>2021-11-25T08:05:21Z</time>
      </trkpt>
      <trkpt lat="46.60307" lon="6.01974">
        <ele>1080.1</ele>
        <time>2021-11-25T08:05:26Z</time>
      </trkpt>
      <trkpt lat="46.60311" lon="6.0198">
        <ele>1079.9</ele>
        <time>2021-11-25T08:05:32Z</time>
      </trkpt>
      <trkpt lat="46.60315" lon="6.01984">
        <ele>1079.7</ele>
        <time>2021-11-25T08:05:37Z</time>
      </trkpt>
      <trkpt lat="46.60317" lon="6.01991">
        <ele>1079.4</ele>
        <time>2021-11-25T08:05:42Z</time>
      </trkpt>
      <trkpt lat="46.6032" lon="6.01997">
        <ele>1078.8</ele>
        <time>2021-11-25T08:05:47Z</time>
      </trkpt>
      <trkpt lat="46.60323" lon="6.02003">
        <ele>1077.5</ele>
        <time>2021-11-25T08:05:53Z</time>
      </trkpt>
      <trkpt lat="46.60326" lon="6.02009">
        <ele>1076.4</ele>
        <time>2021-11-25T08:05:58Z</time>
      </trkpt>
      <trkpt lat="46.6033" lon="6.02013">
        <ele>1075.6</ele>
        <time>2021-11-25T08:06:02Z</time>
      </trkpt>
      <trkpt lat="46.60333" lon="6.02018">
        <ele>1074.6</ele>
        <time>2021-11-25T08:06:07Z</time>
      </trkpt>
      <trkpt lat="46.60337" lon="6.02022">
        <ele>1074.1</ele>
        <time>2021-11-25T08:06:12Z</time>
      </trkpt>
      <trkpt lat="46.60341" lon="6.02026">
        <ele>1073.4</ele>
        <time>2021-11-25T08:06:18Z</time>
      </trkpt>
      <trkpt lat="46.60343" lon="6.02033">
        <ele>1072.1</ele>
        <time>2021-11-25T08:06:24Z</time>
      </trkpt>
      <trkpt lat="46.60347" lon="6.02037">
        <ele>1071.8</ele>
        <time>2021-11-25T08:06:29Z</time>
      </trkpt>
      <trkpt lat="46.60352" lon="6.0204">
        <ele>1072</ele>
        <time>2021-11-25T08:06:34Z</time>
      </trkpt>
      <trkpt lat="46.60357" lon="6.02042">
        <ele>1072.4</ele>
        <time>2021-11-25T08:06:38Z</time>
      </trkpt>
      <trkpt lat="46.60362" lon="6.02045">
        <ele>1072.8</ele>
        <time>2021-11-25T08:06:42Z</time>
      </trkpt>
      <trkpt lat="46.60367" lon="6.02048">
        <ele>1073.4</ele>
        <time>2021-11-25T08:06:47Z</time>
      </trkpt>
      <trkpt lat="46.60371" lon="6.02051">
        <ele>1074.4</ele>
        <time>2021-11-25T08:06:51Z</time>
      </trkpt>
      <trkpt lat="46.60376" lon="6.02054">
        <ele>1076.1</ele>
        <time>2021-11-25T08:06:56Z</time>
      </trkpt>
      <trkpt lat="46.60377" lon="6.02061">
        <ele>1077.5</ele>
        <time>2021-11-25T08:07:01Z</time>
      </trkpt>
      <trkpt lat="46.60378" lon="6.02068">
        <ele>1078</ele>
        <time>2021-11-25T08:07:05Z</time>
      </trkpt>
      <trkpt lat="46.60379" lon="6.02076">
        <ele>1077.8</ele>
        <time>2021-11-25T08:07:09Z</time>
      </trkpt>
      <trkpt lat="46.60379" lon="6.02084">
        <ele>1077.3</ele>
        <time>2021-11-25T08:07:13Z</time>
      </trkpt>
      <trkpt lat="46.60379" lon="6.02091">
        <ele>1076.9</ele>
        <time>2021-11-25T08:07:17Z</time>
      </trkpt>
      <trkpt lat="46.60378" lon="6.02097">
        <ele>1077</ele>
        <time>2021-11-25T08:07:23Z</time>
      </trkpt>
      <trkpt lat="46.60378" lon="6.02104">
        <ele>1077.2</ele>
        <time>2021-11-25T08:07:28Z</time>
      </trkpt>
      <trkpt lat="46.60379" lon="6.02111">
        <ele>1077.5</ele>
        <time>2021-11-25T08:07:33Z</time>
      </trkpt>
      <trkpt lat="46.60379" lon="6.02118">
        <ele>1077.3</ele>
        <time>2021-11-25T08:07:38Z</time>
      </trkpt>
      <trkpt lat="46.6038" lon="6.02125">
        <ele>1076.9</ele>
        <time>2021-11-25T08:07:43Z</time>
      </trkpt>
      <trkpt lat="46.60379" lon="6.02132">
        <ele>1076.7</ele>
        <time>2021-11-25T08:07:47Z</time>
      </trkpt>
      <trkpt lat="46.60379" lon="6.02139">
        <ele>1076.9</ele>
        <time>2021-11-25T08:07:52Z</time>
      </trkpt>
      <trkpt lat="46.60379" lon="6.02147">
        <ele>1076.5</ele>
        <time>2021-11-25T08:07:58Z</time>
      </trkpt>
      <trkpt lat="46.60381" lon="6.02154">
        <ele>1076.7</ele>
        <time>2021-11-25T08:08:03Z</time>
      </trkpt>
      <trkpt lat="46.60381" lon="6.02162">
        <ele>1077.1</ele>
        <time>2021-11-25T08:08:08Z</time>
      </trkpt>
      <trkpt lat="46.60383" lon="6.02167">
        <ele>1077.1</ele>
        <time>2021-11-25T08:08:13Z</time>
      </trkpt>
      <trkpt lat="46.60385" lon="6.02175">
        <ele>1077</ele>
        <time>2021-11-25T08:08:18Z</time>
      </trkpt>
      <trkpt lat="46.60388" lon="6.02182">
        <ele>1077.4</ele>
        <time>2021-11-25T08:08:22Z</time>
      </trkpt>
      <trkpt lat="46.6039" lon="6.02189">
        <ele>1077.7</ele>
        <time>2021-11-25T08:08:28Z</time>
      </trkpt>
      <trkpt lat="46.60393" lon="6.02194">
        <ele>1077.3</ele>
        <time>2021-11-25T08:08:34Z</time>
      </trkpt>
      <trkpt lat="46.60396" lon="6.02199">
        <ele>1076.9</ele>
        <time>2021-11-25T08:08:41Z</time>
      </trkpt>
      <trkpt lat="46.60399" lon="6.02205">
        <ele>1076.5</ele>
        <time>2021-11-25T08:08:49Z</time>
      </trkpt>
      <trkpt lat="46.60404" lon="6.02208">
        <ele>1075.3</ele>
        <time>2021-11-25T08:08:58Z</time>
      </trkpt>
      <trkpt lat="46.60405" lon="6.02215">
        <ele>1074.5</ele>
        <time>2021-11-25T08:09:04Z</time>
      </trkpt>
      <trkpt lat="46.60408" lon="6.02221">
        <ele>1074.8</ele>
        <time>2021-11-25T08:09:09Z</time>
      </trkpt>
      <trkpt lat="46.6041" lon="6.02227">
        <ele>1076</ele>
        <time>2021-11-25T08:09:16Z</time>
      </trkpt>
      <trkpt lat="46.60414" lon="6.02226">
        <ele>1077.7</ele>
        <time>2021-11-25T08:09:22Z</time>
      </trkpt>
      <trkpt lat="46.6041" lon="6.02224">
        <ele>1080.6</ele>
        <time>2021-11-25T08:09:42Z</time>
      </trkpt>
      <trkpt lat="46.60404" lon="6.02225">
        <ele>1080.7</ele>
        <time>2021-11-25T08:09:48Z</time>
      </trkpt>
      <trkpt lat="46.60399" lon="6.02226">
        <ele>1080.4</ele>
        <time>2021-11-25T08:10:19Z</time>
      </trkpt>
      <trkpt lat="46.60404" lon="6.02226">
        <ele>1078</ele>
        <time>2021-11-25T08:10:59Z</time>
      </trkpt>
      <trkpt lat="46.60406" lon="6.02232">
        <ele>1082.1</ele>
        <time>2021-11-25T08:12:17Z</time>
      </trkpt>
      <trkpt lat="46.6041" lon="6.02228">
        <ele>1083.5</ele>
        <time>2021-11-25T08:12:32Z</time>
      </trkpt>
      <trkpt lat="46.60416" lon="6.02224">
        <ele>1082.5</ele>
        <time>2021-11-25T08:12:36Z</time>
      </trkpt>
      <trkpt lat="46.60419" lon="6.0222">
        <ele>1081.7</ele>
        <time>2021-11-25T08:12:40Z</time>
      </trkpt>
      <trkpt lat="46.60422" lon="6.02214">
        <ele>1081.2</ele>
        <time>2021-11-25T08:12:46Z</time>
      </trkpt>
      <trkpt lat="46.60418" lon="6.02217">
        <ele>1081.2</ele>
        <time>2021-11-25T08:13:20Z</time>
      </trkpt>
      <trkpt lat="46.60414" lon="6.02221">
        <ele>1081.6</ele>
        <time>2021-11-25T08:13:26Z</time>
      </trkpt>
      <trkpt lat="46.6041" lon="6.02224">
        <ele>1082.1</ele>
        <time>2021-11-25T08:13:34Z</time>
      </trkpt>
      <trkpt lat="46.60406" lon="6.02223">
        <ele>1081.7</ele>
        <time>2021-11-25T08:13:42Z</time>
      </trkpt>
      <trkpt lat="46.60409" lon="6.02227">
        <ele>1081</ele>
        <time>2021-11-25T08:14:33Z</time>
      </trkpt>
      <trkpt lat="46.6041" lon="6.0222">
        <ele>1080.8</ele>
        <time>2021-11-25T08:14:46Z</time>
      </trkpt>
      <trkpt lat="46.60406" lon="6.02216">
        <ele>1073.9</ele>
        <time>2021-11-25T08:16:02Z</time>
      </trkpt>
      <trkpt lat="46.60412" lon="6.02217">
        <ele>1071.5</ele>
        <time>2021-11-25T08:16:36Z</time>
      </trkpt>
      <trkpt lat="46.60413" lon="6.02224">
        <ele>1070.7</ele>
        <time>2021-11-25T08:17:24Z</time>
      </trkpt>
      <trkpt lat="46.60408" lon="6.02227">
        <ele>1070.9</ele>
        <time>2021-11-25T08:17:32Z</time>
      </trkpt>
      <trkpt lat="46.60403" lon="6.02226">
        <ele>1071.5</ele>
        <time>2021-11-25T08:17:42Z</time>
      </trkpt>
      <trkpt lat="46.60401" lon="6.02219">
        <ele>1072.7</ele>
        <time>2021-11-25T08:17:47Z</time>
      </trkpt>
      <trkpt lat="46.60405" lon="6.02213">
        <ele>1074.3</ele>
        <time>2021-11-25T08:17:52Z</time>
      </trkpt>
      <trkpt lat="46.60409" lon="6.02213">
        <ele>1075.5</ele>
        <time>2021-11-25T08:17:57Z</time>
      </trkpt>
      <trkpt lat="46.60415" lon="6.02212">
        <ele>1076.1</ele>
        <time>2021-11-25T08:18:02Z</time>
      </trkpt>
      <trkpt lat="46.6042" lon="6.02211">
        <ele>1076.3</ele>
        <time>2021-11-25T08:18:06Z</time>
      </trkpt>
      <trkpt lat="46.60425" lon="6.02211">
        <ele>1076.3</ele>
        <time>2021-11-25T08:18:10Z</time>
      </trkpt>
      <trkpt lat="46.6043" lon="6.02213">
        <ele>1076.9</ele>
        <time>2021-11-25T08:18:16Z</time>
      </trkpt>
      <trkpt lat="46.60435" lon="6.02215">
        <ele>1077.7</ele>
        <time>2021-11-25T08:18:21Z</time>
      </trkpt>
      <trkpt lat="46.60439" lon="6.02217">
        <ele>1078.4</ele>
        <time>2021-11-25T08:18:25Z</time>
      </trkpt>
      <trkpt lat="46.60444" lon="6.0222">
        <ele>1079.1</ele>
        <time>2021-11-25T08:18:30Z</time>
      </trkpt>
      <trkpt lat="46.60448" lon="6.02223">
        <ele>1078.6</ele>
        <time>2021-11-25T08:18:36Z</time>
      </trkpt>
      <trkpt lat="46.60452" lon="6.02227">
        <ele>1077.1</ele>
        <time>2021-11-25T08:18:41Z</time>
      </trkpt>
      <trkpt lat="46.60457" lon="6.02231">
        <ele>1075.4</ele>
        <time>2021-11-25T08:18:46Z</time>
      </trkpt>
      <trkpt lat="46.60461" lon="6.02236">
        <ele>1074</ele>
        <time>2021-11-25T08:18:51Z</time>
      </trkpt>
      <trkpt lat="46.60466" lon="6.02239">
        <ele>1072.9</ele>
        <time>2021-11-25T08:18:57Z</time>
      </trkpt>
      <trkpt lat="46.6047" lon="6.02241">
        <ele>1072.5</ele>
        <time>2021-11-25T08:19:01Z</time>
      </trkpt>
      <trkpt lat="46.60474" lon="6.02243">
        <ele>1072.4</ele>
        <time>2021-11-25T08:19:05Z</time>
      </trkpt>
      <trkpt lat="46.60476" lon="6.02249">
        <ele>1072.1</ele>
        <time>2021-11-25T08:19:12Z</time>
      </trkpt>
      <trkpt lat="46.6048" lon="6.02254">
        <ele>1072.8</ele>
        <time>2021-11-25T08:19:22Z</time>
      </trkpt>
      <trkpt lat="46.60483" lon="6.02259">
        <ele>1073.1</ele>
        <time>2021-11-25T08:19:26Z</time>
      </trkpt>
      <trkpt lat="46.60487" lon="6.02264">
        <ele>1073.5</ele>
        <time>2021-11-25T08:19:30Z</time>
      </trkpt>
      <trkpt lat="46.6049" lon="6.02271">
        <ele>1073.9</ele>
        <time>2021-11-25T08:19:35Z</time>
      </trkpt>
      <trkpt lat="46.60493" lon="6.02275">
        <ele>1074.4</ele>
        <time>2021-11-25T08:19:39Z</time>
      </trkpt>
      <trkpt lat="46.60497" lon="6.0228">
        <ele>1075</ele>
        <time>2021-11-25T08:19:43Z</time>
      </trkpt>
      <trkpt lat="46.60499" lon="6.02287">
        <ele>1075.3</ele>
        <time>2021-11-25T08:19:48Z</time>
      </trkpt>
      <trkpt lat="46.605" lon="6.02295">
        <ele>1075</ele>
        <time>2021-11-25T08:19:53Z</time>
      </trkpt>
      <trkpt lat="46.605" lon="6.02301">
        <ele>1074.5</ele>
        <time>2021-11-25T08:19:57Z</time>
      </trkpt>
      <trkpt lat="46.60502" lon="6.02308">
        <ele>1073.5</ele>
        <time>2021-11-25T08:20:03Z</time>
      </trkpt>
      <trkpt lat="46.60504" lon="6.02314">
        <ele>1072.1</ele>
        <time>2021-11-25T08:20:11Z</time>
      </trkpt>
      <trkpt lat="46.60504" lon="6.02321">
        <ele>1071.4</ele>
        <time>2021-11-25T08:20:15Z</time>
      </trkpt>
      <trkpt lat="46.60506" lon="6.02328">
        <ele>1070.8</ele>
        <time>2021-11-25T08:20:19Z</time>
      </trkpt>
      <trkpt lat="46.60507" lon="6.02335">
        <ele>1070.1</ele>
        <time>2021-11-25T08:20:24Z</time>
      </trkpt>
      <trkpt lat="46.60507" lon="6.02342">
        <ele>1069.6</ele>
        <time>2021-11-25T08:20:29Z</time>
      </trkpt>
      <trkpt lat="46.60508" lon="6.02349">
        <ele>1069.1</ele>
        <time>2021-11-25T08:20:34Z</time>
      </trkpt>
      <trkpt lat="46.6051" lon="6.02356">
        <ele>1068.9</ele>
        <time>2021-11-25T08:20:38Z</time>
      </trkpt>
      <trkpt lat="46.60508" lon="6.02364">
        <ele>1068.7</ele>
        <time>2021-11-25T08:20:42Z</time>
      </trkpt>
      <trkpt lat="46.60507" lon="6.0237">
        <ele>1068.5</ele>
        <time>2021-11-25T08:20:46Z</time>
      </trkpt>
      <trkpt lat="46.60508" lon="6.02377">
        <ele>1068</ele>
        <time>2021-11-25T08:20:52Z</time>
      </trkpt>
      <trkpt lat="46.60508" lon="6.02385">
        <ele>1067.7</ele>
        <time>2021-11-25T08:20:58Z</time>
      </trkpt>
      <trkpt lat="46.60509" lon="6.02392">
        <ele>1067.6</ele>
        <time>2021-11-25T08:21:04Z</time>
      </trkpt>
      <trkpt lat="46.60512" lon="6.02398">
        <ele>1067.1</ele>
        <time>2021-11-25T08:21:08Z</time>
      </trkpt>
      <trkpt lat="46.60515" lon="6.02404">
        <ele>1066.3</ele>
        <time>2021-11-25T08:21:12Z</time>
      </trkpt>
      <trkpt lat="46.60518" lon="6.02408">
        <ele>1065.5</ele>
        <time>2021-11-25T08:21:16Z</time>
      </trkpt>
      <trkpt lat="46.60522" lon="6.02413">
        <ele>1064.7</ele>
        <time>2021-11-25T08:21:21Z</time>
      </trkpt>
      <trkpt lat="46.60527" lon="6.02417">
        <ele>1064.8</ele>
        <time>2021-11-25T08:21:27Z</time>
      </trkpt>
      <trkpt lat="46.6053" lon="6.02421">
        <ele>1065.2</ele>
        <time>2021-11-25T08:21:32Z</time>
      </trkpt>
      <trkpt lat="46.60535" lon="6.02423">
        <ele>1065.8</ele>
        <time>2021-11-25T08:21:36Z</time>
      </trkpt>
      <trkpt lat="46.6054" lon="6.02425">
        <ele>1066.6</ele>
        <time>2021-11-25T08:21:41Z</time>
      </trkpt>
      <trkpt lat="46.60545" lon="6.02426">
        <ele>1067.4</ele>
        <time>2021-11-25T08:21:45Z</time>
      </trkpt>
      <trkpt lat="46.6055" lon="6.02426">
        <ele>1068</ele>
        <time>2021-11-25T08:21:48Z</time>
      </trkpt>
      <trkpt lat="46.60554" lon="6.02427">
        <ele>1069</ele>
        <time>2021-11-25T08:21:52Z</time>
      </trkpt>
      <trkpt lat="46.60559" lon="6.02429">
        <ele>1069.7</ele>
        <time>2021-11-25T08:21:56Z</time>
      </trkpt>
      <trkpt lat="46.60564" lon="6.02429">
        <ele>1070</ele>
        <time>2021-11-25T08:22:00Z</time>
      </trkpt>
      <trkpt lat="46.6057" lon="6.0243">
        <ele>1070.4</ele>
        <time>2021-11-25T08:22:05Z</time>
      </trkpt>
      <trkpt lat="46.60574" lon="6.02433">
        <ele>1070.7</ele>
        <time>2021-11-25T08:22:11Z</time>
      </trkpt>
      <trkpt lat="46.60579" lon="6.02434">
        <ele>1070.8</ele>
        <time>2021-11-25T08:22:16Z</time>
      </trkpt>
      <trkpt lat="46.60584" lon="6.02438">
        <ele>1070.7</ele>
        <time>2021-11-25T08:22:21Z</time>
      </trkpt>
      <trkpt lat="46.60588" lon="6.02443">
        <ele>1070.3</ele>
        <time>2021-11-25T08:22:24Z</time>
      </trkpt>
      <trkpt lat="46.60592" lon="6.02448">
        <ele>1069.3</ele>
        <time>2021-11-25T08:22:28Z</time>
      </trkpt>
      <trkpt lat="46.60597" lon="6.02449">
        <ele>1068.3</ele>
        <time>2021-11-25T08:22:33Z</time>
      </trkpt>
      <trkpt lat="46.60602" lon="6.02448">
        <ele>1067.4</ele>
        <time>2021-11-25T08:22:38Z</time>
      </trkpt>
      <trkpt lat="46.60607" lon="6.02446">
        <ele>1066.9</ele>
        <time>2021-11-25T08:22:42Z</time>
      </trkpt>
      <trkpt lat="46.60612" lon="6.02442">
        <ele>1066.6</ele>
        <time>2021-11-25T08:22:47Z</time>
      </trkpt>
      <trkpt lat="46.60617" lon="6.02439">
        <ele>1066.5</ele>
        <time>2021-11-25T08:22:52Z</time>
      </trkpt>
      <trkpt lat="46.60621" lon="6.02444">
        <ele>1066.2</ele>
        <time>2021-11-25T08:22:57Z</time>
      </trkpt>
      <trkpt lat="46.60626" lon="6.02446">
        <ele>1066.1</ele>
        <time>2021-11-25T08:23:02Z</time>
      </trkpt>
      <trkpt lat="46.60631" lon="6.02445">
        <ele>1066</ele>
        <time>2021-11-25T08:23:07Z</time>
      </trkpt>
      <trkpt lat="46.60635" lon="6.02448">
        <ele>1066</ele>
        <time>2021-11-25T08:23:11Z</time>
      </trkpt>
      <trkpt lat="46.60639" lon="6.02451">
        <ele>1065.9</ele>
        <time>2021-11-25T08:23:15Z</time>
      </trkpt>
      <trkpt lat="46.60644" lon="6.02455">
        <ele>1065.5</ele>
        <time>2021-11-25T08:23:19Z</time>
      </trkpt>
      <trkpt lat="46.60648" lon="6.02459">
        <ele>1065.3</ele>
        <time>2021-11-25T08:23:23Z</time>
      </trkpt>
      <trkpt lat="46.60651" lon="6.02463">
        <ele>1065.2</ele>
        <time>2021-11-25T08:23:27Z</time>
      </trkpt>
      <trkpt lat="46.60655" lon="6.02469">
        <ele>1065.2</ele>
        <time>2021-11-25T08:23:32Z</time>
      </trkpt>
      <trkpt lat="46.60659" lon="6.02475">
        <ele>1065.4</ele>
        <time>2021-11-25T08:23:37Z</time>
      </trkpt>
      <trkpt lat="46.60662" lon="6.02481">
        <ele>1065.9</ele>
        <time>2021-11-25T08:23:42Z</time>
      </trkpt>
      <trkpt lat="46.60666" lon="6.02487">
        <ele>1066.1</ele>
        <time>2021-11-25T08:23:48Z</time>
      </trkpt>
      <trkpt lat="46.60669" lon="6.02492">
        <ele>1066.6</ele>
        <time>2021-11-25T08:23:53Z</time>
      </trkpt>
      <trkpt lat="46.60672" lon="6.02497">
        <ele>1067.4</ele>
        <time>2021-11-25T08:23:58Z</time>
      </trkpt>
      <trkpt lat="46.60677" lon="6.02501">
        <ele>1067.8</ele>
        <time>2021-11-25T08:24:02Z</time>
      </trkpt>
      <trkpt lat="46.60681" lon="6.02505">
        <ele>1068.1</ele>
        <time>2021-11-25T08:24:06Z</time>
      </trkpt>
      <trkpt lat="46.60685" lon="6.0251">
        <ele>1068.1</ele>
        <time>2021-11-25T08:24:11Z</time>
      </trkpt>
      <trkpt lat="46.6069" lon="6.02513">
        <ele>1068</ele>
        <time>2021-11-25T08:24:15Z</time>
      </trkpt>
      <trkpt lat="46.60694" lon="6.02517">
        <ele>1068.1</ele>
        <time>2021-11-25T08:24:20Z</time>
      </trkpt>
      <trkpt lat="46.60697" lon="6.02522">
        <ele>1068.2</ele>
        <time>2021-11-25T08:24:25Z</time>
      </trkpt>
      <trkpt lat="46.60701" lon="6.02528">
        <ele>1068.3</ele>
        <time>2021-11-25T08:24:30Z</time>
      </trkpt>
      <trkpt lat="46.60704" lon="6.02534">
        <ele>1067.8</ele>
        <time>2021-11-25T08:24:35Z</time>
      </trkpt>
      <trkpt lat="46.60707" lon="6.02539">
        <ele>1067.4</ele>
        <time>2021-11-25T08:24:39Z</time>
      </trkpt>
      <trkpt lat="46.60709" lon="6.02546">
        <ele>1067.4</ele>
        <time>2021-11-25T08:24:43Z</time>
      </trkpt>
      <trkpt lat="46.60712" lon="6.02551">
        <ele>1067.7</ele>
        <time>2021-11-25T08:24:47Z</time>
      </trkpt>
      <trkpt lat="46.60715" lon="6.02556">
        <ele>1068.3</ele>
        <time>2021-11-25T08:24:51Z</time>
      </trkpt>
      <trkpt lat="46.60719" lon="6.0256">
        <ele>1068.9</ele>
        <time>2021-11-25T08:24:55Z</time>
      </trkpt>
      <trkpt lat="46.60722" lon="6.02565">
        <ele>1069.2</ele>
        <time>2021-11-25T08:24:59Z</time>
      </trkpt>
      <trkpt lat="46.60726" lon="6.02572">
        <ele>1069.6</ele>
        <time>2021-11-25T08:25:04Z</time>
      </trkpt>
      <trkpt lat="46.60729" lon="6.02578">
        <ele>1069.4</ele>
        <time>2021-11-25T08:25:08Z</time>
      </trkpt>
      <trkpt lat="46.6073" lon="6.02584">
        <ele>1069.1</ele>
        <time>2021-11-25T08:25:13Z</time>
      </trkpt>
      <trkpt lat="46.60732" lon="6.02591">
        <ele>1068.9</ele>
        <time>2021-11-25T08:25:18Z</time>
      </trkpt>
      <trkpt lat="46.60736" lon="6.02596">
        <ele>1068.8</ele>
        <time>2021-11-25T08:25:23Z</time>
      </trkpt>
      <trkpt lat="46.6074" lon="6.02601">
        <ele>1069.5</ele>
        <time>2021-11-25T08:25:28Z</time>
      </trkpt>
      <trkpt lat="46.60742" lon="6.02607">
        <ele>1069.9</ele>
        <time>2021-11-25T08:25:32Z</time>
      </trkpt>
      <trkpt lat="46.60744" lon="6.02614">
        <ele>1070.3</ele>
        <time>2021-11-25T08:25:37Z</time>
      </trkpt>
      <trkpt lat="46.60748" lon="6.0262">
        <ele>1070.8</ele>
        <time>2021-11-25T08:25:42Z</time>
      </trkpt>
      <trkpt lat="46.60751" lon="6.02625">
        <ele>1071.2</ele>
        <time>2021-11-25T08:25:46Z</time>
      </trkpt>
      <trkpt lat="46.60755" lon="6.0263">
        <ele>1071.8</ele>
        <time>2021-11-25T08:25:51Z</time>
      </trkpt>
      <trkpt lat="46.60758" lon="6.02637">
        <ele>1072.7</ele>
        <time>2021-11-25T08:25:56Z</time>
      </trkpt>
      <trkpt lat="46.60761" lon="6.02641">
        <ele>1073.5</ele>
        <time>2021-11-25T08:26:00Z</time>
      </trkpt>
      <trkpt lat="46.60765" lon="6.02646">
        <ele>1074.7</ele>
        <time>2021-11-25T08:26:05Z</time>
      </trkpt>
      <trkpt lat="46.60769" lon="6.02651">
        <ele>1075.3</ele>
        <time>2021-11-25T08:26:09Z</time>
      </trkpt>
      <trkpt lat="46.60774" lon="6.02655">
        <ele>1075.9</ele>
        <time>2021-11-25T08:26:13Z</time>
      </trkpt>
      <trkpt lat="46.60779" lon="6.0266">
        <ele>1076.2</ele>
        <time>2021-11-25T08:26:17Z</time>
      </trkpt>
      <trkpt lat="46.6078" lon="6.02667">
        <ele>1076</ele>
        <time>2021-11-25T08:26:22Z</time>
      </trkpt>
      <trkpt lat="46.60783" lon="6.02673">
        <ele>1075.7</ele>
        <time>2021-11-25T08:26:27Z</time>
      </trkpt>
      <trkpt lat="46.60786" lon="6.02679">
        <ele>1075.5</ele>
        <time>2021-11-25T08:26:32Z</time>
      </trkpt>
      <trkpt lat="46.60789" lon="6.02685">
        <ele>1075.3</ele>
        <time>2021-11-25T08:26:37Z</time>
      </trkpt>
      <trkpt lat="46.60792" lon="6.02689">
        <ele>1074.8</ele>
        <time>2021-11-25T08:26:42Z</time>
      </trkpt>
      <trkpt lat="46.60796" lon="6.02694">
        <ele>1074.4</ele>
        <time>2021-11-25T08:26:46Z</time>
      </trkpt>
      <trkpt lat="46.608" lon="6.02699">
        <ele>1073.9</ele>
        <time>2021-11-25T08:26:51Z</time>
      </trkpt>
      <trkpt lat="46.60803" lon="6.02705">
        <ele>1073.6</ele>
        <time>2021-11-25T08:26:56Z</time>
      </trkpt>
      <trkpt lat="46.60806" lon="6.0271">
        <ele>1073</ele>
        <time>2021-11-25T08:27:01Z</time>
      </trkpt>
      <trkpt lat="46.60811" lon="6.02714">
        <ele>1072.5</ele>
        <time>2021-11-25T08:27:06Z</time>
      </trkpt>
      <trkpt lat="46.60815" lon="6.02719">
        <ele>1071.8</ele>
        <time>2021-11-25T08:27:11Z</time>
      </trkpt>
      <trkpt lat="46.60818" lon="6.02724">
        <ele>1071.1</ele>
        <time>2021-11-25T08:27:17Z</time>
      </trkpt>
      <trkpt lat="46.60819" lon="6.02731">
        <ele>1070.3</ele>
        <time>2021-11-25T08:27:21Z</time>
      </trkpt>
      <trkpt lat="46.60822" lon="6.02737">
        <ele>1069.8</ele>
        <time>2021-11-25T08:27:25Z</time>
      </trkpt>
      <trkpt lat="46.60826" lon="6.02741">
        <ele>1069.8</ele>
        <time>2021-11-25T08:27:29Z</time>
      </trkpt>
      <trkpt lat="46.6083" lon="6.02744">
        <ele>1070.1</ele>
        <time>2021-11-25T08:27:33Z</time>
      </trkpt>
      <trkpt lat="46.60833" lon="6.02748">
        <ele>1070.4</ele>
        <time>2021-11-25T08:27:38Z</time>
      </trkpt>
      <trkpt lat="46.60836" lon="6.02754">
        <ele>1070.8</ele>
        <time>2021-11-25T08:27:43Z</time>
      </trkpt>
      <trkpt lat="46.60839" lon="6.02759">
        <ele>1071.6</ele>
        <time>2021-11-25T08:27:47Z</time>
      </trkpt>
      <trkpt lat="46.60843" lon="6.02765">
        <ele>1072.5</ele>
        <time>2021-11-25T08:27:52Z</time>
      </trkpt>
      <trkpt lat="46.60847" lon="6.0277">
        <ele>1073.2</ele>
        <time>2021-11-25T08:27:58Z</time>
      </trkpt>
      <trkpt lat="46.60851" lon="6.02773">
        <ele>1073.5</ele>
        <time>2021-11-25T08:28:02Z</time>
      </trkpt>
      <trkpt lat="46.60856" lon="6.02776">
        <ele>1074</ele>
        <time>2021-11-25T08:28:06Z</time>
      </trkpt>
      <trkpt lat="46.60859" lon="6.02781">
        <ele>1074.4</ele>
        <time>2021-11-25T08:28:10Z</time>
      </trkpt>
      <trkpt lat="46.60862" lon="6.02788">
        <ele>1074.5</ele>
        <time>2021-11-25T08:28:15Z</time>
      </trkpt>
      <trkpt lat="46.60866" lon="6.02792">
        <ele>1074.2</ele>
        <time>2021-11-25T08:28:20Z</time>
      </trkpt>
      <trkpt lat="46.6087" lon="6.02799">
        <ele>1074.3</ele>
        <time>2021-11-25T08:28:25Z</time>
      </trkpt>
      <trkpt lat="46.60873" lon="6.02804">
        <ele>1074.2</ele>
        <time>2021-11-25T08:28:29Z</time>
      </trkpt>
      <trkpt lat="46.60877" lon="6.02809">
        <ele>1074</ele>
        <time>2021-11-25T08:28:34Z</time>
      </trkpt>
      <trkpt lat="46.6088" lon="6.02815">
        <ele>1073.5</ele>
        <time>2021-11-25T08:28:39Z</time>
      </trkpt>
      <trkpt lat="46.60884" lon="6.02819">
        <ele>1072.8</ele>
        <time>2021-11-25T08:28:43Z</time>
      </trkpt>
      <trkpt lat="46.60887" lon="6.02825">
        <ele>1072.1</ele>
        <time>2021-11-25T08:28:48Z</time>
      </trkpt>
      <trkpt lat="46.6089" lon="6.0283">
        <ele>1071.9</ele>
        <time>2021-11-25T08:28:53Z</time>
      </trkpt>
      <trkpt lat="46.60894" lon="6.02834">
        <ele>1072.1</ele>
        <time>2021-11-25T08:28:57Z</time>
      </trkpt>
      <trkpt lat="46.60897" lon="6.0284">
        <ele>1072.7</ele>
        <time>2021-11-25T08:29:02Z</time>
      </trkpt>
      <trkpt lat="46.609" lon="6.02846">
        <ele>1073.5</ele>
        <time>2021-11-25T08:29:08Z</time>
      </trkpt>
      <trkpt lat="46.60904" lon="6.0285">
        <ele>1074.5</ele>
        <time>2021-11-25T08:29:13Z</time>
      </trkpt>
      <trkpt lat="46.60908" lon="6.02856">
        <ele>1075.2</ele>
        <time>2021-11-25T08:29:18Z</time>
      </trkpt>
      <trkpt lat="46.60911" lon="6.0286">
        <ele>1075.7</ele>
        <time>2021-11-25T08:29:22Z</time>
      </trkpt>
      <trkpt lat="46.60914" lon="6.02867">
        <ele>1075.8</ele>
        <time>2021-11-25T08:29:26Z</time>
      </trkpt>
      <trkpt lat="46.60918" lon="6.02872">
        <ele>1076.2</ele>
        <time>2021-11-25T08:29:31Z</time>
      </trkpt>
      <trkpt lat="46.60922" lon="6.02877">
        <ele>1076.8</ele>
        <time>2021-11-25T08:29:35Z</time>
      </trkpt>
      <trkpt lat="46.60926" lon="6.02881">
        <ele>1077.1</ele>
        <time>2021-11-25T08:29:40Z</time>
      </trkpt>
      <trkpt lat="46.60928" lon="6.02888">
        <ele>1076.9</ele>
        <time>2021-11-25T08:29:46Z</time>
      </trkpt>
      <trkpt lat="46.60932" lon="6.02893">
        <ele>1075.8</ele>
        <time>2021-11-25T08:29:52Z</time>
      </trkpt>
      <trkpt lat="46.60934" lon="6.02899">
        <ele>1074.7</ele>
        <time>2021-11-25T08:29:56Z</time>
      </trkpt>
      <trkpt lat="46.60938" lon="6.02902">
        <ele>1073.4</ele>
        <time>2021-11-25T08:30:00Z</time>
      </trkpt>
      <trkpt lat="46.60944" lon="6.02903">
        <ele>1072.3</ele>
        <time>2021-11-25T08:30:04Z</time>
      </trkpt>
      <trkpt lat="46.6095" lon="6.02902">
        <ele>1071.7</ele>
        <time>2021-11-25T08:30:09Z</time>
      </trkpt>
      <trkpt lat="46.60956" lon="6.02901">
        <ele>1071.3</ele>
        <time>2021-11-25T08:30:14Z</time>
      </trkpt>
      <trkpt lat="46.6096" lon="6.02902">
        <ele>1070.9</ele>
        <time>2021-11-25T08:30:18Z</time>
      </trkpt>
      <trkpt lat="46.60964" lon="6.02906">
        <ele>1070.5</ele>
        <time>2021-11-25T08:30:22Z</time>
      </trkpt>
      <trkpt lat="46.60968" lon="6.02911">
        <ele>1070.2</ele>
        <time>2021-11-25T08:30:27Z</time>
      </trkpt>
      <trkpt lat="46.60972" lon="6.02916">
        <ele>1069.6</ele>
        <time>2021-11-25T08:30:32Z</time>
      </trkpt>
      <trkpt lat="46.60974" lon="6.02922">
        <ele>1069</ele>
        <time>2021-11-25T08:30:36Z</time>
      </trkpt>
      <trkpt lat="46.60975" lon="6.02929">
        <ele>1068.8</ele>
        <time>2021-11-25T08:30:40Z</time>
      </trkpt>
      <trkpt lat="46.60976" lon="6.02936">
        <ele>1068.8</ele>
        <time>2021-11-25T08:30:44Z</time>
      </trkpt>
      <trkpt lat="46.60975" lon="6.02943">
        <ele>1068.6</ele>
        <time>2021-11-25T08:30:48Z</time>
      </trkpt>
      <trkpt lat="46.60977" lon="6.0295">
        <ele>1068.6</ele>
        <time>2021-11-25T08:30:53Z</time>
      </trkpt>
      <trkpt lat="46.60979" lon="6.02957">
        <ele>1068.4</ele>
        <time>2021-11-25T08:30:57Z</time>
      </trkpt>
      <trkpt lat="46.60978" lon="6.02964">
        <ele>1068.6</ele>
        <time>2021-11-25T08:31:02Z</time>
      </trkpt>
      <trkpt lat="46.60977" lon="6.0297">
        <ele>1068.7</ele>
        <time>2021-11-25T08:31:07Z</time>
      </trkpt>
      <trkpt lat="46.60975" lon="6.02978">
        <ele>1068.3</ele>
        <time>2021-11-25T08:31:12Z</time>
      </trkpt>
      <trkpt lat="46.60975" lon="6.02985">
        <ele>1068.3</ele>
        <time>2021-11-25T08:31:17Z</time>
      </trkpt>
      <trkpt lat="46.60976" lon="6.02991">
        <ele>1067.7</ele>
        <time>2021-11-25T08:31:22Z</time>
      </trkpt>
      <trkpt lat="46.60975" lon="6.02998">
        <ele>1067.4</ele>
        <time>2021-11-25T08:31:28Z</time>
      </trkpt>
      <trkpt lat="46.60974" lon="6.03005">
        <ele>1067.5</ele>
        <time>2021-11-25T08:31:32Z</time>
      </trkpt>
      <trkpt lat="46.60974" lon="6.03013">
        <ele>1067.6</ele>
        <time>2021-11-25T08:31:36Z</time>
      </trkpt>
      <trkpt lat="46.60974" lon="6.0302">
        <ele>1068</ele>
        <time>2021-11-25T08:31:40Z</time>
      </trkpt>
      <trkpt lat="46.60977" lon="6.03028">
        <ele>1068.9</ele>
        <time>2021-11-25T08:31:44Z</time>
      </trkpt>
      <trkpt lat="46.60981" lon="6.03033">
        <ele>1069.7</ele>
        <time>2021-11-25T08:31:48Z</time>
      </trkpt>
      <trkpt lat="46.60985" lon="6.03039">
        <ele>1070.5</ele>
        <time>2021-11-25T08:31:53Z</time>
      </trkpt>
      <trkpt lat="46.60986" lon="6.03046">
        <ele>1071.1</ele>
        <time>2021-11-25T08:31:58Z</time>
      </trkpt>
      <trkpt lat="46.60988" lon="6.03053">
        <ele>1071.2</ele>
        <time>2021-11-25T08:32:02Z</time>
      </trkpt>
      <trkpt lat="46.60989" lon="6.0306">
        <ele>1071.2</ele>
        <time>2021-11-25T08:32:07Z</time>
      </trkpt>
      <trkpt lat="46.60989" lon="6.03067">
        <ele>1071.2</ele>
        <time>2021-11-25T08:32:11Z</time>
      </trkpt>
      <trkpt lat="46.60989" lon="6.03074">
        <ele>1071.5</ele>
        <time>2021-11-25T08:32:16Z</time>
      </trkpt>
      <trkpt lat="46.60992" lon="6.0308">
        <ele>1072.8</ele>
        <time>2021-11-25T08:32:22Z</time>
      </trkpt>
      <trkpt lat="46.60995" lon="6.03087">
        <ele>1073.4</ele>
        <time>2021-11-25T08:32:27Z</time>
      </trkpt>
      <trkpt lat="46.60997" lon="6.03092">
        <ele>1073.6</ele>
        <time>2021-11-25T08:32:31Z</time>
      </trkpt>
      <trkpt lat="46.60999" lon="6.03099">
        <ele>1073.8</ele>
        <time>2021-11-25T08:32:35Z</time>
      </trkpt>
      <trkpt lat="46.61001" lon="6.03106">
        <ele>1074</ele>
        <time>2021-11-25T08:32:39Z</time>
      </trkpt>
      <trkpt lat="46.61003" lon="6.03112">
        <ele>1074.9</ele>
        <time>2021-11-25T08:32:51Z</time>
      </trkpt>
      <trkpt lat="46.61003" lon="6.03119">
        <ele>1074.6</ele>
        <time>2021-11-25T08:32:59Z</time>
      </trkpt>
      <trkpt lat="46.61001" lon="6.03126">
        <ele>1074</ele>
        <time>2021-11-25T08:33:06Z</time>
      </trkpt>
      <trkpt lat="46.61002" lon="6.03133">
        <ele>1073.6</ele>
        <time>2021-11-25T08:33:16Z</time>
      </trkpt>
      <trkpt lat="46.61003" lon="6.0314">
        <ele>1073.4</ele>
        <time>2021-11-25T08:33:24Z</time>
      </trkpt>
      <trkpt lat="46.61002" lon="6.03146">
        <ele>1073.3</ele>
        <time>2021-11-25T08:33:30Z</time>
      </trkpt>
      <trkpt lat="46.61002" lon="6.03154">
        <ele>1073.3</ele>
        <time>2021-11-25T08:33:36Z</time>
      </trkpt>
      <trkpt lat="46.61002" lon="6.0316">
        <ele>1073.4</ele>
        <time>2021-11-25T08:33:43Z</time>
      </trkpt>
      <trkpt lat="46.60998" lon="6.03167">
        <ele>1073.6</ele>
        <time>2021-11-25T08:33:48Z</time>
      </trkpt>
      <trkpt lat="46.60997" lon="6.03174">
        <ele>1073.2</ele>
        <time>2021-11-25T08:33:53Z</time>
      </trkpt>
      <trkpt lat="46.60997" lon="6.03182">
        <ele>1072.8</ele>
        <time>2021-11-25T08:33:58Z</time>
      </trkpt>
      <trkpt lat="46.60998" lon="6.03189">
        <ele>1072.5</ele>
        <time>2021-11-25T08:34:02Z</time>
      </trkpt>
      <trkpt lat="46.60999" lon="6.03196">
        <ele>1073.1</ele>
        <time>2021-11-25T08:34:07Z</time>
      </trkpt>
      <trkpt lat="46.60999" lon="6.03203">
        <ele>1073.3</ele>
        <time>2021-11-25T08:34:12Z</time>
      </trkpt>
      <trkpt lat="46.60998" lon="6.0321">
        <ele>1072.8</ele>
        <time>2021-11-25T08:34:17Z</time>
      </trkpt>
      <trkpt lat="46.60996" lon="6.03217">
        <ele>1072.2</ele>
        <time>2021-11-25T08:34:22Z</time>
      </trkpt>
      <trkpt lat="46.60995" lon="6.03223">
        <ele>1071.8</ele>
        <time>2021-11-25T08:34:26Z</time>
      </trkpt>
      <trkpt lat="46.60995" lon="6.0323">
        <ele>1071.3</ele>
        <time>2021-11-25T08:34:31Z</time>
      </trkpt>
      <trkpt lat="46.60996" lon="6.03237">
        <ele>1070.5</ele>
        <time>2021-11-25T08:34:37Z</time>
      </trkpt>
      <trkpt lat="46.60995" lon="6.03244">
        <ele>1070</ele>
        <time>2021-11-25T08:34:42Z</time>
      </trkpt>
      <trkpt lat="46.60994" lon="6.03252">
        <ele>1069.3</ele>
        <time>2021-11-25T08:34:47Z</time>
      </trkpt>
      <trkpt lat="46.60994" lon="6.03259">
        <ele>1068.5</ele>
        <time>2021-11-25T08:34:53Z</time>
      </trkpt>
      <trkpt lat="46.60996" lon="6.03265">
        <ele>1067.8</ele>
        <time>2021-11-25T08:34:59Z</time>
      </trkpt>
      <trkpt lat="46.60996" lon="6.03272">
        <ele>1067.3</ele>
        <time>2021-11-25T08:35:04Z</time>
      </trkpt>
      <trkpt lat="46.60997" lon="6.03279">
        <ele>1066.5</ele>
        <time>2021-11-25T08:35:10Z</time>
      </trkpt>
      <trkpt lat="46.61" lon="6.03284">
        <ele>1066.1</ele>
        <time>2021-11-25T08:35:15Z</time>
      </trkpt>
      <trkpt lat="46.61" lon="6.03292">
        <ele>1065.6</ele>
        <time>2021-11-25T08:35:21Z</time>
      </trkpt>
      <trkpt lat="46.61002" lon="6.03299">
        <ele>1065.2</ele>
        <time>2021-11-25T08:35:26Z</time>
      </trkpt>
      <trkpt lat="46.61001" lon="6.03307">
        <ele>1065.2</ele>
        <time>2021-11-25T08:35:30Z</time>
      </trkpt>
      <trkpt lat="46.61" lon="6.03315">
        <ele>1064.8</ele>
        <time>2021-11-25T08:35:34Z</time>
      </trkpt>
      <trkpt lat="46.61" lon="6.03322">
        <ele>1064.2</ele>
        <time>2021-11-25T08:35:39Z</time>
      </trkpt>
      <trkpt lat="46.61" lon="6.03329">
        <ele>1063.3</ele>
        <time>2021-11-25T08:35:44Z</time>
      </trkpt>
      <trkpt lat="46.60999" lon="6.03337">
        <ele>1061.9</ele>
        <time>2021-11-25T08:35:49Z</time>
      </trkpt>
      <trkpt lat="46.61" lon="6.03344">
        <ele>1061</ele>
        <time>2021-11-25T08:35:53Z</time>
      </trkpt>
      <trkpt lat="46.61001" lon="6.03351">
        <ele>1060.2</ele>
        <time>2021-11-25T08:35:57Z</time>
      </trkpt>
      <trkpt lat="46.61" lon="6.03359">
        <ele>1059.2</ele>
        <time>2021-11-25T08:36:02Z</time>
      </trkpt>
      <trkpt lat="46.60999" lon="6.03366">
        <ele>1058.1</ele>
        <time>2021-11-25T08:36:07Z</time>
      </trkpt>
      <trkpt lat="46.60999" lon="6.03373">
        <ele>1057.1</ele>
        <time>2021-11-25T08:36:11Z</time>
      </trkpt>
      <trkpt lat="46.61" lon="6.03381">
        <ele>1055.7</ele>
        <time>2021-11-25T08:36:17Z</time>
      </trkpt>
      <trkpt lat="46.61" lon="6.03388">
        <ele>1054.4</ele>
        <time>2021-11-25T08:36:23Z</time>
      </trkpt>
      <trkpt lat="46.61" lon="6.03395">
        <ele>1053.4</ele>
        <time>2021-11-25T08:36:29Z</time>
      </trkpt>
      <trkpt lat="46.60997" lon="6.03402">
        <ele>1053.1</ele>
        <time>2021-11-25T08:36:36Z</time>
      </trkpt>
      <trkpt lat="46.60995" lon="6.03408">
        <ele>1053.2</ele>
        <time>2021-11-25T08:36:40Z</time>
      </trkpt>
      <trkpt lat="46.60993" lon="6.03414">
        <ele>1053.5</ele>
        <time>2021-11-25T08:36:45Z</time>
      </trkpt>
      <trkpt lat="46.60991" lon="6.03422">
        <ele>1054.1</ele>
        <time>2021-11-25T08:36:51Z</time>
      </trkpt>
      <trkpt lat="46.60989" lon="6.03428">
        <ele>1054.6</ele>
        <time>2021-11-25T08:36:55Z</time>
      </trkpt>
      <trkpt lat="46.60986" lon="6.03434">
        <ele>1055.4</ele>
        <time>2021-11-25T08:37:00Z</time>
      </trkpt>
      <trkpt lat="46.60985" lon="6.03441">
        <ele>1056.6</ele>
        <time>2021-11-25T08:37:06Z</time>
      </trkpt>
      <trkpt lat="46.60986" lon="6.03448">
        <ele>1057.6</ele>
        <time>2021-11-25T08:37:11Z</time>
      </trkpt>
      <trkpt lat="46.60985" lon="6.03455">
        <ele>1058.3</ele>
        <time>2021-11-25T08:37:15Z</time>
      </trkpt>
      <trkpt lat="46.60982" lon="6.03461">
        <ele>1059.1</ele>
        <time>2021-11-25T08:37:19Z</time>
      </trkpt>
      <trkpt lat="46.60977" lon="6.03464">
        <ele>1059.6</ele>
        <time>2021-11-25T08:37:23Z</time>
      </trkpt>
      <trkpt lat="46.60973" lon="6.03468">
        <ele>1060.7</ele>
        <time>2021-11-25T08:37:28Z</time>
      </trkpt>
      <trkpt lat="46.60969" lon="6.03473">
        <ele>1061.4</ele>
        <time>2021-11-25T08:37:34Z</time>
      </trkpt>
      <trkpt lat="46.60966" lon="6.03479">
        <ele>1062.3</ele>
        <time>2021-11-25T08:37:41Z</time>
      </trkpt>
      <trkpt lat="46.60963" lon="6.03483">
        <ele>1063.5</ele>
        <time>2021-11-25T08:37:49Z</time>
      </trkpt>
      <trkpt lat="46.60958" lon="6.03485">
        <ele>1063.6</ele>
        <time>2021-11-25T08:37:53Z</time>
      </trkpt>
      <trkpt lat="46.60953" lon="6.03489">
        <ele>1063.4</ele>
        <time>2021-11-25T08:37:58Z</time>
      </trkpt>
      <trkpt lat="46.60949" lon="6.03494">
        <ele>1063.6</ele>
        <time>2021-11-25T08:38:03Z</time>
      </trkpt>
      <trkpt lat="46.60947" lon="6.03499">
        <ele>1064.5</ele>
        <time>2021-11-25T08:38:10Z</time>
      </trkpt>
      <trkpt lat="46.60945" lon="6.03505">
        <ele>1065.1</ele>
        <time>2021-11-25T08:38:18Z</time>
      </trkpt>
      <trkpt lat="46.60941" lon="6.0351">
        <ele>1065.4</ele>
        <time>2021-11-25T08:38:23Z</time>
      </trkpt>
      <trkpt lat="46.60938" lon="6.03516">
        <ele>1065.6</ele>
        <time>2021-11-25T08:38:29Z</time>
      </trkpt>
      <trkpt lat="46.60934" lon="6.03521">
        <ele>1065.3</ele>
        <time>2021-11-25T08:38:33Z</time>
      </trkpt>
      <trkpt lat="46.60929" lon="6.03525">
        <ele>1064.9</ele>
        <time>2021-11-25T08:38:37Z</time>
      </trkpt>
      <trkpt lat="46.60924" lon="6.03529">
        <ele>1064.3</ele>
        <time>2021-11-25T08:38:41Z</time>
      </trkpt>
      <trkpt lat="46.6092" lon="6.03533">
        <ele>1063.5</ele>
        <time>2021-11-25T08:38:45Z</time>
      </trkpt>
      <trkpt lat="46.60916" lon="6.03538">
        <ele>1062.8</ele>
        <time>2021-11-25T08:38:50Z</time>
      </trkpt>
      <trkpt lat="46.60913" lon="6.03544">
        <ele>1062.1</ele>
        <time>2021-11-25T08:38:57Z</time>
      </trkpt>
      <trkpt lat="46.6091" lon="6.0355">
        <ele>1061.7</ele>
        <time>2021-11-25T08:39:03Z</time>
      </trkpt>
      <trkpt lat="46.60906" lon="6.03555">
        <ele>1061.7</ele>
        <time>2021-11-25T08:39:09Z</time>
      </trkpt>
      <trkpt lat="46.60902" lon="6.0356">
        <ele>1061.9</ele>
        <time>2021-11-25T08:39:13Z</time>
      </trkpt>
      <trkpt lat="46.60899" lon="6.03564">
        <ele>1062</ele>
        <time>2021-11-25T08:39:17Z</time>
      </trkpt>
      <trkpt lat="46.60895" lon="6.03568">
        <ele>1062.1</ele>
        <time>2021-11-25T08:39:21Z</time>
      </trkpt>
      <trkpt lat="46.6089" lon="6.03571">
        <ele>1061.7</ele>
        <time>2021-11-25T08:39:27Z</time>
      </trkpt>
      <trkpt lat="46.60886" lon="6.03575">
        <ele>1061</ele>
        <time>2021-11-25T08:39:32Z</time>
      </trkpt>
      <trkpt lat="46.60881" lon="6.03578">
        <ele>1060.5</ele>
        <time>2021-11-25T08:39:37Z</time>
      </trkpt>
      <trkpt lat="46.60876" lon="6.03582">
        <ele>1060.1</ele>
        <time>2021-11-25T08:39:42Z</time>
      </trkpt>
      <trkpt lat="46.60872" lon="6.03586">
        <ele>1059.8</ele>
        <time>2021-11-25T08:39:48Z</time>
      </trkpt>
      <trkpt lat="46.60868" lon="6.03591">
        <ele>1059.5</ele>
        <time>2021-11-25T08:39:53Z</time>
      </trkpt>
      <trkpt lat="46.60864" lon="6.03596">
        <ele>1059.3</ele>
        <time>2021-11-25T08:39:57Z</time>
      </trkpt>
      <trkpt lat="46.60861" lon="6.03602">
        <ele>1059.1</ele>
        <time>2021-11-25T08:40:01Z</time>
      </trkpt>
      <trkpt lat="46.60859" lon="6.03608">
        <ele>1058.8</ele>
        <time>2021-11-25T08:40:05Z</time>
      </trkpt>
      <trkpt lat="46.60858" lon="6.03615">
        <ele>1058.4</ele>
        <time>2021-11-25T08:40:09Z</time>
      </trkpt>
      <trkpt lat="46.60859" lon="6.03621">
        <ele>1058.4</ele>
        <time>2021-11-25T08:40:13Z</time>
      </trkpt>
      <trkpt lat="46.6086" lon="6.03628">
        <ele>1058.7</ele>
        <time>2021-11-25T08:40:18Z</time>
      </trkpt>
      <trkpt lat="46.60859" lon="6.03635">
        <ele>1059.3</ele>
        <time>2021-11-25T08:40:23Z</time>
      </trkpt>
      <trkpt lat="46.60859" lon="6.03643">
        <ele>1059.8</ele>
        <time>2021-11-25T08:40:28Z</time>
      </trkpt>
      <trkpt lat="46.60858" lon="6.03651">
        <ele>1060.1</ele>
        <time>2021-11-25T08:40:33Z</time>
      </trkpt>
      <trkpt lat="46.60857" lon="6.03659">
        <ele>1060.4</ele>
        <time>2021-11-25T08:40:38Z</time>
      </trkpt>
      <trkpt lat="46.60856" lon="6.03666">
        <ele>1060.5</ele>
        <time>2021-11-25T08:40:43Z</time>
      </trkpt>
      <trkpt lat="46.60855" lon="6.03673">
        <ele>1060.6</ele>
        <time>2021-11-25T08:40:48Z</time>
      </trkpt>
      <trkpt lat="46.60852" lon="6.0368">
        <ele>1060.3</ele>
        <time>2021-11-25T08:40:53Z</time>
      </trkpt>
      <trkpt lat="46.60849" lon="6.03686">
        <ele>1060.3</ele>
        <time>2021-11-25T08:40:58Z</time>
      </trkpt>
      <trkpt lat="46.60847" lon="6.03694">
        <ele>1059.9</ele>
        <time>2021-11-25T08:41:04Z</time>
      </trkpt>
      <trkpt lat="46.60845" lon="6.037">
        <ele>1059.5</ele>
        <time>2021-11-25T08:41:11Z</time>
      </trkpt>
      <trkpt lat="46.60843" lon="6.03708">
        <ele>1059.2</ele>
        <time>2021-11-25T08:41:16Z</time>
      </trkpt>
      <trkpt lat="46.60842" lon="6.03715">
        <ele>1059.2</ele>
        <time>2021-11-25T08:41:20Z</time>
      </trkpt>
      <trkpt lat="46.60839" lon="6.03722">
        <ele>1059.2</ele>
        <time>2021-11-25T08:41:24Z</time>
      </trkpt>
      <trkpt lat="46.60837" lon="6.03728">
        <ele>1059.5</ele>
        <time>2021-11-25T08:41:28Z</time>
      </trkpt>
      <trkpt lat="46.60834" lon="6.03733">
        <ele>1060</ele>
        <time>2021-11-25T08:41:32Z</time>
      </trkpt>
      <trkpt lat="46.60829" lon="6.03739">
        <ele>1060.6</ele>
        <time>2021-11-25T08:41:36Z</time>
      </trkpt>
      <trkpt lat="46.60825" lon="6.03743">
        <ele>1061.3</ele>
        <time>2021-11-25T08:41:39Z</time>
      </trkpt>
      <trkpt lat="46.60821" lon="6.03747">
        <ele>1062.5</ele>
        <time>2021-11-25T08:41:42Z</time>
      </trkpt>
      <trkpt lat="46.60817" lon="6.03752">
        <ele>1064.1</ele>
        <time>2021-11-25T08:41:46Z</time>
      </trkpt>
      <trkpt lat="46.60813" lon="6.03756">
        <ele>1065.7</ele>
        <time>2021-11-25T08:41:51Z</time>
      </trkpt>
      <trkpt lat="46.60811" lon="6.03763">
        <ele>1067.3</ele>
        <time>2021-11-25T08:41:57Z</time>
      </trkpt>
      <trkpt lat="46.60808" lon="6.03768">
        <ele>1068.3</ele>
        <time>2021-11-25T08:42:02Z</time>
      </trkpt>
      <trkpt lat="46.60804" lon="6.03773">
        <ele>1069</ele>
        <time>2021-11-25T08:42:06Z</time>
      </trkpt>
      <trkpt lat="46.608" lon="6.03778">
        <ele>1069.5</ele>
        <time>2021-11-25T08:42:10Z</time>
      </trkpt>
      <trkpt lat="46.60797" lon="6.03783">
        <ele>1069.9</ele>
        <time>2021-11-25T08:42:15Z</time>
      </trkpt>
      <trkpt lat="46.60796" lon="6.0379">
        <ele>1070.2</ele>
        <time>2021-11-25T08:42:23Z</time>
      </trkpt>
      <trkpt lat="46.60795" lon="6.03797">
        <ele>1070.6</ele>
        <time>2021-11-25T08:42:28Z</time>
      </trkpt>
      <trkpt lat="46.60796" lon="6.03805">
        <ele>1071.2</ele>
        <time>2021-11-25T08:42:32Z</time>
      </trkpt>
      <trkpt lat="46.60794" lon="6.03813">
        <ele>1071.6</ele>
        <time>2021-11-25T08:42:37Z</time>
      </trkpt>
      <trkpt lat="46.6079" lon="6.03817">
        <ele>1071.8</ele>
        <time>2021-11-25T08:42:42Z</time>
      </trkpt>
      <trkpt lat="46.60785" lon="6.03821">
        <ele>1071.7</ele>
        <time>2021-11-25T08:42:47Z</time>
      </trkpt>
      <trkpt lat="46.60782" lon="6.03826">
        <ele>1071.2</ele>
        <time>2021-11-25T08:42:53Z</time>
      </trkpt>
      <trkpt lat="46.60778" lon="6.03829">
        <ele>1071.6</ele>
        <time>2021-11-25T08:42:59Z</time>
      </trkpt>
      <trkpt lat="46.60773" lon="6.03833">
        <ele>1072.6</ele>
        <time>2021-11-25T08:43:03Z</time>
      </trkpt>
      <trkpt lat="46.60769" lon="6.03838">
        <ele>1073.6</ele>
        <time>2021-11-25T08:43:07Z</time>
      </trkpt>
      <trkpt lat="46.60765" lon="6.03842">
        <ele>1074.6</ele>
        <time>2021-11-25T08:43:10Z</time>
      </trkpt>
      <trkpt lat="46.6076" lon="6.03845">
        <ele>1076.2</ele>
        <time>2021-11-25T08:43:14Z</time>
      </trkpt>
      <trkpt lat="46.60755" lon="6.03847">
        <ele>1077.4</ele>
        <time>2021-11-25T08:43:17Z</time>
      </trkpt>
      <trkpt lat="46.6075" lon="6.03851">
        <ele>1079</ele>
        <time>2021-11-25T08:43:21Z</time>
      </trkpt>
      <trkpt lat="46.60745" lon="6.03854">
        <ele>1080.5</ele>
        <time>2021-11-25T08:43:26Z</time>
      </trkpt>
      <trkpt lat="46.60741" lon="6.03858">
        <ele>1081.3</ele>
        <time>2021-11-25T08:43:33Z</time>
      </trkpt>
      <trkpt lat="46.60736" lon="6.03862">
        <ele>1082.1</ele>
        <time>2021-11-25T08:43:38Z</time>
      </trkpt>
      <trkpt lat="46.60733" lon="6.03866">
        <ele>1082.9</ele>
        <time>2021-11-25T08:43:43Z</time>
      </trkpt>
      <trkpt lat="46.60729" lon="6.03871">
        <ele>1083.6</ele>
        <time>2021-11-25T08:43:47Z</time>
      </trkpt>
      <trkpt lat="46.60725" lon="6.03873">
        <ele>1084.5</ele>
        <time>2021-11-25T08:43:54Z</time>
      </trkpt>
      <trkpt lat="46.60721" lon="6.03877">
        <ele>1085.1</ele>
        <time>2021-11-25T08:43:59Z</time>
      </trkpt>
      <trkpt lat="46.60717" lon="6.03882">
        <ele>1086</ele>
        <time>2021-11-25T08:44:04Z</time>
      </trkpt>
      <trkpt lat="46.60713" lon="6.03886">
        <ele>1086.6</ele>
        <time>2021-11-25T08:44:08Z</time>
      </trkpt>
      <trkpt lat="46.60709" lon="6.03889">
        <ele>1087</ele>
        <time>2021-11-25T08:44:11Z</time>
      </trkpt>
      <trkpt lat="46.60705" lon="6.03893">
        <ele>1087.1</ele>
        <time>2021-11-25T08:44:14Z</time>
      </trkpt>
      <trkpt lat="46.60701" lon="6.03897">
        <ele>1087.1</ele>
        <time>2021-11-25T08:44:18Z</time>
      </trkpt>
      <trkpt lat="46.60697" lon="6.03901">
        <ele>1086.8</ele>
        <time>2021-11-25T08:44:22Z</time>
      </trkpt>
      <trkpt lat="46.60695" lon="6.03907">
        <ele>1085.7</ele>
        <time>2021-11-25T08:44:27Z</time>
      </trkpt>
      <trkpt lat="46.60691" lon="6.03912">
        <ele>1084.2</ele>
        <time>2021-11-25T08:44:34Z</time>
      </trkpt>
      <trkpt lat="46.60688" lon="6.03917">
        <ele>1082.6</ele>
        <time>2021-11-25T08:44:40Z</time>
      </trkpt>
      <trkpt lat="46.60684" lon="6.03922">
        <ele>1081</ele>
        <time>2021-11-25T08:44:45Z</time>
      </trkpt>
      <trkpt lat="46.6068" lon="6.03925">
        <ele>1079.9</ele>
        <time>2021-11-25T08:44:50Z</time>
      </trkpt>
      <trkpt lat="46.60676" lon="6.0393">
        <ele>1079</ele>
        <time>2021-11-25T08:44:55Z</time>
      </trkpt>
      <trkpt lat="46.60673" lon="6.03935">
        <ele>1078.3</ele>
        <time>2021-11-25T08:45:00Z</time>
      </trkpt>
      <trkpt lat="46.60671" lon="6.03941">
        <ele>1077.5</ele>
        <time>2021-11-25T08:45:05Z</time>
      </trkpt>
      <trkpt lat="46.60667" lon="6.03946">
        <ele>1077</ele>
        <time>2021-11-25T08:45:10Z</time>
      </trkpt>
      <trkpt lat="46.60662" lon="6.0395">
        <ele>1076.6</ele>
        <time>2021-11-25T08:45:15Z</time>
      </trkpt>
      <trkpt lat="46.60658" lon="6.03953">
        <ele>1076.1</ele>
        <time>2021-11-25T08:45:20Z</time>
      </trkpt>
      <trkpt lat="46.60656" lon="6.03961">
        <ele>1075.2</ele>
        <time>2021-11-25T08:45:26Z</time>
      </trkpt>
      <trkpt lat="46.60654" lon="6.03966">
        <ele>1074.5</ele>
        <time>2021-11-25T08:45:31Z</time>
      </trkpt>
      <trkpt lat="46.60652" lon="6.03974">
        <ele>1073.9</ele>
        <time>2021-11-25T08:45:36Z</time>
      </trkpt>
      <trkpt lat="46.6065" lon="6.0398">
        <ele>1073.5</ele>
        <time>2021-11-25T08:45:40Z</time>
      </trkpt>
      <trkpt lat="46.60647" lon="6.03985">
        <ele>1073.4</ele>
        <time>2021-11-25T08:45:44Z</time>
      </trkpt>
      <trkpt lat="46.60642" lon="6.03989">
        <ele>1073</ele>
        <time>2021-11-25T08:45:50Z</time>
      </trkpt>
      <trkpt lat="46.60638" lon="6.03994">
        <ele>1072.2</ele>
        <time>2021-11-25T08:45:55Z</time>
      </trkpt>
      <trkpt lat="46.60635" lon="6.03997">
        <ele>1071.1</ele>
        <time>2021-11-25T08:45:59Z</time>
      </trkpt>
      <trkpt lat="46.60631" lon="6.04003">
        <ele>1070.4</ele>
        <time>2021-11-25T08:46:03Z</time>
      </trkpt>
      <trkpt lat="46.60627" lon="6.04008">
        <ele>1070</ele>
        <time>2021-11-25T08:46:07Z</time>
      </trkpt>
      <trkpt lat="46.60623" lon="6.04012">
        <ele>1069.4</ele>
        <time>2021-11-25T08:46:12Z</time>
      </trkpt>
      <trkpt lat="46.6062" lon="6.04018">
        <ele>1069.1</ele>
        <time>2021-11-25T08:46:17Z</time>
      </trkpt>
      <trkpt lat="46.60618" lon="6.04024">
        <ele>1068.3</ele>
        <time>2021-11-25T08:46:22Z</time>
      </trkpt>
      <trkpt lat="46.60616" lon="6.04031">
        <ele>1066.9</ele>
        <time>2021-11-25T08:46:28Z</time>
      </trkpt>
      <trkpt lat="46.60613" lon="6.04036">
        <ele>1065.7</ele>
        <time>2021-11-25T08:46:33Z</time>
      </trkpt>
      <trkpt lat="46.6061" lon="6.04042">
        <ele>1065</ele>
        <time>2021-11-25T08:46:36Z</time>
      </trkpt>
      <trkpt lat="46.60608" lon="6.04049">
        <ele>1064.1</ele>
        <time>2021-11-25T08:46:40Z</time>
      </trkpt>
      <trkpt lat="46.60608" lon="6.04056">
        <ele>1063.3</ele>
        <time>2021-11-25T08:46:45Z</time>
      </trkpt>
      <trkpt lat="46.60611" lon="6.04062">
        <ele>1062.3</ele>
        <time>2021-11-25T08:46:50Z</time>
      </trkpt>
      <trkpt lat="46.60616" lon="6.04065">
        <ele>1060.9</ele>
        <time>2021-11-25T08:46:55Z</time>
      </trkpt>
      <trkpt lat="46.6062" lon="6.04067">
        <ele>1059.9</ele>
        <time>2021-11-25T08:47:00Z</time>
      </trkpt>
      <trkpt lat="46.60626" lon="6.04071">
        <ele>1060.9</ele>
        <time>2021-11-25T08:47:03Z</time>
      </trkpt>
      <trkpt lat="46.60631" lon="6.04074">
        <ele>1061.2</ele>
        <time>2021-11-25T08:47:06Z</time>
      </trkpt>
      <trkpt lat="46.60635" lon="6.04077">
        <ele>1061.1</ele>
        <time>2021-11-25T08:47:10Z</time>
      </trkpt>
      <trkpt lat="46.60637" lon="6.04084">
        <ele>1060.1</ele>
        <time>2021-11-25T08:47:16Z</time>
      </trkpt>
      <trkpt lat="46.60641" lon="6.04089">
        <ele>1058.8</ele>
        <time>2021-11-25T08:47:21Z</time>
      </trkpt>
      <trkpt lat="46.60646" lon="6.04093">
        <ele>1058</ele>
        <time>2021-11-25T08:47:25Z</time>
      </trkpt>
      <trkpt lat="46.6065" lon="6.04096">
        <ele>1057.2</ele>
        <time>2021-11-25T08:47:29Z</time>
      </trkpt>
      <trkpt lat="46.60655" lon="6.04099">
        <ele>1056.3</ele>
        <time>2021-11-25T08:47:34Z</time>
      </trkpt>
      <trkpt lat="46.60661" lon="6.041">
        <ele>1055.3</ele>
        <time>2021-11-25T08:47:38Z</time>
      </trkpt>
      <trkpt lat="46.60665" lon="6.04101">
        <ele>1053.9</ele>
        <time>2021-11-25T08:47:43Z</time>
      </trkpt>
      <trkpt lat="46.60671" lon="6.04101">
        <ele>1054</ele>
        <time>2021-11-25T08:47:52Z</time>
      </trkpt>
      <trkpt lat="46.60676" lon="6.041">
        <ele>1056</ele>
        <time>2021-11-25T08:47:57Z</time>
      </trkpt>
      <trkpt lat="46.60681" lon="6.04098">
        <ele>1057.6</ele>
        <time>2021-11-25T08:48:03Z</time>
      </trkpt>
      <trkpt lat="46.60687" lon="6.04097">
        <ele>1059.3</ele>
        <time>2021-11-25T08:48:12Z</time>
      </trkpt>
      <trkpt lat="46.60691" lon="6.04095">
        <ele>1060</ele>
        <time>2021-11-25T08:48:16Z</time>
      </trkpt>
      <trkpt lat="46.60695" lon="6.04092">
        <ele>1061</ele>
        <time>2021-11-25T08:48:22Z</time>
      </trkpt>
      <trkpt lat="46.607" lon="6.04089">
        <ele>1063.3</ele>
        <time>2021-11-25T08:48:29Z</time>
      </trkpt>
      <trkpt lat="46.60705" lon="6.04087">
        <ele>1064.3</ele>
        <time>2021-11-25T08:48:34Z</time>
      </trkpt>
      <trkpt lat="46.60709" lon="6.04086">
        <ele>1065.1</ele>
        <time>2021-11-25T08:48:38Z</time>
      </trkpt>
      <trkpt lat="46.60714" lon="6.04083">
        <ele>1066.6</ele>
        <time>2021-11-25T08:48:44Z</time>
      </trkpt>
      <trkpt lat="46.60719" lon="6.04084">
        <ele>1067.5</ele>
        <time>2021-11-25T08:48:48Z</time>
      </trkpt>
      <trkpt lat="46.60724" lon="6.04087">
        <ele>1068.3</ele>
        <time>2021-11-25T08:48:52Z</time>
      </trkpt>
      <trkpt lat="46.60729" lon="6.04088">
        <ele>1069.1</ele>
        <time>2021-11-25T08:48:58Z</time>
      </trkpt>
      <trkpt lat="46.60733" lon="6.04091">
        <ele>1069.5</ele>
        <time>2021-11-25T08:49:05Z</time>
      </trkpt>
      <trkpt lat="46.60738" lon="6.04092">
        <ele>1069.8</ele>
        <time>2021-11-25T08:49:09Z</time>
      </trkpt>
      <trkpt lat="46.60744" lon="6.04091">
        <ele>1070</ele>
        <time>2021-11-25T08:49:14Z</time>
      </trkpt>
      <trkpt lat="46.60748" lon="6.04089">
        <ele>1070.7</ele>
        <time>2021-11-25T08:49:18Z</time>
      </trkpt>
      <trkpt lat="46.60752" lon="6.04085">
        <ele>1070.3</ele>
        <time>2021-11-25T08:49:26Z</time>
      </trkpt>
      <trkpt lat="46.60755" lon="6.0408">
        <ele>1069.6</ele>
        <time>2021-11-25T08:49:30Z</time>
      </trkpt>
      <trkpt lat="46.60759" lon="6.04074">
        <ele>1069.1</ele>
        <time>2021-11-25T08:49:34Z</time>
      </trkpt>
      <trkpt lat="46.60762" lon="6.0407">
        <ele>1068.6</ele>
        <time>2021-11-25T08:49:38Z</time>
      </trkpt>
      <trkpt lat="46.60766" lon="6.04065">
        <ele>1068.4</ele>
        <time>2021-11-25T08:49:44Z</time>
      </trkpt>
      <trkpt lat="46.60772" lon="6.04063">
        <ele>1068.7</ele>
        <time>2021-11-25T08:49:48Z</time>
      </trkpt>
      <trkpt lat="46.60777" lon="6.04063">
        <ele>1069.2</ele>
        <time>2021-11-25T08:49:52Z</time>
      </trkpt>
      <trkpt lat="46.60782" lon="6.04061">
        <ele>1069.5</ele>
        <time>2021-11-25T08:49:56Z</time>
      </trkpt>
      <trkpt lat="46.60787" lon="6.04059">
        <ele>1069.5</ele>
        <time>2021-11-25T08:50:02Z</time>
      </trkpt>
      <trkpt lat="46.60792" lon="6.04058">
        <ele>1070.2</ele>
        <time>2021-11-25T08:50:07Z</time>
      </trkpt>
      <trkpt lat="46.60797" lon="6.04056">
        <ele>1070.8</ele>
        <time>2021-11-25T08:50:13Z</time>
      </trkpt>
      <trkpt lat="46.60802" lon="6.04053">
        <ele>1071.2</ele>
        <time>2021-11-25T08:50:17Z</time>
      </trkpt>
      <trkpt lat="46.60807" lon="6.04053">
        <ele>1072.5</ele>
        <time>2021-11-25T08:50:22Z</time>
      </trkpt>
      <trkpt lat="46.60811" lon="6.04054">
        <ele>1073.7</ele>
        <time>2021-11-25T08:50:27Z</time>
      </trkpt>
      <trkpt lat="46.60816" lon="6.04056">
        <ele>1075</ele>
        <time>2021-11-25T08:50:32Z</time>
      </trkpt>
      <trkpt lat="46.60819" lon="6.04061">
        <ele>1076.5</ele>
        <time>2021-11-25T08:50:38Z</time>
      </trkpt>
      <trkpt lat="46.60822" lon="6.04067">
        <ele>1077.8</ele>
        <time>2021-11-25T08:50:44Z</time>
      </trkpt>
      <trkpt lat="46.60827" lon="6.04069">
        <ele>1078.7</ele>
        <time>2021-11-25T08:50:51Z</time>
      </trkpt>
      <trkpt lat="46.60832" lon="6.0407">
        <ele>1078.6</ele>
        <time>2021-11-25T08:50:57Z</time>
      </trkpt>
      <trkpt lat="46.60837" lon="6.04071">
        <ele>1078.4</ele>
        <time>2021-11-25T08:51:02Z</time>
      </trkpt>
      <trkpt lat="46.60842" lon="6.04072">
        <ele>1077.6</ele>
        <time>2021-11-25T08:51:10Z</time>
      </trkpt>
      <trkpt lat="46.60847" lon="6.04072">
        <ele>1075.3</ele>
        <time>2021-11-25T08:51:20Z</time>
      </trkpt>
      <trkpt lat="46.60851" lon="6.04071">
        <ele>1074.5</ele>
        <time>2021-11-25T08:51:25Z</time>
      </trkpt>
      <trkpt lat="46.60855" lon="6.04068">
        <ele>1073.4</ele>
        <time>2021-11-25T08:51:32Z</time>
      </trkpt>
      <trkpt lat="46.6086" lon="6.04066">
        <ele>1073</ele>
        <time>2021-11-25T08:51:36Z</time>
      </trkpt>
      <trkpt lat="46.60865" lon="6.04065">
        <ele>1072.7</ele>
        <time>2021-11-25T08:51:40Z</time>
      </trkpt>
      <trkpt lat="46.60869" lon="6.04064">
        <ele>1071.8</ele>
        <time>2021-11-25T08:51:45Z</time>
      </trkpt>
      <trkpt lat="46.60874" lon="6.0406">
        <ele>1071.2</ele>
        <time>2021-11-25T08:51:50Z</time>
      </trkpt>
      <trkpt lat="46.60878" lon="6.04057">
        <ele>1070.3</ele>
        <time>2021-11-25T08:51:57Z</time>
      </trkpt>
      <trkpt lat="46.60882" lon="6.04053">
        <ele>1069</ele>
        <time>2021-11-25T08:52:08Z</time>
      </trkpt>
      <trkpt lat="46.60887" lon="6.04052">
        <ele>1068.5</ele>
        <time>2021-11-25T08:52:15Z</time>
      </trkpt>
      <trkpt lat="46.60893" lon="6.04049">
        <ele>1067.3</ele>
        <time>2021-11-25T08:52:23Z</time>
      </trkpt>
      <trkpt lat="46.60898" lon="6.04047">
        <ele>1067</ele>
        <time>2021-11-25T08:52:27Z</time>
      </trkpt>
      <trkpt lat="46.60903" lon="6.04045">
        <ele>1066</ele>
        <time>2021-11-25T08:52:33Z</time>
      </trkpt>
      <trkpt lat="46.60908" lon="6.04045">
        <ele>1063.7</ele>
        <time>2021-11-25T08:52:43Z</time>
      </trkpt>
      <trkpt lat="46.60912" lon="6.04046">
        <ele>1063</ele>
        <time>2021-11-25T08:52:49Z</time>
      </trkpt>
      <trkpt lat="46.60917" lon="6.04045">
        <ele>1062.5</ele>
        <time>2021-11-25T08:52:58Z</time>
      </trkpt>
      <trkpt lat="46.60925" lon="6.04044">
        <ele>1062.3</ele>
        <time>2021-11-25T08:53:13Z</time>
      </trkpt>
      <trkpt lat="46.60931" lon="6.04045">
        <ele>1062.5</ele>
        <time>2021-11-25T08:53:16Z</time>
      </trkpt>
      <trkpt lat="46.60936" lon="6.04047">
        <ele>1063.3</ele>
        <time>2021-11-25T08:53:22Z</time>
      </trkpt>
      <trkpt lat="46.60941" lon="6.04048">
        <ele>1063.7</ele>
        <time>2021-11-25T08:53:27Z</time>
      </trkpt>
      <trkpt lat="46.60947" lon="6.04047">
        <ele>1063.4</ele>
        <time>2021-11-25T08:53:31Z</time>
      </trkpt>
      <trkpt lat="46.60952" lon="6.04044">
        <ele>1062.9</ele>
        <time>2021-11-25T08:53:35Z</time>
      </trkpt>
      <trkpt lat="46.60957" lon="6.04041">
        <ele>1063.2</ele>
        <time>2021-11-25T08:53:41Z</time>
      </trkpt>
      <trkpt lat="46.60961" lon="6.0404">
        <ele>1064</ele>
        <time>2021-11-25T08:53:50Z</time>
      </trkpt>
      <trkpt lat="46.60959" lon="6.04033">
        <ele>1064.2</ele>
        <time>2021-11-25T08:53:55Z</time>
      </trkpt>
      <trkpt lat="46.60957" lon="6.04026">
        <ele>1064</ele>
        <time>2021-11-25T08:53:59Z</time>
      </trkpt>
      <trkpt lat="46.60962" lon="6.04031">
        <ele>1061.4</ele>
        <time>2021-11-25T08:54:16Z</time>
      </trkpt>
      <trkpt lat="46.60966" lon="6.04037">
        <ele>1060.4</ele>
        <time>2021-11-25T08:54:19Z</time>
      </trkpt>
      <trkpt lat="46.60968" lon="6.04043">
        <ele>1059.2</ele>
        <time>2021-11-25T08:54:26Z</time>
      </trkpt>
      <trkpt lat="46.60972" lon="6.0405">
        <ele>1059</ele>
        <time>2021-11-25T08:54:30Z</time>
      </trkpt>
      <trkpt lat="46.60977" lon="6.04052">
        <ele>1059.1</ele>
        <time>2021-11-25T08:54:36Z</time>
      </trkpt>
      <trkpt lat="46.60982" lon="6.04054">
        <ele>1059.1</ele>
        <time>2021-11-25T08:54:43Z</time>
      </trkpt>
      <trkpt lat="46.60986" lon="6.04056">
        <ele>1059</ele>
        <time>2021-11-25T08:54:48Z</time>
      </trkpt>
      <trkpt lat="46.60991" lon="6.04059">
        <ele>1059.9</ele>
        <time>2021-11-25T08:54:57Z</time>
      </trkpt>
      <trkpt lat="46.60994" lon="6.04063">
        <ele>1060.3</ele>
        <time>2021-11-25T08:55:02Z</time>
      </trkpt>
      <trkpt lat="46.60999" lon="6.04067">
        <ele>1060.2</ele>
        <time>2021-11-25T08:55:06Z</time>
      </trkpt>
      <trkpt lat="46.61004" lon="6.04068">
        <ele>1060.1</ele>
        <time>2021-11-25T08:55:10Z</time>
      </trkpt>
      <trkpt lat="46.61009" lon="6.0407">
        <ele>1059.9</ele>
        <time>2021-11-25T08:55:16Z</time>
      </trkpt>
      <trkpt lat="46.61014" lon="6.04073">
        <ele>1060.7</ele>
        <time>2021-11-25T08:55:21Z</time>
      </trkpt>
      <trkpt lat="46.61018" lon="6.04076">
        <ele>1061.4</ele>
        <time>2021-11-25T08:55:26Z</time>
      </trkpt>
      <trkpt lat="46.61022" lon="6.04081">
        <ele>1062.1</ele>
        <time>2021-11-25T08:55:31Z</time>
      </trkpt>
      <trkpt lat="46.61027" lon="6.04084">
        <ele>1062.8</ele>
        <time>2021-11-25T08:55:35Z</time>
      </trkpt>
      <trkpt lat="46.61031" lon="6.04088">
        <ele>1063.6</ele>
        <time>2021-11-25T08:55:39Z</time>
      </trkpt>
      <trkpt lat="46.61034" lon="6.04094">
        <ele>1064.5</ele>
        <time>2021-11-25T08:55:44Z</time>
      </trkpt>
      <trkpt lat="46.61038" lon="6.041">
        <ele>1065</ele>
        <time>2021-11-25T08:55:49Z</time>
      </trkpt>
      <trkpt lat="46.61042" lon="6.04103">
        <ele>1065</ele>
        <time>2021-11-25T08:55:55Z</time>
      </trkpt>
      <trkpt lat="46.61047" lon="6.04104">
        <ele>1064.9</ele>
        <time>2021-11-25T08:56:03Z</time>
      </trkpt>
      <trkpt lat="46.61051" lon="6.04103">
        <ele>1065.5</ele>
        <time>2021-11-25T08:56:08Z</time>
      </trkpt>
      <trkpt lat="46.61056" lon="6.04104">
        <ele>1066.5</ele>
        <time>2021-11-25T08:56:12Z</time>
      </trkpt>
      <trkpt lat="46.61055" lon="6.04111">
        <ele>1068.4</ele>
        <time>2021-11-25T08:56:27Z</time>
      </trkpt>
      <trkpt lat="46.61058" lon="6.04116">
        <ele>1068.3</ele>
        <time>2021-11-25T08:57:00Z</time>
      </trkpt>
      <trkpt lat="46.61062" lon="6.04119">
        <ele>1068.1</ele>
        <time>2021-11-25T08:57:20Z</time>
      </trkpt>
      <trkpt lat="46.61058" lon="6.04116">
        <ele>1069.8</ele>
        <time>2021-11-25T08:57:33Z</time>
      </trkpt>
      <trkpt lat="46.61054" lon="6.04119">
        <ele>1070.7</ele>
        <time>2021-11-25T08:57:40Z</time>
      </trkpt>
      <trkpt lat="46.6105" lon="6.04122">
        <ele>1070.6</ele>
        <time>2021-11-25T08:57:50Z</time>
      </trkpt>
      <trkpt lat="46.61045" lon="6.04121">
        <ele>1069.6</ele>
        <time>2021-11-25T08:58:01Z</time>
      </trkpt>
      <trkpt lat="46.61042" lon="6.04126">
        <ele>1064.6</ele>
        <time>2021-11-25T08:58:33Z</time>
      </trkpt>
      <trkpt lat="46.61041" lon="6.04133">
        <ele>1066.5</ele>
        <time>2021-11-25T08:59:05Z</time>
      </trkpt>
      <trkpt lat="46.61039" lon="6.04138">
        <ele>1066.9</ele>
        <time>2021-11-25T08:59:11Z</time>
      </trkpt>
      <trkpt lat="46.61035" lon="6.04143">
        <ele>1066.6</ele>
        <time>2021-11-25T08:59:17Z</time>
      </trkpt>
      <trkpt lat="46.61033" lon="6.0415">
        <ele>1066.2</ele>
        <time>2021-11-25T08:59:21Z</time>
      </trkpt>
      <trkpt lat="46.61029" lon="6.04154">
        <ele>1064.5</ele>
        <time>2021-11-25T08:59:32Z</time>
      </trkpt>
      <trkpt lat="46.61025" lon="6.04158">
        <ele>1062.9</ele>
        <time>2021-11-25T08:59:40Z</time>
      </trkpt>
      <trkpt lat="46.61022" lon="6.04164">
        <ele>1062.1</ele>
        <time>2021-11-25T08:59:44Z</time>
      </trkpt>
      <trkpt lat="46.6102" lon="6.0417">
        <ele>1061.3</ele>
        <time>2021-11-25T08:59:48Z</time>
      </trkpt>
      <trkpt lat="46.6102" lon="6.04177">
        <ele>1060.5</ele>
        <time>2021-11-25T08:59:53Z</time>
      </trkpt>
      <trkpt lat="46.61021" lon="6.04185">
        <ele>1060</ele>
        <time>2021-11-25T08:59:58Z</time>
      </trkpt>
      <trkpt lat="46.6102" lon="6.04192">
        <ele>1060.1</ele>
        <time>2021-11-25T09:00:03Z</time>
      </trkpt>
      <trkpt lat="46.61017" lon="6.04198">
        <ele>1060.1</ele>
        <time>2021-11-25T09:00:11Z</time>
      </trkpt>
      <trkpt lat="46.61014" lon="6.04204">
        <ele>1060.3</ele>
        <time>2021-11-25T09:00:19Z</time>
      </trkpt>
      <trkpt lat="46.6101" lon="6.04207">
        <ele>1060.7</ele>
        <time>2021-11-25T09:00:25Z</time>
      </trkpt>
      <trkpt lat="46.61005" lon="6.04208">
        <ele>1061.6</ele>
        <time>2021-11-25T09:00:30Z</time>
      </trkpt>
      <trkpt lat="46.61005" lon="6.04215">
        <ele>1062.3</ele>
        <time>2021-11-25T09:00:37Z</time>
      </trkpt>
      <trkpt lat="46.61004" lon="6.04222">
        <ele>1062.6</ele>
        <time>2021-11-25T09:00:42Z</time>
      </trkpt>
      <trkpt lat="46.61001" lon="6.04227">
        <ele>1063</ele>
        <time>2021-11-25T09:00:48Z</time>
      </trkpt>
      <trkpt lat="46.61" lon="6.04234">
        <ele>1063.2</ele>
        <time>2021-11-25T09:00:55Z</time>
      </trkpt>
      <trkpt lat="46.61001" lon="6.04241">
        <ele>1063.2</ele>
        <time>2021-11-25T09:01:03Z</time>
      </trkpt>
      <trkpt lat="46.60999" lon="6.04247">
        <ele>1062.8</ele>
        <time>2021-11-25T09:01:09Z</time>
      </trkpt>
      <trkpt lat="46.60997" lon="6.04253">
        <ele>1061.7</ele>
        <time>2021-11-25T09:01:17Z</time>
      </trkpt>
      <trkpt lat="46.60997" lon="6.0426">
        <ele>1060.9</ele>
        <time>2021-11-25T09:01:23Z</time>
      </trkpt>
      <trkpt lat="46.60998" lon="6.04266">
        <ele>1060.6</ele>
        <time>2021-11-25T09:01:30Z</time>
      </trkpt>
      <trkpt lat="46.61" lon="6.04273">
        <ele>1060.5</ele>
        <time>2021-11-25T09:01:38Z</time>
      </trkpt>
      <trkpt lat="46.61003" lon="6.04278">
        <ele>1060.6</ele>
        <time>2021-11-25T09:01:42Z</time>
      </trkpt>
      <trkpt lat="46.61002" lon="6.04285">
        <ele>1061.2</ele>
        <time>2021-11-25T09:01:49Z</time>
      </trkpt>
      <trkpt lat="46.60999" lon="6.0429">
        <ele>1062.1</ele>
        <time>2021-11-25T09:01:53Z</time>
      </trkpt>
      <trkpt lat="46.60996" lon="6.04298">
        <ele>1063.8</ele>
        <time>2021-11-25T09:01:58Z</time>
      </trkpt>
      <trkpt lat="46.60995" lon="6.04304">
        <ele>1065.6</ele>
        <time>2021-11-25T09:02:03Z</time>
      </trkpt>
      <trkpt lat="46.60999" lon="6.04309">
        <ele>1067.7</ele>
        <time>2021-11-25T09:02:10Z</time>
      </trkpt>
      <trkpt lat="46.61001" lon="6.04316">
        <ele>1068.7</ele>
        <time>2021-11-25T09:02:17Z</time>
      </trkpt>
      <trkpt lat="46.61003" lon="6.04322">
        <ele>1068.9</ele>
        <time>2021-11-25T09:02:23Z</time>
      </trkpt>
      <trkpt lat="46.61001" lon="6.04329">
        <ele>1068.4</ele>
        <time>2021-11-25T09:02:32Z</time>
      </trkpt>
      <trkpt lat="46.61003" lon="6.04335">
        <ele>1068.5</ele>
        <time>2021-11-25T09:02:37Z</time>
      </trkpt>
      <trkpt lat="46.61007" lon="6.0434">
        <ele>1068.7</ele>
        <time>2021-11-25T09:02:41Z</time>
      </trkpt>
      <trkpt lat="46.61009" lon="6.04346">
        <ele>1069.3</ele>
        <time>2021-11-25T09:02:46Z</time>
      </trkpt>
      <trkpt lat="46.61009" lon="6.04353">
        <ele>1070.3</ele>
        <time>2021-11-25T09:02:53Z</time>
      </trkpt>
      <trkpt lat="46.61005" lon="6.04351">
        <ele>1071.7</ele>
        <time>2021-11-25T09:03:18Z</time>
      </trkpt>
      <trkpt lat="46.61001" lon="6.04347">
        <ele>1070.3</ele>
        <time>2021-11-25T09:03:42Z</time>
      </trkpt>
      <trkpt lat="46.60997" lon="6.0435">
        <ele>1070.1</ele>
        <time>2021-11-25T09:03:56Z</time>
      </trkpt>
      <trkpt lat="46.60992" lon="6.04352">
        <ele>1069</ele>
        <time>2021-11-25T09:03:59Z</time>
      </trkpt>
      <trkpt lat="46.60996" lon="6.04347">
        <ele>1068.1</ele>
        <time>2021-11-25T09:04:08Z</time>
      </trkpt>
      <trkpt lat="46.60999" lon="6.04342">
        <ele>1069.8</ele>
        <time>2021-11-25T09:04:19Z</time>
      </trkpt>
      <trkpt lat="46.60994" lon="6.04348">
        <ele>1076.2</ele>
        <time>2021-11-25T09:04:40Z</time>
      </trkpt>
      <trkpt lat="46.60992" lon="6.04356">
        <ele>1076.1</ele>
        <time>2021-11-25T09:04:44Z</time>
      </trkpt>
      <trkpt lat="46.6099" lon="6.04362">
        <ele>1076</ele>
        <time>2021-11-25T09:04:49Z</time>
      </trkpt>
      <trkpt lat="46.60987" lon="6.04369">
        <ele>1076.3</ele>
        <time>2021-11-25T09:04:53Z</time>
      </trkpt>
      <trkpt lat="46.60982" lon="6.04372">
        <ele>1076.5</ele>
        <time>2021-11-25T09:04:57Z</time>
      </trkpt>
      <trkpt lat="46.60979" lon="6.04378">
        <ele>1077.1</ele>
        <time>2021-11-25T09:05:03Z</time>
      </trkpt>
      <trkpt lat="46.60978" lon="6.04385">
        <ele>1077.7</ele>
        <time>2021-11-25T09:05:08Z</time>
      </trkpt>
      <trkpt lat="46.60974" lon="6.04389">
        <ele>1078.5</ele>
        <time>2021-11-25T09:05:13Z</time>
      </trkpt>
      <trkpt lat="46.60969" lon="6.04392">
        <ele>1079.3</ele>
        <time>2021-11-25T09:05:18Z</time>
      </trkpt>
      <trkpt lat="46.60966" lon="6.04397">
        <ele>1080.5</ele>
        <time>2021-11-25T09:05:26Z</time>
      </trkpt>
      <trkpt lat="46.60969" lon="6.04404">
        <ele>1081.1</ele>
        <time>2021-11-25T09:05:32Z</time>
      </trkpt>
      <trkpt lat="46.60971" lon="6.0441">
        <ele>1081.6</ele>
        <time>2021-11-25T09:05:36Z</time>
      </trkpt>
      <trkpt lat="46.60973" lon="6.04417">
        <ele>1082</ele>
        <time>2021-11-25T09:05:40Z</time>
      </trkpt>
      <trkpt lat="46.60971" lon="6.04423">
        <ele>1083.7</ele>
        <time>2021-11-25T09:05:49Z</time>
      </trkpt>
      <trkpt lat="46.60969" lon="6.04429">
        <ele>1085.2</ele>
        <time>2021-11-25T09:05:56Z</time>
      </trkpt>
      <trkpt lat="46.60965" lon="6.04433">
        <ele>1085.4</ele>
        <time>2021-11-25T09:06:02Z</time>
      </trkpt>
      <trkpt lat="46.60961" lon="6.04438">
        <ele>1085.7</ele>
        <time>2021-11-25T09:06:08Z</time>
      </trkpt>
      <trkpt lat="46.60959" lon="6.04444">
        <ele>1086.3</ele>
        <time>2021-11-25T09:06:16Z</time>
      </trkpt>
      <trkpt lat="46.60957" lon="6.04451">
        <ele>1087.4</ele>
        <time>2021-11-25T09:06:22Z</time>
      </trkpt>
      <trkpt lat="46.60953" lon="6.04456">
        <ele>1088.2</ele>
        <time>2021-11-25T09:06:26Z</time>
      </trkpt>
      <trkpt lat="46.60953" lon="6.04463">
        <ele>1089.9</ele>
        <time>2021-11-25T09:06:32Z</time>
      </trkpt>
      <trkpt lat="46.60957" lon="6.04469">
        <ele>1092</ele>
        <time>2021-11-25T09:06:38Z</time>
      </trkpt>
      <trkpt lat="46.6096" lon="6.04474">
        <ele>1093.3</ele>
        <time>2021-11-25T09:06:43Z</time>
      </trkpt>
      <trkpt lat="46.60961" lon="6.04481">
        <ele>1094</ele>
        <time>2021-11-25T09:06:50Z</time>
      </trkpt>
      <trkpt lat="46.60958" lon="6.04485">
        <ele>1093.9</ele>
        <time>2021-11-25T09:06:55Z</time>
      </trkpt>
      <trkpt lat="46.60954" lon="6.0449">
        <ele>1093.5</ele>
        <time>2021-11-25T09:07:00Z</time>
      </trkpt>
      <trkpt lat="46.60955" lon="6.04497">
        <ele>1092.7</ele>
        <time>2021-11-25T09:07:05Z</time>
      </trkpt>
      <trkpt lat="46.60956" lon="6.04504">
        <ele>1092.3</ele>
        <time>2021-11-25T09:07:11Z</time>
      </trkpt>
      <trkpt lat="46.60953" lon="6.04509">
        <ele>1092.4</ele>
        <time>2021-11-25T09:07:18Z</time>
      </trkpt>
      <trkpt lat="46.60948" lon="6.04512">
        <ele>1092.8</ele>
        <time>2021-11-25T09:07:24Z</time>
      </trkpt>
      <trkpt lat="46.60945" lon="6.04517">
        <ele>1093.4</ele>
        <time>2021-11-25T09:07:33Z</time>
      </trkpt>
      <trkpt lat="46.60942" lon="6.04523">
        <ele>1094.2</ele>
        <time>2021-11-25T09:07:38Z</time>
      </trkpt>
      <trkpt lat="46.60937" lon="6.04526">
        <ele>1095.2</ele>
        <time>2021-11-25T09:07:44Z</time>
      </trkpt>
      <trkpt lat="46.60933" lon="6.04529">
        <ele>1096.5</ele>
        <time>2021-11-25T09:07:50Z</time>
      </trkpt>
      <trkpt lat="46.60929" lon="6.04534">
        <ele>1099</ele>
        <time>2021-11-25T09:08:03Z</time>
      </trkpt>
      <trkpt lat="46.60925" lon="6.04537">
        <ele>1099.9</ele>
        <time>2021-11-25T09:08:09Z</time>
      </trkpt>
      <trkpt lat="46.6092" lon="6.04541">
        <ele>1100.6</ele>
        <time>2021-11-25T09:08:13Z</time>
      </trkpt>
      <trkpt lat="46.60916" lon="6.04544">
        <ele>1101.1</ele>
        <time>2021-11-25T09:08:18Z</time>
      </trkpt>
      <trkpt lat="46.60916" lon="6.04538">
        <ele>1103.4</ele>
        <time>2021-11-25T09:08:37Z</time>
      </trkpt>
      <trkpt lat="46.60913" lon="6.04543">
        <ele>1106.2</ele>
        <time>2021-11-25T09:08:51Z</time>
      </trkpt>
      <trkpt lat="46.60909" lon="6.04547">
        <ele>1106.2</ele>
        <time>2021-11-25T09:08:55Z</time>
      </trkpt>
      <trkpt lat="46.60905" lon="6.04551">
        <ele>1106.4</ele>
        <time>2021-11-25T09:09:00Z</time>
      </trkpt>
      <trkpt lat="46.60903" lon="6.04557">
        <ele>1106.7</ele>
        <time>2021-11-25T09:09:08Z</time>
      </trkpt>
      <trkpt lat="46.60899" lon="6.04561">
        <ele>1106.1</ele>
        <time>2021-11-25T09:09:16Z</time>
      </trkpt>
      <trkpt lat="46.60901" lon="6.04567">
        <ele>1105.8</ele>
        <time>2021-11-25T09:09:22Z</time>
      </trkpt>
      <trkpt lat="46.60904" lon="6.04574">
        <ele>1105.9</ele>
        <time>2021-11-25T09:09:27Z</time>
      </trkpt>
      <trkpt lat="46.60905" lon="6.0458">
        <ele>1105.9</ele>
        <time>2021-11-25T09:09:33Z</time>
      </trkpt>
      <trkpt lat="46.60899" lon="6.04582">
        <ele>1106.3</ele>
        <time>2021-11-25T09:09:37Z</time>
      </trkpt>
      <trkpt lat="46.60896" lon="6.04587">
        <ele>1107.2</ele>
        <time>2021-11-25T09:09:41Z</time>
      </trkpt>
      <trkpt lat="46.60895" lon="6.04594">
        <ele>1108.8</ele>
        <time>2021-11-25T09:09:49Z</time>
      </trkpt>
      <trkpt lat="46.60891" lon="6.04596">
        <ele>1110.2</ele>
        <time>2021-11-25T09:09:54Z</time>
      </trkpt>
      <trkpt lat="46.60888" lon="6.04602">
        <ele>1111.6</ele>
        <time>2021-11-25T09:10:00Z</time>
      </trkpt>
      <trkpt lat="46.60884" lon="6.04607">
        <ele>1112.6</ele>
        <time>2021-11-25T09:10:04Z</time>
      </trkpt>
      <trkpt lat="46.60881" lon="6.04612">
        <ele>1114.6</ele>
        <time>2021-11-25T09:10:09Z</time>
      </trkpt>
      <trkpt lat="46.60879" lon="6.0462">
        <ele>1116.6</ele>
        <time>2021-11-25T09:10:15Z</time>
      </trkpt>
      <trkpt lat="46.60876" lon="6.04626">
        <ele>1117.4</ele>
        <time>2021-11-25T09:10:19Z</time>
      </trkpt>
      <trkpt lat="46.60871" lon="6.04629">
        <ele>1118.5</ele>
        <time>2021-11-25T09:10:28Z</time>
      </trkpt>
      <trkpt lat="46.6087" lon="6.04635">
        <ele>1118.7</ele>
        <time>2021-11-25T09:10:34Z</time>
      </trkpt>
      <trkpt lat="46.60866" lon="6.0464">
        <ele>1118.8</ele>
        <time>2021-11-25T09:10:39Z</time>
      </trkpt>
      <trkpt lat="46.60861" lon="6.04641">
        <ele>1118.8</ele>
        <time>2021-11-25T09:10:43Z</time>
      </trkpt>
      <trkpt lat="46.60857" lon="6.04644">
        <ele>1118.6</ele>
        <time>2021-11-25T09:10:48Z</time>
      </trkpt>
      <trkpt lat="46.60854" lon="6.0465">
        <ele>1118.4</ele>
        <time>2021-11-25T09:10:54Z</time>
      </trkpt>
      <trkpt lat="46.60852" lon="6.04657">
        <ele>1118.6</ele>
        <time>2021-11-25T09:11:00Z</time>
      </trkpt>
      <trkpt lat="46.60849" lon="6.04661">
        <ele>1118.8</ele>
        <time>2021-11-25T09:11:05Z</time>
      </trkpt>
      <trkpt lat="46.60849" lon="6.04668">
        <ele>1119</ele>
        <time>2021-11-25T09:11:10Z</time>
      </trkpt>
      <trkpt lat="46.60849" lon="6.04674">
        <ele>1119.4</ele>
        <time>2021-11-25T09:11:16Z</time>
      </trkpt>
      <trkpt lat="46.60846" lon="6.0468">
        <ele>1119.9</ele>
        <time>2021-11-25T09:11:23Z</time>
      </trkpt>
      <trkpt lat="46.60844" lon="6.04686">
        <ele>1120.4</ele>
        <time>2021-11-25T09:11:29Z</time>
      </trkpt>
      <trkpt lat="46.60843" lon="6.04693">
        <ele>1121.1</ele>
        <time>2021-11-25T09:11:37Z</time>
      </trkpt>
      <trkpt lat="46.6084" lon="6.04698">
        <ele>1121.7</ele>
        <time>2021-11-25T09:11:48Z</time>
      </trkpt>
      <trkpt lat="46.6084" lon="6.04706">
        <ele>1122.2</ele>
        <time>2021-11-25T09:11:57Z</time>
      </trkpt>
      <trkpt lat="46.6084" lon="6.04713">
        <ele>1122.2</ele>
        <time>2021-11-25T09:12:02Z</time>
      </trkpt>
      <trkpt lat="46.6084" lon="6.04721">
        <ele>1122.1</ele>
        <time>2021-11-25T09:12:07Z</time>
      </trkpt>
      <trkpt lat="46.6084" lon="6.04728">
        <ele>1122.1</ele>
        <time>2021-11-25T09:12:13Z</time>
      </trkpt>
      <trkpt lat="46.60838" lon="6.04735">
        <ele>1122.9</ele>
        <time>2021-11-25T09:12:20Z</time>
      </trkpt>
      <trkpt lat="46.60833" lon="6.0474">
        <ele>1123.1</ele>
        <time>2021-11-25T09:12:26Z</time>
      </trkpt>
      <trkpt lat="46.6083" lon="6.04745">
        <ele>1123.4</ele>
        <time>2021-11-25T09:12:33Z</time>
      </trkpt>
      <trkpt lat="46.60831" lon="6.04752">
        <ele>1123.5</ele>
        <time>2021-11-25T09:12:38Z</time>
      </trkpt>
      <trkpt lat="46.60829" lon="6.04758">
        <ele>1123.8</ele>
        <time>2021-11-25T09:12:44Z</time>
      </trkpt>
      <trkpt lat="46.60834" lon="6.0476">
        <ele>1122.4</ele>
        <time>2021-11-25T09:13:26Z</time>
      </trkpt>
      <trkpt lat="46.6084" lon="6.04761">
        <ele>1123.9</ele>
        <time>2021-11-25T09:13:33Z</time>
      </trkpt>
      <trkpt lat="46.60846" lon="6.0476">
        <ele>1124.4</ele>
        <time>2021-11-25T09:13:38Z</time>
      </trkpt>
      <trkpt lat="46.60841" lon="6.04761">
        <ele>1124.9</ele>
        <time>2021-11-25T09:13:49Z</time>
      </trkpt>
      <trkpt lat="46.60836" lon="6.0476">
        <ele>1126.6</ele>
        <time>2021-11-25T09:14:23Z</time>
      </trkpt>
      <trkpt lat="46.60834" lon="6.04767">
        <ele>1132.1</ele>
        <time>2021-11-25T09:14:45Z</time>
      </trkpt>
      <trkpt lat="46.60835" lon="6.04774">
        <ele>1135.3</ele>
        <time>2021-11-25T09:15:03Z</time>
      </trkpt>
      <trkpt lat="46.60832" lon="6.0478">
        <ele>1135.4</ele>
        <time>2021-11-25T09:15:08Z</time>
      </trkpt>
      <trkpt lat="46.60827" lon="6.04784">
        <ele>1135.2</ele>
        <time>2021-11-25T09:15:11Z</time>
      </trkpt>
      <trkpt lat="46.60822" lon="6.04787">
        <ele>1134.7</ele>
        <time>2021-11-25T09:15:14Z</time>
      </trkpt>
      <trkpt lat="46.6082" lon="6.04794">
        <ele>1133.3</ele>
        <time>2021-11-25T09:15:21Z</time>
      </trkpt>
      <trkpt lat="46.60819" lon="6.048">
        <ele>1132.2</ele>
        <time>2021-11-25T09:15:26Z</time>
      </trkpt>
      <trkpt lat="46.60822" lon="6.04807">
        <ele>1131.2</ele>
        <time>2021-11-25T09:15:30Z</time>
      </trkpt>
      <trkpt lat="46.60824" lon="6.04813">
        <ele>1130.5</ele>
        <time>2021-11-25T09:15:33Z</time>
      </trkpt>
      <trkpt lat="46.60825" lon="6.0482">
        <ele>1129.6</ele>
        <time>2021-11-25T09:15:37Z</time>
      </trkpt>
      <trkpt lat="46.60824" lon="6.04827">
        <ele>1128.8</ele>
        <time>2021-11-25T09:15:44Z</time>
      </trkpt>
      <trkpt lat="46.60823" lon="6.04834">
        <ele>1128.1</ele>
        <time>2021-11-25T09:15:53Z</time>
      </trkpt>
      <trkpt lat="46.60819" lon="6.04837">
        <ele>1128</ele>
        <time>2021-11-25T09:15:59Z</time>
      </trkpt>
      <trkpt lat="46.60815" lon="6.04841">
        <ele>1127.6</ele>
        <time>2021-11-25T09:16:05Z</time>
      </trkpt>
      <trkpt lat="46.60813" lon="6.04847">
        <ele>1127.2</ele>
        <time>2021-11-25T09:16:14Z</time>
      </trkpt>
      <trkpt lat="46.60814" lon="6.04854">
        <ele>1126.7</ele>
        <time>2021-11-25T09:16:18Z</time>
      </trkpt>
      <trkpt lat="46.60813" lon="6.0486">
        <ele>1126</ele>
        <time>2021-11-25T09:16:23Z</time>
      </trkpt>
      <trkpt lat="46.60807" lon="6.04856">
        <ele>1124</ele>
        <time>2021-11-25T09:17:07Z</time>
      </trkpt>
      <trkpt lat="46.60803" lon="6.04861">
        <ele>1124.1</ele>
        <time>2021-11-25T09:17:12Z</time>
      </trkpt>
      <trkpt lat="46.60801" lon="6.04868">
        <ele>1123.5</ele>
        <time>2021-11-25T09:17:16Z</time>
      </trkpt>
      <trkpt lat="46.608" lon="6.04875">
        <ele>1122.5</ele>
        <time>2021-11-25T09:17:19Z</time>
      </trkpt>
      <trkpt lat="46.60799" lon="6.04883">
        <ele>1122</ele>
        <time>2021-11-25T09:17:23Z</time>
      </trkpt>
      <trkpt lat="46.60798" lon="6.0489">
        <ele>1121.2</ele>
        <time>2021-11-25T09:17:30Z</time>
      </trkpt>
      <trkpt lat="46.608" lon="6.04897">
        <ele>1119.6</ele>
        <time>2021-11-25T09:17:36Z</time>
      </trkpt>
      <trkpt lat="46.60801" lon="6.04903">
        <ele>1118.7</ele>
        <time>2021-11-25T09:17:41Z</time>
      </trkpt>
      <trkpt lat="46.60804" lon="6.0491">
        <ele>1118.1</ele>
        <time>2021-11-25T09:17:46Z</time>
      </trkpt>
      <trkpt lat="46.60804" lon="6.04917">
        <ele>1116.8</ele>
        <time>2021-11-25T09:17:53Z</time>
      </trkpt>
      <trkpt lat="46.60806" lon="6.04924">
        <ele>1116.7</ele>
        <time>2021-11-25T09:17:57Z</time>
      </trkpt>
      <trkpt lat="46.60806" lon="6.04931">
        <ele>1116.8</ele>
        <time>2021-11-25T09:18:01Z</time>
      </trkpt>
      <trkpt lat="46.60803" lon="6.04937">
        <ele>1117.1</ele>
        <time>2021-11-25T09:18:06Z</time>
      </trkpt>
      <trkpt lat="46.60799" lon="6.04943">
        <ele>1117.1</ele>
        <time>2021-11-25T09:18:11Z</time>
      </trkpt>
      <trkpt lat="46.60798" lon="6.04949">
        <ele>1117.2</ele>
        <time>2021-11-25T09:18:15Z</time>
      </trkpt>
      <trkpt lat="46.60796" lon="6.04956">
        <ele>1117.2</ele>
        <time>2021-11-25T09:18:19Z</time>
      </trkpt>
      <trkpt lat="46.60796" lon="6.04963">
        <ele>1116.3</ele>
        <time>2021-11-25T09:18:25Z</time>
      </trkpt>
      <trkpt lat="46.60795" lon="6.04971">
        <ele>1116</ele>
        <time>2021-11-25T09:18:29Z</time>
      </trkpt>
      <trkpt lat="46.60794" lon="6.04979">
        <ele>1115.8</ele>
        <time>2021-11-25T09:18:33Z</time>
      </trkpt>
      <trkpt lat="46.60792" lon="6.04987">
        <ele>1115.3</ele>
        <time>2021-11-25T09:18:38Z</time>
      </trkpt>
      <trkpt lat="46.60789" lon="6.04993">
        <ele>1115</ele>
        <time>2021-11-25T09:18:43Z</time>
      </trkpt>
      <trkpt lat="46.60787" lon="6.05">
        <ele>1114.6</ele>
        <time>2021-11-25T09:18:48Z</time>
      </trkpt>
      <trkpt lat="46.60786" lon="6.05006">
        <ele>1114.2</ele>
        <time>2021-11-25T09:18:53Z</time>
      </trkpt>
      <trkpt lat="46.60785" lon="6.05013">
        <ele>1114.1</ele>
        <time>2021-11-25T09:18:57Z</time>
      </trkpt>
      <trkpt lat="46.60784" lon="6.0502">
        <ele>1113.9</ele>
        <time>2021-11-25T09:19:01Z</time>
      </trkpt>
      <trkpt lat="46.60784" lon="6.05026">
        <ele>1113.8</ele>
        <time>2021-11-25T09:19:04Z</time>
      </trkpt>
      <trkpt lat="46.60783" lon="6.05035">
        <ele>1113.7</ele>
        <time>2021-11-25T09:19:08Z</time>
      </trkpt>
      <trkpt lat="46.60783" lon="6.05042">
        <ele>1113.5</ele>
        <time>2021-11-25T09:19:12Z</time>
      </trkpt>
      <trkpt lat="46.60784" lon="6.0505">
        <ele>1113.7</ele>
        <time>2021-11-25T09:19:16Z</time>
      </trkpt>
      <trkpt lat="46.60785" lon="6.05057">
        <ele>1114.4</ele>
        <time>2021-11-25T09:19:20Z</time>
      </trkpt>
      <trkpt lat="46.60786" lon="6.05064">
        <ele>1115.5</ele>
        <time>2021-11-25T09:19:24Z</time>
      </trkpt>
      <trkpt lat="46.60787" lon="6.05072">
        <ele>1117.5</ele>
        <time>2021-11-25T09:19:29Z</time>
      </trkpt>
      <trkpt lat="46.60788" lon="6.05078">
        <ele>1120</ele>
        <time>2021-11-25T09:19:34Z</time>
      </trkpt>
      <trkpt lat="46.6079" lon="6.05084">
        <ele>1122.8</ele>
        <time>2021-11-25T09:19:40Z</time>
      </trkpt>
      <trkpt lat="46.60792" lon="6.05091">
        <ele>1124.8</ele>
        <time>2021-11-25T09:19:46Z</time>
      </trkpt>
      <trkpt lat="46.60795" lon="6.05097">
        <ele>1126.5</ele>
        <time>2021-11-25T09:19:51Z</time>
      </trkpt>
      <trkpt lat="46.60799" lon="6.05101">
        <ele>1127.6</ele>
        <time>2021-11-25T09:19:56Z</time>
      </trkpt>
      <trkpt lat="46.60803" lon="6.05104">
        <ele>1128.2</ele>
        <time>2021-11-25T09:20:01Z</time>
      </trkpt>
      <trkpt lat="46.60807" lon="6.05108">
        <ele>1128.5</ele>
        <time>2021-11-25T09:20:05Z</time>
      </trkpt>
      <trkpt lat="46.6081" lon="6.05113">
        <ele>1128.7</ele>
        <time>2021-11-25T09:20:10Z</time>
      </trkpt>
      <trkpt lat="46.60814" lon="6.05117">
        <ele>1129</ele>
        <time>2021-11-25T09:20:16Z</time>
      </trkpt>
      <trkpt lat="46.60819" lon="6.05119">
        <ele>1128.8</ele>
        <time>2021-11-25T09:20:22Z</time>
      </trkpt>
      <trkpt lat="46.60821" lon="6.05125">
        <ele>1128.5</ele>
        <time>2021-11-25T09:20:28Z</time>
      </trkpt>
      <trkpt lat="46.60823" lon="6.05132">
        <ele>1128.9</ele>
        <time>2021-11-25T09:20:33Z</time>
      </trkpt>
      <trkpt lat="46.60825" lon="6.05138">
        <ele>1128.7</ele>
        <time>2021-11-25T09:20:38Z</time>
      </trkpt>
      <trkpt lat="46.6083" lon="6.05143">
        <ele>1127.9</ele>
        <time>2021-11-25T09:20:43Z</time>
      </trkpt>
      <trkpt lat="46.60832" lon="6.0515">
        <ele>1128</ele>
        <time>2021-11-25T09:20:47Z</time>
      </trkpt>
      <trkpt lat="46.60832" lon="6.05157">
        <ele>1128.1</ele>
        <time>2021-11-25T09:20:52Z</time>
      </trkpt>
      <trkpt lat="46.60829" lon="6.05163">
        <ele>1127.9</ele>
        <time>2021-11-25T09:20:56Z</time>
      </trkpt>
      <trkpt lat="46.60824" lon="6.05168">
        <ele>1127.7</ele>
        <time>2021-11-25T09:21:01Z</time>
      </trkpt>
      <trkpt lat="46.6082" lon="6.05171">
        <ele>1127.5</ele>
        <time>2021-11-25T09:21:06Z</time>
      </trkpt>
      <trkpt lat="46.60818" lon="6.05177">
        <ele>1126.4</ele>
        <time>2021-11-25T09:21:14Z</time>
      </trkpt>
      <trkpt lat="46.60813" lon="6.05179">
        <ele>1125.6</ele>
        <time>2021-11-25T09:21:19Z</time>
      </trkpt>
      <trkpt lat="46.60809" lon="6.05182">
        <ele>1123.9</ele>
        <time>2021-11-25T09:21:25Z</time>
      </trkpt>
      <trkpt lat="46.60804" lon="6.05183">
        <ele>1122.3</ele>
        <time>2021-11-25T09:21:31Z</time>
      </trkpt>
      <trkpt lat="46.60799" lon="6.05183">
        <ele>1121.5</ele>
        <time>2021-11-25T09:21:35Z</time>
      </trkpt>
      <trkpt lat="46.60794" lon="6.05185">
        <ele>1121</ele>
        <time>2021-11-25T09:21:40Z</time>
      </trkpt>
      <trkpt lat="46.6079" lon="6.05186">
        <ele>1120.7</ele>
        <time>2021-11-25T09:21:45Z</time>
      </trkpt>
      <trkpt lat="46.60785" lon="6.0519">
        <ele>1119.8</ele>
        <time>2021-11-25T09:21:53Z</time>
      </trkpt>
      <trkpt lat="46.6078" lon="6.05192">
        <ele>1117.9</ele>
        <time>2021-11-25T09:22:00Z</time>
      </trkpt>
      <trkpt lat="46.60778" lon="6.05198">
        <ele>1117.2</ele>
        <time>2021-11-25T09:22:05Z</time>
      </trkpt>
      <trkpt lat="46.60775" lon="6.05204">
        <ele>1117.1</ele>
        <time>2021-11-25T09:22:11Z</time>
      </trkpt>
      <trkpt lat="46.60771" lon="6.05209">
        <ele>1117.3</ele>
        <time>2021-11-25T09:22:17Z</time>
      </trkpt>
      <trkpt lat="46.60768" lon="6.05215">
        <ele>1117.8</ele>
        <time>2021-11-25T09:22:23Z</time>
      </trkpt>
      <trkpt lat="46.60766" lon="6.05221">
        <ele>1118.4</ele>
        <time>2021-11-25T09:22:29Z</time>
      </trkpt>
      <trkpt lat="46.60764" lon="6.05228">
        <ele>1119.3</ele>
        <time>2021-11-25T09:22:37Z</time>
      </trkpt>
      <trkpt lat="46.60763" lon="6.05234">
        <ele>1120.6</ele>
        <time>2021-11-25T09:22:43Z</time>
      </trkpt>
      <trkpt lat="46.60764" lon="6.05241">
        <ele>1121.3</ele>
        <time>2021-11-25T09:22:48Z</time>
      </trkpt>
      <trkpt lat="46.60765" lon="6.05248">
        <ele>1122</ele>
        <time>2021-11-25T09:22:54Z</time>
      </trkpt>
      <trkpt lat="46.60767" lon="6.05255">
        <ele>1122.5</ele>
        <time>2021-11-25T09:23:01Z</time>
      </trkpt>
      <trkpt lat="46.60768" lon="6.05262">
        <ele>1123.3</ele>
        <time>2021-11-25T09:23:06Z</time>
      </trkpt>
      <trkpt lat="46.6077" lon="6.05268">
        <ele>1124</ele>
        <time>2021-11-25T09:23:11Z</time>
      </trkpt>
      <trkpt lat="46.60774" lon="6.05272">
        <ele>1124.1</ele>
        <time>2021-11-25T09:23:18Z</time>
      </trkpt>
      <trkpt lat="46.60776" lon="6.05277">
        <ele>1125</ele>
        <time>2021-11-25T09:23:27Z</time>
      </trkpt>
      <trkpt lat="46.6078" lon="6.05283">
        <ele>1125.4</ele>
        <time>2021-11-25T09:23:33Z</time>
      </trkpt>
      <trkpt lat="46.60784" lon="6.05288">
        <ele>1125.6</ele>
        <time>2021-11-25T09:23:39Z</time>
      </trkpt>
      <trkpt lat="46.60789" lon="6.05292">
        <ele>1125.8</ele>
        <time>2021-11-25T09:23:46Z</time>
      </trkpt>
      <trkpt lat="46.60793" lon="6.05297">
        <ele>1126.2</ele>
        <time>2021-11-25T09:23:49Z</time>
      </trkpt>
      <trkpt lat="46.60797" lon="6.05303">
        <ele>1127</ele>
        <time>2021-11-25T09:23:52Z</time>
      </trkpt>
      <trkpt lat="46.60799" lon="6.05309">
        <ele>1128</ele>
        <time>2021-11-25T09:23:56Z</time>
      </trkpt>
      <trkpt lat="46.60802" lon="6.05315">
        <ele>1129.2</ele>
        <time>2021-11-25T09:24:01Z</time>
      </trkpt>
      <trkpt lat="46.60804" lon="6.05322">
        <ele>1129.7</ele>
        <time>2021-11-25T09:24:05Z</time>
      </trkpt>
      <trkpt lat="46.60805" lon="6.05328">
        <ele>1130</ele>
        <time>2021-11-25T09:24:09Z</time>
      </trkpt>
      <trkpt lat="46.60807" lon="6.05335">
        <ele>1130.6</ele>
        <time>2021-11-25T09:24:14Z</time>
      </trkpt>
      <trkpt lat="46.60809" lon="6.05342">
        <ele>1131.2</ele>
        <time>2021-11-25T09:24:19Z</time>
      </trkpt>
      <trkpt lat="46.60813" lon="6.05347">
        <ele>1130.7</ele>
        <time>2021-11-25T09:24:24Z</time>
      </trkpt>
      <trkpt lat="46.60815" lon="6.05353">
        <ele>1130</ele>
        <time>2021-11-25T09:24:29Z</time>
      </trkpt>
      <trkpt lat="46.60816" lon="6.0536">
        <ele>1128.9</ele>
        <time>2021-11-25T09:24:34Z</time>
      </trkpt>
      <trkpt lat="46.60817" lon="6.05367">
        <ele>1128.5</ele>
        <time>2021-11-25T09:24:40Z</time>
      </trkpt>
      <trkpt lat="46.60817" lon="6.05373">
        <ele>1128.6</ele>
        <time>2021-11-25T09:24:45Z</time>
      </trkpt>
      <trkpt lat="46.60819" lon="6.05379">
        <ele>1128.5</ele>
        <time>2021-11-25T09:24:49Z</time>
      </trkpt>
      <trkpt lat="46.60822" lon="6.05385">
        <ele>1128.3</ele>
        <time>2021-11-25T09:24:53Z</time>
      </trkpt>
      <trkpt lat="46.60825" lon="6.0539">
        <ele>1128.1</ele>
        <time>2021-11-25T09:24:56Z</time>
      </trkpt>
      <trkpt lat="46.60828" lon="6.05396">
        <ele>1127.7</ele>
        <time>2021-11-25T09:25:00Z</time>
      </trkpt>
      <trkpt lat="46.60831" lon="6.054">
        <ele>1126.7</ele>
        <time>2021-11-25T09:25:07Z</time>
      </trkpt>
      <trkpt lat="46.60835" lon="6.05405">
        <ele>1125.8</ele>
        <time>2021-11-25T09:25:13Z</time>
      </trkpt>
      <trkpt lat="46.60841" lon="6.05405">
        <ele>1125.1</ele>
        <time>2021-11-25T09:25:18Z</time>
      </trkpt>
      <trkpt lat="46.60847" lon="6.05405">
        <ele>1124.4</ele>
        <time>2021-11-25T09:25:22Z</time>
      </trkpt>
      <trkpt lat="46.60852" lon="6.05406">
        <ele>1122.6</ele>
        <time>2021-11-25T09:25:29Z</time>
      </trkpt>
      <trkpt lat="46.60856" lon="6.05408">
        <ele>1120.7</ele>
        <time>2021-11-25T09:25:36Z</time>
      </trkpt>
      <trkpt lat="46.60861" lon="6.05407">
        <ele>1118.6</ele>
        <time>2021-11-25T09:25:43Z</time>
      </trkpt>
      <trkpt lat="46.60866" lon="6.05409">
        <ele>1117.5</ele>
        <time>2021-11-25T09:25:48Z</time>
      </trkpt>
      <trkpt lat="46.60871" lon="6.05412">
        <ele>1117.4</ele>
        <time>2021-11-25T09:25:52Z</time>
      </trkpt>
      <trkpt lat="46.60876" lon="6.05415">
        <ele>1117.6</ele>
        <time>2021-11-25T09:25:55Z</time>
      </trkpt>
      <trkpt lat="46.60881" lon="6.05416">
        <ele>1118.5</ele>
        <time>2021-11-25T09:25:59Z</time>
      </trkpt>
      <trkpt lat="46.60886" lon="6.05417">
        <ele>1120.8</ele>
        <time>2021-11-25T09:26:04Z</time>
      </trkpt>
      <trkpt lat="46.6089" lon="6.05422">
        <ele>1123.4</ele>
        <time>2021-11-25T09:26:11Z</time>
      </trkpt>
      <trkpt lat="46.6089" lon="6.05429">
        <ele>1124.1</ele>
        <time>2021-11-25T09:26:17Z</time>
      </trkpt>
      <trkpt lat="46.6089" lon="6.05437">
        <ele>1124.2</ele>
        <time>2021-11-25T09:26:22Z</time>
      </trkpt>
      <trkpt lat="46.60889" lon="6.05444">
        <ele>1124.6</ele>
        <time>2021-11-25T09:26:28Z</time>
      </trkpt>
      <trkpt lat="46.60889" lon="6.05451">
        <ele>1124.6</ele>
        <time>2021-11-25T09:26:34Z</time>
      </trkpt>
      <trkpt lat="46.6089" lon="6.05459">
        <ele>1124</ele>
        <time>2021-11-25T09:26:41Z</time>
      </trkpt>
      <trkpt lat="46.60892" lon="6.05466">
        <ele>1123.4</ele>
        <time>2021-11-25T09:26:46Z</time>
      </trkpt>
      <trkpt lat="46.60891" lon="6.05474">
        <ele>1123.5</ele>
        <time>2021-11-25T09:26:50Z</time>
      </trkpt>
      <trkpt lat="46.6089" lon="6.0548">
        <ele>1123.8</ele>
        <time>2021-11-25T09:26:55Z</time>
      </trkpt>
      <trkpt lat="46.60888" lon="6.05487">
        <ele>1124.1</ele>
        <time>2021-11-25T09:26:59Z</time>
      </trkpt>
      <trkpt lat="46.60886" lon="6.05493">
        <ele>1124.5</ele>
        <time>2021-11-25T09:27:03Z</time>
      </trkpt>
      <trkpt lat="46.60886" lon="6.05501">
        <ele>1124.5</ele>
        <time>2021-11-25T09:27:08Z</time>
      </trkpt>
      <trkpt lat="46.60885" lon="6.05508">
        <ele>1124.7</ele>
        <time>2021-11-25T09:27:13Z</time>
      </trkpt>
      <trkpt lat="46.60883" lon="6.05514">
        <ele>1125.4</ele>
        <time>2021-11-25T09:27:18Z</time>
      </trkpt>
      <trkpt lat="46.60882" lon="6.05521">
        <ele>1125.9</ele>
        <time>2021-11-25T09:27:24Z</time>
      </trkpt>
      <trkpt lat="46.60883" lon="6.05529">
        <ele>1125.7</ele>
        <time>2021-11-25T09:27:28Z</time>
      </trkpt>
      <trkpt lat="46.60883" lon="6.05536">
        <ele>1125.6</ele>
        <time>2021-11-25T09:27:32Z</time>
      </trkpt>
      <trkpt lat="46.60884" lon="6.05543">
        <ele>1125.7</ele>
        <time>2021-11-25T09:27:35Z</time>
      </trkpt>
      <trkpt lat="46.60886" lon="6.05549">
        <ele>1126.1</ele>
        <time>2021-11-25T09:27:39Z</time>
      </trkpt>
      <trkpt lat="46.60887" lon="6.05556">
        <ele>1126.6</ele>
        <time>2021-11-25T09:27:44Z</time>
      </trkpt>
      <trkpt lat="46.60888" lon="6.05563">
        <ele>1126</ele>
        <time>2021-11-25T09:27:50Z</time>
      </trkpt>
      <trkpt lat="46.60889" lon="6.05571">
        <ele>1125.6</ele>
        <time>2021-11-25T09:27:55Z</time>
      </trkpt>
      <trkpt lat="46.6089" lon="6.05578">
        <ele>1125.2</ele>
        <time>2021-11-25T09:27:59Z</time>
      </trkpt>
      <trkpt lat="46.60891" lon="6.05586">
        <ele>1124.3</ele>
        <time>2021-11-25T09:28:03Z</time>
      </trkpt>
      <trkpt lat="46.60894" lon="6.05592">
        <ele>1123.3</ele>
        <time>2021-11-25T09:28:07Z</time>
      </trkpt>
      <trkpt lat="46.60896" lon="6.05599">
        <ele>1122.6</ele>
        <time>2021-11-25T09:28:11Z</time>
      </trkpt>
      <trkpt lat="46.60899" lon="6.05605">
        <ele>1122.7</ele>
        <time>2021-11-25T09:28:16Z</time>
      </trkpt>
      <trkpt lat="46.609" lon="6.05612">
        <ele>1123.3</ele>
        <time>2021-11-25T09:28:23Z</time>
      </trkpt>
      <trkpt lat="46.60901" lon="6.05619">
        <ele>1123.6</ele>
        <time>2021-11-25T09:28:28Z</time>
      </trkpt>
      <trkpt lat="46.60903" lon="6.05625">
        <ele>1123.9</ele>
        <time>2021-11-25T09:28:33Z</time>
      </trkpt>
      <trkpt lat="46.60906" lon="6.05631">
        <ele>1123.9</ele>
        <time>2021-11-25T09:28:39Z</time>
      </trkpt>
      <trkpt lat="46.60909" lon="6.05636">
        <ele>1123.7</ele>
        <time>2021-11-25T09:28:43Z</time>
      </trkpt>
      <trkpt lat="46.60912" lon="6.05641">
        <ele>1123</ele>
        <time>2021-11-25T09:28:48Z</time>
      </trkpt>
      <trkpt lat="46.60915" lon="6.05646">
        <ele>1122.3</ele>
        <time>2021-11-25T09:28:52Z</time>
      </trkpt>
      <trkpt lat="46.60918" lon="6.05651">
        <ele>1121.6</ele>
        <time>2021-11-25T09:28:56Z</time>
      </trkpt>
      <trkpt lat="46.60923" lon="6.05656">
        <ele>1120.7</ele>
        <time>2021-11-25T09:29:00Z</time>
      </trkpt>
      <trkpt lat="46.60926" lon="6.05661">
        <ele>1119.9</ele>
        <time>2021-11-25T09:29:04Z</time>
      </trkpt>
      <trkpt lat="46.6093" lon="6.05666">
        <ele>1119.3</ele>
        <time>2021-11-25T09:29:09Z</time>
      </trkpt>
      <trkpt lat="46.60932" lon="6.05672">
        <ele>1119.3</ele>
        <time>2021-11-25T09:29:13Z</time>
      </trkpt>
      <trkpt lat="46.60932" lon="6.05679">
        <ele>1119.3</ele>
        <time>2021-11-25T09:29:19Z</time>
      </trkpt>
      <trkpt lat="46.60933" lon="6.05685">
        <ele>1118.6</ele>
        <time>2021-11-25T09:29:25Z</time>
      </trkpt>
      <trkpt lat="46.60936" lon="6.05693">
        <ele>1117.3</ele>
        <time>2021-11-25T09:29:30Z</time>
      </trkpt>
      <trkpt lat="46.60936" lon="6.05701">
        <ele>1117</ele>
        <time>2021-11-25T09:29:34Z</time>
      </trkpt>
      <trkpt lat="46.60936" lon="6.05708">
        <ele>1116.9</ele>
        <time>2021-11-25T09:29:38Z</time>
      </trkpt>
      <trkpt lat="46.60933" lon="6.05714">
        <ele>1118.3</ele>
        <time>2021-11-25T09:29:46Z</time>
      </trkpt>
      <trkpt lat="46.6093" lon="6.05718">
        <ele>1118.2</ele>
        <time>2021-11-25T09:29:53Z</time>
      </trkpt>
      <trkpt lat="46.60929" lon="6.05726">
        <ele>1116.7</ele>
        <time>2021-11-25T09:29:58Z</time>
      </trkpt>
      <trkpt lat="46.60929" lon="6.05733">
        <ele>1115.3</ele>
        <time>2021-11-25T09:30:02Z</time>
      </trkpt>
      <trkpt lat="46.60928" lon="6.0574">
        <ele>1114.3</ele>
        <time>2021-11-25T09:30:06Z</time>
      </trkpt>
      <trkpt lat="46.60927" lon="6.05747">
        <ele>1113.4</ele>
        <time>2021-11-25T09:30:10Z</time>
      </trkpt>
      <trkpt lat="46.60925" lon="6.05754">
        <ele>1112.9</ele>
        <time>2021-11-25T09:30:13Z</time>
      </trkpt>
      <trkpt lat="46.60925" lon="6.05761">
        <ele>1112.6</ele>
        <time>2021-11-25T09:30:16Z</time>
      </trkpt>
      <trkpt lat="46.60925" lon="6.05768">
        <ele>1112.5</ele>
        <time>2021-11-25T09:30:19Z</time>
      </trkpt>
      <trkpt lat="46.60925" lon="6.05775">
        <ele>1112.3</ele>
        <time>2021-11-25T09:30:23Z</time>
      </trkpt>
      <trkpt lat="46.60924" lon="6.05781">
        <ele>1111.9</ele>
        <time>2021-11-25T09:30:27Z</time>
      </trkpt>
      <trkpt lat="46.60921" lon="6.05788">
        <ele>1111.4</ele>
        <time>2021-11-25T09:30:32Z</time>
      </trkpt>
      <trkpt lat="46.60918" lon="6.05794">
        <ele>1111.2</ele>
        <time>2021-11-25T09:30:36Z</time>
      </trkpt>
      <trkpt lat="46.60915" lon="6.058">
        <ele>1111.3</ele>
        <time>2021-11-25T09:30:40Z</time>
      </trkpt>
      <trkpt lat="46.60913" lon="6.05807">
        <ele>1111.9</ele>
        <time>2021-11-25T09:30:45Z</time>
      </trkpt>
      <trkpt lat="46.6091" lon="6.05813">
        <ele>1112.3</ele>
        <time>2021-11-25T09:30:50Z</time>
      </trkpt>
      <trkpt lat="46.60908" lon="6.05819">
        <ele>1112.5</ele>
        <time>2021-11-25T09:30:54Z</time>
      </trkpt>
      <trkpt lat="46.60906" lon="6.05825">
        <ele>1112.4</ele>
        <time>2021-11-25T09:30:58Z</time>
      </trkpt>
      <trkpt lat="46.60904" lon="6.05831">
        <ele>1112.8</ele>
        <time>2021-11-25T09:31:02Z</time>
      </trkpt>
      <trkpt lat="46.60902" lon="6.05839">
        <ele>1113.8</ele>
        <time>2021-11-25T09:31:07Z</time>
      </trkpt>
      <trkpt lat="46.609" lon="6.05845">
        <ele>1114.9</ele>
        <time>2021-11-25T09:31:11Z</time>
      </trkpt>
      <trkpt lat="46.60899" lon="6.05851">
        <ele>1116</ele>
        <time>2021-11-25T09:31:15Z</time>
      </trkpt>
      <trkpt lat="46.60897" lon="6.05858">
        <ele>1117.1</ele>
        <time>2021-11-25T09:31:20Z</time>
      </trkpt>
      <trkpt lat="46.60895" lon="6.05865">
        <ele>1117.7</ele>
        <time>2021-11-25T09:31:24Z</time>
      </trkpt>
      <trkpt lat="46.60893" lon="6.05871">
        <ele>1118.4</ele>
        <time>2021-11-25T09:31:29Z</time>
      </trkpt>
      <trkpt lat="46.60892" lon="6.05878">
        <ele>1118.8</ele>
        <time>2021-11-25T09:31:34Z</time>
      </trkpt>
      <trkpt lat="46.60892" lon="6.05886">
        <ele>1119.6</ele>
        <time>2021-11-25T09:31:39Z</time>
      </trkpt>
      <trkpt lat="46.60892" lon="6.05893">
        <ele>1120.6</ele>
        <time>2021-11-25T09:31:44Z</time>
      </trkpt>
      <trkpt lat="46.60891" lon="6.059">
        <ele>1121.4</ele>
        <time>2021-11-25T09:31:49Z</time>
      </trkpt>
      <trkpt lat="46.6089" lon="6.05907">
        <ele>1121.6</ele>
        <time>2021-11-25T09:31:54Z</time>
      </trkpt>
      <trkpt lat="46.60889" lon="6.05915">
        <ele>1121.8</ele>
        <time>2021-11-25T09:31:59Z</time>
      </trkpt>
      <trkpt lat="46.6089" lon="6.05922">
        <ele>1121.4</ele>
        <time>2021-11-25T09:32:03Z</time>
      </trkpt>
      <trkpt lat="46.60891" lon="6.05929">
        <ele>1121</ele>
        <time>2021-11-25T09:32:08Z</time>
      </trkpt>
      <trkpt lat="46.60893" lon="6.05935">
        <ele>1120.1</ele>
        <time>2021-11-25T09:32:12Z</time>
      </trkpt>
      <trkpt lat="46.60893" lon="6.05943">
        <ele>1118.4</ele>
        <time>2021-11-25T09:32:18Z</time>
      </trkpt>
      <trkpt lat="46.60892" lon="6.05951">
        <ele>1117.4</ele>
        <time>2021-11-25T09:32:23Z</time>
      </trkpt>
      <trkpt lat="46.60893" lon="6.05958">
        <ele>1116.4</ele>
        <time>2021-11-25T09:32:28Z</time>
      </trkpt>
      <trkpt lat="46.60892" lon="6.05966">
        <ele>1115.7</ele>
        <time>2021-11-25T09:32:33Z</time>
      </trkpt>
      <trkpt lat="46.6089" lon="6.05972">
        <ele>1115.4</ele>
        <time>2021-11-25T09:32:37Z</time>
      </trkpt>
      <trkpt lat="46.60887" lon="6.05977">
        <ele>1115.2</ele>
        <time>2021-11-25T09:32:41Z</time>
      </trkpt>
      <trkpt lat="46.60884" lon="6.05984">
        <ele>1115.3</ele>
        <time>2021-11-25T09:32:46Z</time>
      </trkpt>
      <trkpt lat="46.60883" lon="6.05991">
        <ele>1115.4</ele>
        <time>2021-11-25T09:32:50Z</time>
      </trkpt>
      <trkpt lat="46.60883" lon="6.05998">
        <ele>1115.2</ele>
        <time>2021-11-25T09:32:54Z</time>
      </trkpt>
      <trkpt lat="46.60882" lon="6.06005">
        <ele>1114.7</ele>
        <time>2021-11-25T09:32:58Z</time>
      </trkpt>
      <trkpt lat="46.60882" lon="6.06012">
        <ele>1114.1</ele>
        <time>2021-11-25T09:33:03Z</time>
      </trkpt>
      <trkpt lat="46.60879" lon="6.06018">
        <ele>1113.1</ele>
        <time>2021-11-25T09:33:08Z</time>
      </trkpt>
      <trkpt lat="46.60875" lon="6.06022">
        <ele>1112.4</ele>
        <time>2021-11-25T09:33:12Z</time>
      </trkpt>
      <trkpt lat="46.60873" lon="6.06028">
        <ele>1111.8</ele>
        <time>2021-11-25T09:33:16Z</time>
      </trkpt>
      <trkpt lat="46.60872" lon="6.06035">
        <ele>1111.6</ele>
        <time>2021-11-25T09:33:20Z</time>
      </trkpt>
      <trkpt lat="46.60872" lon="6.06042">
        <ele>1111.4</ele>
        <time>2021-11-25T09:33:24Z</time>
      </trkpt>
      <trkpt lat="46.60873" lon="6.06049">
        <ele>1111.2</ele>
        <time>2021-11-25T09:33:28Z</time>
      </trkpt>
      <trkpt lat="46.60872" lon="6.06056">
        <ele>1110.9</ele>
        <time>2021-11-25T09:33:32Z</time>
      </trkpt>
      <trkpt lat="46.6087" lon="6.06063">
        <ele>1110.1</ele>
        <time>2021-11-25T09:33:37Z</time>
      </trkpt>
      <trkpt lat="46.60868" lon="6.06068">
        <ele>1110.1</ele>
        <time>2021-11-25T09:33:41Z</time>
      </trkpt>
      <trkpt lat="46.60866" lon="6.06074">
        <ele>1110.4</ele>
        <time>2021-11-25T09:33:45Z</time>
      </trkpt>
      <trkpt lat="46.60863" lon="6.0608">
        <ele>1110.6</ele>
        <time>2021-11-25T09:33:50Z</time>
      </trkpt>
      <trkpt lat="46.60862" lon="6.06088">
        <ele>1110.9</ele>
        <time>2021-11-25T09:33:55Z</time>
      </trkpt>
      <trkpt lat="46.60861" lon="6.06094">
        <ele>1110.8</ele>
        <time>2021-11-25T09:33:59Z</time>
      </trkpt>
      <trkpt lat="46.60858" lon="6.06099">
        <ele>1110.3</ele>
        <time>2021-11-25T09:34:03Z</time>
      </trkpt>
      <trkpt lat="46.60856" lon="6.06106">
        <ele>1110.6</ele>
        <time>2021-11-25T09:34:08Z</time>
      </trkpt>
      <trkpt lat="46.60856" lon="6.06114">
        <ele>1111.2</ele>
        <time>2021-11-25T09:34:13Z</time>
      </trkpt>
      <trkpt lat="46.60855" lon="6.06121">
        <ele>1111.7</ele>
        <time>2021-11-25T09:34:19Z</time>
      </trkpt>
      <trkpt lat="46.6085" lon="6.06124">
        <ele>1106.9</ele>
        <time>2021-11-25T09:38:12Z</time>
      </trkpt>
      <trkpt lat="46.60847" lon="6.0613">
        <ele>1107.3</ele>
        <time>2021-11-25T09:38:17Z</time>
      </trkpt>
      <trkpt lat="46.60846" lon="6.06137">
        <ele>1107.1</ele>
        <time>2021-11-25T09:38:21Z</time>
      </trkpt>
      <trkpt lat="46.60843" lon="6.06143">
        <ele>1107.3</ele>
        <time>2021-11-25T09:38:25Z</time>
      </trkpt>
      <trkpt lat="46.60842" lon="6.0615">
        <ele>1107.7</ele>
        <time>2021-11-25T09:38:30Z</time>
      </trkpt>
      <trkpt lat="46.60842" lon="6.06157">
        <ele>1107.8</ele>
        <time>2021-11-25T09:38:36Z</time>
      </trkpt>
      <trkpt lat="46.60841" lon="6.06164">
        <ele>1107.8</ele>
        <time>2021-11-25T09:38:41Z</time>
      </trkpt>
      <trkpt lat="46.60839" lon="6.06169">
        <ele>1107.9</ele>
        <time>2021-11-25T09:38:46Z</time>
      </trkpt>
      <trkpt lat="46.60837" lon="6.06176">
        <ele>1108.2</ele>
        <time>2021-11-25T09:38:51Z</time>
      </trkpt>
      <trkpt lat="46.60836" lon="6.06184">
        <ele>1108.2</ele>
        <time>2021-11-25T09:38:56Z</time>
      </trkpt>
      <trkpt lat="46.60836" lon="6.06191">
        <ele>1108.2</ele>
        <time>2021-11-25T09:39:01Z</time>
      </trkpt>
      <trkpt lat="46.60835" lon="6.06198">
        <ele>1108.2</ele>
        <time>2021-11-25T09:39:06Z</time>
      </trkpt>
      <trkpt lat="46.60833" lon="6.06205">
        <ele>1108.2</ele>
        <time>2021-11-25T09:39:10Z</time>
      </trkpt>
      <trkpt lat="46.60831" lon="6.06212">
        <ele>1108.3</ele>
        <time>2021-11-25T09:39:15Z</time>
      </trkpt>
      <trkpt lat="46.6083" lon="6.06218">
        <ele>1108.3</ele>
        <time>2021-11-25T09:39:19Z</time>
      </trkpt>
      <trkpt lat="46.60828" lon="6.06224">
        <ele>1108.4</ele>
        <time>2021-11-25T09:39:23Z</time>
      </trkpt>
      <trkpt lat="46.60825" lon="6.0623">
        <ele>1108.8</ele>
        <time>2021-11-25T09:39:27Z</time>
      </trkpt>
      <trkpt lat="46.60824" lon="6.06237">
        <ele>1109.7</ele>
        <time>2021-11-25T09:39:32Z</time>
      </trkpt>
      <trkpt lat="46.60824" lon="6.06244">
        <ele>1110.3</ele>
        <time>2021-11-25T09:39:37Z</time>
      </trkpt>
      <trkpt lat="46.60822" lon="6.0625">
        <ele>1110.4</ele>
        <time>2021-11-25T09:39:41Z</time>
      </trkpt>
      <trkpt lat="46.6082" lon="6.06257">
        <ele>1110.1</ele>
        <time>2021-11-25T09:39:45Z</time>
      </trkpt>
      <trkpt lat="46.60816" lon="6.06261">
        <ele>1110</ele>
        <time>2021-11-25T09:39:51Z</time>
      </trkpt>
      <trkpt lat="46.60813" lon="6.06266">
        <ele>1109.8</ele>
        <time>2021-11-25T09:39:57Z</time>
      </trkpt>
      <trkpt lat="46.60808" lon="6.06269">
        <ele>1109.2</ele>
        <time>2021-11-25T09:40:02Z</time>
      </trkpt>
      <trkpt lat="46.60803" lon="6.06271">
        <ele>1108.7</ele>
        <time>2021-11-25T09:40:05Z</time>
      </trkpt>
      <trkpt lat="46.60799" lon="6.06274">
        <ele>1108.3</ele>
        <time>2021-11-25T09:40:08Z</time>
      </trkpt>
      <trkpt lat="46.60794" lon="6.06277">
        <ele>1107.8</ele>
        <time>2021-11-25T09:40:12Z</time>
      </trkpt>
      <trkpt lat="46.60789" lon="6.06279">
        <ele>1107.4</ele>
        <time>2021-11-25T09:40:17Z</time>
      </trkpt>
      <trkpt lat="46.60783" lon="6.0628">
        <ele>1106.7</ele>
        <time>2021-11-25T09:40:23Z</time>
      </trkpt>
      <trkpt lat="46.60779" lon="6.06282">
        <ele>1105.5</ele>
        <time>2021-11-25T09:40:28Z</time>
      </trkpt>
      <trkpt lat="46.60775" lon="6.06285">
        <ele>1103.3</ele>
        <time>2021-11-25T09:40:34Z</time>
      </trkpt>
      <trkpt lat="46.60771" lon="6.06289">
        <ele>1101.8</ele>
        <time>2021-11-25T09:40:38Z</time>
      </trkpt>
      <trkpt lat="46.60766" lon="6.06292">
        <ele>1100.3</ele>
        <time>2021-11-25T09:40:42Z</time>
      </trkpt>
      <trkpt lat="46.60761" lon="6.06295">
        <ele>1099.2</ele>
        <time>2021-11-25T09:40:47Z</time>
      </trkpt>
      <trkpt lat="46.60757" lon="6.06298">
        <ele>1098.5</ele>
        <time>2021-11-25T09:40:51Z</time>
      </trkpt>
      <trkpt lat="46.60752" lon="6.06301">
        <ele>1097.9</ele>
        <time>2021-11-25T09:40:56Z</time>
      </trkpt>
      <trkpt lat="46.60747" lon="6.06303">
        <ele>1097</ele>
        <time>2021-11-25T09:41:01Z</time>
      </trkpt>
      <trkpt lat="46.60742" lon="6.06307">
        <ele>1095.9</ele>
        <time>2021-11-25T09:41:06Z</time>
      </trkpt>
      <trkpt lat="46.60738" lon="6.06309">
        <ele>1094.7</ele>
        <time>2021-11-25T09:41:11Z</time>
      </trkpt>
      <trkpt lat="46.60732" lon="6.06309">
        <ele>1094.4</ele>
        <time>2021-11-25T09:41:15Z</time>
      </trkpt>
      <trkpt lat="46.60728" lon="6.0631">
        <ele>1094.1</ele>
        <time>2021-11-25T09:41:19Z</time>
      </trkpt>
      <trkpt lat="46.60723" lon="6.06312">
        <ele>1094.2</ele>
        <time>2021-11-25T09:41:24Z</time>
      </trkpt>
      <trkpt lat="46.60718" lon="6.06313">
        <ele>1094.5</ele>
        <time>2021-11-25T09:41:28Z</time>
      </trkpt>
      <trkpt lat="46.60713" lon="6.06315">
        <ele>1094.5</ele>
        <time>2021-11-25T09:41:33Z</time>
      </trkpt>
      <trkpt lat="46.60708" lon="6.06315">
        <ele>1094.7</ele>
        <time>2021-11-25T09:41:38Z</time>
      </trkpt>
      <trkpt lat="46.60704" lon="6.06318">
        <ele>1094.9</ele>
        <time>2021-11-25T09:41:43Z</time>
      </trkpt>
      <trkpt lat="46.60699" lon="6.06322">
        <ele>1094.8</ele>
        <time>2021-11-25T09:41:48Z</time>
      </trkpt>
      <trkpt lat="46.60694" lon="6.06325">
        <ele>1094.6</ele>
        <time>2021-11-25T09:41:53Z</time>
      </trkpt>
      <trkpt lat="46.6069" lon="6.06327">
        <ele>1093.4</ele>
        <time>2021-11-25T09:41:59Z</time>
      </trkpt>
      <trkpt lat="46.60686" lon="6.06329">
        <ele>1092.2</ele>
        <time>2021-11-25T09:42:04Z</time>
      </trkpt>
      <trkpt lat="46.6068" lon="6.06328">
        <ele>1091.7</ele>
        <time>2021-11-25T09:42:08Z</time>
      </trkpt>
      <trkpt lat="46.60675" lon="6.06326">
        <ele>1091.7</ele>
        <time>2021-11-25T09:42:13Z</time>
      </trkpt>
      <trkpt lat="46.60671" lon="6.06328">
        <ele>1092.1</ele>
        <time>2021-11-25T09:42:19Z</time>
      </trkpt>
      <trkpt lat="46.60666" lon="6.06331">
        <ele>1092.2</ele>
        <time>2021-11-25T09:42:26Z</time>
      </trkpt>
      <trkpt lat="46.60662" lon="6.06333">
        <ele>1092</ele>
        <time>2021-11-25T09:42:31Z</time>
      </trkpt>
      <trkpt lat="46.60658" lon="6.06337">
        <ele>1091.8</ele>
        <time>2021-11-25T09:42:36Z</time>
      </trkpt>
      <trkpt lat="46.60653" lon="6.06342">
        <ele>1091.3</ele>
        <time>2021-11-25T09:42:42Z</time>
      </trkpt>
      <trkpt lat="46.60651" lon="6.06348">
        <ele>1090.7</ele>
        <time>2021-11-25T09:42:46Z</time>
      </trkpt>
      <trkpt lat="46.60648" lon="6.06354">
        <ele>1090.1</ele>
        <time>2021-11-25T09:42:50Z</time>
      </trkpt>
      <trkpt lat="46.60645" lon="6.06359">
        <ele>1089.3</ele>
        <time>2021-11-25T09:42:54Z</time>
      </trkpt>
      <trkpt lat="46.60645" lon="6.06365">
        <ele>1088.5</ele>
        <time>2021-11-25T09:43:00Z</time>
      </trkpt>
      <trkpt lat="46.6065" lon="6.06368">
        <ele>1088</ele>
        <time>2021-11-25T09:43:06Z</time>
      </trkpt>
      <trkpt lat="46.6064" lon="6.06368">
        <ele>1088.9</ele>
        <time>2021-11-25T09:43:37Z</time>
      </trkpt>
      <trkpt lat="46.6064" lon="6.06376">
        <ele>1089.3</ele>
        <time>2021-11-25T09:43:40Z</time>
      </trkpt>
      <trkpt lat="46.60638" lon="6.06383">
        <ele>1089.5</ele>
        <time>2021-11-25T09:43:44Z</time>
      </trkpt>
      <trkpt lat="46.60635" lon="6.06389">
        <ele>1090.2</ele>
        <time>2021-11-25T09:43:48Z</time>
      </trkpt>
      <trkpt lat="46.60633" lon="6.06396">
        <ele>1090.9</ele>
        <time>2021-11-25T09:43:52Z</time>
      </trkpt>
      <trkpt lat="46.60631" lon="6.06402">
        <ele>1091.7</ele>
        <time>2021-11-25T09:43:56Z</time>
      </trkpt>
      <trkpt lat="46.60628" lon="6.0641">
        <ele>1092.2</ele>
        <time>2021-11-25T09:44:00Z</time>
      </trkpt>
      <trkpt lat="46.60627" lon="6.06418">
        <ele>1092.4</ele>
        <time>2021-11-25T09:44:04Z</time>
      </trkpt>
      <trkpt lat="46.60626" lon="6.06425">
        <ele>1092.1</ele>
        <time>2021-11-25T09:44:07Z</time>
      </trkpt>
      <trkpt lat="46.60625" lon="6.06432">
        <ele>1092</ele>
        <time>2021-11-25T09:44:11Z</time>
      </trkpt>
      <trkpt lat="46.60622" lon="6.06437">
        <ele>1091.5</ele>
        <time>2021-11-25T09:44:15Z</time>
      </trkpt>
      <trkpt lat="46.60618" lon="6.06441">
        <ele>1091</ele>
        <time>2021-11-25T09:44:19Z</time>
      </trkpt>
      <trkpt lat="46.60614" lon="6.06447">
        <ele>1090.2</ele>
        <time>2021-11-25T09:44:23Z</time>
      </trkpt>
      <trkpt lat="46.60611" lon="6.06454">
        <ele>1089.6</ele>
        <time>2021-11-25T09:44:27Z</time>
      </trkpt>
      <trkpt lat="46.60608" lon="6.06461">
        <ele>1089.5</ele>
        <time>2021-11-25T09:44:31Z</time>
      </trkpt>
      <trkpt lat="46.60606" lon="6.06466">
        <ele>1089.3</ele>
        <time>2021-11-25T09:44:34Z</time>
      </trkpt>
      <trkpt lat="46.60603" lon="6.06474">
        <ele>1088.7</ele>
        <time>2021-11-25T09:44:38Z</time>
      </trkpt>
      <trkpt lat="46.60601" lon="6.06481">
        <ele>1088.1</ele>
        <time>2021-11-25T09:44:42Z</time>
      </trkpt>
      <trkpt lat="46.606" lon="6.06488">
        <ele>1087.6</ele>
        <time>2021-11-25T09:44:46Z</time>
      </trkpt>
      <trkpt lat="46.60601" lon="6.06494">
        <ele>1086.9</ele>
        <time>2021-11-25T09:44:49Z</time>
      </trkpt>
      <trkpt lat="46.60601" lon="6.06502">
        <ele>1086.5</ele>
        <time>2021-11-25T09:44:53Z</time>
      </trkpt>
      <trkpt lat="46.606" lon="6.06509">
        <ele>1086.4</ele>
        <time>2021-11-25T09:44:56Z</time>
      </trkpt>
      <trkpt lat="46.60598" lon="6.06516">
        <ele>1086.9</ele>
        <time>2021-11-25T09:45:00Z</time>
      </trkpt>
      <trkpt lat="46.60596" lon="6.06523">
        <ele>1087.8</ele>
        <time>2021-11-25T09:45:04Z</time>
      </trkpt>
      <trkpt lat="46.60593" lon="6.06528">
        <ele>1089.2</ele>
        <time>2021-11-25T09:45:08Z</time>
      </trkpt>
      <trkpt lat="46.60589" lon="6.06532">
        <ele>1090</ele>
        <time>2021-11-25T09:45:11Z</time>
      </trkpt>
      <trkpt lat="46.60586" lon="6.06537">
        <ele>1091</ele>
        <time>2021-11-25T09:45:14Z</time>
      </trkpt>
      <trkpt lat="46.60582" lon="6.06542">
        <ele>1091.7</ele>
        <time>2021-11-25T09:45:17Z</time>
      </trkpt>
      <trkpt lat="46.60578" lon="6.06547">
        <ele>1092.1</ele>
        <time>2021-11-25T09:45:20Z</time>
      </trkpt>
      <trkpt lat="46.60575" lon="6.06553">
        <ele>1092.4</ele>
        <time>2021-11-25T09:45:24Z</time>
      </trkpt>
      <trkpt lat="46.60575" lon="6.06561">
        <ele>1092.6</ele>
        <time>2021-11-25T09:45:28Z</time>
      </trkpt>
      <trkpt lat="46.60576" lon="6.06569">
        <ele>1092.3</ele>
        <time>2021-11-25T09:45:32Z</time>
      </trkpt>
      <trkpt lat="46.60575" lon="6.06575">
        <ele>1091.1</ele>
        <time>2021-11-25T09:45:37Z</time>
      </trkpt>
      <trkpt lat="46.60575" lon="6.06582">
        <ele>1090.2</ele>
        <time>2021-11-25T09:45:41Z</time>
      </trkpt>
      <trkpt lat="46.60575" lon="6.0659">
        <ele>1089.2</ele>
        <time>2021-11-25T09:45:45Z</time>
      </trkpt>
      <trkpt lat="46.60574" lon="6.06596">
        <ele>1088.4</ele>
        <time>2021-11-25T09:45:49Z</time>
      </trkpt>
      <trkpt lat="46.60571" lon="6.06603">
        <ele>1086.8</ele>
        <time>2021-11-25T09:45:54Z</time>
      </trkpt>
      <trkpt lat="46.60568" lon="6.06609">
        <ele>1085.9</ele>
        <time>2021-11-25T09:45:58Z</time>
      </trkpt>
      <trkpt lat="46.60564" lon="6.06614">
        <ele>1084.9</ele>
        <time>2021-11-25T09:46:03Z</time>
      </trkpt>
      <trkpt lat="46.60559" lon="6.06618">
        <ele>1083.9</ele>
        <time>2021-11-25T09:46:07Z</time>
      </trkpt>
      <trkpt lat="46.60555" lon="6.06623">
        <ele>1082.6</ele>
        <time>2021-11-25T09:46:11Z</time>
      </trkpt>
      <trkpt lat="46.60552" lon="6.0663">
        <ele>1081.8</ele>
        <time>2021-11-25T09:46:15Z</time>
      </trkpt>
      <trkpt lat="46.6055" lon="6.06637">
        <ele>1081.4</ele>
        <time>2021-11-25T09:46:19Z</time>
      </trkpt>
      <trkpt lat="46.60548" lon="6.06643">
        <ele>1081.5</ele>
        <time>2021-11-25T09:46:22Z</time>
      </trkpt>
      <trkpt lat="46.60545" lon="6.06648">
        <ele>1081.8</ele>
        <time>2021-11-25T09:46:25Z</time>
      </trkpt>
      <trkpt lat="46.60541" lon="6.06652">
        <ele>1082.4</ele>
        <time>2021-11-25T09:46:29Z</time>
      </trkpt>
      <trkpt lat="46.6054" lon="6.06659">
        <ele>1085</ele>
        <time>2021-11-25T09:46:35Z</time>
      </trkpt>
      <trkpt lat="46.6054" lon="6.06666">
        <ele>1089</ele>
        <time>2021-11-25T09:46:41Z</time>
      </trkpt>
      <trkpt lat="46.60537" lon="6.06672">
        <ele>1092.4</ele>
        <time>2021-11-25T09:46:49Z</time>
      </trkpt>
      <trkpt lat="46.60536" lon="6.06679">
        <ele>1093.6</ele>
        <time>2021-11-25T09:46:55Z</time>
      </trkpt>
      <trkpt lat="46.60535" lon="6.06685">
        <ele>1094.7</ele>
        <time>2021-11-25T09:47:00Z</time>
      </trkpt>
      <trkpt lat="46.60531" lon="6.06691">
        <ele>1096.2</ele>
        <time>2021-11-25T09:47:07Z</time>
      </trkpt>
      <trkpt lat="46.60531" lon="6.06698">
        <ele>1097.3</ele>
        <time>2021-11-25T09:47:13Z</time>
      </trkpt>
      <trkpt lat="46.60529" lon="6.06705">
        <ele>1098.2</ele>
        <time>2021-11-25T09:47:22Z</time>
      </trkpt>
      <trkpt lat="46.60533" lon="6.06708">
        <ele>1103.4</ele>
        <time>2021-11-25T09:48:18Z</time>
      </trkpt>
      <trkpt lat="46.60536" lon="6.06714">
        <ele>1104.4</ele>
        <time>2021-11-25T09:48:24Z</time>
      </trkpt>
      <trkpt lat="46.60538" lon="6.06721">
        <ele>1104.3</ele>
        <time>2021-11-25T09:48:34Z</time>
      </trkpt>
      <trkpt lat="46.60541" lon="6.06726">
        <ele>1103.7</ele>
        <time>2021-11-25T09:48:40Z</time>
      </trkpt>
      <trkpt lat="46.60545" lon="6.0673">
        <ele>1102.8</ele>
        <time>2021-11-25T09:48:49Z</time>
      </trkpt>
      <trkpt lat="46.60549" lon="6.06735">
        <ele>1103</ele>
        <time>2021-11-25T09:48:59Z</time>
      </trkpt>
      <trkpt lat="46.60551" lon="6.06741">
        <ele>1103.6</ele>
        <time>2021-11-25T09:49:04Z</time>
      </trkpt>
      <trkpt lat="46.60554" lon="6.06747">
        <ele>1104.3</ele>
        <time>2021-11-25T09:49:10Z</time>
      </trkpt>
      <trkpt lat="46.60558" lon="6.06752">
        <ele>1105</ele>
        <time>2021-11-25T09:49:15Z</time>
      </trkpt>
      <trkpt lat="46.60561" lon="6.06757">
        <ele>1105.9</ele>
        <time>2021-11-25T09:49:21Z</time>
      </trkpt>
      <trkpt lat="46.60562" lon="6.06765">
        <ele>1106.4</ele>
        <time>2021-11-25T09:49:28Z</time>
      </trkpt>
      <trkpt lat="46.60563" lon="6.06771">
        <ele>1108.1</ele>
        <time>2021-11-25T09:49:39Z</time>
      </trkpt>
      <trkpt lat="46.60566" lon="6.06777">
        <ele>1109.3</ele>
        <time>2021-11-25T09:49:45Z</time>
      </trkpt>
      <trkpt lat="46.6057" lon="6.06779">
        <ele>1109.9</ele>
        <time>2021-11-25T09:49:50Z</time>
      </trkpt>
      <trkpt lat="46.60574" lon="6.06782">
        <ele>1111.3</ele>
        <time>2021-11-25T09:49:58Z</time>
      </trkpt>
      <trkpt lat="46.60579" lon="6.06786">
        <ele>1113.3</ele>
        <time>2021-11-25T09:50:10Z</time>
      </trkpt>
      <trkpt lat="46.60584" lon="6.06789">
        <ele>1113</ele>
        <time>2021-11-25T09:50:15Z</time>
      </trkpt>
      <trkpt lat="46.60588" lon="6.06792">
        <ele>1112.9</ele>
        <time>2021-11-25T09:50:22Z</time>
      </trkpt>
      <trkpt lat="46.60593" lon="6.06797">
        <ele>1113.1</ele>
        <time>2021-11-25T09:50:27Z</time>
      </trkpt>
      <trkpt lat="46.60596" lon="6.06802">
        <ele>1113.9</ele>
        <time>2021-11-25T09:50:32Z</time>
      </trkpt>
      <trkpt lat="46.606" lon="6.06806">
        <ele>1115.4</ele>
        <time>2021-11-25T09:50:39Z</time>
      </trkpt>
      <trkpt lat="46.60603" lon="6.06812">
        <ele>1117.4</ele>
        <time>2021-11-25T09:50:49Z</time>
      </trkpt>
      <trkpt lat="46.60606" lon="6.06817">
        <ele>1118.7</ele>
        <time>2021-11-25T09:50:56Z</time>
      </trkpt>
      <trkpt lat="46.6061" lon="6.06822">
        <ele>1120.8</ele>
        <time>2021-11-25T09:51:06Z</time>
      </trkpt>
      <trkpt lat="46.60614" lon="6.06823">
        <ele>1126</ele>
        <time>2021-11-25T09:51:47Z</time>
      </trkpt>
      <trkpt lat="46.60619" lon="6.06824">
        <ele>1126.3</ele>
        <time>2021-11-25T09:51:52Z</time>
      </trkpt>
      <trkpt lat="46.60624" lon="6.06823">
        <ele>1126.3</ele>
        <time>2021-11-25T09:52:00Z</time>
      </trkpt>
      <trkpt lat="46.60628" lon="6.06825">
        <ele>1125.4</ele>
        <time>2021-11-25T09:52:08Z</time>
      </trkpt>
      <trkpt lat="46.60633" lon="6.06824">
        <ele>1124.8</ele>
        <time>2021-11-25T09:52:14Z</time>
      </trkpt>
      <trkpt lat="46.60638" lon="6.06824">
        <ele>1123.9</ele>
        <time>2021-11-25T09:52:23Z</time>
      </trkpt>
      <trkpt lat="46.60642" lon="6.06827">
        <ele>1123.9</ele>
        <time>2021-11-25T09:52:28Z</time>
      </trkpt>
      <trkpt lat="46.60647" lon="6.06829">
        <ele>1123.4</ele>
        <time>2021-11-25T09:52:34Z</time>
      </trkpt>
      <trkpt lat="46.60652" lon="6.0683">
        <ele>1122.9</ele>
        <time>2021-11-25T09:52:39Z</time>
      </trkpt>
      <trkpt lat="46.60657" lon="6.0683">
        <ele>1122.2</ele>
        <time>2021-11-25T09:52:44Z</time>
      </trkpt>
      <trkpt lat="46.60662" lon="6.0683">
        <ele>1122.2</ele>
        <time>2021-11-25T09:52:50Z</time>
      </trkpt>
      <trkpt lat="46.60666" lon="6.06831">
        <ele>1122.8</ele>
        <time>2021-11-25T09:52:55Z</time>
      </trkpt>
      <trkpt lat="46.60671" lon="6.06833">
        <ele>1123.5</ele>
        <time>2021-11-25T09:53:01Z</time>
      </trkpt>
      <trkpt lat="46.60677" lon="6.06833">
        <ele>1123.7</ele>
        <time>2021-11-25T09:53:07Z</time>
      </trkpt>
      <trkpt lat="46.60682" lon="6.06834">
        <ele>1123.6</ele>
        <time>2021-11-25T09:53:12Z</time>
      </trkpt>
      <trkpt lat="46.60687" lon="6.06833">
        <ele>1123.7</ele>
        <time>2021-11-25T09:53:17Z</time>
      </trkpt>
      <trkpt lat="46.60692" lon="6.06833">
        <ele>1123.8</ele>
        <time>2021-11-25T09:53:24Z</time>
      </trkpt>
      <trkpt lat="46.60696" lon="6.0683">
        <ele>1124.4</ele>
        <time>2021-11-25T09:53:30Z</time>
      </trkpt>
      <trkpt lat="46.60701" lon="6.06827">
        <ele>1125.3</ele>
        <time>2021-11-25T09:53:37Z</time>
      </trkpt>
      <trkpt lat="46.60706" lon="6.06826">
        <ele>1125.8</ele>
        <time>2021-11-25T09:53:42Z</time>
      </trkpt>
      <trkpt lat="46.60711" lon="6.06824">
        <ele>1126</ele>
        <time>2021-11-25T09:53:46Z</time>
      </trkpt>
      <trkpt lat="46.60715" lon="6.06822">
        <ele>1126.8</ele>
        <time>2021-11-25T09:53:51Z</time>
      </trkpt>
      <trkpt lat="46.6072" lon="6.06822">
        <ele>1127.2</ele>
        <time>2021-11-25T09:53:57Z</time>
      </trkpt>
      <trkpt lat="46.60724" lon="6.06819">
        <ele>1126.9</ele>
        <time>2021-11-25T09:54:03Z</time>
      </trkpt>
      <trkpt lat="46.60728" lon="6.06816">
        <ele>1126.3</ele>
        <time>2021-11-25T09:54:10Z</time>
      </trkpt>
      <trkpt lat="46.60733" lon="6.06815">
        <ele>1125.7</ele>
        <time>2021-11-25T09:54:18Z</time>
      </trkpt>
      <trkpt lat="46.60738" lon="6.06813">
        <ele>1125.2</ele>
        <time>2021-11-25T09:54:26Z</time>
      </trkpt>
      <trkpt lat="46.60742" lon="6.0681">
        <ele>1125</ele>
        <time>2021-11-25T09:54:32Z</time>
      </trkpt>
      <trkpt lat="46.60747" lon="6.06807">
        <ele>1124.6</ele>
        <time>2021-11-25T09:54:38Z</time>
      </trkpt>
      <trkpt lat="46.60751" lon="6.06803">
        <ele>1124.3</ele>
        <time>2021-11-25T09:54:44Z</time>
      </trkpt>
      <trkpt lat="46.60754" lon="6.06795">
        <ele>1123.7</ele>
        <time>2021-11-25T09:54:56Z</time>
      </trkpt>
      <trkpt lat="46.60756" lon="6.06789">
        <ele>1123.6</ele>
        <time>2021-11-25T09:55:01Z</time>
      </trkpt>
      <trkpt lat="46.60757" lon="6.06782">
        <ele>1123.5</ele>
        <time>2021-11-25T09:55:06Z</time>
      </trkpt>
      <trkpt lat="46.60758" lon="6.06776">
        <ele>1123.3</ele>
        <time>2021-11-25T09:55:11Z</time>
      </trkpt>
      <trkpt lat="46.6076" lon="6.0677">
        <ele>1123.1</ele>
        <time>2021-11-25T09:55:16Z</time>
      </trkpt>
      <trkpt lat="46.60762" lon="6.06764">
        <ele>1122.9</ele>
        <time>2021-11-25T09:55:21Z</time>
      </trkpt>
      <trkpt lat="46.60765" lon="6.06758">
        <ele>1122.8</ele>
        <time>2021-11-25T09:55:26Z</time>
      </trkpt>
      <trkpt lat="46.60768" lon="6.06753">
        <ele>1122.6</ele>
        <time>2021-11-25T09:55:33Z</time>
      </trkpt>
      <trkpt lat="46.60774" lon="6.06747">
        <ele>1122.7</ele>
        <time>2021-11-25T09:55:47Z</time>
      </trkpt>
      <trkpt lat="46.60779" lon="6.06742">
        <ele>1122.9</ele>
        <time>2021-11-25T09:55:50Z</time>
      </trkpt>
      <trkpt lat="46.60784" lon="6.06738">
        <ele>1123</ele>
        <time>2021-11-25T09:55:53Z</time>
      </trkpt>
      <trkpt lat="46.60787" lon="6.06732">
        <ele>1123.4</ele>
        <time>2021-11-25T09:55:57Z</time>
      </trkpt>
      <trkpt lat="46.60787" lon="6.06724">
        <ele>1124.4</ele>
        <time>2021-11-25T09:56:03Z</time>
      </trkpt>
      <trkpt lat="46.60787" lon="6.06717">
        <ele>1125.4</ele>
        <time>2021-11-25T09:56:08Z</time>
      </trkpt>
      <trkpt lat="46.60791" lon="6.06712">
        <ele>1125.8</ele>
        <time>2021-11-25T09:56:15Z</time>
      </trkpt>
      <trkpt lat="46.60795" lon="6.0671">
        <ele>1128.1</ele>
        <time>2021-11-25T09:56:28Z</time>
      </trkpt>
      <trkpt lat="46.60799" lon="6.06705">
        <ele>1128.9</ele>
        <time>2021-11-25T09:56:34Z</time>
      </trkpt>
      <trkpt lat="46.60801" lon="6.06699">
        <ele>1129.2</ele>
        <time>2021-11-25T09:56:39Z</time>
      </trkpt>
      <trkpt lat="46.60803" lon="6.06692">
        <ele>1129.1</ele>
        <time>2021-11-25T09:56:47Z</time>
      </trkpt>
      <trkpt lat="46.60807" lon="6.06689">
        <ele>1128.3</ele>
        <time>2021-11-25T09:56:56Z</time>
      </trkpt>
      <trkpt lat="46.60812" lon="6.06689">
        <ele>1128.1</ele>
        <time>2021-11-25T09:57:02Z</time>
      </trkpt>
      <trkpt lat="46.60806" lon="6.0669">
        <ele>1126.9</ele>
        <time>2021-11-25T09:57:08Z</time>
      </trkpt>
      <trkpt lat="46.60806" lon="6.06697">
        <ele>1124.1</ele>
        <time>2021-11-25T09:57:49Z</time>
      </trkpt>
      <trkpt lat="46.60805" lon="6.06704">
        <ele>1120.8</ele>
        <time>2021-11-25T09:58:04Z</time>
      </trkpt>
      <trkpt lat="46.60806" lon="6.06711">
        <ele>1119.6</ele>
        <time>2021-11-25T09:58:10Z</time>
      </trkpt>
      <trkpt lat="46.60807" lon="6.06718">
        <ele>1119</ele>
        <time>2021-11-25T09:58:16Z</time>
      </trkpt>
      <trkpt lat="46.60809" lon="6.06724">
        <ele>1119.2</ele>
        <time>2021-11-25T09:58:21Z</time>
      </trkpt>
      <trkpt lat="46.6081" lon="6.06731">
        <ele>1119.7</ele>
        <time>2021-11-25T09:58:24Z</time>
      </trkpt>
      <trkpt lat="46.60811" lon="6.06738">
        <ele>1120.6</ele>
        <time>2021-11-25T09:58:28Z</time>
      </trkpt>
      <trkpt lat="46.60813" lon="6.06744">
        <ele>1121.4</ele>
        <time>2021-11-25T09:58:32Z</time>
      </trkpt>
      <trkpt lat="46.60816" lon="6.06751">
        <ele>1121.6</ele>
        <time>2021-11-25T09:58:37Z</time>
      </trkpt>
      <trkpt lat="46.60819" lon="6.06756">
        <ele>1121.4</ele>
        <time>2021-11-25T09:58:43Z</time>
      </trkpt>
      <trkpt lat="46.60822" lon="6.0676">
        <ele>1121.3</ele>
        <time>2021-11-25T09:58:48Z</time>
      </trkpt>
      <trkpt lat="46.60827" lon="6.06762">
        <ele>1121.3</ele>
        <time>2021-11-25T09:58:53Z</time>
      </trkpt>
      <trkpt lat="46.60832" lon="6.06764">
        <ele>1121.9</ele>
        <time>2021-11-25T09:59:09Z</time>
      </trkpt>
      <trkpt lat="46.60837" lon="6.06764">
        <ele>1125</ele>
        <time>2021-11-25T09:59:25Z</time>
      </trkpt>
      <trkpt lat="46.60842" lon="6.06763">
        <ele>1126</ele>
        <time>2021-11-25T09:59:30Z</time>
      </trkpt>
      <trkpt lat="46.60847" lon="6.06762">
        <ele>1126.8</ele>
        <time>2021-11-25T09:59:35Z</time>
      </trkpt>
      <trkpt lat="46.60848" lon="6.06756">
        <ele>1128.1</ele>
        <time>2021-11-25T09:59:46Z</time>
      </trkpt>
      <trkpt lat="46.60852" lon="6.0675">
        <ele>1129.4</ele>
        <time>2021-11-25T09:59:53Z</time>
      </trkpt>
      <trkpt lat="46.60856" lon="6.06746">
        <ele>1130</ele>
        <time>2021-11-25T09:59:58Z</time>
      </trkpt>
      <trkpt lat="46.6086" lon="6.06742">
        <ele>1130.4</ele>
        <time>2021-11-25T10:00:03Z</time>
      </trkpt>
      <trkpt lat="46.60864" lon="6.06737">
        <ele>1130.8</ele>
        <time>2021-11-25T10:00:09Z</time>
      </trkpt>
      <trkpt lat="46.60865" lon="6.0673">
        <ele>1131.2</ele>
        <time>2021-11-25T10:00:13Z</time>
      </trkpt>
      <trkpt lat="46.60867" lon="6.06723">
        <ele>1131.8</ele>
        <time>2021-11-25T10:00:19Z</time>
      </trkpt>
      <trkpt lat="46.60869" lon="6.06717">
        <ele>1132.3</ele>
        <time>2021-11-25T10:00:24Z</time>
      </trkpt>
      <trkpt lat="46.60871" lon="6.0671">
        <ele>1132.9</ele>
        <time>2021-11-25T10:00:29Z</time>
      </trkpt>
      <trkpt lat="46.60874" lon="6.06704">
        <ele>1133.9</ele>
        <time>2021-11-25T10:00:35Z</time>
      </trkpt>
      <trkpt lat="46.60877" lon="6.06699">
        <ele>1134.9</ele>
        <time>2021-11-25T10:00:40Z</time>
      </trkpt>
      <trkpt lat="46.60882" lon="6.06694">
        <ele>1135.2</ele>
        <time>2021-11-25T10:00:45Z</time>
      </trkpt>
      <trkpt lat="46.60885" lon="6.0669">
        <ele>1135.2</ele>
        <time>2021-11-25T10:00:50Z</time>
      </trkpt>
      <trkpt lat="46.60887" lon="6.06682">
        <ele>1134.6</ele>
        <time>2021-11-25T10:00:58Z</time>
      </trkpt>
      <trkpt lat="46.60889" lon="6.06677">
        <ele>1134.4</ele>
        <time>2021-11-25T10:01:03Z</time>
      </trkpt>
      <trkpt lat="46.60893" lon="6.06672">
        <ele>1133.9</ele>
        <time>2021-11-25T10:01:09Z</time>
      </trkpt>
      <trkpt lat="46.60896" lon="6.06667">
        <ele>1133.1</ele>
        <time>2021-11-25T10:01:16Z</time>
      </trkpt>
      <trkpt lat="46.609" lon="6.06663">
        <ele>1132.5</ele>
        <time>2021-11-25T10:01:22Z</time>
      </trkpt>
      <trkpt lat="46.60903" lon="6.06657">
        <ele>1132.6</ele>
        <time>2021-11-25T10:01:26Z</time>
      </trkpt>
      <trkpt lat="46.60905" lon="6.06651">
        <ele>1132.3</ele>
        <time>2021-11-25T10:01:32Z</time>
      </trkpt>
      <trkpt lat="46.60907" lon="6.06644">
        <ele>1132.2</ele>
        <time>2021-11-25T10:01:38Z</time>
      </trkpt>
      <trkpt lat="46.6091" lon="6.06638">
        <ele>1132</ele>
        <time>2021-11-25T10:01:42Z</time>
      </trkpt>
      <trkpt lat="46.60912" lon="6.06632">
        <ele>1131.9</ele>
        <time>2021-11-25T10:01:47Z</time>
      </trkpt>
      <trkpt lat="46.60915" lon="6.06626">
        <ele>1131.7</ele>
        <time>2021-11-25T10:01:55Z</time>
      </trkpt>
      <trkpt lat="46.60917" lon="6.0662">
        <ele>1131.8</ele>
        <time>2021-11-25T10:02:00Z</time>
      </trkpt>
      <trkpt lat="46.6092" lon="6.06615">
        <ele>1132.2</ele>
        <time>2021-11-25T10:02:04Z</time>
      </trkpt>
      <trkpt lat="46.60922" lon="6.06608">
        <ele>1132.8</ele>
        <time>2021-11-25T10:02:07Z</time>
      </trkpt>
      <trkpt lat="46.60926" lon="6.06601">
        <ele>1133.3</ele>
        <time>2021-11-25T10:02:11Z</time>
      </trkpt>
      <trkpt lat="46.60929" lon="6.06598">
        <ele>1133.2</ele>
        <time>2021-11-25T10:02:16Z</time>
      </trkpt>
      <trkpt lat="46.60935" lon="6.06597">
        <ele>1133.2</ele>
        <time>2021-11-25T10:02:25Z</time>
      </trkpt>
      <trkpt lat="46.6094" lon="6.06595">
        <ele>1133.4</ele>
        <time>2021-11-25T10:02:29Z</time>
      </trkpt>
      <trkpt lat="46.60945" lon="6.06593">
        <ele>1133.4</ele>
        <time>2021-11-25T10:02:33Z</time>
      </trkpt>
      <trkpt lat="46.60949" lon="6.06589">
        <ele>1133.5</ele>
        <time>2021-11-25T10:02:39Z</time>
      </trkpt>
      <trkpt lat="46.60952" lon="6.06583">
        <ele>1134.3</ele>
        <time>2021-11-25T10:02:45Z</time>
      </trkpt>
      <trkpt lat="46.60955" lon="6.06577">
        <ele>1135.2</ele>
        <time>2021-11-25T10:02:51Z</time>
      </trkpt>
      <trkpt lat="46.60958" lon="6.0657">
        <ele>1135.7</ele>
        <time>2021-11-25T10:02:55Z</time>
      </trkpt>
      <trkpt lat="46.60958" lon="6.06563">
        <ele>1136.3</ele>
        <time>2021-11-25T10:02:59Z</time>
      </trkpt>
      <trkpt lat="46.6096" lon="6.06557">
        <ele>1136.6</ele>
        <time>2021-11-25T10:03:06Z</time>
      </trkpt>
      <trkpt lat="46.60961" lon="6.06551">
        <ele>1136.4</ele>
        <time>2021-11-25T10:03:12Z</time>
      </trkpt>
      <trkpt lat="46.60964" lon="6.06544">
        <ele>1136.4</ele>
        <time>2021-11-25T10:03:18Z</time>
      </trkpt>
      <trkpt lat="46.60964" lon="6.06537">
        <ele>1136.2</ele>
        <time>2021-11-25T10:03:23Z</time>
      </trkpt>
      <trkpt lat="46.60967" lon="6.06531">
        <ele>1136.1</ele>
        <time>2021-11-25T10:03:30Z</time>
      </trkpt>
      <trkpt lat="46.60969" lon="6.06525">
        <ele>1136.4</ele>
        <time>2021-11-25T10:03:36Z</time>
      </trkpt>
      <trkpt lat="46.60969" lon="6.06518">
        <ele>1136.1</ele>
        <time>2021-11-25T10:03:41Z</time>
      </trkpt>
      <trkpt lat="46.60967" lon="6.06511">
        <ele>1135.8</ele>
        <time>2021-11-25T10:03:45Z</time>
      </trkpt>
      <trkpt lat="46.60964" lon="6.06503">
        <ele>1135.7</ele>
        <time>2021-11-25T10:03:49Z</time>
      </trkpt>
      <trkpt lat="46.60961" lon="6.06498">
        <ele>1136.1</ele>
        <time>2021-11-25T10:03:55Z</time>
      </trkpt>
      <trkpt lat="46.60962" lon="6.06491">
        <ele>1136.4</ele>
        <time>2021-11-25T10:04:03Z</time>
      </trkpt>
      <trkpt lat="46.60964" lon="6.06485">
        <ele>1137.3</ele>
        <time>2021-11-25T10:04:10Z</time>
      </trkpt>
      <trkpt lat="46.60965" lon="6.06478">
        <ele>1138.3</ele>
        <time>2021-11-25T10:04:27Z</time>
      </trkpt>
      <trkpt lat="46.60969" lon="6.06473">
        <ele>1138.7</ele>
        <time>2021-11-25T10:04:32Z</time>
      </trkpt>
      <trkpt lat="46.60974" lon="6.06472">
        <ele>1139</ele>
        <time>2021-11-25T10:04:37Z</time>
      </trkpt>
      <trkpt lat="46.60978" lon="6.06471">
        <ele>1139</ele>
        <time>2021-11-25T10:04:43Z</time>
      </trkpt>
      <trkpt lat="46.60983" lon="6.06467">
        <ele>1139.2</ele>
        <time>2021-11-25T10:04:49Z</time>
      </trkpt>
      <trkpt lat="46.60987" lon="6.06463">
        <ele>1140</ele>
        <time>2021-11-25T10:04:55Z</time>
      </trkpt>
      <trkpt lat="46.60991" lon="6.06458">
        <ele>1140.5</ele>
        <time>2021-11-25T10:05:00Z</time>
      </trkpt>
      <trkpt lat="46.60994" lon="6.06453">
        <ele>1140.8</ele>
        <time>2021-11-25T10:05:04Z</time>
      </trkpt>
      <trkpt lat="46.60999" lon="6.06448">
        <ele>1141.9</ele>
        <time>2021-11-25T10:05:10Z</time>
      </trkpt>
      <trkpt lat="46.61002" lon="6.06443">
        <ele>1143.1</ele>
        <time>2021-11-25T10:05:17Z</time>
      </trkpt>
      <trkpt lat="46.61005" lon="6.06438">
        <ele>1143.9</ele>
        <time>2021-11-25T10:05:23Z</time>
      </trkpt>
      <trkpt lat="46.61008" lon="6.06432">
        <ele>1143.8</ele>
        <time>2021-11-25T10:05:28Z</time>
      </trkpt>
      <trkpt lat="46.61013" lon="6.0643">
        <ele>1143.2</ele>
        <time>2021-11-25T10:05:33Z</time>
      </trkpt>
      <trkpt lat="46.61018" lon="6.06428">
        <ele>1142.3</ele>
        <time>2021-11-25T10:05:39Z</time>
      </trkpt>
      <trkpt lat="46.61022" lon="6.06424">
        <ele>1141.8</ele>
        <time>2021-11-25T10:05:43Z</time>
      </trkpt>
      <trkpt lat="46.61025" lon="6.06418">
        <ele>1141.4</ele>
        <time>2021-11-25T10:05:47Z</time>
      </trkpt>
      <trkpt lat="46.61028" lon="6.06411">
        <ele>1140.3</ele>
        <time>2021-11-25T10:05:53Z</time>
      </trkpt>
      <trkpt lat="46.61031" lon="6.06407">
        <ele>1139.6</ele>
        <time>2021-11-25T10:06:02Z</time>
      </trkpt>
      <trkpt lat="46.61036" lon="6.06405">
        <ele>1139.8</ele>
        <time>2021-11-25T10:06:08Z</time>
      </trkpt>
      <trkpt lat="46.61031" lon="6.06407">
        <ele>1139.8</ele>
        <time>2021-11-25T10:06:26Z</time>
      </trkpt>
      <trkpt lat="46.61032" lon="6.06414">
        <ele>1139.5</ele>
        <time>2021-11-25T10:06:34Z</time>
      </trkpt>
      <trkpt lat="46.61034" lon="6.06421">
        <ele>1138.4</ele>
        <time>2021-11-25T10:06:39Z</time>
      </trkpt>
      <trkpt lat="46.61035" lon="6.06427">
        <ele>1136.8</ele>
        <time>2021-11-25T10:06:44Z</time>
      </trkpt>
      <trkpt lat="46.61036" lon="6.06434">
        <ele>1135.3</ele>
        <time>2021-11-25T10:06:48Z</time>
      </trkpt>
      <trkpt lat="46.61036" lon="6.06441">
        <ele>1133.7</ele>
        <time>2021-11-25T10:06:52Z</time>
      </trkpt>
      <trkpt lat="46.61036" lon="6.06448">
        <ele>1132.5</ele>
        <time>2021-11-25T10:06:56Z</time>
      </trkpt>
      <trkpt lat="46.61035" lon="6.06455">
        <ele>1131.4</ele>
        <time>2021-11-25T10:07:01Z</time>
      </trkpt>
      <trkpt lat="46.61033" lon="6.06461">
        <ele>1129.8</ele>
        <time>2021-11-25T10:07:06Z</time>
      </trkpt>
      <trkpt lat="46.6103" lon="6.06467">
        <ele>1128.8</ele>
        <time>2021-11-25T10:07:11Z</time>
      </trkpt>
      <trkpt lat="46.61027" lon="6.06472">
        <ele>1127.8</ele>
        <time>2021-11-25T10:07:16Z</time>
      </trkpt>
      <trkpt lat="46.61026" lon="6.06479">
        <ele>1127.4</ele>
        <time>2021-11-25T10:07:20Z</time>
      </trkpt>
      <trkpt lat="46.61026" lon="6.06487">
        <ele>1127.2</ele>
        <time>2021-11-25T10:07:24Z</time>
      </trkpt>
      <trkpt lat="46.61025" lon="6.06494">
        <ele>1127</ele>
        <time>2021-11-25T10:07:28Z</time>
      </trkpt>
      <trkpt lat="46.61024" lon="6.06501">
        <ele>1126.6</ele>
        <time>2021-11-25T10:07:33Z</time>
      </trkpt>
      <trkpt lat="46.61021" lon="6.06507">
        <ele>1126.4</ele>
        <time>2021-11-25T10:07:37Z</time>
      </trkpt>
      <trkpt lat="46.61018" lon="6.06513">
        <ele>1126.7</ele>
        <time>2021-11-25T10:07:42Z</time>
      </trkpt>
      <trkpt lat="46.61015" lon="6.0652">
        <ele>1126.5</ele>
        <time>2021-11-25T10:07:48Z</time>
      </trkpt>
      <trkpt lat="46.61015" lon="6.06527">
        <ele>1126.2</ele>
        <time>2021-11-25T10:07:54Z</time>
      </trkpt>
      <trkpt lat="46.61015" lon="6.06534">
        <ele>1125.8</ele>
        <time>2021-11-25T10:08:00Z</time>
      </trkpt>
      <trkpt lat="46.61013" lon="6.0654">
        <ele>1124.8</ele>
        <time>2021-11-25T10:08:07Z</time>
      </trkpt>
      <trkpt lat="46.61016" lon="6.06547">
        <ele>1123.9</ele>
        <time>2021-11-25T10:08:13Z</time>
      </trkpt>
      <trkpt lat="46.61019" lon="6.06553">
        <ele>1123</ele>
        <time>2021-11-25T10:08:17Z</time>
      </trkpt>
      <trkpt lat="46.61021" lon="6.0656">
        <ele>1121.9</ele>
        <time>2021-11-25T10:08:21Z</time>
      </trkpt>
      <trkpt lat="46.61022" lon="6.06567">
        <ele>1121</ele>
        <time>2021-11-25T10:08:26Z</time>
      </trkpt>
      <trkpt lat="46.61025" lon="6.06575">
        <ele>1120.1</ele>
        <time>2021-11-25T10:08:31Z</time>
      </trkpt>
      <trkpt lat="46.61029" lon="6.0658">
        <ele>1119.5</ele>
        <time>2021-11-25T10:08:36Z</time>
      </trkpt>
      <trkpt lat="46.61033" lon="6.06584">
        <ele>1118.9</ele>
        <time>2021-11-25T10:08:40Z</time>
      </trkpt>
      <trkpt lat="46.61038" lon="6.06589">
        <ele>1118.2</ele>
        <time>2021-11-25T10:08:44Z</time>
      </trkpt>
      <trkpt lat="46.61042" lon="6.06593">
        <ele>1117.4</ele>
        <time>2021-11-25T10:08:49Z</time>
      </trkpt>
      <trkpt lat="46.61046" lon="6.06597">
        <ele>1116.2</ele>
        <time>2021-11-25T10:08:56Z</time>
      </trkpt>
      <trkpt lat="46.6105" lon="6.06595">
        <ele>1116.5</ele>
        <time>2021-11-25T10:09:01Z</time>
      </trkpt>
      <trkpt lat="46.61054" lon="6.06589">
        <ele>1117.5</ele>
        <time>2021-11-25T10:09:07Z</time>
      </trkpt>
      <trkpt lat="46.61054" lon="6.06582">
        <ele>1118.2</ele>
        <time>2021-11-25T10:09:13Z</time>
      </trkpt>
      <trkpt lat="46.61057" lon="6.06576">
        <ele>1119.7</ele>
        <time>2021-11-25T10:09:23Z</time>
      </trkpt>
      <trkpt lat="46.61055" lon="6.0657">
        <ele>1120.5</ele>
        <time>2021-11-25T10:09:29Z</time>
      </trkpt>
      <trkpt lat="46.61059" lon="6.06568">
        <ele>1121.3</ele>
        <time>2021-11-25T10:09:42Z</time>
      </trkpt>
      <trkpt lat="46.61065" lon="6.06568">
        <ele>1121</ele>
        <time>2021-11-25T10:09:47Z</time>
      </trkpt>
      <trkpt lat="46.61069" lon="6.06571">
        <ele>1121</ele>
        <time>2021-11-25T10:09:55Z</time>
      </trkpt>
      <trkpt lat="46.61074" lon="6.06571">
        <ele>1121.3</ele>
        <time>2021-11-25T10:10:19Z</time>
      </trkpt>
      <trkpt lat="46.61079" lon="6.06572">
        <ele>1123.9</ele>
        <time>2021-11-25T10:10:35Z</time>
      </trkpt>
      <trkpt lat="46.61082" lon="6.06577">
        <ele>1124.7</ele>
        <time>2021-11-25T10:10:38Z</time>
      </trkpt>
      <trkpt lat="46.61086" lon="6.06582">
        <ele>1125.7</ele>
        <time>2021-11-25T10:10:43Z</time>
      </trkpt>
      <trkpt lat="46.61088" lon="6.06589">
        <ele>1127.2</ele>
        <time>2021-11-25T10:10:52Z</time>
      </trkpt>
      <trkpt lat="46.61089" lon="6.06595">
        <ele>1127.9</ele>
        <time>2021-11-25T10:10:58Z</time>
      </trkpt>
      <trkpt lat="46.61094" lon="6.06598">
        <ele>1128.6</ele>
        <time>2021-11-25T10:11:05Z</time>
      </trkpt>
      <trkpt lat="46.61097" lon="6.06592">
        <ele>1127.7</ele>
        <time>2021-11-25T10:11:24Z</time>
      </trkpt>
      <trkpt lat="46.61094" lon="6.06586">
        <ele>1128</ele>
        <time>2021-11-25T10:11:28Z</time>
      </trkpt>
      <trkpt lat="46.61095" lon="6.0658">
        <ele>1130</ele>
        <time>2021-11-25T10:11:36Z</time>
      </trkpt>
      <trkpt lat="46.61099" lon="6.06571">
        <ele>1133.8</ele>
        <time>2021-11-25T10:12:00Z</time>
      </trkpt>
      <trkpt lat="46.61101" lon="6.06566">
        <ele>1134.3</ele>
        <time>2021-11-25T10:12:06Z</time>
      </trkpt>
      <trkpt lat="46.61097" lon="6.06564">
        <ele>1134.2</ele>
        <time>2021-11-25T10:12:19Z</time>
      </trkpt>
      <trkpt lat="46.61093" lon="6.06567">
        <ele>1135.2</ele>
        <time>2021-11-25T10:12:25Z</time>
      </trkpt>
      <trkpt lat="46.61093" lon="6.06574">
        <ele>1137.4</ele>
        <time>2021-11-25T10:12:33Z</time>
      </trkpt>
      <trkpt lat="46.61091" lon="6.06568">
        <ele>1141.7</ele>
        <time>2021-11-25T10:12:50Z</time>
      </trkpt>
      <trkpt lat="46.61091" lon="6.06561">
        <ele>1142.4</ele>
        <time>2021-11-25T10:12:55Z</time>
      </trkpt>
      <trkpt lat="46.61087" lon="6.06567">
        <ele>1142.7</ele>
        <time>2021-11-25T10:13:04Z</time>
      </trkpt>
      <trkpt lat="46.61086" lon="6.06573">
        <ele>1143.4</ele>
        <time>2021-11-25T10:13:08Z</time>
      </trkpt>
      <trkpt lat="46.6108" lon="6.06574">
        <ele>1145.6</ele>
        <time>2021-11-25T10:13:15Z</time>
      </trkpt>
      <trkpt lat="46.61086" lon="6.06576">
        <ele>1149.2</ele>
        <time>2021-11-25T10:13:34Z</time>
      </trkpt>
      <trkpt lat="46.61087" lon="6.06583">
        <ele>1147.2</ele>
        <time>2021-11-25T10:13:42Z</time>
      </trkpt>
      <trkpt lat="46.61082" lon="6.06579">
        <ele>1147</ele>
        <time>2021-11-25T10:13:49Z</time>
      </trkpt>
      <trkpt lat="46.61084" lon="6.06573">
        <ele>1146.8</ele>
        <time>2021-11-25T10:13:56Z</time>
      </trkpt>
      <trkpt lat="46.61088" lon="6.06576">
        <ele>1146.8</ele>
        <time>2021-11-25T10:14:04Z</time>
      </trkpt>
      <trkpt lat="46.61091" lon="6.0657">
        <ele>1148.4</ele>
        <time>2021-11-25T10:14:20Z</time>
      </trkpt>
      <trkpt lat="46.61095" lon="6.06572">
        <ele>1149.5</ele>
        <time>2021-11-25T10:14:37Z</time>
      </trkpt>
      <trkpt lat="46.61098" lon="6.06565">
        <ele>1148.3</ele>
        <time>2021-11-25T10:15:52Z</time>
      </trkpt>
      <trkpt lat="46.61093" lon="6.06565">
        <ele>1153.9</ele>
        <time>2021-11-25T10:16:50Z</time>
      </trkpt>
      <trkpt lat="46.61097" lon="6.06562">
        <ele>1158</ele>
        <time>2021-11-25T10:17:38Z</time>
      </trkpt>
      <trkpt lat="46.61095" lon="6.06557">
        <ele>1157.6</ele>
        <time>2021-11-25T10:18:03Z</time>
      </trkpt>
      <trkpt lat="46.61091" lon="6.06561">
        <ele>1158.4</ele>
        <time>2021-11-25T10:18:21Z</time>
      </trkpt>
      <trkpt lat="46.61089" lon="6.06568">
        <ele>1158.2</ele>
        <time>2021-11-25T10:18:24Z</time>
      </trkpt>
      <trkpt lat="46.61093" lon="6.06564">
        <ele>1155.9</ele>
        <time>2021-11-25T10:18:44Z</time>
      </trkpt>
      <trkpt lat="46.61098" lon="6.06568">
        <ele>1151.1</ele>
        <time>2021-11-25T10:19:13Z</time>
      </trkpt>
      <trkpt lat="46.61102" lon="6.06571">
        <ele>1152</ele>
        <time>2021-11-25T10:19:32Z</time>
      </trkpt>
      <trkpt lat="46.61097" lon="6.06573">
        <ele>1147.8</ele>
        <time>2021-11-25T10:20:19Z</time>
      </trkpt>
      <trkpt lat="46.61093" lon="6.06569">
        <ele>1151</ele>
        <time>2021-11-25T10:20:50Z</time>
      </trkpt>
      <trkpt lat="46.61093" lon="6.06576">
        <ele>1156.3</ele>
        <time>2021-11-25T10:21:37Z</time>
      </trkpt>
      <trkpt lat="46.61094" lon="6.06583">
        <ele>1155</ele>
        <time>2021-11-25T10:22:09Z</time>
      </trkpt>
      <trkpt lat="46.61092" lon="6.06589">
        <ele>1154.7</ele>
        <time>2021-11-25T10:22:13Z</time>
      </trkpt>
      <trkpt lat="46.61089" lon="6.06595">
        <ele>1154.3</ele>
        <time>2021-11-25T10:22:19Z</time>
      </trkpt>
      <trkpt lat="46.61085" lon="6.06589">
        <ele>1152.5</ele>
        <time>2021-11-25T10:22:43Z</time>
      </trkpt>
      <trkpt lat="46.61081" lon="6.06583">
        <ele>1151.5</ele>
        <time>2021-11-25T10:22:52Z</time>
      </trkpt>
      <trkpt lat="46.61079" lon="6.06577">
        <ele>1151</ele>
        <time>2021-11-25T10:22:57Z</time>
      </trkpt>
      <trkpt lat="46.61076" lon="6.06571">
        <ele>1150.8</ele>
        <time>2021-11-25T10:23:02Z</time>
      </trkpt>
      <trkpt lat="46.61076" lon="6.06563">
        <ele>1150.7</ele>
        <time>2021-11-25T10:23:07Z</time>
      </trkpt>
      <trkpt lat="46.61076" lon="6.06557">
        <ele>1150.3</ele>
        <time>2021-11-25T10:23:13Z</time>
      </trkpt>
      <trkpt lat="46.61077" lon="6.06563">
        <ele>1145.2</ele>
        <time>2021-11-25T10:23:45Z</time>
      </trkpt>
      <trkpt lat="46.61078" lon="6.06569">
        <ele>1142.9</ele>
        <time>2021-11-25T10:23:54Z</time>
      </trkpt>
      <trkpt lat="46.61076" lon="6.06576">
        <ele>1141.5</ele>
        <time>2021-11-25T10:24:00Z</time>
      </trkpt>
      <trkpt lat="46.61074" lon="6.06582">
        <ele>1139.8</ele>
        <time>2021-11-25T10:24:06Z</time>
      </trkpt>
      <trkpt lat="46.61072" lon="6.06589">
        <ele>1138.8</ele>
        <time>2021-11-25T10:24:11Z</time>
      </trkpt>
      <trkpt lat="46.61072" lon="6.06596">
        <ele>1138.2</ele>
        <time>2021-11-25T10:24:15Z</time>
      </trkpt>
      <trkpt lat="46.6107" lon="6.06604">
        <ele>1137.9</ele>
        <time>2021-11-25T10:24:20Z</time>
      </trkpt>
      <trkpt lat="46.61066" lon="6.06609">
        <ele>1138.4</ele>
        <time>2021-11-25T10:24:27Z</time>
      </trkpt>
      <trkpt lat="46.61063" lon="6.06615">
        <ele>1139.2</ele>
        <time>2021-11-25T10:24:32Z</time>
      </trkpt>
      <trkpt lat="46.6106" lon="6.06621">
        <ele>1140.3</ele>
        <time>2021-11-25T10:24:37Z</time>
      </trkpt>
      <trkpt lat="46.61058" lon="6.06627">
        <ele>1140.8</ele>
        <time>2021-11-25T10:24:42Z</time>
      </trkpt>
      <trkpt lat="46.61058" lon="6.06634">
        <ele>1141</ele>
        <time>2021-11-25T10:24:47Z</time>
      </trkpt>
      <trkpt lat="46.61057" lon="6.06641">
        <ele>1140.6</ele>
        <time>2021-11-25T10:24:53Z</time>
      </trkpt>
      <trkpt lat="46.61055" lon="6.06647">
        <ele>1140.1</ele>
        <time>2021-11-25T10:24:58Z</time>
      </trkpt>
      <trkpt lat="46.61052" lon="6.06654">
        <ele>1139.1</ele>
        <time>2021-11-25T10:25:03Z</time>
      </trkpt>
      <trkpt lat="46.6105" lon="6.06661">
        <ele>1137.6</ele>
        <time>2021-11-25T10:25:09Z</time>
      </trkpt>
      <trkpt lat="46.61049" lon="6.06667">
        <ele>1136</ele>
        <time>2021-11-25T10:25:14Z</time>
      </trkpt>
      <trkpt lat="46.61046" lon="6.06673">
        <ele>1135.1</ele>
        <time>2021-11-25T10:25:23Z</time>
      </trkpt>
      <trkpt lat="46.61046" lon="6.0668">
        <ele>1134.7</ele>
        <time>2021-11-25T10:25:30Z</time>
      </trkpt>
      <trkpt lat="46.61044" lon="6.06687">
        <ele>1134.7</ele>
        <time>2021-11-25T10:25:37Z</time>
      </trkpt>
      <trkpt lat="46.61043" lon="6.06694">
        <ele>1135.2</ele>
        <time>2021-11-25T10:25:43Z</time>
      </trkpt>
      <trkpt lat="46.61041" lon="6.06701">
        <ele>1136.1</ele>
        <time>2021-11-25T10:25:48Z</time>
      </trkpt>
      <trkpt lat="46.61039" lon="6.06706">
        <ele>1137.2</ele>
        <time>2021-11-25T10:25:53Z</time>
      </trkpt>
      <trkpt lat="46.61035" lon="6.06712">
        <ele>1138.4</ele>
        <time>2021-11-25T10:25:58Z</time>
      </trkpt>
      <trkpt lat="46.61034" lon="6.06718">
        <ele>1138.9</ele>
        <time>2021-11-25T10:26:03Z</time>
      </trkpt>
      <trkpt lat="46.61033" lon="6.06725">
        <ele>1138.6</ele>
        <time>2021-11-25T10:26:08Z</time>
      </trkpt>
      <trkpt lat="46.61031" lon="6.06731">
        <ele>1139</ele>
        <time>2021-11-25T10:26:18Z</time>
      </trkpt>
      <trkpt lat="46.6103" lon="6.06739">
        <ele>1139.2</ele>
        <time>2021-11-25T10:26:25Z</time>
      </trkpt>
      <trkpt lat="46.61029" lon="6.06746">
        <ele>1138.4</ele>
        <time>2021-11-25T10:26:31Z</time>
      </trkpt>
      <trkpt lat="46.61026" lon="6.06752">
        <ele>1137.9</ele>
        <time>2021-11-25T10:26:36Z</time>
      </trkpt>
      <trkpt lat="46.61022" lon="6.06757">
        <ele>1137.4</ele>
        <time>2021-11-25T10:26:40Z</time>
      </trkpt>
      <trkpt lat="46.61019" lon="6.06763">
        <ele>1136.2</ele>
        <time>2021-11-25T10:26:45Z</time>
      </trkpt>
      <trkpt lat="46.61016" lon="6.06768">
        <ele>1135</ele>
        <time>2021-11-25T10:26:50Z</time>
      </trkpt>
      <trkpt lat="46.61014" lon="6.06775">
        <ele>1133.2</ele>
        <time>2021-11-25T10:26:55Z</time>
      </trkpt>
      <trkpt lat="46.61011" lon="6.06781">
        <ele>1131.9</ele>
        <time>2021-11-25T10:27:02Z</time>
      </trkpt>
      <trkpt lat="46.61008" lon="6.06786">
        <ele>1131.2</ele>
        <time>2021-11-25T10:27:07Z</time>
      </trkpt>
      <trkpt lat="46.61006" lon="6.06793">
        <ele>1130.8</ele>
        <time>2021-11-25T10:27:12Z</time>
      </trkpt>
      <trkpt lat="46.61004" lon="6.068">
        <ele>1130.7</ele>
        <time>2021-11-25T10:27:17Z</time>
      </trkpt>
      <trkpt lat="46.61004" lon="6.06808">
        <ele>1130</ele>
        <time>2021-11-25T10:27:22Z</time>
      </trkpt>
      <trkpt lat="46.61004" lon="6.06814">
        <ele>1129.1</ele>
        <time>2021-11-25T10:27:25Z</time>
      </trkpt>
      <trkpt lat="46.61006" lon="6.0682">
        <ele>1126.6</ele>
        <time>2021-11-25T10:27:31Z</time>
      </trkpt>
      <trkpt lat="46.6101" lon="6.06825">
        <ele>1124.2</ele>
        <time>2021-11-25T10:27:37Z</time>
      </trkpt>
      <trkpt lat="46.6101" lon="6.06832">
        <ele>1123</ele>
        <time>2021-11-25T10:27:42Z</time>
      </trkpt>
      <trkpt lat="46.6101" lon="6.0684">
        <ele>1122.4</ele>
        <time>2021-11-25T10:27:48Z</time>
      </trkpt>
      <trkpt lat="46.61007" lon="6.06846">
        <ele>1122.7</ele>
        <time>2021-11-25T10:27:53Z</time>
      </trkpt>
      <trkpt lat="46.61003" lon="6.06851">
        <ele>1123.1</ele>
        <time>2021-11-25T10:27:59Z</time>
      </trkpt>
      <trkpt lat="46.61001" lon="6.06858">
        <ele>1122.9</ele>
        <time>2021-11-25T10:28:06Z</time>
      </trkpt>
      <trkpt lat="46.60998" lon="6.06864">
        <ele>1123.1</ele>
        <time>2021-11-25T10:28:15Z</time>
      </trkpt>
      <trkpt lat="46.60996" lon="6.06871">
        <ele>1122.5</ele>
        <time>2021-11-25T10:28:21Z</time>
      </trkpt>
      <trkpt lat="46.60995" lon="6.06879">
        <ele>1122.1</ele>
        <time>2021-11-25T10:28:27Z</time>
      </trkpt>
      <trkpt lat="46.60994" lon="6.06886">
        <ele>1120.4</ele>
        <time>2021-11-25T10:28:32Z</time>
      </trkpt>
      <trkpt lat="46.60994" lon="6.06893">
        <ele>1117.9</ele>
        <time>2021-11-25T10:28:37Z</time>
      </trkpt>
      <trkpt lat="46.60991" lon="6.06898">
        <ele>1116.3</ele>
        <time>2021-11-25T10:28:42Z</time>
      </trkpt>
      <trkpt lat="46.60988" lon="6.06904">
        <ele>1115</ele>
        <time>2021-11-25T10:28:47Z</time>
      </trkpt>
      <trkpt lat="46.60985" lon="6.0691">
        <ele>1114.1</ele>
        <time>2021-11-25T10:28:53Z</time>
      </trkpt>
      <trkpt lat="46.60983" lon="6.06917">
        <ele>1113.3</ele>
        <time>2021-11-25T10:28:59Z</time>
      </trkpt>
      <trkpt lat="46.6098" lon="6.06923">
        <ele>1112.8</ele>
        <time>2021-11-25T10:29:05Z</time>
      </trkpt>
      <trkpt lat="46.60977" lon="6.06928">
        <ele>1112.5</ele>
        <time>2021-11-25T10:29:10Z</time>
      </trkpt>
      <trkpt lat="46.60974" lon="6.06934">
        <ele>1112.7</ele>
        <time>2021-11-25T10:29:14Z</time>
      </trkpt>
      <trkpt lat="46.6097" lon="6.06938">
        <ele>1113.5</ele>
        <time>2021-11-25T10:29:19Z</time>
      </trkpt>
      <trkpt lat="46.60966" lon="6.06942">
        <ele>1114.3</ele>
        <time>2021-11-25T10:29:24Z</time>
      </trkpt>
      <trkpt lat="46.60964" lon="6.06948">
        <ele>1115</ele>
        <time>2021-11-25T10:29:29Z</time>
      </trkpt>
      <trkpt lat="46.60963" lon="6.06954">
        <ele>1115.5</ele>
        <time>2021-11-25T10:29:34Z</time>
      </trkpt>
      <trkpt lat="46.6096" lon="6.0696">
        <ele>1116.2</ele>
        <time>2021-11-25T10:29:40Z</time>
      </trkpt>
      <trkpt lat="46.60956" lon="6.06965">
        <ele>1116.7</ele>
        <time>2021-11-25T10:29:45Z</time>
      </trkpt>
      <trkpt lat="46.60953" lon="6.06971">
        <ele>1116.8</ele>
        <time>2021-11-25T10:29:49Z</time>
      </trkpt>
      <trkpt lat="46.60951" lon="6.06978">
        <ele>1116.3</ele>
        <time>2021-11-25T10:29:55Z</time>
      </trkpt>
      <trkpt lat="46.60949" lon="6.06984">
        <ele>1115.6</ele>
        <time>2021-11-25T10:29:59Z</time>
      </trkpt>
      <trkpt lat="46.60946" lon="6.06989">
        <ele>1114.7</ele>
        <time>2021-11-25T10:30:03Z</time>
      </trkpt>
      <trkpt lat="46.60944" lon="6.06995">
        <ele>1114.1</ele>
        <time>2021-11-25T10:30:06Z</time>
      </trkpt>
      <trkpt lat="46.60941" lon="6.07001">
        <ele>1113.3</ele>
        <time>2021-11-25T10:30:12Z</time>
      </trkpt>
      <trkpt lat="46.60939" lon="6.07009">
        <ele>1112.4</ele>
        <time>2021-11-25T10:30:19Z</time>
      </trkpt>
      <trkpt lat="46.60937" lon="6.07015">
        <ele>1112</ele>
        <time>2021-11-25T10:30:22Z</time>
      </trkpt>
      <trkpt lat="46.60935" lon="6.0702">
        <ele>1111.6</ele>
        <time>2021-11-25T10:30:25Z</time>
      </trkpt>
      <trkpt lat="46.60931" lon="6.07026">
        <ele>1111.1</ele>
        <time>2021-11-25T10:30:30Z</time>
      </trkpt>
      <trkpt lat="46.60928" lon="6.07033">
        <ele>1110.9</ele>
        <time>2021-11-25T10:30:35Z</time>
      </trkpt>
      <trkpt lat="46.60926" lon="6.07039">
        <ele>1110.9</ele>
        <time>2021-11-25T10:30:39Z</time>
      </trkpt>
      <trkpt lat="46.60926" lon="6.07047">
        <ele>1111.5</ele>
        <time>2021-11-25T10:30:44Z</time>
      </trkpt>
      <trkpt lat="46.60927" lon="6.07053">
        <ele>1111.8</ele>
        <time>2021-11-25T10:30:49Z</time>
      </trkpt>
      <trkpt lat="46.60927" lon="6.0706">
        <ele>1111.5</ele>
        <time>2021-11-25T10:30:54Z</time>
      </trkpt>
      <trkpt lat="46.60925" lon="6.07067">
        <ele>1111.3</ele>
        <time>2021-11-25T10:30:58Z</time>
      </trkpt>
      <trkpt lat="46.60925" lon="6.07075">
        <ele>1111</ele>
        <time>2021-11-25T10:31:02Z</time>
      </trkpt>
      <trkpt lat="46.60926" lon="6.07084">
        <ele>1110.4</ele>
        <time>2021-11-25T10:31:07Z</time>
      </trkpt>
      <trkpt lat="46.60927" lon="6.07091">
        <ele>1109.6</ele>
        <time>2021-11-25T10:31:11Z</time>
      </trkpt>
      <trkpt lat="46.60928" lon="6.07099">
        <ele>1109</ele>
        <time>2021-11-25T10:31:16Z</time>
      </trkpt>
      <trkpt lat="46.60929" lon="6.07106">
        <ele>1108.2</ele>
        <time>2021-11-25T10:31:21Z</time>
      </trkpt>
      <trkpt lat="46.60927" lon="6.07113">
        <ele>1108.5</ele>
        <time>2021-11-25T10:31:26Z</time>
      </trkpt>
      <trkpt lat="46.60926" lon="6.0712">
        <ele>1108.9</ele>
        <time>2021-11-25T10:31:31Z</time>
      </trkpt>
      <trkpt lat="46.60925" lon="6.07127">
        <ele>1108.8</ele>
        <time>2021-11-25T10:31:37Z</time>
      </trkpt>
      <trkpt lat="46.60923" lon="6.07134">
        <ele>1108.4</ele>
        <time>2021-11-25T10:31:41Z</time>
      </trkpt>
      <trkpt lat="46.60921" lon="6.0714">
        <ele>1108.1</ele>
        <time>2021-11-25T10:31:45Z</time>
      </trkpt>
      <trkpt lat="46.6092" lon="6.07147">
        <ele>1108.5</ele>
        <time>2021-11-25T10:31:49Z</time>
      </trkpt>
      <trkpt lat="46.6092" lon="6.07155">
        <ele>1109</ele>
        <time>2021-11-25T10:31:53Z</time>
      </trkpt>
      <trkpt lat="46.6092" lon="6.07163">
        <ele>1109.6</ele>
        <time>2021-11-25T10:31:57Z</time>
      </trkpt>
      <trkpt lat="46.60922" lon="6.0717">
        <ele>1110.3</ele>
        <time>2021-11-25T10:32:01Z</time>
      </trkpt>
      <trkpt lat="46.60922" lon="6.07176">
        <ele>1110.7</ele>
        <time>2021-11-25T10:32:05Z</time>
      </trkpt>
      <trkpt lat="46.60923" lon="6.07184">
        <ele>1111.6</ele>
        <time>2021-11-25T10:32:10Z</time>
      </trkpt>
      <trkpt lat="46.60927" lon="6.07189">
        <ele>1112.1</ele>
        <time>2021-11-25T10:32:15Z</time>
      </trkpt>
      <trkpt lat="46.60931" lon="6.07193">
        <ele>1111.5</ele>
        <time>2021-11-25T10:32:21Z</time>
      </trkpt>
      <trkpt lat="46.60935" lon="6.07198">
        <ele>1110.5</ele>
        <time>2021-11-25T10:32:27Z</time>
      </trkpt>
      <trkpt lat="46.60939" lon="6.07202">
        <ele>1110.3</ele>
        <time>2021-11-25T10:32:31Z</time>
      </trkpt>
      <trkpt lat="46.60941" lon="6.07208">
        <ele>1111.3</ele>
        <time>2021-11-25T10:32:37Z</time>
      </trkpt>
      <trkpt lat="46.60942" lon="6.07215">
        <ele>1111.9</ele>
        <time>2021-11-25T10:32:41Z</time>
      </trkpt>
      <trkpt lat="46.60942" lon="6.07222">
        <ele>1111.3</ele>
        <time>2021-11-25T10:32:45Z</time>
      </trkpt>
      <trkpt lat="46.60941" lon="6.0723">
        <ele>1110.8</ele>
        <time>2021-11-25T10:32:51Z</time>
      </trkpt>
      <trkpt lat="46.60942" lon="6.07237">
        <ele>1109.8</ele>
        <time>2021-11-25T10:32:56Z</time>
      </trkpt>
      <trkpt lat="46.60941" lon="6.07244">
        <ele>1108.3</ele>
        <time>2021-11-25T10:33:02Z</time>
      </trkpt>
      <trkpt lat="46.60941" lon="6.07251">
        <ele>1107.1</ele>
        <time>2021-11-25T10:33:07Z</time>
      </trkpt>
      <trkpt lat="46.60944" lon="6.07256">
        <ele>1106.3</ele>
        <time>2021-11-25T10:33:11Z</time>
      </trkpt>
      <trkpt lat="46.60947" lon="6.07261">
        <ele>1105.3</ele>
        <time>2021-11-25T10:33:16Z</time>
      </trkpt>
      <trkpt lat="46.60951" lon="6.07267">
        <ele>1105.2</ele>
        <time>2021-11-25T10:33:21Z</time>
      </trkpt>
      <trkpt lat="46.60955" lon="6.07271">
        <ele>1105.3</ele>
        <time>2021-11-25T10:33:27Z</time>
      </trkpt>
      <trkpt lat="46.6096" lon="6.07275">
        <ele>1105.6</ele>
        <time>2021-11-25T10:33:32Z</time>
      </trkpt>
      <trkpt lat="46.60964" lon="6.07279">
        <ele>1105.2</ele>
        <time>2021-11-25T10:33:37Z</time>
      </trkpt>
      <trkpt lat="46.60966" lon="6.07285">
        <ele>1104.8</ele>
        <time>2021-11-25T10:33:42Z</time>
      </trkpt>
      <trkpt lat="46.60968" lon="6.07292">
        <ele>1104.3</ele>
        <time>2021-11-25T10:33:46Z</time>
      </trkpt>
      <trkpt lat="46.60971" lon="6.07297">
        <ele>1102.7</ele>
        <time>2021-11-25T10:33:53Z</time>
      </trkpt>
      <trkpt lat="46.60974" lon="6.07304">
        <ele>1100.2</ele>
        <time>2021-11-25T10:34:00Z</time>
      </trkpt>
      <trkpt lat="46.60972" lon="6.07311">
        <ele>1098</ele>
        <time>2021-11-25T10:34:05Z</time>
      </trkpt>
      <trkpt lat="46.60972" lon="6.07318">
        <ele>1095.5</ele>
        <time>2021-11-25T10:34:13Z</time>
      </trkpt>
      <trkpt lat="46.60975" lon="6.07323">
        <ele>1094.4</ele>
        <time>2021-11-25T10:34:20Z</time>
      </trkpt>
      <trkpt lat="46.6098" lon="6.07327">
        <ele>1094.4</ele>
        <time>2021-11-25T10:34:24Z</time>
      </trkpt>
      <trkpt lat="46.60982" lon="6.07333">
        <ele>1095.4</ele>
        <time>2021-11-25T10:34:29Z</time>
      </trkpt>
      <trkpt lat="46.60984" lon="6.0734">
        <ele>1097.4</ele>
        <time>2021-11-25T10:34:38Z</time>
      </trkpt>
      <trkpt lat="46.60986" lon="6.07346">
        <ele>1097.5</ele>
        <time>2021-11-25T10:34:50Z</time>
      </trkpt>
      <trkpt lat="46.60989" lon="6.07351">
        <ele>1096.8</ele>
        <time>2021-11-25T10:34:57Z</time>
      </trkpt>
      <trkpt lat="46.60992" lon="6.07358">
        <ele>1096.9</ele>
        <time>2021-11-25T10:35:02Z</time>
      </trkpt>
      <trkpt lat="46.60991" lon="6.07365">
        <ele>1097.8</ele>
        <time>2021-11-25T10:35:08Z</time>
      </trkpt>
      <trkpt lat="46.6099" lon="6.07372">
        <ele>1098.3</ele>
        <time>2021-11-25T10:35:20Z</time>
      </trkpt>
      <trkpt lat="46.60988" lon="6.07379">
        <ele>1098.1</ele>
        <time>2021-11-25T10:35:28Z</time>
      </trkpt>
      <trkpt lat="46.60985" lon="6.07385">
        <ele>1098.4</ele>
        <time>2021-11-25T10:35:33Z</time>
      </trkpt>
      <trkpt lat="46.60984" lon="6.07392">
        <ele>1099.1</ele>
        <time>2021-11-25T10:35:39Z</time>
      </trkpt>
      <trkpt lat="46.60982" lon="6.074">
        <ele>1100.4</ele>
        <time>2021-11-25T10:35:46Z</time>
      </trkpt>
      <trkpt lat="46.60982" lon="6.07407">
        <ele>1100.7</ele>
        <time>2021-11-25T10:35:52Z</time>
      </trkpt>
      <trkpt lat="46.60979" lon="6.07412">
        <ele>1100.4</ele>
        <time>2021-11-25T10:35:57Z</time>
      </trkpt>
      <trkpt lat="46.60978" lon="6.07419">
        <ele>1099.4</ele>
        <time>2021-11-25T10:36:03Z</time>
      </trkpt>
      <trkpt lat="46.60976" lon="6.07425">
        <ele>1099.4</ele>
        <time>2021-11-25T10:36:11Z</time>
      </trkpt>
      <trkpt lat="46.60977" lon="6.07432">
        <ele>1098.6</ele>
        <time>2021-11-25T10:36:18Z</time>
      </trkpt>
      <trkpt lat="46.60976" lon="6.0744">
        <ele>1098</ele>
        <time>2021-11-25T10:36:26Z</time>
      </trkpt>
      <trkpt lat="46.60977" lon="6.07447">
        <ele>1098.2</ele>
        <time>2021-11-25T10:36:33Z</time>
      </trkpt>
      <trkpt lat="46.60975" lon="6.07453">
        <ele>1099</ele>
        <time>2021-11-25T10:36:40Z</time>
      </trkpt>
      <trkpt lat="46.60973" lon="6.07459">
        <ele>1097.7</ele>
        <time>2021-11-25T10:36:49Z</time>
      </trkpt>
      <trkpt lat="46.60974" lon="6.07466">
        <ele>1097.3</ele>
        <time>2021-11-25T10:36:52Z</time>
      </trkpt>
      <trkpt lat="46.60972" lon="6.07473">
        <ele>1096.9</ele>
        <time>2021-11-25T10:36:55Z</time>
      </trkpt>
      <trkpt lat="46.6097" lon="6.0748">
        <ele>1096.6</ele>
        <time>2021-11-25T10:36:58Z</time>
      </trkpt>
      <trkpt lat="46.60969" lon="6.07486">
        <ele>1095.8</ele>
        <time>2021-11-25T10:37:02Z</time>
      </trkpt>
      <trkpt lat="46.60966" lon="6.07492">
        <ele>1094.1</ele>
        <time>2021-11-25T10:37:10Z</time>
      </trkpt>
      <trkpt lat="46.60962" lon="6.07497">
        <ele>1093.5</ele>
        <time>2021-11-25T10:37:16Z</time>
      </trkpt>
      <trkpt lat="46.60959" lon="6.07501">
        <ele>1093</ele>
        <time>2021-11-25T10:37:22Z</time>
      </trkpt>
      <trkpt lat="46.60957" lon="6.07507">
        <ele>1092.3</ele>
        <time>2021-11-25T10:37:26Z</time>
      </trkpt>
      <trkpt lat="46.60953" lon="6.07513">
        <ele>1091.4</ele>
        <time>2021-11-25T10:37:31Z</time>
      </trkpt>
      <trkpt lat="46.6095" lon="6.0752">
        <ele>1091.2</ele>
        <time>2021-11-25T10:37:35Z</time>
      </trkpt>
      <trkpt lat="46.60947" lon="6.07525">
        <ele>1091</ele>
        <time>2021-11-25T10:37:39Z</time>
      </trkpt>
      <trkpt lat="46.60944" lon="6.0753">
        <ele>1090.9</ele>
        <time>2021-11-25T10:37:44Z</time>
      </trkpt>
      <trkpt lat="46.60943" lon="6.07537">
        <ele>1090.2</ele>
        <time>2021-11-25T10:37:49Z</time>
      </trkpt>
      <trkpt lat="46.60941" lon="6.07544">
        <ele>1089.9</ele>
        <time>2021-11-25T10:37:55Z</time>
      </trkpt>
      <trkpt lat="46.60939" lon="6.07551">
        <ele>1089.1</ele>
        <time>2021-11-25T10:37:59Z</time>
      </trkpt>
      <trkpt lat="46.60937" lon="6.07557">
        <ele>1088.5</ele>
        <time>2021-11-25T10:38:05Z</time>
      </trkpt>
      <trkpt lat="46.60935" lon="6.07563">
        <ele>1087.5</ele>
        <time>2021-11-25T10:38:10Z</time>
      </trkpt>
      <trkpt lat="46.60931" lon="6.07567">
        <ele>1088.2</ele>
        <time>2021-11-25T10:38:17Z</time>
      </trkpt>
      <trkpt lat="46.60926" lon="6.07572">
        <ele>1089.9</ele>
        <time>2021-11-25T10:38:24Z</time>
      </trkpt>
      <trkpt lat="46.60923" lon="6.07577">
        <ele>1091.6</ele>
        <time>2021-11-25T10:38:29Z</time>
      </trkpt>
      <trkpt lat="46.60921" lon="6.07584">
        <ele>1092.2</ele>
        <time>2021-11-25T10:38:34Z</time>
      </trkpt>
      <trkpt lat="46.60918" lon="6.0759">
        <ele>1092.3</ele>
        <time>2021-11-25T10:38:38Z</time>
      </trkpt>
      <trkpt lat="46.60916" lon="6.07595">
        <ele>1092.4</ele>
        <time>2021-11-25T10:38:42Z</time>
      </trkpt>
      <trkpt lat="46.60912" lon="6.076">
        <ele>1092</ele>
        <time>2021-11-25T10:38:46Z</time>
      </trkpt>
      <trkpt lat="46.60911" lon="6.07608">
        <ele>1091.2</ele>
        <time>2021-11-25T10:38:51Z</time>
      </trkpt>
      <trkpt lat="46.6091" lon="6.07615">
        <ele>1090.3</ele>
        <time>2021-11-25T10:38:55Z</time>
      </trkpt>
      <trkpt lat="46.60909" lon="6.07622">
        <ele>1088.6</ele>
        <time>2021-11-25T10:39:00Z</time>
      </trkpt>
      <trkpt lat="46.60909" lon="6.07629">
        <ele>1087.3</ele>
        <time>2021-11-25T10:39:04Z</time>
      </trkpt>
      <trkpt lat="46.60908" lon="6.07636">
        <ele>1086.7</ele>
        <time>2021-11-25T10:39:07Z</time>
      </trkpt>
      <trkpt lat="46.60908" lon="6.07643">
        <ele>1086</ele>
        <time>2021-11-25T10:39:11Z</time>
      </trkpt>
      <trkpt lat="46.60909" lon="6.0765">
        <ele>1084.9</ele>
        <time>2021-11-25T10:39:15Z</time>
      </trkpt>
      <trkpt lat="46.60913" lon="6.07657">
        <ele>1083.7</ele>
        <time>2021-11-25T10:39:20Z</time>
      </trkpt>
      <trkpt lat="46.60916" lon="6.07662">
        <ele>1082.5</ele>
        <time>2021-11-25T10:39:24Z</time>
      </trkpt>
      <trkpt lat="46.60918" lon="6.07668">
        <ele>1080.9</ele>
        <time>2021-11-25T10:39:29Z</time>
      </trkpt>
      <trkpt lat="46.6092" lon="6.07674">
        <ele>1079.1</ele>
        <time>2021-11-25T10:39:34Z</time>
      </trkpt>
      <trkpt lat="46.60923" lon="6.07681">
        <ele>1078</ele>
        <time>2021-11-25T10:39:38Z</time>
      </trkpt>
      <trkpt lat="46.60926" lon="6.07686">
        <ele>1077.2</ele>
        <time>2021-11-25T10:39:44Z</time>
      </trkpt>
      <trkpt lat="46.60929" lon="6.0769">
        <ele>1076.1</ele>
        <time>2021-11-25T10:39:53Z</time>
      </trkpt>
      <trkpt lat="46.60934" lon="6.07694">
        <ele>1075.1</ele>
        <time>2021-11-25T10:39:59Z</time>
      </trkpt>
      <trkpt lat="46.60938" lon="6.07699">
        <ele>1073.9</ele>
        <time>2021-11-25T10:40:05Z</time>
      </trkpt>
      <trkpt lat="46.60943" lon="6.07704">
        <ele>1073.1</ele>
        <time>2021-11-25T10:40:10Z</time>
      </trkpt>
      <trkpt lat="46.60946" lon="6.07712">
        <ele>1073.1</ele>
        <time>2021-11-25T10:40:13Z</time>
      </trkpt>
      <trkpt lat="46.60949" lon="6.07717">
        <ele>1073.5</ele>
        <time>2021-11-25T10:40:16Z</time>
      </trkpt>
      <trkpt lat="46.60953" lon="6.07722">
        <ele>1074.5</ele>
        <time>2021-11-25T10:40:20Z</time>
      </trkpt>
      <trkpt lat="46.60957" lon="6.07726">
        <ele>1075.5</ele>
        <time>2021-11-25T10:40:25Z</time>
      </trkpt>
      <trkpt lat="46.60959" lon="6.07733">
        <ele>1075.9</ele>
        <time>2021-11-25T10:40:31Z</time>
      </trkpt>
      <trkpt lat="46.60961" lon="6.07739">
        <ele>1076</ele>
        <time>2021-11-25T10:40:35Z</time>
      </trkpt>
      <trkpt lat="46.60964" lon="6.07745">
        <ele>1076.1</ele>
        <time>2021-11-25T10:40:41Z</time>
      </trkpt>
      <trkpt lat="46.60966" lon="6.07752">
        <ele>1076.2</ele>
        <time>2021-11-25T10:40:47Z</time>
      </trkpt>
      <trkpt lat="46.60969" lon="6.07758">
        <ele>1076.1</ele>
        <time>2021-11-25T10:40:53Z</time>
      </trkpt>
      <trkpt lat="46.60967" lon="6.07765">
        <ele>1075.2</ele>
        <time>2021-11-25T10:40:59Z</time>
      </trkpt>
      <trkpt lat="46.60969" lon="6.07771">
        <ele>1074.7</ele>
        <time>2021-11-25T10:41:03Z</time>
      </trkpt>
      <trkpt lat="46.60971" lon="6.07778">
        <ele>1074.5</ele>
        <time>2021-11-25T10:41:07Z</time>
      </trkpt>
      <trkpt lat="46.60971" lon="6.07786">
        <ele>1074.4</ele>
        <time>2021-11-25T10:41:13Z</time>
      </trkpt>
      <trkpt lat="46.60971" lon="6.07794">
        <ele>1075.2</ele>
        <time>2021-11-25T10:41:17Z</time>
      </trkpt>
      <trkpt lat="46.60972" lon="6.078">
        <ele>1077</ele>
        <time>2021-11-25T10:41:21Z</time>
      </trkpt>
      <trkpt lat="46.60975" lon="6.07806">
        <ele>1079.3</ele>
        <time>2021-11-25T10:41:27Z</time>
      </trkpt>
      <trkpt lat="46.60978" lon="6.07811">
        <ele>1079.8</ele>
        <time>2021-11-25T10:41:34Z</time>
      </trkpt>
      <trkpt lat="46.60979" lon="6.07819">
        <ele>1078.6</ele>
        <time>2021-11-25T10:41:41Z</time>
      </trkpt>
      <trkpt lat="46.60979" lon="6.07825">
        <ele>1078</ele>
        <time>2021-11-25T10:41:45Z</time>
      </trkpt>
      <trkpt lat="46.60979" lon="6.07832">
        <ele>1077.6</ele>
        <time>2021-11-25T10:41:49Z</time>
      </trkpt>
      <trkpt lat="46.60981" lon="6.07839">
        <ele>1077.4</ele>
        <time>2021-11-25T10:41:54Z</time>
      </trkpt>
      <trkpt lat="46.60981" lon="6.07846">
        <ele>1076.3</ele>
        <time>2021-11-25T10:42:01Z</time>
      </trkpt>
      <trkpt lat="46.60983" lon="6.07852">
        <ele>1074.6</ele>
        <time>2021-11-25T10:42:08Z</time>
      </trkpt>
      <trkpt lat="46.60987" lon="6.07858">
        <ele>1073.1</ele>
        <time>2021-11-25T10:42:14Z</time>
      </trkpt>
      <trkpt lat="46.60989" lon="6.07865">
        <ele>1072.6</ele>
        <time>2021-11-25T10:42:17Z</time>
      </trkpt>
      <trkpt lat="46.6099" lon="6.07872">
        <ele>1071.7</ele>
        <time>2021-11-25T10:42:21Z</time>
      </trkpt>
      <trkpt lat="46.60991" lon="6.0788">
        <ele>1070.6</ele>
        <time>2021-11-25T10:42:26Z</time>
      </trkpt>
      <trkpt lat="46.6099" lon="6.07887">
        <ele>1070.3</ele>
        <time>2021-11-25T10:42:30Z</time>
      </trkpt>
      <trkpt lat="46.60989" lon="6.07894">
        <ele>1070.1</ele>
        <time>2021-11-25T10:42:36Z</time>
      </trkpt>
      <trkpt lat="46.60989" lon="6.07901">
        <ele>1070.4</ele>
        <time>2021-11-25T10:42:41Z</time>
      </trkpt>
      <trkpt lat="46.6099" lon="6.07907">
        <ele>1071</ele>
        <time>2021-11-25T10:42:46Z</time>
      </trkpt>
      <trkpt lat="46.60989" lon="6.07915">
        <ele>1071.8</ele>
        <time>2021-11-25T10:42:51Z</time>
      </trkpt>
      <trkpt lat="46.60987" lon="6.07922">
        <ele>1072.2</ele>
        <time>2021-11-25T10:42:56Z</time>
      </trkpt>
      <trkpt lat="46.60985" lon="6.07928">
        <ele>1072.3</ele>
        <time>2021-11-25T10:43:00Z</time>
      </trkpt>
      <trkpt lat="46.60984" lon="6.07935">
        <ele>1072.8</ele>
        <time>2021-11-25T10:43:05Z</time>
      </trkpt>
      <trkpt lat="46.60984" lon="6.07943">
        <ele>1074.1</ele>
        <time>2021-11-25T10:43:11Z</time>
      </trkpt>
      <trkpt lat="46.60986" lon="6.0795">
        <ele>1075.2</ele>
        <time>2021-11-25T10:43:16Z</time>
      </trkpt>
      <trkpt lat="46.60986" lon="6.07957">
        <ele>1075.6</ele>
        <time>2021-11-25T10:43:22Z</time>
      </trkpt>
      <trkpt lat="46.60985" lon="6.07964">
        <ele>1075.8</ele>
        <time>2021-11-25T10:43:27Z</time>
      </trkpt>
      <trkpt lat="46.60984" lon="6.07971">
        <ele>1075.6</ele>
        <time>2021-11-25T10:43:35Z</time>
      </trkpt>
      <trkpt lat="46.60982" lon="6.07977">
        <ele>1075.5</ele>
        <time>2021-11-25T10:43:40Z</time>
      </trkpt>
      <trkpt lat="46.60979" lon="6.07982">
        <ele>1075.7</ele>
        <time>2021-11-25T10:43:44Z</time>
      </trkpt>
      <trkpt lat="46.60978" lon="6.07989">
        <ele>1076.4</ele>
        <time>2021-11-25T10:43:49Z</time>
      </trkpt>
      <trkpt lat="46.60978" lon="6.07997">
        <ele>1077.5</ele>
        <time>2021-11-25T10:43:55Z</time>
      </trkpt>
      <trkpt lat="46.60977" lon="6.08005">
        <ele>1078.3</ele>
        <time>2021-11-25T10:44:00Z</time>
      </trkpt>
      <trkpt lat="46.60976" lon="6.08012">
        <ele>1078.1</ele>
        <time>2021-11-25T10:44:06Z</time>
      </trkpt>
      <trkpt lat="46.60976" lon="6.08019">
        <ele>1077.6</ele>
        <time>2021-11-25T10:44:12Z</time>
      </trkpt>
      <trkpt lat="46.60974" lon="6.08027">
        <ele>1077.6</ele>
        <time>2021-11-25T10:44:18Z</time>
      </trkpt>
      <trkpt lat="46.60973" lon="6.08033">
        <ele>1077.4</ele>
        <time>2021-11-25T10:44:22Z</time>
      </trkpt>
      <trkpt lat="46.60973" lon="6.0804">
        <ele>1076.1</ele>
        <time>2021-11-25T10:44:29Z</time>
      </trkpt>
      <trkpt lat="46.60974" lon="6.08048">
        <ele>1073.8</ele>
        <time>2021-11-25T10:44:44Z</time>
      </trkpt>
      <trkpt lat="46.60976" lon="6.08054">
        <ele>1072.9</ele>
        <time>2021-11-25T10:44:47Z</time>
      </trkpt>
      <trkpt lat="46.6098" lon="6.08059">
        <ele>1071.8</ele>
        <time>2021-11-25T10:44:51Z</time>
      </trkpt>
      <trkpt lat="46.60982" lon="6.08066">
        <ele>1071.1</ele>
        <time>2021-11-25T10:44:57Z</time>
      </trkpt>
      <trkpt lat="46.60986" lon="6.08071">
        <ele>1071.3</ele>
        <time>2021-11-25T10:45:02Z</time>
      </trkpt>
      <trkpt lat="46.60989" lon="6.08076">
        <ele>1071.3</ele>
        <time>2021-11-25T10:45:06Z</time>
      </trkpt>
      <trkpt lat="46.60992" lon="6.08082">
        <ele>1071.4</ele>
        <time>2021-11-25T10:45:11Z</time>
      </trkpt>
      <trkpt lat="46.60995" lon="6.08089">
        <ele>1071.5</ele>
        <time>2021-11-25T10:45:16Z</time>
      </trkpt>
      <trkpt lat="46.60995" lon="6.08096">
        <ele>1071.9</ele>
        <time>2021-11-25T10:45:20Z</time>
      </trkpt>
      <trkpt lat="46.60997" lon="6.08103">
        <ele>1072.5</ele>
        <time>2021-11-25T10:45:25Z</time>
      </trkpt>
      <trkpt lat="46.60998" lon="6.0811">
        <ele>1073.1</ele>
        <time>2021-11-25T10:45:30Z</time>
      </trkpt>
      <trkpt lat="46.61" lon="6.08117">
        <ele>1073</ele>
        <time>2021-11-25T10:45:35Z</time>
      </trkpt>
      <trkpt lat="46.61003" lon="6.08124">
        <ele>1072.6</ele>
        <time>2021-11-25T10:45:40Z</time>
      </trkpt>
      <trkpt lat="46.61006" lon="6.08128">
        <ele>1072.4</ele>
        <time>2021-11-25T10:45:45Z</time>
      </trkpt>
      <trkpt lat="46.61009" lon="6.08134">
        <ele>1072.6</ele>
        <time>2021-11-25T10:45:51Z</time>
      </trkpt>
      <trkpt lat="46.61013" lon="6.08139">
        <ele>1072.8</ele>
        <time>2021-11-25T10:45:57Z</time>
      </trkpt>
      <trkpt lat="46.61017" lon="6.08144">
        <ele>1073</ele>
        <time>2021-11-25T10:46:02Z</time>
      </trkpt>
      <trkpt lat="46.61021" lon="6.08149">
        <ele>1073</ele>
        <time>2021-11-25T10:46:06Z</time>
      </trkpt>
      <trkpt lat="46.61025" lon="6.08155">
        <ele>1072.9</ele>
        <time>2021-11-25T10:46:10Z</time>
      </trkpt>
      <trkpt lat="46.61025" lon="6.08162">
        <ele>1072.6</ele>
        <time>2021-11-25T10:46:16Z</time>
      </trkpt>
      <trkpt lat="46.61023" lon="6.08169">
        <ele>1070.9</ele>
        <time>2021-11-25T10:46:23Z</time>
      </trkpt>
      <trkpt lat="46.61023" lon="6.08176">
        <ele>1068.1</ele>
        <time>2021-11-25T10:46:33Z</time>
      </trkpt>
      <trkpt lat="46.61022" lon="6.08183">
        <ele>1067.2</ele>
        <time>2021-11-25T10:46:39Z</time>
      </trkpt>
      <trkpt lat="46.6102" lon="6.08189">
        <ele>1066.6</ele>
        <time>2021-11-25T10:46:51Z</time>
      </trkpt>
      <trkpt lat="46.61019" lon="6.08196">
        <ele>1065.7</ele>
        <time>2021-11-25T10:46:55Z</time>
      </trkpt>
      <trkpt lat="46.61018" lon="6.08204">
        <ele>1064.5</ele>
        <time>2021-11-25T10:46:59Z</time>
      </trkpt>
      <trkpt lat="46.61018" lon="6.08212">
        <ele>1063.3</ele>
        <time>2021-11-25T10:47:03Z</time>
      </trkpt>
      <trkpt lat="46.61018" lon="6.08219">
        <ele>1062.2</ele>
        <time>2021-11-25T10:47:07Z</time>
      </trkpt>
      <trkpt lat="46.61021" lon="6.08224">
        <ele>1061.4</ele>
        <time>2021-11-25T10:47:11Z</time>
      </trkpt>
      <trkpt lat="46.61022" lon="6.08231">
        <ele>1060.1</ele>
        <time>2021-11-25T10:47:17Z</time>
      </trkpt>
      <trkpt lat="46.61025" lon="6.08237">
        <ele>1058.1</ele>
        <time>2021-11-25T10:47:24Z</time>
      </trkpt>
      <trkpt lat="46.61025" lon="6.08244">
        <ele>1057.1</ele>
        <time>2021-11-25T10:47:28Z</time>
      </trkpt>
      <trkpt lat="46.61026" lon="6.08251">
        <ele>1055.9</ele>
        <time>2021-11-25T10:47:33Z</time>
      </trkpt>
      <trkpt lat="46.61026" lon="6.08258">
        <ele>1054.8</ele>
        <time>2021-11-25T10:47:38Z</time>
      </trkpt>
      <trkpt lat="46.61026" lon="6.08266">
        <ele>1054.4</ele>
        <time>2021-11-25T10:47:42Z</time>
      </trkpt>
      <trkpt lat="46.61025" lon="6.08272">
        <ele>1053.9</ele>
        <time>2021-11-25T10:47:47Z</time>
      </trkpt>
      <trkpt lat="46.61024" lon="6.08278">
        <ele>1053.4</ele>
        <time>2021-11-25T10:47:52Z</time>
      </trkpt>
      <trkpt lat="46.61022" lon="6.08285">
        <ele>1052.8</ele>
        <time>2021-11-25T10:47:57Z</time>
      </trkpt>
      <trkpt lat="46.6102" lon="6.08291">
        <ele>1051.7</ele>
        <time>2021-11-25T10:48:04Z</time>
      </trkpt>
      <trkpt lat="46.61018" lon="6.08297">
        <ele>1050.8</ele>
        <time>2021-11-25T10:48:08Z</time>
      </trkpt>
      <trkpt lat="46.61017" lon="6.08304">
        <ele>1050.1</ele>
        <time>2021-11-25T10:48:12Z</time>
      </trkpt>
      <trkpt lat="46.61016" lon="6.08311">
        <ele>1049.9</ele>
        <time>2021-11-25T10:48:17Z</time>
      </trkpt>
      <trkpt lat="46.61014" lon="6.08319">
        <ele>1050.1</ele>
        <time>2021-11-25T10:48:23Z</time>
      </trkpt>
      <trkpt lat="46.61012" lon="6.08326">
        <ele>1050.2</ele>
        <time>2021-11-25T10:48:27Z</time>
      </trkpt>
      <trkpt lat="46.61009" lon="6.08331">
        <ele>1050.6</ele>
        <time>2021-11-25T10:48:31Z</time>
      </trkpt>
      <trkpt lat="46.61007" lon="6.08338">
        <ele>1051.2</ele>
        <time>2021-11-25T10:48:36Z</time>
      </trkpt>
      <trkpt lat="46.61005" lon="6.08344">
        <ele>1051.8</ele>
        <time>2021-11-25T10:48:41Z</time>
      </trkpt>
      <trkpt lat="46.61004" lon="6.08351">
        <ele>1052.9</ele>
        <time>2021-11-25T10:48:48Z</time>
      </trkpt>
      <trkpt lat="46.61002" lon="6.08357">
        <ele>1053.2</ele>
        <time>2021-11-25T10:48:54Z</time>
      </trkpt>
      <trkpt lat="46.60999" lon="6.08362">
        <ele>1053</ele>
        <time>2021-11-25T10:48:57Z</time>
      </trkpt>
      <trkpt lat="46.60996" lon="6.08367">
        <ele>1052.9</ele>
        <time>2021-11-25T10:49:00Z</time>
      </trkpt>
      <trkpt lat="46.60994" lon="6.08374">
        <ele>1052.7</ele>
        <time>2021-11-25T10:49:05Z</time>
      </trkpt>
      <trkpt lat="46.60993" lon="6.0838">
        <ele>1052.1</ele>
        <time>2021-11-25T10:49:10Z</time>
      </trkpt>
      <trkpt lat="46.60991" lon="6.08387">
        <ele>1051.3</ele>
        <time>2021-11-25T10:49:15Z</time>
      </trkpt>
      <trkpt lat="46.6099" lon="6.08395">
        <ele>1050.9</ele>
        <time>2021-11-25T10:49:20Z</time>
      </trkpt>
      <trkpt lat="46.6099" lon="6.08403">
        <ele>1050.6</ele>
        <time>2021-11-25T10:49:24Z</time>
      </trkpt>
      <trkpt lat="46.60989" lon="6.0841">
        <ele>1050.5</ele>
        <time>2021-11-25T10:49:30Z</time>
      </trkpt>
      <trkpt lat="46.60985" lon="6.08414">
        <ele>1049.7</ele>
        <time>2021-11-25T10:49:35Z</time>
      </trkpt>
      <trkpt lat="46.60986" lon="6.08421">
        <ele>1048.4</ele>
        <time>2021-11-25T10:49:42Z</time>
      </trkpt>
      <trkpt lat="46.60987" lon="6.08427">
        <ele>1047.2</ele>
        <time>2021-11-25T10:49:47Z</time>
      </trkpt>
      <trkpt lat="46.6099" lon="6.08433">
        <ele>1046.9</ele>
        <time>2021-11-25T10:49:53Z</time>
      </trkpt>
      <trkpt lat="46.60993" lon="6.0844">
        <ele>1047.5</ele>
        <time>2021-11-25T10:49:57Z</time>
      </trkpt>
      <trkpt lat="46.60996" lon="6.08445">
        <ele>1048.3</ele>
        <time>2021-11-25T10:50:01Z</time>
      </trkpt>
      <trkpt lat="46.60998" lon="6.08452">
        <ele>1049.5</ele>
        <time>2021-11-25T10:50:07Z</time>
      </trkpt>
      <trkpt lat="46.61" lon="6.08459">
        <ele>1049.6</ele>
        <time>2021-11-25T10:50:12Z</time>
      </trkpt>
      <trkpt lat="46.61002" lon="6.08466">
        <ele>1049.7</ele>
        <time>2021-11-25T10:50:17Z</time>
      </trkpt>
      <trkpt lat="46.61004" lon="6.08473">
        <ele>1049.6</ele>
        <time>2021-11-25T10:50:22Z</time>
      </trkpt>
      <trkpt lat="46.61007" lon="6.08478">
        <ele>1049.1</ele>
        <time>2021-11-25T10:50:27Z</time>
      </trkpt>
      <trkpt lat="46.6101" lon="6.08484">
        <ele>1049.2</ele>
        <time>2021-11-25T10:50:32Z</time>
      </trkpt>
      <trkpt lat="46.61012" lon="6.08491">
        <ele>1050.2</ele>
        <time>2021-11-25T10:50:37Z</time>
      </trkpt>
      <trkpt lat="46.61014" lon="6.08498">
        <ele>1051.2</ele>
        <time>2021-11-25T10:50:41Z</time>
      </trkpt>
      <trkpt lat="46.61014" lon="6.08505">
        <ele>1051.8</ele>
        <time>2021-11-25T10:50:46Z</time>
      </trkpt>
      <trkpt lat="46.61012" lon="6.08512">
        <ele>1052.2</ele>
        <time>2021-11-25T10:50:51Z</time>
      </trkpt>
      <trkpt lat="46.61012" lon="6.08519">
        <ele>1052.4</ele>
        <time>2021-11-25T10:50:56Z</time>
      </trkpt>
      <trkpt lat="46.61011" lon="6.08526">
        <ele>1053.1</ele>
        <time>2021-11-25T10:51:01Z</time>
      </trkpt>
      <trkpt lat="46.61009" lon="6.08533">
        <ele>1054</ele>
        <time>2021-11-25T10:51:06Z</time>
      </trkpt>
      <trkpt lat="46.61008" lon="6.0854">
        <ele>1054.7</ele>
        <time>2021-11-25T10:51:12Z</time>
      </trkpt>
      <trkpt lat="46.61007" lon="6.08548">
        <ele>1054.4</ele>
        <time>2021-11-25T10:51:18Z</time>
      </trkpt>
      <trkpt lat="46.61008" lon="6.08554">
        <ele>1053.8</ele>
        <time>2021-11-25T10:51:28Z</time>
      </trkpt>
      <trkpt lat="46.61011" lon="6.08549">
        <ele>1052.7</ele>
        <time>2021-11-25T10:54:37Z</time>
      </trkpt>
      <trkpt lat="46.61014" lon="6.08542">
        <ele>1054.5</ele>
        <time>2021-11-25T10:54:50Z</time>
      </trkpt>
      <trkpt lat="46.61018" lon="6.08538">
        <ele>1054.7</ele>
        <time>2021-11-25T10:54:54Z</time>
      </trkpt>
      <trkpt lat="46.61022" lon="6.08534">
        <ele>1054.9</ele>
        <time>2021-11-25T10:54:57Z</time>
      </trkpt>
      <trkpt lat="46.61026" lon="6.08528">
        <ele>1055.9</ele>
        <time>2021-11-25T10:55:01Z</time>
      </trkpt>
      <trkpt lat="46.6103" lon="6.08523">
        <ele>1057.4</ele>
        <time>2021-11-25T10:55:05Z</time>
      </trkpt>
      <trkpt lat="46.61034" lon="6.08517">
        <ele>1058.2</ele>
        <time>2021-11-25T10:55:09Z</time>
      </trkpt>
      <trkpt lat="46.61037" lon="6.08512">
        <ele>1058.8</ele>
        <time>2021-11-25T10:55:13Z</time>
      </trkpt>
      <trkpt lat="46.6104" lon="6.08507">
        <ele>1059.3</ele>
        <time>2021-11-25T10:55:17Z</time>
      </trkpt>
      <trkpt lat="46.61044" lon="6.08501">
        <ele>1060.1</ele>
        <time>2021-11-25T10:55:21Z</time>
      </trkpt>
      <trkpt lat="46.61046" lon="6.08494">
        <ele>1060.6</ele>
        <time>2021-11-25T10:55:24Z</time>
      </trkpt>
      <trkpt lat="46.61048" lon="6.08488">
        <ele>1060.8</ele>
        <time>2021-11-25T10:55:27Z</time>
      </trkpt>
      <trkpt lat="46.6105" lon="6.08481">
        <ele>1060.9</ele>
        <time>2021-11-25T10:55:31Z</time>
      </trkpt>
      <trkpt lat="46.61051" lon="6.08474">
        <ele>1061.1</ele>
        <time>2021-11-25T10:55:35Z</time>
      </trkpt>
      <trkpt lat="46.61054" lon="6.08466">
        <ele>1061.3</ele>
        <time>2021-11-25T10:55:39Z</time>
      </trkpt>
      <trkpt lat="46.61056" lon="6.08459">
        <ele>1061.7</ele>
        <time>2021-11-25T10:55:43Z</time>
      </trkpt>
      <trkpt lat="46.6106" lon="6.08454">
        <ele>1062.1</ele>
        <time>2021-11-25T10:55:47Z</time>
      </trkpt>
      <trkpt lat="46.61063" lon="6.08449">
        <ele>1062.3</ele>
        <time>2021-11-25T10:55:52Z</time>
      </trkpt>
      <trkpt lat="46.61067" lon="6.08445">
        <ele>1062.2</ele>
        <time>2021-11-25T10:55:56Z</time>
      </trkpt>
      <trkpt lat="46.61071" lon="6.08441">
        <ele>1062</ele>
        <time>2021-11-25T10:55:59Z</time>
      </trkpt>
      <trkpt lat="46.61074" lon="6.08435">
        <ele>1062.1</ele>
        <time>2021-11-25T10:56:03Z</time>
      </trkpt>
      <trkpt lat="46.61078" lon="6.0843">
        <ele>1062.3</ele>
        <time>2021-11-25T10:56:08Z</time>
      </trkpt>
      <trkpt lat="46.61081" lon="6.08424">
        <ele>1062.6</ele>
        <time>2021-11-25T10:56:13Z</time>
      </trkpt>
      <trkpt lat="46.61085" lon="6.08418">
        <ele>1063.3</ele>
        <time>2021-11-25T10:56:17Z</time>
      </trkpt>
      <trkpt lat="46.61088" lon="6.08412">
        <ele>1064.2</ele>
        <time>2021-11-25T10:56:21Z</time>
      </trkpt>
      <trkpt lat="46.6109" lon="6.08405">
        <ele>1064.8</ele>
        <time>2021-11-25T10:56:25Z</time>
      </trkpt>
      <trkpt lat="46.61092" lon="6.08399">
        <ele>1065.4</ele>
        <time>2021-11-25T10:56:30Z</time>
      </trkpt>
      <trkpt lat="46.61095" lon="6.08393">
        <ele>1065.9</ele>
        <time>2021-11-25T10:56:35Z</time>
      </trkpt>
      <trkpt lat="46.61098" lon="6.08387">
        <ele>1066.2</ele>
        <time>2021-11-25T10:56:40Z</time>
      </trkpt>
      <trkpt lat="46.61102" lon="6.08382">
        <ele>1066.3</ele>
        <time>2021-11-25T10:56:45Z</time>
      </trkpt>
      <trkpt lat="46.61105" lon="6.08378">
        <ele>1066.4</ele>
        <time>2021-11-25T10:56:49Z</time>
      </trkpt>
      <trkpt lat="46.61109" lon="6.08371">
        <ele>1066.5</ele>
        <time>2021-11-25T10:56:54Z</time>
      </trkpt>
      <trkpt lat="46.61112" lon="6.08366">
        <ele>1065.7</ele>
        <time>2021-11-25T10:57:00Z</time>
      </trkpt>
      <trkpt lat="46.61116" lon="6.08361">
        <ele>1065.2</ele>
        <time>2021-11-25T10:57:05Z</time>
      </trkpt>
      <trkpt lat="46.6112" lon="6.08355">
        <ele>1064.9</ele>
        <time>2021-11-25T10:57:11Z</time>
      </trkpt>
      <trkpt lat="46.61124" lon="6.08349">
        <ele>1065</ele>
        <time>2021-11-25T10:57:17Z</time>
      </trkpt>
      <trkpt lat="46.61128" lon="6.08344">
        <ele>1065.6</ele>
        <time>2021-11-25T10:57:21Z</time>
      </trkpt>
      <trkpt lat="46.61131" lon="6.08338">
        <ele>1066.5</ele>
        <time>2021-11-25T10:57:26Z</time>
      </trkpt>
      <trkpt lat="46.61133" lon="6.08333">
        <ele>1067.4</ele>
        <time>2021-11-25T10:57:32Z</time>
      </trkpt>
      <trkpt lat="46.61137" lon="6.08327">
        <ele>1067.8</ele>
        <time>2021-11-25T10:57:37Z</time>
      </trkpt>
      <trkpt lat="46.6114" lon="6.08322">
        <ele>1067.3</ele>
        <time>2021-11-25T10:57:42Z</time>
      </trkpt>
      <trkpt lat="46.61144" lon="6.08317">
        <ele>1067.2</ele>
        <time>2021-11-25T10:57:47Z</time>
      </trkpt>
      <trkpt lat="46.61148" lon="6.08312">
        <ele>1067</ele>
        <time>2021-11-25T10:57:52Z</time>
      </trkpt>
      <trkpt lat="46.6115" lon="6.08306">
        <ele>1066.6</ele>
        <time>2021-11-25T10:57:57Z</time>
      </trkpt>
      <trkpt lat="46.61153" lon="6.08301">
        <ele>1066.3</ele>
        <time>2021-11-25T10:58:01Z</time>
      </trkpt>
      <trkpt lat="46.61157" lon="6.08295">
        <ele>1066.4</ele>
        <time>2021-11-25T10:58:06Z</time>
      </trkpt>
      <trkpt lat="46.6116" lon="6.08289">
        <ele>1066.7</ele>
        <time>2021-11-25T10:58:11Z</time>
      </trkpt>
      <trkpt lat="46.61164" lon="6.08285">
        <ele>1067.2</ele>
        <time>2021-11-25T10:58:16Z</time>
      </trkpt>
      <trkpt lat="46.61169" lon="6.08281">
        <ele>1067.2</ele>
        <time>2021-11-25T10:58:21Z</time>
      </trkpt>
      <trkpt lat="46.61172" lon="6.08277">
        <ele>1066.5</ele>
        <time>2021-11-25T10:58:26Z</time>
      </trkpt>
      <trkpt lat="46.61176" lon="6.08272">
        <ele>1065.2</ele>
        <time>2021-11-25T10:58:31Z</time>
      </trkpt>
      <trkpt lat="46.61179" lon="6.08267">
        <ele>1063.9</ele>
        <time>2021-11-25T10:58:36Z</time>
      </trkpt>
      <trkpt lat="46.61183" lon="6.08262">
        <ele>1062.7</ele>
        <time>2021-11-25T10:58:41Z</time>
      </trkpt>
      <trkpt lat="46.61186" lon="6.08255">
        <ele>1061.8</ele>
        <time>2021-11-25T10:58:47Z</time>
      </trkpt>
      <trkpt lat="46.61189" lon="6.0825">
        <ele>1061.7</ele>
        <time>2021-11-25T10:58:51Z</time>
      </trkpt>
      <trkpt lat="46.61193" lon="6.08244">
        <ele>1061.7</ele>
        <time>2021-11-25T10:58:57Z</time>
      </trkpt>
      <trkpt lat="46.61195" lon="6.08238">
        <ele>1061.8</ele>
        <time>2021-11-25T10:59:01Z</time>
      </trkpt>
      <trkpt lat="46.61196" lon="6.08232">
        <ele>1061.8</ele>
        <time>2021-11-25T10:59:05Z</time>
      </trkpt>
      <trkpt lat="46.61198" lon="6.08225">
        <ele>1061.9</ele>
        <time>2021-11-25T10:59:09Z</time>
      </trkpt>
      <trkpt lat="46.61199" lon="6.08219">
        <ele>1062.3</ele>
        <time>2021-11-25T10:59:13Z</time>
      </trkpt>
      <trkpt lat="46.612" lon="6.08211">
        <ele>1063.6</ele>
        <time>2021-11-25T10:59:18Z</time>
      </trkpt>
      <trkpt lat="46.61201" lon="6.08204">
        <ele>1064.2</ele>
        <time>2021-11-25T10:59:23Z</time>
      </trkpt>
      <trkpt lat="46.61204" lon="6.08198">
        <ele>1063.3</ele>
        <time>2021-11-25T10:59:29Z</time>
      </trkpt>
      <trkpt lat="46.61209" lon="6.08194">
        <ele>1062.8</ele>
        <time>2021-11-25T10:59:35Z</time>
      </trkpt>
      <trkpt lat="46.61211" lon="6.08188">
        <ele>1062.9</ele>
        <time>2021-11-25T10:59:39Z</time>
      </trkpt>
      <trkpt lat="46.61213" lon="6.08182">
        <ele>1063.1</ele>
        <time>2021-11-25T10:59:43Z</time>
      </trkpt>
      <trkpt lat="46.61215" lon="6.08175">
        <ele>1063.3</ele>
        <time>2021-11-25T10:59:48Z</time>
      </trkpt>
      <trkpt lat="46.61217" lon="6.08167">
        <ele>1063.8</ele>
        <time>2021-11-25T10:59:52Z</time>
      </trkpt>
      <trkpt lat="46.61218" lon="6.0816">
        <ele>1064</ele>
        <time>2021-11-25T10:59:57Z</time>
      </trkpt>
      <trkpt lat="46.61218" lon="6.08152">
        <ele>1064.3</ele>
        <time>2021-11-25T11:00:02Z</time>
      </trkpt>
      <trkpt lat="46.61217" lon="6.08145">
        <ele>1065.2</ele>
        <time>2021-11-25T11:00:07Z</time>
      </trkpt>
      <trkpt lat="46.61217" lon="6.08138">
        <ele>1066.3</ele>
        <time>2021-11-25T11:00:12Z</time>
      </trkpt>
      <trkpt lat="46.61217" lon="6.0813">
        <ele>1066.8</ele>
        <time>2021-11-25T11:00:17Z</time>
      </trkpt>
      <trkpt lat="46.61216" lon="6.08122">
        <ele>1067.9</ele>
        <time>2021-11-25T11:00:22Z</time>
      </trkpt>
      <trkpt lat="46.61216" lon="6.08115">
        <ele>1069.4</ele>
        <time>2021-11-25T11:00:27Z</time>
      </trkpt>
      <trkpt lat="46.61215" lon="6.08108">
        <ele>1070.3</ele>
        <time>2021-11-25T11:00:32Z</time>
      </trkpt>
      <trkpt lat="46.61215" lon="6.081">
        <ele>1071.6</ele>
        <time>2021-11-25T11:00:37Z</time>
      </trkpt>
      <trkpt lat="46.61214" lon="6.08094">
        <ele>1072.4</ele>
        <time>2021-11-25T11:00:41Z</time>
      </trkpt>
      <trkpt lat="46.61215" lon="6.08086">
        <ele>1072.3</ele>
        <time>2021-11-25T11:00:47Z</time>
      </trkpt>
      <trkpt lat="46.61214" lon="6.08078">
        <ele>1072.4</ele>
        <time>2021-11-25T11:00:51Z</time>
      </trkpt>
      <trkpt lat="46.61213" lon="6.0807">
        <ele>1072.4</ele>
        <time>2021-11-25T11:00:56Z</time>
      </trkpt>
      <trkpt lat="46.61215" lon="6.08064">
        <ele>1072.2</ele>
        <time>2021-11-25T11:01:01Z</time>
      </trkpt>
      <trkpt lat="46.61215" lon="6.08056">
        <ele>1072.4</ele>
        <time>2021-11-25T11:01:07Z</time>
      </trkpt>
      <trkpt lat="46.61216" lon="6.08049">
        <ele>1072.8</ele>
        <time>2021-11-25T11:01:13Z</time>
      </trkpt>
      <trkpt lat="46.61216" lon="6.08042">
        <ele>1072.8</ele>
        <time>2021-11-25T11:01:17Z</time>
      </trkpt>
      <trkpt lat="46.61218" lon="6.08036">
        <ele>1072.5</ele>
        <time>2021-11-25T11:01:22Z</time>
      </trkpt>
      <trkpt lat="46.6122" lon="6.08029">
        <ele>1072</ele>
        <time>2021-11-25T11:01:27Z</time>
      </trkpt>
      <trkpt lat="46.61223" lon="6.08023">
        <ele>1070.9</ele>
        <time>2021-11-25T11:01:33Z</time>
      </trkpt>
      <trkpt lat="46.61226" lon="6.08017">
        <ele>1069.9</ele>
        <time>2021-11-25T11:01:38Z</time>
      </trkpt>
      <trkpt lat="46.6123" lon="6.08013">
        <ele>1069.2</ele>
        <time>2021-11-25T11:01:42Z</time>
      </trkpt>
      <trkpt lat="46.61233" lon="6.08008">
        <ele>1068.5</ele>
        <time>2021-11-25T11:01:46Z</time>
      </trkpt>
      <trkpt lat="46.61236" lon="6.08003">
        <ele>1068.1</ele>
        <time>2021-11-25T11:01:50Z</time>
      </trkpt>
      <trkpt lat="46.61238" lon="6.07997">
        <ele>1067.5</ele>
        <time>2021-11-25T11:01:54Z</time>
      </trkpt>
      <trkpt lat="46.61239" lon="6.0799">
        <ele>1066.9</ele>
        <time>2021-11-25T11:01:58Z</time>
      </trkpt>
      <trkpt lat="46.61241" lon="6.07983">
        <ele>1066.2</ele>
        <time>2021-11-25T11:02:02Z</time>
      </trkpt>
      <trkpt lat="46.61245" lon="6.07977">
        <ele>1065</ele>
        <time>2021-11-25T11:02:08Z</time>
      </trkpt>
      <trkpt lat="46.6125" lon="6.07976">
        <ele>1064.4</ele>
        <time>2021-11-25T11:02:13Z</time>
      </trkpt>
      <trkpt lat="46.61253" lon="6.0797">
        <ele>1064.2</ele>
        <time>2021-11-25T11:02:17Z</time>
      </trkpt>
      <trkpt lat="46.61256" lon="6.07964">
        <ele>1064.1</ele>
        <time>2021-11-25T11:02:21Z</time>
      </trkpt>
      <trkpt lat="46.6126" lon="6.0796">
        <ele>1064</ele>
        <time>2021-11-25T11:02:25Z</time>
      </trkpt>
      <trkpt lat="46.61264" lon="6.07955">
        <ele>1064.2</ele>
        <time>2021-11-25T11:02:30Z</time>
      </trkpt>
      <trkpt lat="46.61268" lon="6.07949">
        <ele>1064.4</ele>
        <time>2021-11-25T11:02:34Z</time>
      </trkpt>
      <trkpt lat="46.6127" lon="6.07942">
        <ele>1064.8</ele>
        <time>2021-11-25T11:02:38Z</time>
      </trkpt>
      <trkpt lat="46.61274" lon="6.07936">
        <ele>1065.3</ele>
        <time>2021-11-25T11:02:42Z</time>
      </trkpt>
      <trkpt lat="46.61276" lon="6.0793">
        <ele>1066.6</ele>
        <time>2021-11-25T11:02:47Z</time>
      </trkpt>
      <trkpt lat="46.61276" lon="6.07922">
        <ele>1067.8</ele>
        <time>2021-11-25T11:02:53Z</time>
      </trkpt>
      <trkpt lat="46.61277" lon="6.07915">
        <ele>1068.4</ele>
        <time>2021-11-25T11:02:58Z</time>
      </trkpt>
      <trkpt lat="46.61276" lon="6.07907">
        <ele>1069</ele>
        <time>2021-11-25T11:03:02Z</time>
      </trkpt>
      <trkpt lat="46.61277" lon="6.079">
        <ele>1069.7</ele>
        <time>2021-11-25T11:03:06Z</time>
      </trkpt>
      <trkpt lat="46.61278" lon="6.07893">
        <ele>1070.5</ele>
        <time>2021-11-25T11:03:10Z</time>
      </trkpt>
      <trkpt lat="46.61278" lon="6.07884">
        <ele>1071.1</ele>
        <time>2021-11-25T11:03:14Z</time>
      </trkpt>
      <trkpt lat="46.61278" lon="6.07877">
        <ele>1071.9</ele>
        <time>2021-11-25T11:03:18Z</time>
      </trkpt>
      <trkpt lat="46.61279" lon="6.07869">
        <ele>1072.3</ele>
        <time>2021-11-25T11:03:23Z</time>
      </trkpt>
      <trkpt lat="46.6128" lon="6.07863">
        <ele>1072.4</ele>
        <time>2021-11-25T11:03:28Z</time>
      </trkpt>
      <trkpt lat="46.61281" lon="6.07856">
        <ele>1072.6</ele>
        <time>2021-11-25T11:03:33Z</time>
      </trkpt>
      <trkpt lat="46.61283" lon="6.07849">
        <ele>1072.9</ele>
        <time>2021-11-25T11:03:39Z</time>
      </trkpt>
      <trkpt lat="46.61285" lon="6.07843">
        <ele>1073.1</ele>
        <time>2021-11-25T11:03:44Z</time>
      </trkpt>
      <trkpt lat="46.61287" lon="6.07837">
        <ele>1072.7</ele>
        <time>2021-11-25T11:03:49Z</time>
      </trkpt>
      <trkpt lat="46.61289" lon="6.0783">
        <ele>1072.5</ele>
        <time>2021-11-25T11:03:53Z</time>
      </trkpt>
      <trkpt lat="46.61291" lon="6.07823">
        <ele>1072.5</ele>
        <time>2021-11-25T11:03:57Z</time>
      </trkpt>
      <trkpt lat="46.61292" lon="6.07816">
        <ele>1072.7</ele>
        <time>2021-11-25T11:04:01Z</time>
      </trkpt>
      <trkpt lat="46.61293" lon="6.0781">
        <ele>1072.2</ele>
        <time>2021-11-25T11:04:06Z</time>
      </trkpt>
      <trkpt lat="46.61294" lon="6.07802">
        <ele>1071.2</ele>
        <time>2021-11-25T11:04:11Z</time>
      </trkpt>
      <trkpt lat="46.61298" lon="6.07797">
        <ele>1070.1</ele>
        <time>2021-11-25T11:04:16Z</time>
      </trkpt>
      <trkpt lat="46.61301" lon="6.07791">
        <ele>1069.6</ele>
        <time>2021-11-25T11:04:20Z</time>
      </trkpt>
      <trkpt lat="46.61304" lon="6.07785">
        <ele>1069</ele>
        <time>2021-11-25T11:04:25Z</time>
      </trkpt>
      <trkpt lat="46.61307" lon="6.0778">
        <ele>1068.7</ele>
        <time>2021-11-25T11:04:29Z</time>
      </trkpt>
      <trkpt lat="46.61311" lon="6.07774">
        <ele>1068.6</ele>
        <time>2021-11-25T11:04:33Z</time>
      </trkpt>
      <trkpt lat="46.61313" lon="6.07769">
        <ele>1068.3</ele>
        <time>2021-11-25T11:04:37Z</time>
      </trkpt>
      <trkpt lat="46.61317" lon="6.07764">
        <ele>1068.2</ele>
        <time>2021-11-25T11:04:41Z</time>
      </trkpt>
      <trkpt lat="46.61321" lon="6.07759">
        <ele>1068</ele>
        <time>2021-11-25T11:04:46Z</time>
      </trkpt>
      <trkpt lat="46.61324" lon="6.07754">
        <ele>1068.3</ele>
        <time>2021-11-25T11:04:51Z</time>
      </trkpt>
      <trkpt lat="46.61328" lon="6.07748">
        <ele>1068.7</ele>
        <time>2021-11-25T11:04:56Z</time>
      </trkpt>
      <trkpt lat="46.6133" lon="6.07743">
        <ele>1069.2</ele>
        <time>2021-11-25T11:05:00Z</time>
      </trkpt>
      <trkpt lat="46.61333" lon="6.07737">
        <ele>1070</ele>
        <time>2021-11-25T11:05:05Z</time>
      </trkpt>
      <trkpt lat="46.61336" lon="6.07732">
        <ele>1070.1</ele>
        <time>2021-11-25T11:05:11Z</time>
      </trkpt>
      <trkpt lat="46.61339" lon="6.07726">
        <ele>1069.5</ele>
        <time>2021-11-25T11:05:16Z</time>
      </trkpt>
      <trkpt lat="46.61342" lon="6.07721">
        <ele>1068.7</ele>
        <time>2021-11-25T11:05:23Z</time>
      </trkpt>
      <trkpt lat="46.61347" lon="6.07716">
        <ele>1068.3</ele>
        <time>2021-11-25T11:05:28Z</time>
      </trkpt>
      <trkpt lat="46.6135" lon="6.07711">
        <ele>1067.3</ele>
        <time>2021-11-25T11:05:34Z</time>
      </trkpt>
      <trkpt lat="46.61354" lon="6.07706">
        <ele>1065.9</ele>
        <time>2021-11-25T11:05:43Z</time>
      </trkpt>
      <trkpt lat="46.61358" lon="6.07701">
        <ele>1065.2</ele>
        <time>2021-11-25T11:05:48Z</time>
      </trkpt>
      <trkpt lat="46.61362" lon="6.07696">
        <ele>1065.1</ele>
        <time>2021-11-25T11:05:51Z</time>
      </trkpt>
      <trkpt lat="46.61365" lon="6.0769">
        <ele>1065.2</ele>
        <time>2021-11-25T11:05:54Z</time>
      </trkpt>
      <trkpt lat="46.61369" lon="6.07684">
        <ele>1065.2</ele>
        <time>2021-11-25T11:05:57Z</time>
      </trkpt>
      <trkpt lat="46.61372" lon="6.07678">
        <ele>1065.1</ele>
        <time>2021-11-25T11:06:01Z</time>
      </trkpt>
      <trkpt lat="46.61374" lon="6.07671">
        <ele>1064.7</ele>
        <time>2021-11-25T11:06:05Z</time>
      </trkpt>
      <trkpt lat="46.61376" lon="6.07664">
        <ele>1064.8</ele>
        <time>2021-11-25T11:06:09Z</time>
      </trkpt>
      <trkpt lat="46.61379" lon="6.07658">
        <ele>1065.2</ele>
        <time>2021-11-25T11:06:13Z</time>
      </trkpt>
      <trkpt lat="46.6138" lon="6.0765">
        <ele>1065.8</ele>
        <time>2021-11-25T11:06:17Z</time>
      </trkpt>
      <trkpt lat="46.61381" lon="6.07644">
        <ele>1066.7</ele>
        <time>2021-11-25T11:06:21Z</time>
      </trkpt>
      <trkpt lat="46.61383" lon="6.07637">
        <ele>1067.8</ele>
        <time>2021-11-25T11:06:26Z</time>
      </trkpt>
      <trkpt lat="46.61386" lon="6.07631">
        <ele>1068.2</ele>
        <time>2021-11-25T11:06:31Z</time>
      </trkpt>
      <trkpt lat="46.61389" lon="6.07625">
        <ele>1067.9</ele>
        <time>2021-11-25T11:06:36Z</time>
      </trkpt>
      <trkpt lat="46.61392" lon="6.07618">
        <ele>1067.6</ele>
        <time>2021-11-25T11:06:41Z</time>
      </trkpt>
      <trkpt lat="46.61395" lon="6.07612">
        <ele>1066.9</ele>
        <time>2021-11-25T11:06:46Z</time>
      </trkpt>
      <trkpt lat="46.61398" lon="6.07605">
        <ele>1066.7</ele>
        <time>2021-11-25T11:06:51Z</time>
      </trkpt>
      <trkpt lat="46.61401" lon="6.076">
        <ele>1066.8</ele>
        <time>2021-11-25T11:06:55Z</time>
      </trkpt>
      <trkpt lat="46.61405" lon="6.07595">
        <ele>1067</ele>
        <time>2021-11-25T11:07:00Z</time>
      </trkpt>
      <trkpt lat="46.61406" lon="6.07588">
        <ele>1067.3</ele>
        <time>2021-11-25T11:07:06Z</time>
      </trkpt>
      <trkpt lat="46.61409" lon="6.07581">
        <ele>1066.8</ele>
        <time>2021-11-25T11:07:12Z</time>
      </trkpt>
      <trkpt lat="46.61412" lon="6.07574">
        <ele>1065.9</ele>
        <time>2021-11-25T11:07:17Z</time>
      </trkpt>
      <trkpt lat="46.61414" lon="6.07568">
        <ele>1065.6</ele>
        <time>2021-11-25T11:07:21Z</time>
      </trkpt>
      <trkpt lat="46.61416" lon="6.0756">
        <ele>1065.6</ele>
        <time>2021-11-25T11:07:26Z</time>
      </trkpt>
      <trkpt lat="46.61418" lon="6.07553">
        <ele>1065.6</ele>
        <time>2021-11-25T11:07:31Z</time>
      </trkpt>
      <trkpt lat="46.61421" lon="6.07547">
        <ele>1065.3</ele>
        <time>2021-11-25T11:07:37Z</time>
      </trkpt>
      <trkpt lat="46.61425" lon="6.07542">
        <ele>1065.2</ele>
        <time>2021-11-25T11:07:42Z</time>
      </trkpt>
      <trkpt lat="46.61428" lon="6.07537">
        <ele>1064.9</ele>
        <time>2021-11-25T11:07:46Z</time>
      </trkpt>
      <trkpt lat="46.61432" lon="6.07533">
        <ele>1064.4</ele>
        <time>2021-11-25T11:07:51Z</time>
      </trkpt>
      <trkpt lat="46.61436" lon="6.07528">
        <ele>1063</ele>
        <time>2021-11-25T11:07:59Z</time>
      </trkpt>
      <trkpt lat="46.61437" lon="6.07521">
        <ele>1062.6</ele>
        <time>2021-11-25T11:08:03Z</time>
      </trkpt>
      <trkpt lat="46.61439" lon="6.07513">
        <ele>1062.4</ele>
        <time>2021-11-25T11:08:07Z</time>
      </trkpt>
      <trkpt lat="46.61441" lon="6.07506">
        <ele>1062.5</ele>
        <time>2021-11-25T11:08:12Z</time>
      </trkpt>
      <trkpt lat="46.61445" lon="6.07502">
        <ele>1062.8</ele>
        <time>2021-11-25T11:08:19Z</time>
      </trkpt>
      <trkpt lat="46.61447" lon="6.07496">
        <ele>1063</ele>
        <time>2021-11-25T11:08:25Z</time>
      </trkpt>
      <trkpt lat="46.6145" lon="6.07489">
        <ele>1063</ele>
        <time>2021-11-25T11:08:29Z</time>
      </trkpt>
      <trkpt lat="46.61454" lon="6.07482">
        <ele>1062.9</ele>
        <time>2021-11-25T11:08:33Z</time>
      </trkpt>
      <trkpt lat="46.61457" lon="6.07477">
        <ele>1062.6</ele>
        <time>2021-11-25T11:08:37Z</time>
      </trkpt>
      <trkpt lat="46.6146" lon="6.0747">
        <ele>1063.3</ele>
        <time>2021-11-25T11:08:42Z</time>
      </trkpt>
      <trkpt lat="46.61462" lon="6.07464">
        <ele>1063.7</ele>
        <time>2021-11-25T11:08:47Z</time>
      </trkpt>
      <trkpt lat="46.61465" lon="6.07457">
        <ele>1064</ele>
        <time>2021-11-25T11:08:52Z</time>
      </trkpt>
      <trkpt lat="46.61466" lon="6.0745">
        <ele>1064</ele>
        <time>2021-11-25T11:08:56Z</time>
      </trkpt>
      <trkpt lat="46.61469" lon="6.07442">
        <ele>1064.3</ele>
        <time>2021-11-25T11:09:00Z</time>
      </trkpt>
      <trkpt lat="46.6147" lon="6.07434">
        <ele>1064.6</ele>
        <time>2021-11-25T11:09:04Z</time>
      </trkpt>
      <trkpt lat="46.61474" lon="6.07427">
        <ele>1065</ele>
        <time>2021-11-25T11:09:08Z</time>
      </trkpt>
      <trkpt lat="46.61477" lon="6.07422">
        <ele>1065.4</ele>
        <time>2021-11-25T11:09:12Z</time>
      </trkpt>
      <trkpt lat="46.6148" lon="6.07415">
        <ele>1066.1</ele>
        <time>2021-11-25T11:09:16Z</time>
      </trkpt>
      <trkpt lat="46.61483" lon="6.07411">
        <ele>1066.2</ele>
        <time>2021-11-25T11:09:21Z</time>
      </trkpt>
      <trkpt lat="46.61488" lon="6.07408">
        <ele>1066.1</ele>
        <time>2021-11-25T11:09:26Z</time>
      </trkpt>
      <trkpt lat="46.61492" lon="6.07404">
        <ele>1065.9</ele>
        <time>2021-11-25T11:09:31Z</time>
      </trkpt>
      <trkpt lat="46.61496" lon="6.07399">
        <ele>1066</ele>
        <time>2021-11-25T11:09:36Z</time>
      </trkpt>
      <trkpt lat="46.61501" lon="6.07398">
        <ele>1066.3</ele>
        <time>2021-11-25T11:09:40Z</time>
      </trkpt>
      <trkpt lat="46.61506" lon="6.07394">
        <ele>1067.6</ele>
        <time>2021-11-25T11:09:44Z</time>
      </trkpt>
      <trkpt lat="46.61509" lon="6.07389">
        <ele>1069.2</ele>
        <time>2021-11-25T11:09:48Z</time>
      </trkpt>
      <trkpt lat="46.61511" lon="6.07382">
        <ele>1071.1</ele>
        <time>2021-11-25T11:09:54Z</time>
      </trkpt>
      <trkpt lat="46.61512" lon="6.07375">
        <ele>1072.7</ele>
        <time>2021-11-25T11:09:59Z</time>
      </trkpt>
      <trkpt lat="46.61515" lon="6.0737">
        <ele>1074</ele>
        <time>2021-11-25T11:10:03Z</time>
      </trkpt>
      <trkpt lat="46.61518" lon="6.07364">
        <ele>1075.1</ele>
        <time>2021-11-25T11:10:07Z</time>
      </trkpt>
      <trkpt lat="46.61521" lon="6.07358">
        <ele>1076.1</ele>
        <time>2021-11-25T11:10:11Z</time>
      </trkpt>
      <trkpt lat="46.61524" lon="6.07352">
        <ele>1077.3</ele>
        <time>2021-11-25T11:10:16Z</time>
      </trkpt>
      <trkpt lat="46.61527" lon="6.07347">
        <ele>1078.2</ele>
        <time>2021-11-25T11:10:22Z</time>
      </trkpt>
      <trkpt lat="46.61531" lon="6.07343">
        <ele>1078.5</ele>
        <time>2021-11-25T11:10:27Z</time>
      </trkpt>
      <trkpt lat="46.61535" lon="6.0734">
        <ele>1078.6</ele>
        <time>2021-11-25T11:10:31Z</time>
      </trkpt>
      <trkpt lat="46.61539" lon="6.07336">
        <ele>1079.2</ele>
        <time>2021-11-25T11:10:35Z</time>
      </trkpt>
      <trkpt lat="46.61541" lon="6.07329">
        <ele>1079.9</ele>
        <time>2021-11-25T11:10:40Z</time>
      </trkpt>
      <trkpt lat="46.61544" lon="6.07322">
        <ele>1080.2</ele>
        <time>2021-11-25T11:10:46Z</time>
      </trkpt>
      <trkpt lat="46.61547" lon="6.07317">
        <ele>1080.5</ele>
        <time>2021-11-25T11:10:50Z</time>
      </trkpt>
      <trkpt lat="46.61551" lon="6.07311">
        <ele>1081</ele>
        <time>2021-11-25T11:10:54Z</time>
      </trkpt>
      <trkpt lat="46.61553" lon="6.07304">
        <ele>1081.7</ele>
        <time>2021-11-25T11:10:58Z</time>
      </trkpt>
      <trkpt lat="46.61555" lon="6.07298">
        <ele>1082.5</ele>
        <time>2021-11-25T11:11:02Z</time>
      </trkpt>
      <trkpt lat="46.61557" lon="6.07291">
        <ele>1083</ele>
        <time>2021-11-25T11:11:07Z</time>
      </trkpt>
      <trkpt lat="46.61562" lon="6.07287">
        <ele>1083</ele>
        <time>2021-11-25T11:11:12Z</time>
      </trkpt>
      <trkpt lat="46.61566" lon="6.07283">
        <ele>1083.3</ele>
        <time>2021-11-25T11:11:16Z</time>
      </trkpt>
      <trkpt lat="46.61571" lon="6.07282">
        <ele>1083.6</ele>
        <time>2021-11-25T11:11:21Z</time>
      </trkpt>
      <trkpt lat="46.61575" lon="6.0728">
        <ele>1083.9</ele>
        <time>2021-11-25T11:11:25Z</time>
      </trkpt>
      <trkpt lat="46.6158" lon="6.07277">
        <ele>1084.2</ele>
        <time>2021-11-25T11:11:30Z</time>
      </trkpt>
      <trkpt lat="46.61585" lon="6.07274">
        <ele>1084.3</ele>
        <time>2021-11-25T11:11:36Z</time>
      </trkpt>
      <trkpt lat="46.6159" lon="6.07273">
        <ele>1084.4</ele>
        <time>2021-11-25T11:11:41Z</time>
      </trkpt>
      <trkpt lat="46.61595" lon="6.07271">
        <ele>1084.8</ele>
        <time>2021-11-25T11:11:46Z</time>
      </trkpt>
      <trkpt lat="46.61599" lon="6.07267">
        <ele>1085.2</ele>
        <time>2021-11-25T11:11:52Z</time>
      </trkpt>
      <trkpt lat="46.61602" lon="6.07263">
        <ele>1085.3</ele>
        <time>2021-11-25T11:11:57Z</time>
      </trkpt>
      <trkpt lat="46.61607" lon="6.0726">
        <ele>1085</ele>
        <time>2021-11-25T11:12:02Z</time>
      </trkpt>
      <trkpt lat="46.61613" lon="6.07259">
        <ele>1085</ele>
        <time>2021-11-25T11:12:06Z</time>
      </trkpt>
      <trkpt lat="46.61617" lon="6.07256">
        <ele>1084.9</ele>
        <time>2021-11-25T11:12:10Z</time>
      </trkpt>
      <trkpt lat="46.61621" lon="6.07251">
        <ele>1084.7</ele>
        <time>2021-11-25T11:12:15Z</time>
      </trkpt>
      <trkpt lat="46.61625" lon="6.07246">
        <ele>1084.5</ele>
        <time>2021-11-25T11:12:20Z</time>
      </trkpt>
      <trkpt lat="46.61629" lon="6.07243">
        <ele>1083.7</ele>
        <time>2021-11-25T11:12:24Z</time>
      </trkpt>
      <trkpt lat="46.61634" lon="6.07238">
        <ele>1082.8</ele>
        <time>2021-11-25T11:12:28Z</time>
      </trkpt>
      <trkpt lat="46.61637" lon="6.07233">
        <ele>1082.4</ele>
        <time>2021-11-25T11:12:32Z</time>
      </trkpt>
      <trkpt lat="46.61642" lon="6.07228">
        <ele>1081.9</ele>
        <time>2021-11-25T11:12:36Z</time>
      </trkpt>
      <trkpt lat="46.61648" lon="6.07225">
        <ele>1081.3</ele>
        <time>2021-11-25T11:12:40Z</time>
      </trkpt>
      <trkpt lat="46.61653" lon="6.07223">
        <ele>1080.4</ele>
        <time>2021-11-25T11:12:44Z</time>
      </trkpt>
      <trkpt lat="46.61657" lon="6.07221">
        <ele>1078.7</ele>
        <time>2021-11-25T11:12:49Z</time>
      </trkpt>
      <trkpt lat="46.61662" lon="6.07219">
        <ele>1076.6</ele>
        <time>2021-11-25T11:12:55Z</time>
      </trkpt>
      <trkpt lat="46.61666" lon="6.07217">
        <ele>1075.7</ele>
        <time>2021-11-25T11:13:01Z</time>
      </trkpt>
      <trkpt lat="46.61671" lon="6.07215">
        <ele>1074.7</ele>
        <time>2021-11-25T11:13:10Z</time>
      </trkpt>
      <trkpt lat="46.61675" lon="6.07209">
        <ele>1074.5</ele>
        <time>2021-11-25T11:13:14Z</time>
      </trkpt>
      <trkpt lat="46.61679" lon="6.07205">
        <ele>1074.6</ele>
        <time>2021-11-25T11:13:19Z</time>
      </trkpt>
      <trkpt lat="46.61685" lon="6.07204">
        <ele>1074.7</ele>
        <time>2021-11-25T11:13:25Z</time>
      </trkpt>
      <trkpt lat="46.61691" lon="6.07204">
        <ele>1074.9</ele>
        <time>2021-11-25T11:13:28Z</time>
      </trkpt>
      <trkpt lat="46.61696" lon="6.07205">
        <ele>1075.6</ele>
        <time>2021-11-25T11:13:31Z</time>
      </trkpt>
      <trkpt lat="46.61701" lon="6.07204">
        <ele>1077.2</ele>
        <time>2021-11-25T11:13:35Z</time>
      </trkpt>
      <trkpt lat="46.61706" lon="6.07203">
        <ele>1080.3</ele>
        <time>2021-11-25T11:13:41Z</time>
      </trkpt>
      <trkpt lat="46.61711" lon="6.07206">
        <ele>1081.5</ele>
        <time>2021-11-25T11:13:49Z</time>
      </trkpt>
      <trkpt lat="46.61717" lon="6.07206">
        <ele>1081.6</ele>
        <time>2021-11-25T11:13:54Z</time>
      </trkpt>
      <trkpt lat="46.61722" lon="6.07208">
        <ele>1081.5</ele>
        <time>2021-11-25T11:13:58Z</time>
      </trkpt>
      <trkpt lat="46.61728" lon="6.07211">
        <ele>1081.6</ele>
        <time>2021-11-25T11:14:01Z</time>
      </trkpt>
      <trkpt lat="46.61732" lon="6.07218">
        <ele>1081.6</ele>
        <time>2021-11-25T11:14:04Z</time>
      </trkpt>
      <trkpt lat="46.61737" lon="6.07222">
        <ele>1081.5</ele>
        <time>2021-11-25T11:14:07Z</time>
      </trkpt>
      <trkpt lat="46.61741" lon="6.07222">
        <ele>1081.3</ele>
        <time>2021-11-25T11:14:11Z</time>
      </trkpt>
      <trkpt lat="46.61746" lon="6.07219">
        <ele>1081.4</ele>
        <time>2021-11-25T11:14:16Z</time>
      </trkpt>
      <trkpt lat="46.61751" lon="6.07215">
        <ele>1081.7</ele>
        <time>2021-11-25T11:14:20Z</time>
      </trkpt>
      <trkpt lat="46.61756" lon="6.07212">
        <ele>1082.2</ele>
        <time>2021-11-25T11:14:24Z</time>
      </trkpt>
      <trkpt lat="46.61761" lon="6.07209">
        <ele>1082.8</ele>
        <time>2021-11-25T11:14:29Z</time>
      </trkpt>
      <trkpt lat="46.61766" lon="6.07207">
        <ele>1083</ele>
        <time>2021-11-25T11:14:34Z</time>
      </trkpt>
      <trkpt lat="46.61771" lon="6.07204">
        <ele>1083.3</ele>
        <time>2021-11-25T11:14:39Z</time>
      </trkpt>
      <trkpt lat="46.61776" lon="6.07201">
        <ele>1083</ele>
        <time>2021-11-25T11:14:45Z</time>
      </trkpt>
      <trkpt lat="46.61781" lon="6.07201">
        <ele>1081.8</ele>
        <time>2021-11-25T11:14:50Z</time>
      </trkpt>
      <trkpt lat="46.61786" lon="6.07202">
        <ele>1081.3</ele>
        <time>2021-11-25T11:14:53Z</time>
      </trkpt>
      <trkpt lat="46.61791" lon="6.07201">
        <ele>1081.1</ele>
        <time>2021-11-25T11:14:57Z</time>
      </trkpt>
      <trkpt lat="46.61796" lon="6.07203">
        <ele>1081.1</ele>
        <time>2021-11-25T11:15:02Z</time>
      </trkpt>
      <trkpt lat="46.618" lon="6.07207">
        <ele>1081.2</ele>
        <time>2021-11-25T11:15:06Z</time>
      </trkpt>
      <trkpt lat="46.61804" lon="6.07211">
        <ele>1081.5</ele>
        <time>2021-11-25T11:15:11Z</time>
      </trkpt>
      <trkpt lat="46.61808" lon="6.07214">
        <ele>1081.4</ele>
        <time>2021-11-25T11:15:15Z</time>
      </trkpt>
      <trkpt lat="46.61813" lon="6.07209">
        <ele>1081</ele>
        <time>2021-11-25T11:15:24Z</time>
      </trkpt>
      <trkpt lat="46.61818" lon="6.07207">
        <ele>1081.1</ele>
        <time>2021-11-25T11:15:27Z</time>
      </trkpt>
      <trkpt lat="46.61822" lon="6.07203">
        <ele>1081.3</ele>
        <time>2021-11-25T11:15:31Z</time>
      </trkpt>
      <trkpt lat="46.61825" lon="6.07197">
        <ele>1081.5</ele>
        <time>2021-11-25T11:15:36Z</time>
      </trkpt>
      <trkpt lat="46.61827" lon="6.0719">
        <ele>1081.4</ele>
        <time>2021-11-25T11:15:42Z</time>
      </trkpt>
      <trkpt lat="46.61831" lon="6.07185">
        <ele>1081.2</ele>
        <time>2021-11-25T11:15:47Z</time>
      </trkpt>
      <trkpt lat="46.61836" lon="6.07182">
        <ele>1080.5</ele>
        <time>2021-11-25T11:15:52Z</time>
      </trkpt>
      <trkpt lat="46.6184" lon="6.07178">
        <ele>1080</ele>
        <time>2021-11-25T11:15:57Z</time>
      </trkpt>
      <trkpt lat="46.61846" lon="6.07178">
        <ele>1079.8</ele>
        <time>2021-11-25T11:16:01Z</time>
      </trkpt>
      <trkpt lat="46.6185" lon="6.07176">
        <ele>1079.8</ele>
        <time>2021-11-25T11:16:05Z</time>
      </trkpt>
      <trkpt lat="46.61855" lon="6.07173">
        <ele>1079.5</ele>
        <time>2021-11-25T11:16:10Z</time>
      </trkpt>
      <trkpt lat="46.61858" lon="6.07167">
        <ele>1078.8</ele>
        <time>2021-11-25T11:16:14Z</time>
      </trkpt>
      <trkpt lat="46.61861" lon="6.0716">
        <ele>1078.3</ele>
        <time>2021-11-25T11:16:18Z</time>
      </trkpt>
      <trkpt lat="46.61865" lon="6.07154">
        <ele>1078.4</ele>
        <time>2021-11-25T11:16:23Z</time>
      </trkpt>
      <trkpt lat="46.6187" lon="6.07151">
        <ele>1078.8</ele>
        <time>2021-11-25T11:16:28Z</time>
      </trkpt>
      <trkpt lat="46.61874" lon="6.07151">
        <ele>1078.8</ele>
        <time>2021-11-25T11:16:32Z</time>
      </trkpt>
      <trkpt lat="46.61879" lon="6.0715">
        <ele>1078.4</ele>
        <time>2021-11-25T11:16:36Z</time>
      </trkpt>
      <trkpt lat="46.61884" lon="6.07147">
        <ele>1078</ele>
        <time>2021-11-25T11:16:41Z</time>
      </trkpt>
      <trkpt lat="46.61888" lon="6.07142">
        <ele>1078</ele>
        <time>2021-11-25T11:16:45Z</time>
      </trkpt>
      <trkpt lat="46.61891" lon="6.07137">
        <ele>1078.2</ele>
        <time>2021-11-25T11:16:49Z</time>
      </trkpt>
      <trkpt lat="46.61895" lon="6.07132">
        <ele>1078.8</ele>
        <time>2021-11-25T11:16:54Z</time>
      </trkpt>
      <trkpt lat="46.61899" lon="6.07127">
        <ele>1079.6</ele>
        <time>2021-11-25T11:16:59Z</time>
      </trkpt>
      <trkpt lat="46.61902" lon="6.07119">
        <ele>1080.1</ele>
        <time>2021-11-25T11:17:04Z</time>
      </trkpt>
      <trkpt lat="46.61903" lon="6.07113">
        <ele>1080.6</ele>
        <time>2021-11-25T11:17:09Z</time>
      </trkpt>
      <trkpt lat="46.61907" lon="6.07108">
        <ele>1080.6</ele>
        <time>2021-11-25T11:17:13Z</time>
      </trkpt>
      <trkpt lat="46.6191" lon="6.07101">
        <ele>1080.1</ele>
        <time>2021-11-25T11:17:17Z</time>
      </trkpt>
      <trkpt lat="46.61913" lon="6.07096">
        <ele>1079.4</ele>
        <time>2021-11-25T11:17:21Z</time>
      </trkpt>
      <trkpt lat="46.61915" lon="6.07089">
        <ele>1079</ele>
        <time>2021-11-25T11:17:25Z</time>
      </trkpt>
      <trkpt lat="46.61917" lon="6.07083">
        <ele>1078.9</ele>
        <time>2021-11-25T11:17:29Z</time>
      </trkpt>
      <trkpt lat="46.61919" lon="6.07076">
        <ele>1078.8</ele>
        <time>2021-11-25T11:17:34Z</time>
      </trkpt>
      <trkpt lat="46.61923" lon="6.07072">
        <ele>1079</ele>
        <time>2021-11-25T11:17:39Z</time>
      </trkpt>
      <trkpt lat="46.61926" lon="6.07067">
        <ele>1079.1</ele>
        <time>2021-11-25T11:17:44Z</time>
      </trkpt>
      <trkpt lat="46.61928" lon="6.07061">
        <ele>1078.8</ele>
        <time>2021-11-25T11:17:49Z</time>
      </trkpt>
      <trkpt lat="46.6193" lon="6.07054">
        <ele>1078.8</ele>
        <time>2021-11-25T11:17:54Z</time>
      </trkpt>
      <trkpt lat="46.61934" lon="6.07051">
        <ele>1078.2</ele>
        <time>2021-11-25T11:17:59Z</time>
      </trkpt>
      <trkpt lat="46.61939" lon="6.07049">
        <ele>1077.1</ele>
        <time>2021-11-25T11:18:04Z</time>
      </trkpt>
      <trkpt lat="46.61944" lon="6.07048">
        <ele>1075.6</ele>
        <time>2021-11-25T11:18:09Z</time>
      </trkpt>
      <trkpt lat="46.61945" lon="6.07041">
        <ele>1073.8</ele>
        <time>2021-11-25T11:18:15Z</time>
      </trkpt>
      <trkpt lat="46.61946" lon="6.07034">
        <ele>1071.4</ele>
        <time>2021-11-25T11:18:21Z</time>
      </trkpt>
      <trkpt lat="46.61949" lon="6.07028">
        <ele>1069.4</ele>
        <time>2021-11-25T11:18:28Z</time>
      </trkpt>
      <trkpt lat="46.61953" lon="6.07025">
        <ele>1068.4</ele>
        <time>2021-11-25T11:18:33Z</time>
      </trkpt>
      <trkpt lat="46.61957" lon="6.07023">
        <ele>1067</ele>
        <time>2021-11-25T11:18:37Z</time>
      </trkpt>
      <trkpt lat="46.61962" lon="6.07021">
        <ele>1065.1</ele>
        <time>2021-11-25T11:18:41Z</time>
      </trkpt>
      <trkpt lat="46.61967" lon="6.0702">
        <ele>1063</ele>
        <time>2021-11-25T11:18:45Z</time>
      </trkpt>
      <trkpt lat="46.61971" lon="6.07016">
        <ele>1061.5</ele>
        <time>2021-11-25T11:18:49Z</time>
      </trkpt>
      <trkpt lat="46.61974" lon="6.0701">
        <ele>1059.8</ele>
        <time>2021-11-25T11:18:54Z</time>
      </trkpt>
      <trkpt lat="46.61976" lon="6.07004">
        <ele>1058.2</ele>
        <time>2021-11-25T11:19:00Z</time>
      </trkpt>
      <trkpt lat="46.61981" lon="6.07">
        <ele>1057.4</ele>
        <time>2021-11-25T11:19:05Z</time>
      </trkpt>
      <trkpt lat="46.61986" lon="6.06997">
        <ele>1057.2</ele>
        <time>2021-11-25T11:19:09Z</time>
      </trkpt>
      <trkpt lat="46.6199" lon="6.06992">
        <ele>1058.1</ele>
        <time>2021-11-25T11:19:15Z</time>
      </trkpt>
      <trkpt lat="46.61994" lon="6.06987">
        <ele>1058.7</ele>
        <time>2021-11-25T11:19:19Z</time>
      </trkpt>
      <trkpt lat="46.61996" lon="6.06979">
        <ele>1059</ele>
        <time>2021-11-25T11:19:24Z</time>
      </trkpt>
      <trkpt lat="46.61997" lon="6.06972">
        <ele>1059.4</ele>
        <time>2021-11-25T11:19:29Z</time>
      </trkpt>
      <trkpt lat="46.62001" lon="6.06969">
        <ele>1059.6</ele>
        <time>2021-11-25T11:19:34Z</time>
      </trkpt>
      <trkpt lat="46.62005" lon="6.06965">
        <ele>1059.7</ele>
        <time>2021-11-25T11:19:38Z</time>
      </trkpt>
      <trkpt lat="46.62007" lon="6.06958">
        <ele>1059.8</ele>
        <time>2021-11-25T11:19:43Z</time>
      </trkpt>
      <trkpt lat="46.6201" lon="6.06951">
        <ele>1059.7</ele>
        <time>2021-11-25T11:19:48Z</time>
      </trkpt>
      <trkpt lat="46.62013" lon="6.06945">
        <ele>1059.5</ele>
        <time>2021-11-25T11:19:52Z</time>
      </trkpt>
      <trkpt lat="46.62016" lon="6.06939">
        <ele>1058.8</ele>
        <time>2021-11-25T11:19:57Z</time>
      </trkpt>
      <trkpt lat="46.62019" lon="6.06933">
        <ele>1058.4</ele>
        <time>2021-11-25T11:20:01Z</time>
      </trkpt>
      <trkpt lat="46.62022" lon="6.06927">
        <ele>1058</ele>
        <time>2021-11-25T11:20:05Z</time>
      </trkpt>
      <trkpt lat="46.62024" lon="6.06921">
        <ele>1057.4</ele>
        <time>2021-11-25T11:20:12Z</time>
      </trkpt>
      <trkpt lat="46.62025" lon="6.06913">
        <ele>1057.3</ele>
        <time>2021-11-25T11:20:17Z</time>
      </trkpt>
      <trkpt lat="46.62024" lon="6.06906">
        <ele>1057.8</ele>
        <time>2021-11-25T11:20:22Z</time>
      </trkpt>
      <trkpt lat="46.62023" lon="6.06899">
        <ele>1057.9</ele>
        <time>2021-11-25T11:20:26Z</time>
      </trkpt>
      <trkpt lat="46.62024" lon="6.06891">
        <ele>1057.9</ele>
        <time>2021-11-25T11:20:31Z</time>
      </trkpt>
      <trkpt lat="46.62026" lon="6.06884">
        <ele>1057.8</ele>
        <time>2021-11-25T11:20:36Z</time>
      </trkpt>
      <trkpt lat="46.62028" lon="6.06878">
        <ele>1056.6</ele>
        <time>2021-11-25T11:20:43Z</time>
      </trkpt>
      <trkpt lat="46.6203" lon="6.06872">
        <ele>1054.3</ele>
        <time>2021-11-25T11:20:50Z</time>
      </trkpt>
      <trkpt lat="46.62032" lon="6.06864">
        <ele>1052.3</ele>
        <time>2021-11-25T11:20:55Z</time>
      </trkpt>
      <trkpt lat="46.62034" lon="6.06857">
        <ele>1050.2</ele>
        <time>2021-11-25T11:21:00Z</time>
      </trkpt>
      <trkpt lat="46.62036" lon="6.06851">
        <ele>1048.9</ele>
        <time>2021-11-25T11:21:04Z</time>
      </trkpt>
      <trkpt lat="46.6204" lon="6.06845">
        <ele>1047.5</ele>
        <time>2021-11-25T11:21:09Z</time>
      </trkpt>
      <trkpt lat="46.62043" lon="6.06838">
        <ele>1046.4</ele>
        <time>2021-11-25T11:21:13Z</time>
      </trkpt>
      <trkpt lat="46.62044" lon="6.06831">
        <ele>1045.6</ele>
        <time>2021-11-25T11:21:17Z</time>
      </trkpt>
      <trkpt lat="46.62046" lon="6.06824">
        <ele>1045</ele>
        <time>2021-11-25T11:21:22Z</time>
      </trkpt>
      <trkpt lat="46.6205" lon="6.06819">
        <ele>1045.1</ele>
        <time>2021-11-25T11:21:27Z</time>
      </trkpt>
      <trkpt lat="46.62051" lon="6.06811">
        <ele>1045.3</ele>
        <time>2021-11-25T11:21:32Z</time>
      </trkpt>
      <trkpt lat="46.62051" lon="6.06804">
        <ele>1045.6</ele>
        <time>2021-11-25T11:21:36Z</time>
      </trkpt>
      <trkpt lat="46.62053" lon="6.06797">
        <ele>1046.3</ele>
        <time>2021-11-25T11:21:41Z</time>
      </trkpt>
      <trkpt lat="46.62057" lon="6.06793">
        <ele>1047.1</ele>
        <time>2021-11-25T11:21:46Z</time>
      </trkpt>
      <trkpt lat="46.62062" lon="6.06792">
        <ele>1048.5</ele>
        <time>2021-11-25T11:21:52Z</time>
      </trkpt>
      <trkpt lat="46.62067" lon="6.06789">
        <ele>1049.4</ele>
        <time>2021-11-25T11:21:56Z</time>
      </trkpt>
      <trkpt lat="46.62073" lon="6.06787">
        <ele>1050.2</ele>
        <time>2021-11-25T11:22:00Z</time>
      </trkpt>
      <trkpt lat="46.62078" lon="6.06786">
        <ele>1050.9</ele>
        <time>2021-11-25T11:22:04Z</time>
      </trkpt>
      <trkpt lat="46.62083" lon="6.06784">
        <ele>1051.3</ele>
        <time>2021-11-25T11:22:08Z</time>
      </trkpt>
      <trkpt lat="46.62087" lon="6.06781">
        <ele>1051.6</ele>
        <time>2021-11-25T11:22:14Z</time>
      </trkpt>
      <trkpt lat="46.62093" lon="6.06779">
        <ele>1051.5</ele>
        <time>2021-11-25T11:22:18Z</time>
      </trkpt>
      <trkpt lat="46.62098" lon="6.06777">
        <ele>1051.1</ele>
        <time>2021-11-25T11:22:22Z</time>
      </trkpt>
      <trkpt lat="46.62102" lon="6.06773">
        <ele>1050.1</ele>
        <time>2021-11-25T11:22:27Z</time>
      </trkpt>
      <trkpt lat="46.62106" lon="6.06769">
        <ele>1049.1</ele>
        <time>2021-11-25T11:22:32Z</time>
      </trkpt>
      <trkpt lat="46.62111" lon="6.06765">
        <ele>1047.8</ele>
        <time>2021-11-25T11:22:38Z</time>
      </trkpt>
      <trkpt lat="46.62115" lon="6.06762">
        <ele>1046.9</ele>
        <time>2021-11-25T11:22:43Z</time>
      </trkpt>
      <trkpt lat="46.6212" lon="6.06759">
        <ele>1045.8</ele>
        <time>2021-11-25T11:22:48Z</time>
      </trkpt>
      <trkpt lat="46.62122" lon="6.06753">
        <ele>1044.2</ele>
        <time>2021-11-25T11:22:54Z</time>
      </trkpt>
      <trkpt lat="46.62126" lon="6.0675">
        <ele>1043.3</ele>
        <time>2021-11-25T11:22:59Z</time>
      </trkpt>
      <trkpt lat="46.6213" lon="6.06744">
        <ele>1041.4</ele>
        <time>2021-11-25T11:23:06Z</time>
      </trkpt>
      <trkpt lat="46.62133" lon="6.06738">
        <ele>1040</ele>
        <time>2021-11-25T11:23:11Z</time>
      </trkpt>
      <trkpt lat="46.62137" lon="6.06733">
        <ele>1038.2</ele>
        <time>2021-11-25T11:23:17Z</time>
      </trkpt>
      <trkpt lat="46.62141" lon="6.0673">
        <ele>1037</ele>
        <time>2021-11-25T11:23:22Z</time>
      </trkpt>
      <trkpt lat="46.62145" lon="6.06726">
        <ele>1035</ele>
        <time>2021-11-25T11:23:28Z</time>
      </trkpt>
      <trkpt lat="46.6215" lon="6.06722">
        <ele>1033.6</ele>
        <time>2021-11-25T11:23:33Z</time>
      </trkpt>
      <trkpt lat="46.62153" lon="6.06717">
        <ele>1033.1</ele>
        <time>2021-11-25T11:23:44Z</time>
      </trkpt>
      <trkpt lat="46.62147" lon="6.06719">
        <ele>1033.8</ele>
        <time>2021-11-25T11:24:23Z</time>
      </trkpt>
      <trkpt lat="46.62143" lon="6.06721">
        <ele>1033.6</ele>
        <time>2021-11-25T11:24:28Z</time>
      </trkpt>
      <trkpt lat="46.62137" lon="6.06723">
        <ele>1033.4</ele>
        <time>2021-11-25T11:24:31Z</time>
      </trkpt>
      <trkpt lat="46.62135" lon="6.06729">
        <ele>1034.2</ele>
        <time>2021-11-25T11:24:55Z</time>
      </trkpt>
      <trkpt lat="46.6214" lon="6.06729">
        <ele>1034.6</ele>
        <time>2021-11-25T11:25:00Z</time>
      </trkpt>
      <trkpt lat="46.62142" lon="6.06722">
        <ele>1035</ele>
        <time>2021-11-25T11:25:12Z</time>
      </trkpt>
      <trkpt lat="46.62145" lon="6.06728">
        <ele>1037</ele>
        <time>2021-11-25T11:25:28Z</time>
      </trkpt>
      <trkpt lat="46.62149" lon="6.06723">
        <ele>1038.1</ele>
        <time>2021-11-25T11:25:33Z</time>
      </trkpt>
      <trkpt lat="46.62153" lon="6.06726">
        <ele>1038.1</ele>
        <time>2021-11-25T11:27:46Z</time>
      </trkpt>
      <trkpt lat="46.6215" lon="6.06722">
        <ele>1034.7</ele>
        <time>2021-11-25T11:28:05Z</time>
      </trkpt>
      <trkpt lat="46.62145" lon="6.06727">
        <ele>1034.8</ele>
        <time>2021-11-25T11:28:37Z</time>
      </trkpt>
      <trkpt lat="46.62142" lon="6.06722">
        <ele>1034.1</ele>
        <time>2021-11-25T11:28:46Z</time>
      </trkpt>
      <trkpt lat="46.6214" lon="6.06716">
        <ele>1036.2</ele>
        <time>2021-11-25T11:38:49Z</time>
      </trkpt>
      <trkpt lat="46.62145" lon="6.06716">
        <ele>1034.1</ele>
        <time>2021-11-25T11:41:36Z</time>
      </trkpt>
      <trkpt lat="46.62141" lon="6.06716">
        <ele>1033.5</ele>
        <time>2021-11-25T11:42:39Z</time>
      </trkpt>
      <trkpt lat="46.62147" lon="6.06719">
        <ele>1039.7</ele>
        <time>2021-11-25T11:53:42Z</time>
      </trkpt>
      <trkpt lat="46.62152" lon="6.06718">
        <ele>1039.3</ele>
        <time>2021-11-25T11:53:48Z</time>
      </trkpt>
      <trkpt lat="46.62146" lon="6.06713">
        <ele>1039.8</ele>
        <time>2021-11-25T11:56:50Z</time>
      </trkpt>
      <trkpt lat="46.62144" lon="6.06718">
        <ele>1041.6</ele>
        <time>2021-11-25T11:58:00Z</time>
      </trkpt>
      <trkpt lat="46.62142" lon="6.06711">
        <ele>1041.1</ele>
        <time>2021-11-25T11:58:45Z</time>
      </trkpt>
      <trkpt lat="46.6214" lon="6.06704">
        <ele>1040.6</ele>
        <time>2021-11-25T11:58:50Z</time>
      </trkpt>
      <trkpt lat="46.62145" lon="6.06704">
        <ele>1041.7</ele>
        <time>2021-11-25T11:59:06Z</time>
      </trkpt>
      <trkpt lat="46.62148" lon="6.06711">
        <ele>1041.8</ele>
        <time>2021-11-25T11:59:09Z</time>
      </trkpt>
      <trkpt lat="46.62152" lon="6.06714">
        <ele>1041.8</ele>
        <time>2021-11-25T11:59:15Z</time>
      </trkpt>
      <trkpt lat="46.62157" lon="6.06718">
        <ele>1041.1</ele>
        <time>2021-11-25T11:59:35Z</time>
      </trkpt>
      <trkpt lat="46.62158" lon="6.06725">
        <ele>1039.6</ele>
        <time>2021-11-25T11:59:41Z</time>
      </trkpt>
      <trkpt lat="46.62161" lon="6.06719">
        <ele>1039.9</ele>
        <time>2021-11-25T11:59:52Z</time>
      </trkpt>
      <trkpt lat="46.62166" lon="6.06718">
        <ele>1040.4</ele>
        <time>2021-11-25T11:59:57Z</time>
      </trkpt>
      <trkpt lat="46.62171" lon="6.06717">
        <ele>1038.9</ele>
        <time>2021-11-25T12:00:04Z</time>
      </trkpt>
      <trkpt lat="46.62176" lon="6.06719">
        <ele>1037.4</ele>
        <time>2021-11-25T12:00:09Z</time>
      </trkpt>
      <trkpt lat="46.62181" lon="6.06718">
        <ele>1035.7</ele>
        <time>2021-11-25T12:00:16Z</time>
      </trkpt>
      <trkpt lat="46.62186" lon="6.06714">
        <ele>1032.7</ele>
        <time>2021-11-25T12:00:26Z</time>
      </trkpt>
      <trkpt lat="46.6219" lon="6.06714">
        <ele>1030.7</ele>
        <time>2021-11-25T12:00:32Z</time>
      </trkpt>
      <trkpt lat="46.62195" lon="6.06712">
        <ele>1028.9</ele>
        <time>2021-11-25T12:00:38Z</time>
      </trkpt>
      <trkpt lat="46.62199" lon="6.06709">
        <ele>1027.5</ele>
        <time>2021-11-25T12:00:42Z</time>
      </trkpt>
      <trkpt lat="46.62204" lon="6.06707">
        <ele>1025.6</ele>
        <time>2021-11-25T12:00:47Z</time>
      </trkpt>
      <trkpt lat="46.62208" lon="6.06704">
        <ele>1023.3</ele>
        <time>2021-11-25T12:00:54Z</time>
      </trkpt>
      <trkpt lat="46.62213" lon="6.067">
        <ele>1022.6</ele>
        <time>2021-11-25T12:00:58Z</time>
      </trkpt>
      <trkpt lat="46.62217" lon="6.06696">
        <ele>1022</ele>
        <time>2021-11-25T12:01:01Z</time>
      </trkpt>
      <trkpt lat="46.62221" lon="6.06693">
        <ele>1021.3</ele>
        <time>2021-11-25T12:01:05Z</time>
      </trkpt>
      <trkpt lat="46.62226" lon="6.06689">
        <ele>1020.4</ele>
        <time>2021-11-25T12:01:11Z</time>
      </trkpt>
      <trkpt lat="46.62229" lon="6.06684">
        <ele>1019.7</ele>
        <time>2021-11-25T12:01:16Z</time>
      </trkpt>
      <trkpt lat="46.62233" lon="6.0668">
        <ele>1018.4</ele>
        <time>2021-11-25T12:01:21Z</time>
      </trkpt>
      <trkpt lat="46.62238" lon="6.06677">
        <ele>1017.3</ele>
        <time>2021-11-25T12:01:26Z</time>
      </trkpt>
      <trkpt lat="46.62243" lon="6.06673">
        <ele>1016.6</ele>
        <time>2021-11-25T12:01:30Z</time>
      </trkpt>
      <trkpt lat="46.62247" lon="6.06668">
        <ele>1016.1</ele>
        <time>2021-11-25T12:01:34Z</time>
      </trkpt>
      <trkpt lat="46.62248" lon="6.06662">
        <ele>1016</ele>
        <time>2021-11-25T12:01:43Z</time>
      </trkpt>
      <trkpt lat="46.62252" lon="6.06657">
        <ele>1016</ele>
        <time>2021-11-25T12:01:49Z</time>
      </trkpt>
      <trkpt lat="46.62256" lon="6.06655">
        <ele>1016.2</ele>
        <time>2021-11-25T12:01:58Z</time>
      </trkpt>
      <trkpt lat="46.62261" lon="6.06651">
        <ele>1016</ele>
        <time>2021-11-25T12:02:04Z</time>
      </trkpt>
      <trkpt lat="46.62264" lon="6.06646">
        <ele>1015.8</ele>
        <time>2021-11-25T12:02:09Z</time>
      </trkpt>
      <trkpt lat="46.62269" lon="6.06643">
        <ele>1016</ele>
        <time>2021-11-25T12:02:14Z</time>
      </trkpt>
      <trkpt lat="46.62274" lon="6.06641">
        <ele>1016.9</ele>
        <time>2021-11-25T12:02:19Z</time>
      </trkpt>
      <trkpt lat="46.62278" lon="6.06637">
        <ele>1018</ele>
        <time>2021-11-25T12:02:25Z</time>
      </trkpt>
      <trkpt lat="46.62281" lon="6.06631">
        <ele>1018.9</ele>
        <time>2021-11-25T12:02:31Z</time>
      </trkpt>
      <trkpt lat="46.62285" lon="6.06628">
        <ele>1019.3</ele>
        <time>2021-11-25T12:02:35Z</time>
      </trkpt>
      <trkpt lat="46.62289" lon="6.06622">
        <ele>1019.8</ele>
        <time>2021-11-25T12:02:39Z</time>
      </trkpt>
      <trkpt lat="46.62292" lon="6.06615">
        <ele>1020.6</ele>
        <time>2021-11-25T12:02:43Z</time>
      </trkpt>
      <trkpt lat="46.62298" lon="6.06612">
        <ele>1021.9</ele>
        <time>2021-11-25T12:02:47Z</time>
      </trkpt>
      <trkpt lat="46.62302" lon="6.06611">
        <ele>1023.5</ele>
        <time>2021-11-25T12:02:53Z</time>
      </trkpt>
      <trkpt lat="46.62305" lon="6.06604">
        <ele>1027.4</ele>
        <time>2021-11-25T12:03:04Z</time>
      </trkpt>
      <trkpt lat="46.6231" lon="6.06601">
        <ele>1029.3</ele>
        <time>2021-11-25T12:03:09Z</time>
      </trkpt>
      <trkpt lat="46.62315" lon="6.06598">
        <ele>1030.7</ele>
        <time>2021-11-25T12:03:13Z</time>
      </trkpt>
      <trkpt lat="46.62321" lon="6.06597">
        <ele>1032</ele>
        <time>2021-11-25T12:03:17Z</time>
      </trkpt>
      <trkpt lat="46.62326" lon="6.06593">
        <ele>1032.9</ele>
        <time>2021-11-25T12:03:21Z</time>
      </trkpt>
      <trkpt lat="46.6233" lon="6.06591">
        <ele>1033.6</ele>
        <time>2021-11-25T12:03:24Z</time>
      </trkpt>
      <trkpt lat="46.62334" lon="6.06587">
        <ele>1034.3</ele>
        <time>2021-11-25T12:03:27Z</time>
      </trkpt>
      <trkpt lat="46.62338" lon="6.06582">
        <ele>1034.4</ele>
        <time>2021-11-25T12:03:30Z</time>
      </trkpt>
      <trkpt lat="46.62343" lon="6.06579">
        <ele>1034.9</ele>
        <time>2021-11-25T12:03:36Z</time>
      </trkpt>
      <trkpt lat="46.62346" lon="6.06575">
        <ele>1035.1</ele>
        <time>2021-11-25T12:03:40Z</time>
      </trkpt>
      <trkpt lat="46.62351" lon="6.06572">
        <ele>1035.8</ele>
        <time>2021-11-25T12:03:44Z</time>
      </trkpt>
      <trkpt lat="46.62355" lon="6.0657">
        <ele>1036.3</ele>
        <time>2021-11-25T12:03:48Z</time>
      </trkpt>
      <trkpt lat="46.62361" lon="6.06568">
        <ele>1036.4</ele>
        <time>2021-11-25T12:03:54Z</time>
      </trkpt>
      <trkpt lat="46.62366" lon="6.06566">
        <ele>1036.3</ele>
        <time>2021-11-25T12:03:59Z</time>
      </trkpt>
      <trkpt lat="46.62368" lon="6.0656">
        <ele>1035.1</ele>
        <time>2021-11-25T12:04:05Z</time>
      </trkpt>
      <trkpt lat="46.62372" lon="6.06555">
        <ele>1033.8</ele>
        <time>2021-11-25T12:04:08Z</time>
      </trkpt>
      <trkpt lat="46.62374" lon="6.06549">
        <ele>1031.2</ele>
        <time>2021-11-25T12:04:12Z</time>
      </trkpt>
      <trkpt lat="46.62379" lon="6.06545">
        <ele>1028.5</ele>
        <time>2021-11-25T12:04:17Z</time>
      </trkpt>
      <trkpt lat="46.62382" lon="6.06539">
        <ele>1025.8</ele>
        <time>2021-11-25T12:04:22Z</time>
      </trkpt>
      <trkpt lat="46.62381" lon="6.06532">
        <ele>1024</ele>
        <time>2021-11-25T12:04:26Z</time>
      </trkpt>
      <trkpt lat="46.62381" lon="6.06525">
        <ele>1022.4</ele>
        <time>2021-11-25T12:04:30Z</time>
      </trkpt>
      <trkpt lat="46.62384" lon="6.06519">
        <ele>1020.6</ele>
        <time>2021-11-25T12:04:36Z</time>
      </trkpt>
      <trkpt lat="46.62387" lon="6.06515">
        <ele>1019.9</ele>
        <time>2021-11-25T12:04:41Z</time>
      </trkpt>
      <trkpt lat="46.62391" lon="6.06511">
        <ele>1019.5</ele>
        <time>2021-11-25T12:04:45Z</time>
      </trkpt>
      <trkpt lat="46.62394" lon="6.06505">
        <ele>1019</ele>
        <time>2021-11-25T12:04:49Z</time>
      </trkpt>
      <trkpt lat="46.62397" lon="6.06498">
        <ele>1018.3</ele>
        <time>2021-11-25T12:04:54Z</time>
      </trkpt>
      <trkpt lat="46.62399" lon="6.06491">
        <ele>1018.1</ele>
        <time>2021-11-25T12:04:58Z</time>
      </trkpt>
      <trkpt lat="46.62399" lon="6.06485">
        <ele>1019.4</ele>
        <time>2021-11-25T12:05:04Z</time>
      </trkpt>
      <trkpt lat="46.62398" lon="6.06478">
        <ele>1020.9</ele>
        <time>2021-11-25T12:05:09Z</time>
      </trkpt>
      <trkpt lat="46.624" lon="6.06472">
        <ele>1022</ele>
        <time>2021-11-25T12:05:14Z</time>
      </trkpt>
      <trkpt lat="46.62402" lon="6.06465">
        <ele>1023.2</ele>
        <time>2021-11-25T12:05:18Z</time>
      </trkpt>
      <trkpt lat="46.62404" lon="6.06458">
        <ele>1024.6</ele>
        <time>2021-11-25T12:05:23Z</time>
      </trkpt>
      <trkpt lat="46.62406" lon="6.06451">
        <ele>1026</ele>
        <time>2021-11-25T12:05:27Z</time>
      </trkpt>
      <trkpt lat="46.62408" lon="6.06444">
        <ele>1027.6</ele>
        <time>2021-11-25T12:05:31Z</time>
      </trkpt>
      <trkpt lat="46.62411" lon="6.06439">
        <ele>1029.1</ele>
        <time>2021-11-25T12:05:36Z</time>
      </trkpt>
      <trkpt lat="46.62416" lon="6.06436">
        <ele>1029.9</ele>
        <time>2021-11-25T12:05:41Z</time>
      </trkpt>
      <trkpt lat="46.62417" lon="6.06428">
        <ele>1030.1</ele>
        <time>2021-11-25T12:05:46Z</time>
      </trkpt>
      <trkpt lat="46.62418" lon="6.06421">
        <ele>1030.3</ele>
        <time>2021-11-25T12:05:57Z</time>
      </trkpt>
      <trkpt lat="46.62422" lon="6.06417">
        <ele>1030.5</ele>
        <time>2021-11-25T12:06:02Z</time>
      </trkpt>
      <trkpt lat="46.62425" lon="6.06412">
        <ele>1030.7</ele>
        <time>2021-11-25T12:06:07Z</time>
      </trkpt>
      <trkpt lat="46.62429" lon="6.06408">
        <ele>1031.2</ele>
        <time>2021-11-25T12:06:12Z</time>
      </trkpt>
      <trkpt lat="46.62434" lon="6.06406">
        <ele>1031.7</ele>
        <time>2021-11-25T12:06:17Z</time>
      </trkpt>
      <trkpt lat="46.62439" lon="6.06405">
        <ele>1032.2</ele>
        <time>2021-11-25T12:06:23Z</time>
      </trkpt>
      <trkpt lat="46.62444" lon="6.06405">
        <ele>1032.7</ele>
        <time>2021-11-25T12:06:28Z</time>
      </trkpt>
      <trkpt lat="46.62449" lon="6.06403">
        <ele>1033.1</ele>
        <time>2021-11-25T12:06:32Z</time>
      </trkpt>
      <trkpt lat="46.62454" lon="6.06402">
        <ele>1033.1</ele>
        <time>2021-11-25T12:06:36Z</time>
      </trkpt>
      <trkpt lat="46.6246" lon="6.06401">
        <ele>1033.1</ele>
        <time>2021-11-25T12:06:40Z</time>
      </trkpt>
      <trkpt lat="46.62465" lon="6.064">
        <ele>1033.3</ele>
        <time>2021-11-25T12:06:44Z</time>
      </trkpt>
      <trkpt lat="46.6247" lon="6.06398">
        <ele>1033.5</ele>
        <time>2021-11-25T12:06:49Z</time>
      </trkpt>
      <trkpt lat="46.62475" lon="6.06396">
        <ele>1033.6</ele>
        <time>2021-11-25T12:06:54Z</time>
      </trkpt>
      <trkpt lat="46.6248" lon="6.06394">
        <ele>1033.5</ele>
        <time>2021-11-25T12:07:00Z</time>
      </trkpt>
      <trkpt lat="46.62485" lon="6.0639">
        <ele>1033.8</ele>
        <time>2021-11-25T12:07:05Z</time>
      </trkpt>
      <trkpt lat="46.6249" lon="6.06387">
        <ele>1034.2</ele>
        <time>2021-11-25T12:07:10Z</time>
      </trkpt>
      <trkpt lat="46.62495" lon="6.06386">
        <ele>1034.7</ele>
        <time>2021-11-25T12:07:15Z</time>
      </trkpt>
      <trkpt lat="46.625" lon="6.06384">
        <ele>1035.2</ele>
        <time>2021-11-25T12:07:20Z</time>
      </trkpt>
      <trkpt lat="46.62502" lon="6.06377">
        <ele>1035.4</ele>
        <time>2021-11-25T12:07:26Z</time>
      </trkpt>
      <trkpt lat="46.62507" lon="6.06377">
        <ele>1034.7</ele>
        <time>2021-11-25T12:07:36Z</time>
      </trkpt>
      <trkpt lat="46.6251" lon="6.06371">
        <ele>1034</ele>
        <time>2021-11-25T12:07:43Z</time>
      </trkpt>
      <trkpt lat="46.62512" lon="6.06366">
        <ele>1033.7</ele>
        <time>2021-11-25T12:07:48Z</time>
      </trkpt>
      <trkpt lat="46.62516" lon="6.06361">
        <ele>1033.3</ele>
        <time>2021-11-25T12:07:53Z</time>
      </trkpt>
      <trkpt lat="46.62518" lon="6.06354">
        <ele>1032.7</ele>
        <time>2021-11-25T12:07:58Z</time>
      </trkpt>
      <trkpt lat="46.62519" lon="6.06347">
        <ele>1032.6</ele>
        <time>2021-11-25T12:08:03Z</time>
      </trkpt>
      <trkpt lat="46.62522" lon="6.0634">
        <ele>1032.6</ele>
        <time>2021-11-25T12:08:09Z</time>
      </trkpt>
      <trkpt lat="46.62524" lon="6.06334">
        <ele>1033</ele>
        <time>2021-11-25T12:08:13Z</time>
      </trkpt>
      <trkpt lat="46.62527" lon="6.06328">
        <ele>1033.3</ele>
        <time>2021-11-25T12:08:19Z</time>
      </trkpt>
      <trkpt lat="46.62529" lon="6.06322">
        <ele>1033.1</ele>
        <time>2021-11-25T12:08:25Z</time>
      </trkpt>
      <trkpt lat="46.62533" lon="6.06319">
        <ele>1032.8</ele>
        <time>2021-11-25T12:08:29Z</time>
      </trkpt>
      <trkpt lat="46.62537" lon="6.06314">
        <ele>1031.3</ele>
        <time>2021-11-25T12:08:35Z</time>
      </trkpt>
      <trkpt lat="46.62541" lon="6.06309">
        <ele>1029.7</ele>
        <time>2021-11-25T12:08:41Z</time>
      </trkpt>
      <trkpt lat="46.62545" lon="6.06304">
        <ele>1028.7</ele>
        <time>2021-11-25T12:08:46Z</time>
      </trkpt>
      <trkpt lat="46.62547" lon="6.06298">
        <ele>1028</ele>
        <time>2021-11-25T12:08:51Z</time>
      </trkpt>
      <trkpt lat="46.62551" lon="6.06293">
        <ele>1027.7</ele>
        <time>2021-11-25T12:08:56Z</time>
      </trkpt>
      <trkpt lat="46.62553" lon="6.06288">
        <ele>1027.5</ele>
        <time>2021-11-25T12:09:01Z</time>
      </trkpt>
      <trkpt lat="46.62557" lon="6.06282">
        <ele>1027.4</ele>
        <time>2021-11-25T12:09:05Z</time>
      </trkpt>
      <trkpt lat="46.62561" lon="6.06277">
        <ele>1027.3</ele>
        <time>2021-11-25T12:09:09Z</time>
      </trkpt>
      <trkpt lat="46.62564" lon="6.06273">
        <ele>1027.7</ele>
        <time>2021-11-25T12:09:14Z</time>
      </trkpt>
      <trkpt lat="46.62569" lon="6.06271">
        <ele>1028.6</ele>
        <time>2021-11-25T12:09:19Z</time>
      </trkpt>
      <trkpt lat="46.62573" lon="6.06267">
        <ele>1029.3</ele>
        <time>2021-11-25T12:09:24Z</time>
      </trkpt>
      <trkpt lat="46.62576" lon="6.06261">
        <ele>1030.3</ele>
        <time>2021-11-25T12:09:30Z</time>
      </trkpt>
      <trkpt lat="46.62579" lon="6.06256">
        <ele>1030.2</ele>
        <time>2021-11-25T12:09:35Z</time>
      </trkpt>
      <trkpt lat="46.62583" lon="6.06252">
        <ele>1029</ele>
        <time>2021-11-25T12:09:40Z</time>
      </trkpt>
      <trkpt lat="46.62587" lon="6.06246">
        <ele>1027.9</ele>
        <time>2021-11-25T12:09:44Z</time>
      </trkpt>
      <trkpt lat="46.6259" lon="6.06241">
        <ele>1026.9</ele>
        <time>2021-11-25T12:09:49Z</time>
      </trkpt>
      <trkpt lat="46.62594" lon="6.06236">
        <ele>1026.4</ele>
        <time>2021-11-25T12:09:54Z</time>
      </trkpt>
      <trkpt lat="46.62598" lon="6.0623">
        <ele>1026.4</ele>
        <time>2021-11-25T12:09:59Z</time>
      </trkpt>
      <trkpt lat="46.62601" lon="6.06224">
        <ele>1026.5</ele>
        <time>2021-11-25T12:10:02Z</time>
      </trkpt>
      <trkpt lat="46.62602" lon="6.06217">
        <ele>1026.7</ele>
        <time>2021-11-25T12:10:06Z</time>
      </trkpt>
      <trkpt lat="46.62604" lon="6.06211">
        <ele>1027</ele>
        <time>2021-11-25T12:10:11Z</time>
      </trkpt>
      <trkpt lat="46.62606" lon="6.06204">
        <ele>1027.2</ele>
        <time>2021-11-25T12:10:17Z</time>
      </trkpt>
      <trkpt lat="46.62608" lon="6.06198">
        <ele>1027.5</ele>
        <time>2021-11-25T12:10:23Z</time>
      </trkpt>
      <trkpt lat="46.62607" lon="6.06191">
        <ele>1027.7</ele>
        <time>2021-11-25T12:10:27Z</time>
      </trkpt>
      <trkpt lat="46.62605" lon="6.06184">
        <ele>1027.8</ele>
        <time>2021-11-25T12:10:30Z</time>
      </trkpt>
      <trkpt lat="46.62605" lon="6.06178">
        <ele>1028.1</ele>
        <time>2021-11-25T12:10:33Z</time>
      </trkpt>
      <trkpt lat="46.62606" lon="6.06171">
        <ele>1028.9</ele>
        <time>2021-11-25T12:10:37Z</time>
      </trkpt>
      <trkpt lat="46.62606" lon="6.06164">
        <ele>1029.7</ele>
        <time>2021-11-25T12:10:42Z</time>
      </trkpt>
      <trkpt lat="46.62607" lon="6.06156">
        <ele>1030.1</ele>
        <time>2021-11-25T12:10:48Z</time>
      </trkpt>
      <trkpt lat="46.62609" lon="6.0615">
        <ele>1030.5</ele>
        <time>2021-11-25T12:10:53Z</time>
      </trkpt>
      <trkpt lat="46.62613" lon="6.06144">
        <ele>1030.5</ele>
        <time>2021-11-25T12:10:58Z</time>
      </trkpt>
      <trkpt lat="46.62615" lon="6.06138">
        <ele>1030.9</ele>
        <time>2021-11-25T12:11:03Z</time>
      </trkpt>
      <trkpt lat="46.62615" lon="6.06131">
        <ele>1031.3</ele>
        <time>2021-11-25T12:11:07Z</time>
      </trkpt>
      <trkpt lat="46.62616" lon="6.06125">
        <ele>1031.4</ele>
        <time>2021-11-25T12:11:11Z</time>
      </trkpt>
      <trkpt lat="46.62617" lon="6.06117">
        <ele>1031.5</ele>
        <time>2021-11-25T12:11:15Z</time>
      </trkpt>
      <trkpt lat="46.62618" lon="6.0611">
        <ele>1031.7</ele>
        <time>2021-11-25T12:11:22Z</time>
      </trkpt>
      <trkpt lat="46.62617" lon="6.06104">
        <ele>1030.9</ele>
        <time>2021-11-25T12:11:30Z</time>
      </trkpt>
      <trkpt lat="46.62617" lon="6.06097">
        <ele>1030.5</ele>
        <time>2021-11-25T12:11:34Z</time>
      </trkpt>
      <trkpt lat="46.6262" lon="6.0609">
        <ele>1029.9</ele>
        <time>2021-11-25T12:11:39Z</time>
      </trkpt>
      <trkpt lat="46.62624" lon="6.06086">
        <ele>1029.6</ele>
        <time>2021-11-25T12:11:44Z</time>
      </trkpt>
      <trkpt lat="46.62628" lon="6.06082">
        <ele>1029.4</ele>
        <time>2021-11-25T12:11:49Z</time>
      </trkpt>
      <trkpt lat="46.62631" lon="6.06077">
        <ele>1029.6</ele>
        <time>2021-11-25T12:11:54Z</time>
      </trkpt>
      <trkpt lat="46.62634" lon="6.06072">
        <ele>1030.3</ele>
        <time>2021-11-25T12:11:59Z</time>
      </trkpt>
      <trkpt lat="46.62638" lon="6.06067">
        <ele>1031</ele>
        <time>2021-11-25T12:12:03Z</time>
      </trkpt>
      <trkpt lat="46.62641" lon="6.06063">
        <ele>1031.7</ele>
        <time>2021-11-25T12:12:07Z</time>
      </trkpt>
      <trkpt lat="46.62645" lon="6.06059">
        <ele>1032.3</ele>
        <time>2021-11-25T12:12:11Z</time>
      </trkpt>
      <trkpt lat="46.62649" lon="6.06052">
        <ele>1033.2</ele>
        <time>2021-11-25T12:12:15Z</time>
      </trkpt>
      <trkpt lat="46.62652" lon="6.06048">
        <ele>1034.1</ele>
        <time>2021-11-25T12:12:20Z</time>
      </trkpt>
      <trkpt lat="46.62653" lon="6.0604">
        <ele>1035.2</ele>
        <time>2021-11-25T12:12:28Z</time>
      </trkpt>
      <trkpt lat="46.62656" lon="6.06033">
        <ele>1036</ele>
        <time>2021-11-25T12:12:33Z</time>
      </trkpt>
      <trkpt lat="46.62659" lon="6.06028">
        <ele>1036.8</ele>
        <time>2021-11-25T12:12:38Z</time>
      </trkpt>
      <trkpt lat="46.62663" lon="6.06023">
        <ele>1037.4</ele>
        <time>2021-11-25T12:12:42Z</time>
      </trkpt>
      <trkpt lat="46.62667" lon="6.06019">
        <ele>1037</ele>
        <time>2021-11-25T12:12:47Z</time>
      </trkpt>
      <trkpt lat="46.62672" lon="6.06015">
        <ele>1036.8</ele>
        <time>2021-11-25T12:12:52Z</time>
      </trkpt>
      <trkpt lat="46.62675" lon="6.06011">
        <ele>1036.8</ele>
        <time>2021-11-25T12:12:57Z</time>
      </trkpt>
      <trkpt lat="46.62678" lon="6.06004">
        <ele>1036.6</ele>
        <time>2021-11-25T12:13:02Z</time>
      </trkpt>
      <trkpt lat="46.62682" lon="6.05999">
        <ele>1036.4</ele>
        <time>2021-11-25T12:13:06Z</time>
      </trkpt>
      <trkpt lat="46.62687" lon="6.05996">
        <ele>1035.6</ele>
        <time>2021-11-25T12:13:11Z</time>
      </trkpt>
      <trkpt lat="46.6269" lon="6.0599">
        <ele>1034.9</ele>
        <time>2021-11-25T12:13:16Z</time>
      </trkpt>
      <trkpt lat="46.62691" lon="6.05982">
        <ele>1034.7</ele>
        <time>2021-11-25T12:13:20Z</time>
      </trkpt>
      <trkpt lat="46.62693" lon="6.05976">
        <ele>1034.1</ele>
        <time>2021-11-25T12:13:26Z</time>
      </trkpt>
      <trkpt lat="46.62697" lon="6.05973">
        <ele>1033.9</ele>
        <time>2021-11-25T12:13:32Z</time>
      </trkpt>
      <trkpt lat="46.62701" lon="6.05969">
        <ele>1033.5</ele>
        <time>2021-11-25T12:13:38Z</time>
      </trkpt>
      <trkpt lat="46.62703" lon="6.05962">
        <ele>1033.7</ele>
        <time>2021-11-25T12:13:42Z</time>
      </trkpt>
      <trkpt lat="46.62707" lon="6.05958">
        <ele>1034</ele>
        <time>2021-11-25T12:13:46Z</time>
      </trkpt>
      <trkpt lat="46.6271" lon="6.05953">
        <ele>1034.6</ele>
        <time>2021-11-25T12:13:52Z</time>
      </trkpt>
      <trkpt lat="46.62713" lon="6.05947">
        <ele>1035.7</ele>
        <time>2021-11-25T12:13:58Z</time>
      </trkpt>
      <trkpt lat="46.62717" lon="6.05944">
        <ele>1036</ele>
        <time>2021-11-25T12:14:03Z</time>
      </trkpt>
      <trkpt lat="46.62722" lon="6.05941">
        <ele>1035.2</ele>
        <time>2021-11-25T12:14:09Z</time>
      </trkpt>
      <trkpt lat="46.62727" lon="6.0594">
        <ele>1034.3</ele>
        <time>2021-11-25T12:14:16Z</time>
      </trkpt>
      <trkpt lat="46.62731" lon="6.05936">
        <ele>1033.5</ele>
        <time>2021-11-25T12:14:21Z</time>
      </trkpt>
      <trkpt lat="46.62735" lon="6.05931">
        <ele>1032.9</ele>
        <time>2021-11-25T12:14:25Z</time>
      </trkpt>
      <trkpt lat="46.62738" lon="6.05926">
        <ele>1032.6</ele>
        <time>2021-11-25T12:14:31Z</time>
      </trkpt>
      <trkpt lat="46.62743" lon="6.05928">
        <ele>1031.8</ele>
        <time>2021-11-25T12:14:44Z</time>
      </trkpt>
      <trkpt lat="46.62748" lon="6.05928">
        <ele>1032.4</ele>
        <time>2021-11-25T12:14:51Z</time>
      </trkpt>
      <trkpt lat="46.62753" lon="6.05932">
        <ele>1032.8</ele>
        <time>2021-11-25T12:14:55Z</time>
      </trkpt>
      <trkpt lat="46.62758" lon="6.05936">
        <ele>1032.8</ele>
        <time>2021-11-25T12:15:00Z</time>
      </trkpt>
      <trkpt lat="46.62763" lon="6.05938">
        <ele>1031.2</ele>
        <time>2021-11-25T12:15:09Z</time>
      </trkpt>
      <trkpt lat="46.62767" lon="6.05936">
        <ele>1025.6</ele>
        <time>2021-11-25T12:15:25Z</time>
      </trkpt>
      <trkpt lat="46.6277" lon="6.05942">
        <ele>1020.8</ele>
        <time>2021-11-25T12:15:37Z</time>
      </trkpt>
      <trkpt lat="46.62774" lon="6.05944">
        <ele>1018.7</ele>
        <time>2021-11-25T12:15:45Z</time>
      </trkpt>
      <trkpt lat="46.62779" lon="6.05949">
        <ele>1017</ele>
        <time>2021-11-25T12:15:51Z</time>
      </trkpt>
      <trkpt lat="46.62781" lon="6.05954">
        <ele>1015.7</ele>
        <time>2021-11-25T12:15:57Z</time>
      </trkpt>
      <trkpt lat="46.62786" lon="6.05957">
        <ele>1014.4</ele>
        <time>2021-11-25T12:16:02Z</time>
      </trkpt>
      <trkpt lat="46.62789" lon="6.05961">
        <ele>1013.4</ele>
        <time>2021-11-25T12:16:06Z</time>
      </trkpt>
      <trkpt lat="46.62793" lon="6.05966">
        <ele>1012.6</ele>
        <time>2021-11-25T12:16:11Z</time>
      </trkpt>
      <trkpt lat="46.62797" lon="6.0597">
        <ele>1012.3</ele>
        <time>2021-11-25T12:16:15Z</time>
      </trkpt>
      <trkpt lat="46.62802" lon="6.05975">
        <ele>1012.5</ele>
        <time>2021-11-25T12:16:19Z</time>
      </trkpt>
      <trkpt lat="46.62806" lon="6.0598">
        <ele>1012.5</ele>
        <time>2021-11-25T12:16:24Z</time>
      </trkpt>
      <trkpt lat="46.6281" lon="6.05986">
        <ele>1012.2</ele>
        <time>2021-11-25T12:16:29Z</time>
      </trkpt>
      <trkpt lat="46.62812" lon="6.05991">
        <ele>1011.9</ele>
        <time>2021-11-25T12:16:34Z</time>
      </trkpt>
      <trkpt lat="46.62814" lon="6.05998">
        <ele>1011.5</ele>
        <time>2021-11-25T12:16:41Z</time>
      </trkpt>
      <trkpt lat="46.62817" lon="6.06003">
        <ele>1012.4</ele>
        <time>2021-11-25T12:16:47Z</time>
      </trkpt>
      <trkpt lat="46.62823" lon="6.06004">
        <ele>1013.7</ele>
        <time>2021-11-25T12:16:53Z</time>
      </trkpt>
      <trkpt lat="46.62827" lon="6.06006">
        <ele>1014.8</ele>
        <time>2021-11-25T12:16:57Z</time>
      </trkpt>
      <trkpt lat="46.62832" lon="6.06003">
        <ele>1015.4</ele>
        <time>2021-11-25T12:17:03Z</time>
      </trkpt>
      <trkpt lat="46.62837" lon="6.06">
        <ele>1015.3</ele>
        <time>2021-11-25T12:17:09Z</time>
      </trkpt>
      <trkpt lat="46.62843" lon="6.06">
        <ele>1014.7</ele>
        <time>2021-11-25T12:17:13Z</time>
      </trkpt>
      <trkpt lat="46.62847" lon="6.05999">
        <ele>1014.5</ele>
        <time>2021-11-25T12:17:17Z</time>
      </trkpt>
      <trkpt lat="46.62852" lon="6.05996">
        <ele>1014.7</ele>
        <time>2021-11-25T12:17:23Z</time>
      </trkpt>
      <trkpt lat="46.62857" lon="6.05992">
        <ele>1014.7</ele>
        <time>2021-11-25T12:17:28Z</time>
      </trkpt>
      <trkpt lat="46.62861" lon="6.05993">
        <ele>1015</ele>
        <time>2021-11-25T12:17:34Z</time>
      </trkpt>
      <trkpt lat="46.62866" lon="6.05995">
        <ele>1015.2</ele>
        <time>2021-11-25T12:17:42Z</time>
      </trkpt>
      <trkpt lat="46.62869" lon="6.05999">
        <ele>1014.8</ele>
        <time>2021-11-25T12:17:48Z</time>
      </trkpt>
      <trkpt lat="46.62873" lon="6.06005">
        <ele>1013.8</ele>
        <time>2021-11-25T12:17:54Z</time>
      </trkpt>
      <trkpt lat="46.62874" lon="6.06012">
        <ele>1013.1</ele>
        <time>2021-11-25T12:17:59Z</time>
      </trkpt>
      <trkpt lat="46.62877" lon="6.06018">
        <ele>1012.8</ele>
        <time>2021-11-25T12:18:04Z</time>
      </trkpt>
      <trkpt lat="46.62881" lon="6.06022">
        <ele>1012.6</ele>
        <time>2021-11-25T12:18:10Z</time>
      </trkpt>
      <trkpt lat="46.62886" lon="6.06024">
        <ele>1012.9</ele>
        <time>2021-11-25T12:18:15Z</time>
      </trkpt>
      <trkpt lat="46.6289" lon="6.06023">
        <ele>1013</ele>
        <time>2021-11-25T12:18:19Z</time>
      </trkpt>
      <trkpt lat="46.62894" lon="6.06019">
        <ele>1012.9</ele>
        <time>2021-11-25T12:18:23Z</time>
      </trkpt>
      <trkpt lat="46.62899" lon="6.06015">
        <ele>1012.6</ele>
        <time>2021-11-25T12:18:27Z</time>
      </trkpt>
      <trkpt lat="46.62902" lon="6.06009">
        <ele>1011.7</ele>
        <time>2021-11-25T12:18:32Z</time>
      </trkpt>
      <trkpt lat="46.62901" lon="6.06002">
        <ele>1011.3</ele>
        <time>2021-11-25T12:18:39Z</time>
      </trkpt>
      <trkpt lat="46.62902" lon="6.05996">
        <ele>1012.3</ele>
        <time>2021-11-25T12:18:44Z</time>
      </trkpt>
      <trkpt lat="46.62904" lon="6.05989">
        <ele>1013.8</ele>
        <time>2021-11-25T12:18:51Z</time>
      </trkpt>
      <trkpt lat="46.62901" lon="6.05984">
        <ele>1013.9</ele>
        <time>2021-11-25T12:18:58Z</time>
      </trkpt>
      <trkpt lat="46.62897" lon="6.05978">
        <ele>1012.6</ele>
        <time>2021-11-25T12:19:04Z</time>
      </trkpt>
      <trkpt lat="46.62893" lon="6.05976">
        <ele>1010.2</ele>
        <time>2021-11-25T12:19:13Z</time>
      </trkpt>
      <trkpt lat="46.62889" lon="6.05973">
        <ele>1009.5</ele>
        <time>2021-11-25T12:19:17Z</time>
      </trkpt>
      <trkpt lat="46.62885" lon="6.05969">
        <ele>1009</ele>
        <time>2021-11-25T12:19:22Z</time>
      </trkpt>
      <trkpt lat="46.62885" lon="6.05961">
        <ele>1009.2</ele>
        <time>2021-11-25T12:19:30Z</time>
      </trkpt>
      <trkpt lat="46.62883" lon="6.05954">
        <ele>1009.2</ele>
        <time>2021-11-25T12:19:36Z</time>
      </trkpt>
      <trkpt lat="46.6288" lon="6.05948">
        <ele>1008.5</ele>
        <time>2021-11-25T12:19:41Z</time>
      </trkpt>
      <trkpt lat="46.62876" lon="6.05943">
        <ele>1007.5</ele>
        <time>2021-11-25T12:19:46Z</time>
      </trkpt>
      <trkpt lat="46.62873" lon="6.05937">
        <ele>1006.8</ele>
        <time>2021-11-25T12:19:51Z</time>
      </trkpt>
      <trkpt lat="46.62869" lon="6.05931">
        <ele>1006.5</ele>
        <time>2021-11-25T12:19:55Z</time>
      </trkpt>
      <trkpt lat="46.62865" lon="6.05926">
        <ele>1006.3</ele>
        <time>2021-11-25T12:19:59Z</time>
      </trkpt>
      <trkpt lat="46.62863" lon="6.05918">
        <ele>1005.9</ele>
        <time>2021-11-25T12:20:04Z</time>
      </trkpt>
      <trkpt lat="46.62863" lon="6.0591">
        <ele>1005.1</ele>
        <time>2021-11-25T12:20:09Z</time>
      </trkpt>
      <trkpt lat="46.62864" lon="6.05902">
        <ele>1004.1</ele>
        <time>2021-11-25T12:20:14Z</time>
      </trkpt>
      <trkpt lat="46.62867" lon="6.05897">
        <ele>1002.6</ele>
        <time>2021-11-25T12:20:18Z</time>
      </trkpt>
      <trkpt lat="46.6287" lon="6.05891">
        <ele>1001.4</ele>
        <time>2021-11-25T12:20:23Z</time>
      </trkpt>
      <trkpt lat="46.62874" lon="6.05885">
        <ele>999.7</ele>
        <time>2021-11-25T12:20:29Z</time>
      </trkpt>
      <trkpt lat="46.62876" lon="6.05878">
        <ele>997.8</ele>
        <time>2021-11-25T12:20:35Z</time>
      </trkpt>
      <trkpt lat="46.6288" lon="6.05874">
        <ele>996.4</ele>
        <time>2021-11-25T12:20:39Z</time>
      </trkpt>
      <trkpt lat="46.62885" lon="6.0587">
        <ele>994.6</ele>
        <time>2021-11-25T12:20:43Z</time>
      </trkpt>
      <trkpt lat="46.62889" lon="6.05866">
        <ele>992.6</ele>
        <time>2021-11-25T12:20:47Z</time>
      </trkpt>
      <trkpt lat="46.62892" lon="6.05861">
        <ele>988.3</ele>
        <time>2021-11-25T12:21:06Z</time>
      </trkpt>
      <trkpt lat="46.62897" lon="6.05862">
        <ele>988.6</ele>
        <time>2021-11-25T12:21:11Z</time>
      </trkpt>
      <trkpt lat="46.62902" lon="6.05862">
        <ele>989.1</ele>
        <time>2021-11-25T12:21:15Z</time>
      </trkpt>
      <trkpt lat="46.62906" lon="6.05858">
        <ele>989.5</ele>
        <time>2021-11-25T12:21:22Z</time>
      </trkpt>
      <trkpt lat="46.62911" lon="6.05855">
        <ele>989.7</ele>
        <time>2021-11-25T12:21:25Z</time>
      </trkpt>
      <trkpt lat="46.62915" lon="6.05853">
        <ele>990.1</ele>
        <time>2021-11-25T12:21:29Z</time>
      </trkpt>
      <trkpt lat="46.62916" lon="6.05845">
        <ele>990.5</ele>
        <time>2021-11-25T12:21:33Z</time>
      </trkpt>
      <trkpt lat="46.6292" lon="6.05841">
        <ele>991.1</ele>
        <time>2021-11-25T12:21:38Z</time>
      </trkpt>
      <trkpt lat="46.62925" lon="6.05839">
        <ele>991.7</ele>
        <time>2021-11-25T12:21:43Z</time>
      </trkpt>
      <trkpt lat="46.62931" lon="6.05837">
        <ele>991.9</ele>
        <time>2021-11-25T12:21:48Z</time>
      </trkpt>
      <trkpt lat="46.62935" lon="6.05836">
        <ele>991.5</ele>
        <time>2021-11-25T12:21:53Z</time>
      </trkpt>
      <trkpt lat="46.6294" lon="6.05836">
        <ele>991.1</ele>
        <time>2021-11-25T12:21:57Z</time>
      </trkpt>
      <trkpt lat="46.62944" lon="6.05832">
        <ele>990.7</ele>
        <time>2021-11-25T12:22:01Z</time>
      </trkpt>
      <trkpt lat="46.62947" lon="6.05827">
        <ele>990.6</ele>
        <time>2021-11-25T12:22:04Z</time>
      </trkpt>
      <trkpt lat="46.62951" lon="6.05822">
        <ele>990.8</ele>
        <time>2021-11-25T12:22:07Z</time>
      </trkpt>
      <trkpt lat="46.62955" lon="6.05818">
        <ele>990.9</ele>
        <time>2021-11-25T12:22:11Z</time>
      </trkpt>
      <trkpt lat="46.62957" lon="6.05811">
        <ele>990.6</ele>
        <time>2021-11-25T12:22:15Z</time>
      </trkpt>
      <trkpt lat="46.62957" lon="6.05804">
        <ele>990.3</ele>
        <time>2021-11-25T12:22:20Z</time>
      </trkpt>
      <trkpt lat="46.62955" lon="6.05798">
        <ele>989.8</ele>
        <time>2021-11-25T12:22:26Z</time>
      </trkpt>
      <trkpt lat="46.62954" lon="6.0579">
        <ele>989.5</ele>
        <time>2021-11-25T12:22:32Z</time>
      </trkpt>
      <trkpt lat="46.62953" lon="6.05782">
        <ele>990.1</ele>
        <time>2021-11-25T12:22:36Z</time>
      </trkpt>
      <trkpt lat="46.62954" lon="6.05775">
        <ele>990</ele>
        <time>2021-11-25T12:22:40Z</time>
      </trkpt>
      <trkpt lat="46.62953" lon="6.05768">
        <ele>989.9</ele>
        <time>2021-11-25T12:22:46Z</time>
      </trkpt>
      <trkpt lat="46.62956" lon="6.05762">
        <ele>990.3</ele>
        <time>2021-11-25T12:22:52Z</time>
      </trkpt>
      <trkpt lat="46.62959" lon="6.05758">
        <ele>989.6</ele>
        <time>2021-11-25T12:22:57Z</time>
      </trkpt>
      <trkpt lat="46.62964" lon="6.05754">
        <ele>988.7</ele>
        <time>2021-11-25T12:23:02Z</time>
      </trkpt>
      <trkpt lat="46.62968" lon="6.0575">
        <ele>987.5</ele>
        <time>2021-11-25T12:23:06Z</time>
      </trkpt>
      <trkpt lat="46.62973" lon="6.05745">
        <ele>985.7</ele>
        <time>2021-11-25T12:23:11Z</time>
      </trkpt>
      <trkpt lat="46.62977" lon="6.05741">
        <ele>984.6</ele>
        <time>2021-11-25T12:23:15Z</time>
      </trkpt>
      <trkpt lat="46.62982" lon="6.05739">
        <ele>984</ele>
        <time>2021-11-25T12:23:20Z</time>
      </trkpt>
      <trkpt lat="46.62987" lon="6.05739">
        <ele>983.9</ele>
        <time>2021-11-25T12:23:24Z</time>
      </trkpt>
      <trkpt lat="46.62991" lon="6.05738">
        <ele>983.7</ele>
        <time>2021-11-25T12:23:32Z</time>
      </trkpt>
      <trkpt lat="46.62996" lon="6.05737">
        <ele>982.9</ele>
        <time>2021-11-25T12:23:39Z</time>
      </trkpt>
      <trkpt lat="46.63001" lon="6.05734">
        <ele>982.1</ele>
        <time>2021-11-25T12:23:45Z</time>
      </trkpt>
      <trkpt lat="46.63005" lon="6.05733">
        <ele>981.6</ele>
        <time>2021-11-25T12:23:50Z</time>
      </trkpt>
      <trkpt lat="46.63011" lon="6.05731">
        <ele>981.5</ele>
        <time>2021-11-25T12:23:54Z</time>
      </trkpt>
      <trkpt lat="46.63015" lon="6.05728">
        <ele>981.2</ele>
        <time>2021-11-25T12:23:57Z</time>
      </trkpt>
      <trkpt lat="46.6302" lon="6.05725">
        <ele>980.8</ele>
        <time>2021-11-25T12:24:01Z</time>
      </trkpt>
      <trkpt lat="46.63025" lon="6.05723">
        <ele>980.7</ele>
        <time>2021-11-25T12:24:05Z</time>
      </trkpt>
      <trkpt lat="46.6303" lon="6.05721">
        <ele>980.7</ele>
        <time>2021-11-25T12:24:09Z</time>
      </trkpt>
      <trkpt lat="46.63033" lon="6.05715">
        <ele>979.6</ele>
        <time>2021-11-25T12:24:14Z</time>
      </trkpt>
      <trkpt lat="46.63037" lon="6.05711">
        <ele>977.5</ele>
        <time>2021-11-25T12:24:23Z</time>
      </trkpt>
      <trkpt lat="46.63039" lon="6.05703">
        <ele>976.2</ele>
        <time>2021-11-25T12:24:28Z</time>
      </trkpt>
      <trkpt lat="46.63042" lon="6.05696">
        <ele>975.5</ele>
        <time>2021-11-25T12:24:32Z</time>
      </trkpt>
      <trkpt lat="46.63046" lon="6.05689">
        <ele>974.9</ele>
        <time>2021-11-25T12:24:36Z</time>
      </trkpt>
      <trkpt lat="46.6305" lon="6.05683">
        <ele>974.9</ele>
        <time>2021-11-25T12:24:40Z</time>
      </trkpt>
      <trkpt lat="46.63053" lon="6.05679">
        <ele>975</ele>
        <time>2021-11-25T12:24:44Z</time>
      </trkpt>
      <trkpt lat="46.63056" lon="6.05672">
        <ele>975.8</ele>
        <time>2021-11-25T12:24:48Z</time>
      </trkpt>
      <trkpt lat="46.63058" lon="6.05665">
        <ele>976.6</ele>
        <time>2021-11-25T12:24:52Z</time>
      </trkpt>
      <trkpt lat="46.63059" lon="6.05659">
        <ele>977.2</ele>
        <time>2021-11-25T12:24:57Z</time>
      </trkpt>
      <trkpt lat="46.6306" lon="6.05651">
        <ele>978</ele>
        <time>2021-11-25T12:25:03Z</time>
      </trkpt>
      <trkpt lat="46.6306" lon="6.05645">
        <ele>978.2</ele>
        <time>2021-11-25T12:25:06Z</time>
      </trkpt>
      <trkpt lat="46.6306" lon="6.05638">
        <ele>978.2</ele>
        <time>2021-11-25T12:25:09Z</time>
      </trkpt>
      <trkpt lat="46.63057" lon="6.05631">
        <ele>978.4</ele>
        <time>2021-11-25T12:25:14Z</time>
      </trkpt>
      <trkpt lat="46.63055" lon="6.05625">
        <ele>978</ele>
        <time>2021-11-25T12:25:19Z</time>
      </trkpt>
      <trkpt lat="46.63052" lon="6.0562">
        <ele>976.5</ele>
        <time>2021-11-25T12:25:25Z</time>
      </trkpt>
      <trkpt lat="46.63049" lon="6.05616">
        <ele>973.5</ele>
        <time>2021-11-25T12:25:31Z</time>
      </trkpt>
      <trkpt lat="46.63044" lon="6.05613">
        <ele>970.6</ele>
        <time>2021-11-25T12:25:35Z</time>
      </trkpt>
      <trkpt lat="46.6304" lon="6.05607">
        <ele>968</ele>
        <time>2021-11-25T12:25:39Z</time>
      </trkpt>
      <trkpt lat="46.63045" lon="6.05608">
        <ele>965.9</ele>
        <time>2021-11-25T12:26:29Z</time>
      </trkpt>
      <trkpt lat="46.63041" lon="6.05611">
        <ele>964.4</ele>
        <time>2021-11-25T12:27:33Z</time>
      </trkpt>
      <trkpt lat="46.63037" lon="6.05606">
        <ele>964.1</ele>
        <time>2021-11-25T12:27:45Z</time>
      </trkpt>
      <trkpt lat="46.63035" lon="6.056">
        <ele>962.1</ele>
        <time>2021-11-25T12:27:51Z</time>
      </trkpt>
      <trkpt lat="46.63031" lon="6.05595">
        <ele>959.4</ele>
        <time>2021-11-25T12:27:58Z</time>
      </trkpt>
      <trkpt lat="46.63028" lon="6.0559">
        <ele>957.8</ele>
        <time>2021-11-25T12:28:04Z</time>
      </trkpt>
      <trkpt lat="46.63024" lon="6.05585">
        <ele>956.4</ele>
        <time>2021-11-25T12:28:09Z</time>
      </trkpt>
      <trkpt lat="46.63021" lon="6.05579">
        <ele>955.4</ele>
        <time>2021-11-25T12:28:12Z</time>
      </trkpt>
      <trkpt lat="46.63019" lon="6.05573">
        <ele>954.6</ele>
        <time>2021-11-25T12:28:15Z</time>
      </trkpt>
      <trkpt lat="46.63018" lon="6.05566">
        <ele>953.7</ele>
        <time>2021-11-25T12:28:20Z</time>
      </trkpt>
      <trkpt lat="46.63013" lon="6.05563">
        <ele>953.3</ele>
        <time>2021-11-25T12:28:27Z</time>
      </trkpt>
      <trkpt lat="46.63009" lon="6.05561">
        <ele>953.3</ele>
        <time>2021-11-25T12:28:31Z</time>
      </trkpt>
      <trkpt lat="46.63004" lon="6.0556">
        <ele>952.9</ele>
        <time>2021-11-25T12:28:37Z</time>
      </trkpt>
      <trkpt lat="46.62999" lon="6.05559">
        <ele>952.4</ele>
        <time>2021-11-25T12:28:43Z</time>
      </trkpt>
      <trkpt lat="46.62994" lon="6.05557">
        <ele>951.9</ele>
        <time>2021-11-25T12:28:47Z</time>
      </trkpt>
      <trkpt lat="46.62989" lon="6.05554">
        <ele>951.6</ele>
        <time>2021-11-25T12:28:50Z</time>
      </trkpt>
      <trkpt lat="46.62985" lon="6.05551">
        <ele>951.5</ele>
        <time>2021-11-25T12:28:53Z</time>
      </trkpt>
      <trkpt lat="46.62979" lon="6.0555">
        <ele>951.8</ele>
        <time>2021-11-25T12:28:57Z</time>
      </trkpt>
      <trkpt lat="46.62975" lon="6.05549">
        <ele>952.1</ele>
        <time>2021-11-25T12:29:01Z</time>
      </trkpt>
      <trkpt lat="46.62971" lon="6.05546">
        <ele>952.5</ele>
        <time>2021-11-25T12:29:06Z</time>
      </trkpt>
      <trkpt lat="46.62966" lon="6.05542">
        <ele>953.1</ele>
        <time>2021-11-25T12:29:11Z</time>
      </trkpt>
      <trkpt lat="46.62962" lon="6.05539">
        <ele>953.7</ele>
        <time>2021-11-25T12:29:15Z</time>
      </trkpt>
      <trkpt lat="46.62957" lon="6.05536">
        <ele>954.2</ele>
        <time>2021-11-25T12:29:19Z</time>
      </trkpt>
      <trkpt lat="46.62952" lon="6.05533">
        <ele>954.2</ele>
        <time>2021-11-25T12:29:24Z</time>
      </trkpt>
      <trkpt lat="46.62949" lon="6.05528">
        <ele>954.4</ele>
        <time>2021-11-25T12:29:28Z</time>
      </trkpt>
      <trkpt lat="46.62946" lon="6.05522">
        <ele>954.7</ele>
        <time>2021-11-25T12:29:32Z</time>
      </trkpt>
      <trkpt lat="46.62942" lon="6.05516">
        <ele>954.6</ele>
        <time>2021-11-25T12:29:36Z</time>
      </trkpt>
      <trkpt lat="46.62939" lon="6.0551">
        <ele>954.5</ele>
        <time>2021-11-25T12:29:42Z</time>
      </trkpt>
      <trkpt lat="46.62935" lon="6.05505">
        <ele>954.7</ele>
        <time>2021-11-25T12:29:49Z</time>
      </trkpt>
      <trkpt lat="46.62932" lon="6.055">
        <ele>956.1</ele>
        <time>2021-11-25T12:29:55Z</time>
      </trkpt>
      <trkpt lat="46.6293" lon="6.05494">
        <ele>957.5</ele>
        <time>2021-11-25T12:30:01Z</time>
      </trkpt>
      <trkpt lat="46.62927" lon="6.05488">
        <ele>957.8</ele>
        <time>2021-11-25T12:30:05Z</time>
      </trkpt>
      <trkpt lat="46.62923" lon="6.05482">
        <ele>957.8</ele>
        <time>2021-11-25T12:30:10Z</time>
      </trkpt>
      <trkpt lat="46.6292" lon="6.05476">
        <ele>957.5</ele>
        <time>2021-11-25T12:30:13Z</time>
      </trkpt>
      <trkpt lat="46.62918" lon="6.0547">
        <ele>956.2</ele>
        <time>2021-11-25T12:30:18Z</time>
      </trkpt>
      <trkpt lat="46.62915" lon="6.05465">
        <ele>954.5</ele>
        <time>2021-11-25T12:30:24Z</time>
      </trkpt>
      <trkpt lat="46.62914" lon="6.05457">
        <ele>953.2</ele>
        <time>2021-11-25T12:30:30Z</time>
      </trkpt>
      <trkpt lat="46.62912" lon="6.0545">
        <ele>952.4</ele>
        <time>2021-11-25T12:30:37Z</time>
      </trkpt>
      <trkpt lat="46.62909" lon="6.05444">
        <ele>951.6</ele>
        <time>2021-11-25T12:30:43Z</time>
      </trkpt>
      <trkpt lat="46.62907" lon="6.05437">
        <ele>950.6</ele>
        <time>2021-11-25T12:30:47Z</time>
      </trkpt>
      <trkpt lat="46.62907" lon="6.0543">
        <ele>950.7</ele>
        <time>2021-11-25T12:30:54Z</time>
      </trkpt>
      <trkpt lat="46.62906" lon="6.05423">
        <ele>951</ele>
        <time>2021-11-25T12:30:58Z</time>
      </trkpt>
      <trkpt lat="46.62903" lon="6.05417">
        <ele>950.8</ele>
        <time>2021-11-25T12:31:02Z</time>
      </trkpt>
      <trkpt lat="46.62902" lon="6.05411">
        <ele>951</ele>
        <time>2021-11-25T12:31:08Z</time>
      </trkpt>
      <trkpt lat="46.62899" lon="6.05405">
        <ele>951</ele>
        <time>2021-11-25T12:31:14Z</time>
      </trkpt>
      <trkpt lat="46.62896" lon="6.054">
        <ele>950.3</ele>
        <time>2021-11-25T12:31:20Z</time>
      </trkpt>
      <trkpt lat="46.62892" lon="6.05395">
        <ele>950.4</ele>
        <time>2021-11-25T12:31:24Z</time>
      </trkpt>
      <trkpt lat="46.62889" lon="6.05389">
        <ele>950.1</ele>
        <time>2021-11-25T12:31:30Z</time>
      </trkpt>
      <trkpt lat="46.62886" lon="6.05383">
        <ele>949.3</ele>
        <time>2021-11-25T12:31:34Z</time>
      </trkpt>
      <trkpt lat="46.62883" lon="6.05377">
        <ele>947.5</ele>
        <time>2021-11-25T12:31:39Z</time>
      </trkpt>
      <trkpt lat="46.6288" lon="6.05372">
        <ele>945.6</ele>
        <time>2021-11-25T12:31:44Z</time>
      </trkpt>
      <trkpt lat="46.62877" lon="6.05367">
        <ele>943.7</ele>
        <time>2021-11-25T12:31:48Z</time>
      </trkpt>
      <trkpt lat="46.62874" lon="6.0536">
        <ele>941.8</ele>
        <time>2021-11-25T12:31:53Z</time>
      </trkpt>
      <trkpt lat="46.62871" lon="6.05355">
        <ele>940.4</ele>
        <time>2021-11-25T12:31:58Z</time>
      </trkpt>
      <trkpt lat="46.62867" lon="6.05349">
        <ele>939.5</ele>
        <time>2021-11-25T12:32:04Z</time>
      </trkpt>
      <trkpt lat="46.62865" lon="6.05342">
        <ele>938.8</ele>
        <time>2021-11-25T12:32:10Z</time>
      </trkpt>
      <trkpt lat="46.62862" lon="6.05336">
        <ele>937.5</ele>
        <time>2021-11-25T12:32:17Z</time>
      </trkpt>
      <trkpt lat="46.6286" lon="6.05331">
        <ele>937.1</ele>
        <time>2021-11-25T12:32:21Z</time>
      </trkpt>
      <trkpt lat="46.62859" lon="6.05323">
        <ele>936.8</ele>
        <time>2021-11-25T12:32:29Z</time>
      </trkpt>
      <trkpt lat="46.62855" lon="6.05317">
        <ele>936.4</ele>
        <time>2021-11-25T12:32:34Z</time>
      </trkpt>
      <trkpt lat="46.62851" lon="6.05312">
        <ele>936.3</ele>
        <time>2021-11-25T12:32:38Z</time>
      </trkpt>
      <trkpt lat="46.62847" lon="6.05308">
        <ele>936.1</ele>
        <time>2021-11-25T12:32:43Z</time>
      </trkpt>
      <trkpt lat="46.62843" lon="6.05301">
        <ele>936.2</ele>
        <time>2021-11-25T12:32:48Z</time>
      </trkpt>
      <trkpt lat="46.6284" lon="6.05297">
        <ele>936.2</ele>
        <time>2021-11-25T12:32:52Z</time>
      </trkpt>
      <trkpt lat="46.62836" lon="6.05293">
        <ele>936.3</ele>
        <time>2021-11-25T12:32:56Z</time>
      </trkpt>
      <trkpt lat="46.62832" lon="6.05287">
        <ele>936.5</ele>
        <time>2021-11-25T12:33:01Z</time>
      </trkpt>
      <trkpt lat="46.62828" lon="6.05282">
        <ele>936.4</ele>
        <time>2021-11-25T12:33:06Z</time>
      </trkpt>
      <trkpt lat="46.62824" lon="6.05277">
        <ele>935.8</ele>
        <time>2021-11-25T12:33:11Z</time>
      </trkpt>
      <trkpt lat="46.62821" lon="6.05272">
        <ele>935.4</ele>
        <time>2021-11-25T12:33:16Z</time>
      </trkpt>
      <trkpt lat="46.62818" lon="6.05267">
        <ele>935.1</ele>
        <time>2021-11-25T12:33:21Z</time>
      </trkpt>
      <trkpt lat="46.62815" lon="6.05262">
        <ele>934.9</ele>
        <time>2021-11-25T12:33:26Z</time>
      </trkpt>
      <trkpt lat="46.62811" lon="6.05257">
        <ele>934.5</ele>
        <time>2021-11-25T12:33:31Z</time>
      </trkpt>
      <trkpt lat="46.62808" lon="6.05252">
        <ele>934</ele>
        <time>2021-11-25T12:33:36Z</time>
      </trkpt>
      <trkpt lat="46.62804" lon="6.05246">
        <ele>933.9</ele>
        <time>2021-11-25T12:33:41Z</time>
      </trkpt>
      <trkpt lat="46.62801" lon="6.0524">
        <ele>933.9</ele>
        <time>2021-11-25T12:33:46Z</time>
      </trkpt>
      <trkpt lat="46.62797" lon="6.05235">
        <ele>934.1</ele>
        <time>2021-11-25T12:33:50Z</time>
      </trkpt>
      <trkpt lat="46.62794" lon="6.05229">
        <ele>934.4</ele>
        <time>2021-11-25T12:33:54Z</time>
      </trkpt>
      <trkpt lat="46.62792" lon="6.05223">
        <ele>934.4</ele>
        <time>2021-11-25T12:33:59Z</time>
      </trkpt>
      <trkpt lat="46.62789" lon="6.05217">
        <ele>934.5</ele>
        <time>2021-11-25T12:34:03Z</time>
      </trkpt>
      <trkpt lat="46.62787" lon="6.05211">
        <ele>934.4</ele>
        <time>2021-11-25T12:34:07Z</time>
      </trkpt>
      <trkpt lat="46.62783" lon="6.05205">
        <ele>934.2</ele>
        <time>2021-11-25T12:34:12Z</time>
      </trkpt>
      <trkpt lat="46.6278" lon="6.05199">
        <ele>934.2</ele>
        <time>2021-11-25T12:34:17Z</time>
      </trkpt>
      <trkpt lat="46.62777" lon="6.05192">
        <ele>934.1</ele>
        <time>2021-11-25T12:34:22Z</time>
      </trkpt>
      <trkpt lat="46.62775" lon="6.05186">
        <ele>934.2</ele>
        <time>2021-11-25T12:34:26Z</time>
      </trkpt>
      <trkpt lat="46.62772" lon="6.05181">
        <ele>934.6</ele>
        <time>2021-11-25T12:34:30Z</time>
      </trkpt>
      <trkpt lat="46.62768" lon="6.05175">
        <ele>935.7</ele>
        <time>2021-11-25T12:34:35Z</time>
      </trkpt>
      <trkpt lat="46.62766" lon="6.05169">
        <ele>936.2</ele>
        <time>2021-11-25T12:34:38Z</time>
      </trkpt>
      <trkpt lat="46.62763" lon="6.05162">
        <ele>937</ele>
        <time>2021-11-25T12:34:43Z</time>
      </trkpt>
      <trkpt lat="46.62759" lon="6.05157">
        <ele>937.7</ele>
        <time>2021-11-25T12:34:48Z</time>
      </trkpt>
      <trkpt lat="46.62755" lon="6.05154">
        <ele>937.1</ele>
        <time>2021-11-25T12:34:53Z</time>
      </trkpt>
      <trkpt lat="46.6275" lon="6.05151">
        <ele>935.4</ele>
        <time>2021-11-25T12:34:59Z</time>
      </trkpt>
      <trkpt lat="46.62746" lon="6.05147">
        <ele>934.6</ele>
        <time>2021-11-25T12:35:03Z</time>
      </trkpt>
      <trkpt lat="46.62743" lon="6.05141">
        <ele>933.6</ele>
        <time>2021-11-25T12:35:08Z</time>
      </trkpt>
      <trkpt lat="46.6274" lon="6.05135">
        <ele>932.5</ele>
        <time>2021-11-25T12:35:13Z</time>
      </trkpt>
      <trkpt lat="46.62738" lon="6.05129">
        <ele>931.6</ele>
        <time>2021-11-25T12:35:18Z</time>
      </trkpt>
      <trkpt lat="46.62733" lon="6.05122">
        <ele>930.9</ele>
        <time>2021-11-25T12:35:22Z</time>
      </trkpt>
      <trkpt lat="46.62731" lon="6.05117">
        <ele>930.6</ele>
        <time>2021-11-25T12:35:25Z</time>
      </trkpt>
      <trkpt lat="46.62727" lon="6.05111">
        <ele>930.7</ele>
        <time>2021-11-25T12:35:29Z</time>
      </trkpt>
      <trkpt lat="46.62723" lon="6.05106">
        <ele>930.6</ele>
        <time>2021-11-25T12:35:33Z</time>
      </trkpt>
      <trkpt lat="46.62719" lon="6.05103">
        <ele>930</ele>
        <time>2021-11-25T12:35:37Z</time>
      </trkpt>
      <trkpt lat="46.62715" lon="6.05099">
        <ele>929.3</ele>
        <time>2021-11-25T12:35:41Z</time>
      </trkpt>
      <trkpt lat="46.62712" lon="6.05093">
        <ele>928.5</ele>
        <time>2021-11-25T12:35:47Z</time>
      </trkpt>
      <trkpt lat="46.62709" lon="6.05087">
        <ele>928.2</ele>
        <time>2021-11-25T12:35:51Z</time>
      </trkpt>
      <trkpt lat="46.62706" lon="6.0508">
        <ele>927.9</ele>
        <time>2021-11-25T12:35:55Z</time>
      </trkpt>
      <trkpt lat="46.62704" lon="6.05073">
        <ele>928.2</ele>
        <time>2021-11-25T12:35:59Z</time>
      </trkpt>
      <trkpt lat="46.62701" lon="6.05068">
        <ele>929.3</ele>
        <time>2021-11-25T12:36:03Z</time>
      </trkpt>
      <trkpt lat="46.62699" lon="6.05062">
        <ele>930.6</ele>
        <time>2021-11-25T12:36:07Z</time>
      </trkpt>
      <trkpt lat="46.62696" lon="6.05055">
        <ele>931.9</ele>
        <time>2021-11-25T12:36:12Z</time>
      </trkpt>
      <trkpt lat="46.62694" lon="6.05048">
        <ele>932.8</ele>
        <time>2021-11-25T12:36:18Z</time>
      </trkpt>
      <trkpt lat="46.62693" lon="6.0504">
        <ele>932.7</ele>
        <time>2021-11-25T12:36:24Z</time>
      </trkpt>
      <trkpt lat="46.62689" lon="6.05035">
        <ele>932.4</ele>
        <time>2021-11-25T12:36:30Z</time>
      </trkpt>
      <trkpt lat="46.62686" lon="6.0503">
        <ele>932.1</ele>
        <time>2021-11-25T12:36:34Z</time>
      </trkpt>
      <trkpt lat="46.62683" lon="6.05025">
        <ele>931.9</ele>
        <time>2021-11-25T12:36:38Z</time>
      </trkpt>
      <trkpt lat="46.62679" lon="6.05021">
        <ele>931.6</ele>
        <time>2021-11-25T12:36:43Z</time>
      </trkpt>
      <trkpt lat="46.62675" lon="6.05018">
        <ele>931.2</ele>
        <time>2021-11-25T12:36:48Z</time>
      </trkpt>
      <trkpt lat="46.62671" lon="6.05014">
        <ele>931.5</ele>
        <time>2021-11-25T12:36:52Z</time>
      </trkpt>
      <trkpt lat="46.62667" lon="6.0501">
        <ele>931.7</ele>
        <time>2021-11-25T12:36:55Z</time>
      </trkpt>
      <trkpt lat="46.62662" lon="6.05005">
        <ele>932.7</ele>
        <time>2021-11-25T12:36:59Z</time>
      </trkpt>
      <trkpt lat="46.6266" lon="6.04999">
        <ele>934.3</ele>
        <time>2021-11-25T12:37:04Z</time>
      </trkpt>
      <trkpt lat="46.62657" lon="6.04994">
        <ele>935.6</ele>
        <time>2021-11-25T12:37:08Z</time>
      </trkpt>
      <trkpt lat="46.62652" lon="6.0499">
        <ele>936.9</ele>
        <time>2021-11-25T12:37:12Z</time>
      </trkpt>
      <trkpt lat="46.62649" lon="6.04986">
        <ele>938.1</ele>
        <time>2021-11-25T12:37:18Z</time>
      </trkpt>
      <trkpt lat="46.62645" lon="6.04982">
        <ele>938.8</ele>
        <time>2021-11-25T12:37:25Z</time>
      </trkpt>
      <trkpt lat="46.62641" lon="6.04977">
        <ele>938.7</ele>
        <time>2021-11-25T12:37:29Z</time>
      </trkpt>
      <trkpt lat="46.62637" lon="6.04973">
        <ele>938.4</ele>
        <time>2021-11-25T12:37:33Z</time>
      </trkpt>
      <trkpt lat="46.62633" lon="6.04966">
        <ele>938.3</ele>
        <time>2021-11-25T12:37:37Z</time>
      </trkpt>
      <trkpt lat="46.62631" lon="6.04959">
        <ele>938.6</ele>
        <time>2021-11-25T12:37:40Z</time>
      </trkpt>
      <trkpt lat="46.6263" lon="6.04952">
        <ele>939</ele>
        <time>2021-11-25T12:37:44Z</time>
      </trkpt>
      <trkpt lat="46.62629" lon="6.04946">
        <ele>939.4</ele>
        <time>2021-11-25T12:37:48Z</time>
      </trkpt>
      <trkpt lat="46.62629" lon="6.04939">
        <ele>939.7</ele>
        <time>2021-11-25T12:37:52Z</time>
      </trkpt>
      <trkpt lat="46.6263" lon="6.04931">
        <ele>940</ele>
        <time>2021-11-25T12:37:56Z</time>
      </trkpt>
      <trkpt lat="46.62633" lon="6.04923">
        <ele>940.5</ele>
        <time>2021-11-25T12:38:01Z</time>
      </trkpt>
      <trkpt lat="46.62636" lon="6.04917">
        <ele>940.6</ele>
        <time>2021-11-25T12:38:05Z</time>
      </trkpt>
      <trkpt lat="46.62639" lon="6.04911">
        <ele>940.5</ele>
        <time>2021-11-25T12:38:09Z</time>
      </trkpt>
      <trkpt lat="46.62641" lon="6.04904">
        <ele>940.3</ele>
        <time>2021-11-25T12:38:13Z</time>
      </trkpt>
      <trkpt lat="46.62644" lon="6.04898">
        <ele>939.5</ele>
        <time>2021-11-25T12:38:19Z</time>
      </trkpt>
      <trkpt lat="46.62648" lon="6.04893">
        <ele>939.1</ele>
        <time>2021-11-25T12:38:24Z</time>
      </trkpt>
      <trkpt lat="46.6265" lon="6.04886">
        <ele>938.6</ele>
        <time>2021-11-25T12:38:28Z</time>
      </trkpt>
      <trkpt lat="46.62651" lon="6.04879">
        <ele>937.7</ele>
        <time>2021-11-25T12:38:33Z</time>
      </trkpt>
      <trkpt lat="46.62652" lon="6.04873">
        <ele>936.8</ele>
        <time>2021-11-25T12:38:38Z</time>
      </trkpt>
      <trkpt lat="46.62649" lon="6.04866">
        <ele>936.2</ele>
        <time>2021-11-25T12:38:44Z</time>
      </trkpt>
      <trkpt lat="46.62647" lon="6.04859">
        <ele>935.9</ele>
        <time>2021-11-25T12:38:49Z</time>
      </trkpt>
      <trkpt lat="46.62644" lon="6.04854">
        <ele>935.8</ele>
        <time>2021-11-25T12:38:55Z</time>
      </trkpt>
      <trkpt lat="46.62642" lon="6.04848">
        <ele>936.3</ele>
        <time>2021-11-25T12:39:00Z</time>
      </trkpt>
      <trkpt lat="46.62639" lon="6.04842">
        <ele>936.6</ele>
        <time>2021-11-25T12:39:04Z</time>
      </trkpt>
      <trkpt lat="46.62639" lon="6.04833">
        <ele>936.9</ele>
        <time>2021-11-25T12:39:08Z</time>
      </trkpt>
      <trkpt lat="46.62638" lon="6.04827">
        <ele>936.8</ele>
        <time>2021-11-25T12:39:11Z</time>
      </trkpt>
      <trkpt lat="46.62637" lon="6.0482">
        <ele>936.6</ele>
        <time>2021-11-25T12:39:14Z</time>
      </trkpt>
      <trkpt lat="46.62635" lon="6.04812">
        <ele>935.8</ele>
        <time>2021-11-25T12:39:18Z</time>
      </trkpt>
      <trkpt lat="46.62634" lon="6.04806">
        <ele>935</ele>
        <time>2021-11-25T12:39:22Z</time>
      </trkpt>
      <trkpt lat="46.62635" lon="6.04799">
        <ele>934.9</ele>
        <time>2021-11-25T12:39:27Z</time>
      </trkpt>
      <trkpt lat="46.62635" lon="6.04791">
        <ele>934.6</ele>
        <time>2021-11-25T12:39:33Z</time>
      </trkpt>
      <trkpt lat="46.62633" lon="6.04785">
        <ele>934.4</ele>
        <time>2021-11-25T12:39:38Z</time>
      </trkpt>
      <trkpt lat="46.62631" lon="6.04779">
        <ele>934.2</ele>
        <time>2021-11-25T12:39:42Z</time>
      </trkpt>
      <trkpt lat="46.62631" lon="6.04771">
        <ele>933.9</ele>
        <time>2021-11-25T12:39:47Z</time>
      </trkpt>
      <trkpt lat="46.6263" lon="6.04764">
        <ele>934.3</ele>
        <time>2021-11-25T12:39:53Z</time>
      </trkpt>
      <trkpt lat="46.62627" lon="6.04757">
        <ele>935</ele>
        <time>2021-11-25T12:39:57Z</time>
      </trkpt>
      <trkpt lat="46.62624" lon="6.0475">
        <ele>935.3</ele>
        <time>2021-11-25T12:40:01Z</time>
      </trkpt>
      <trkpt lat="46.62621" lon="6.04744">
        <ele>935.1</ele>
        <time>2021-11-25T12:40:05Z</time>
      </trkpt>
      <trkpt lat="46.62618" lon="6.04738">
        <ele>934.9</ele>
        <time>2021-11-25T12:40:11Z</time>
      </trkpt>
      <trkpt lat="46.62614" lon="6.04731">
        <ele>934.4</ele>
        <time>2021-11-25T12:40:16Z</time>
      </trkpt>
      <trkpt lat="46.62611" lon="6.04725">
        <ele>933.7</ele>
        <time>2021-11-25T12:40:20Z</time>
      </trkpt>
      <trkpt lat="46.62608" lon="6.0472">
        <ele>934.1</ele>
        <time>2021-11-25T12:40:25Z</time>
      </trkpt>
      <trkpt lat="46.62605" lon="6.04714">
        <ele>935.7</ele>
        <time>2021-11-25T12:40:30Z</time>
      </trkpt>
      <trkpt lat="46.62601" lon="6.0471">
        <ele>938</ele>
        <time>2021-11-25T12:40:35Z</time>
      </trkpt>
      <trkpt lat="46.62596" lon="6.04706">
        <ele>938.9</ele>
        <time>2021-11-25T12:40:39Z</time>
      </trkpt>
      <trkpt lat="46.62592" lon="6.04703">
        <ele>938.7</ele>
        <time>2021-11-25T12:40:42Z</time>
      </trkpt>
      <trkpt lat="46.62588" lon="6.04698">
        <ele>938.4</ele>
        <time>2021-11-25T12:40:45Z</time>
      </trkpt>
      <trkpt lat="46.62584" lon="6.04694">
        <ele>937.3</ele>
        <time>2021-11-25T12:40:48Z</time>
      </trkpt>
      <trkpt lat="46.62581" lon="6.04689">
        <ele>936</ele>
        <time>2021-11-25T12:40:53Z</time>
      </trkpt>
      <trkpt lat="46.62577" lon="6.04685">
        <ele>933</ele>
        <time>2021-11-25T12:40:59Z</time>
      </trkpt>
      <trkpt lat="46.62576" lon="6.04678">
        <ele>930.5</ele>
        <time>2021-11-25T12:41:05Z</time>
      </trkpt>
      <trkpt lat="46.62572" lon="6.04673">
        <ele>929.4</ele>
        <time>2021-11-25T12:41:10Z</time>
      </trkpt>
      <trkpt lat="46.62568" lon="6.04669">
        <ele>929.3</ele>
        <time>2021-11-25T12:41:15Z</time>
      </trkpt>
      <trkpt lat="46.62566" lon="6.04663">
        <ele>929</ele>
        <time>2021-11-25T12:41:20Z</time>
      </trkpt>
      <trkpt lat="46.62562" lon="6.04659">
        <ele>928.1</ele>
        <time>2021-11-25T12:41:25Z</time>
      </trkpt>
      <trkpt lat="46.62561" lon="6.04653">
        <ele>927.7</ele>
        <time>2021-11-25T12:41:39Z</time>
      </trkpt>
      <trkpt lat="46.6256" lon="6.04646">
        <ele>928.1</ele>
        <time>2021-11-25T12:41:53Z</time>
      </trkpt>
      <trkpt lat="46.6256" lon="6.04638">
        <ele>928.2</ele>
        <time>2021-11-25T12:41:59Z</time>
      </trkpt>
      <trkpt lat="46.62559" lon="6.04631">
        <ele>927.9</ele>
        <time>2021-11-25T12:42:05Z</time>
      </trkpt>
      <trkpt lat="46.62556" lon="6.04626">
        <ele>927.6</ele>
        <time>2021-11-25T12:42:09Z</time>
      </trkpt>
      <trkpt lat="46.62552" lon="6.04621">
        <ele>927.3</ele>
        <time>2021-11-25T12:42:13Z</time>
      </trkpt>
      <trkpt lat="46.62547" lon="6.04617">
        <ele>927.2</ele>
        <time>2021-11-25T12:42:18Z</time>
      </trkpt>
      <trkpt lat="46.62546" lon="6.04609">
        <ele>927.4</ele>
        <time>2021-11-25T12:42:24Z</time>
      </trkpt>
      <trkpt lat="46.62544" lon="6.04602">
        <ele>927.5</ele>
        <time>2021-11-25T12:42:29Z</time>
      </trkpt>
      <trkpt lat="46.62543" lon="6.04595">
        <ele>927.8</ele>
        <time>2021-11-25T12:42:34Z</time>
      </trkpt>
      <trkpt lat="46.62542" lon="6.04588">
        <ele>928.1</ele>
        <time>2021-11-25T12:42:39Z</time>
      </trkpt>
      <trkpt lat="46.6254" lon="6.04582">
        <ele>927.8</ele>
        <time>2021-11-25T12:42:44Z</time>
      </trkpt>
      <trkpt lat="46.62541" lon="6.04574">
        <ele>927.7</ele>
        <time>2021-11-25T12:42:48Z</time>
      </trkpt>
      <trkpt lat="46.62543" lon="6.04567">
        <ele>927.6</ele>
        <time>2021-11-25T12:42:52Z</time>
      </trkpt>
      <trkpt lat="46.62543" lon="6.0456">
        <ele>926.9</ele>
        <time>2021-11-25T12:42:56Z</time>
      </trkpt>
      <trkpt lat="46.62544" lon="6.04553">
        <ele>926.3</ele>
        <time>2021-11-25T12:43:01Z</time>
      </trkpt>
      <trkpt lat="46.62544" lon="6.04545">
        <ele>925.2</ele>
        <time>2021-11-25T12:43:06Z</time>
      </trkpt>
      <trkpt lat="46.62545" lon="6.04537">
        <ele>924.3</ele>
        <time>2021-11-25T12:43:11Z</time>
      </trkpt>
      <trkpt lat="46.62546" lon="6.0453">
        <ele>922.3</ele>
        <time>2021-11-25T12:43:16Z</time>
      </trkpt>
      <trkpt lat="46.62547" lon="6.04523">
        <ele>919.8</ele>
        <time>2021-11-25T12:43:22Z</time>
      </trkpt>
      <trkpt lat="46.62547" lon="6.04515">
        <ele>918</ele>
        <time>2021-11-25T12:43:26Z</time>
      </trkpt>
      <trkpt lat="46.62546" lon="6.04506">
        <ele>915.9</ele>
        <time>2021-11-25T12:43:30Z</time>
      </trkpt>
      <trkpt lat="46.62546" lon="6.04499">
        <ele>913.7</ele>
        <time>2021-11-25T12:43:34Z</time>
      </trkpt>
      <trkpt lat="46.62545" lon="6.04492">
        <ele>911.5</ele>
        <time>2021-11-25T12:43:39Z</time>
      </trkpt>
      <trkpt lat="46.62542" lon="6.04488">
        <ele>910.6</ele>
        <time>2021-11-25T12:43:43Z</time>
      </trkpt>
      <trkpt lat="46.6254" lon="6.04482">
        <ele>910.2</ele>
        <time>2021-11-25T12:43:50Z</time>
      </trkpt>
      <trkpt lat="46.62537" lon="6.04475">
        <ele>909.6</ele>
        <time>2021-11-25T12:43:57Z</time>
      </trkpt>
      <trkpt lat="46.62533" lon="6.0447">
        <ele>909.2</ele>
        <time>2021-11-25T12:44:02Z</time>
      </trkpt>
      <trkpt lat="46.6253" lon="6.04465">
        <ele>908.7</ele>
        <time>2021-11-25T12:44:08Z</time>
      </trkpt>
      <trkpt lat="46.62525" lon="6.0446">
        <ele>908.9</ele>
        <time>2021-11-25T12:44:12Z</time>
      </trkpt>
      <trkpt lat="46.62522" lon="6.04455">
        <ele>909.7</ele>
        <time>2021-11-25T12:44:16Z</time>
      </trkpt>
      <trkpt lat="46.62519" lon="6.04448">
        <ele>911.4</ele>
        <time>2021-11-25T12:44:23Z</time>
      </trkpt>
      <trkpt lat="46.62515" lon="6.04444">
        <ele>912.7</ele>
        <time>2021-11-25T12:44:28Z</time>
      </trkpt>
      <trkpt lat="46.62511" lon="6.04439">
        <ele>913.3</ele>
        <time>2021-11-25T12:44:32Z</time>
      </trkpt>
      <trkpt lat="46.62508" lon="6.04434">
        <ele>914.2</ele>
        <time>2021-11-25T12:44:36Z</time>
      </trkpt>
      <trkpt lat="46.62504" lon="6.0443">
        <ele>916.4</ele>
        <time>2021-11-25T12:44:44Z</time>
      </trkpt>
      <trkpt lat="46.62499" lon="6.04432">
        <ele>916.4</ele>
        <time>2021-11-25T12:44:54Z</time>
      </trkpt>
      <trkpt lat="46.62495" lon="6.04435">
        <ele>916</ele>
        <time>2021-11-25T12:45:01Z</time>
      </trkpt>
      <trkpt lat="46.6249" lon="6.04433">
        <ele>916.1</ele>
        <time>2021-11-25T12:45:05Z</time>
      </trkpt>
      <trkpt lat="46.62485" lon="6.04432">
        <ele>916.2</ele>
        <time>2021-11-25T12:45:09Z</time>
      </trkpt>
      <trkpt lat="46.6248" lon="6.04434">
        <ele>916.3</ele>
        <time>2021-11-25T12:45:12Z</time>
      </trkpt>
      <trkpt lat="46.62475" lon="6.04437">
        <ele>916.8</ele>
        <time>2021-11-25T12:45:15Z</time>
      </trkpt>
      <trkpt lat="46.62471" lon="6.04441">
        <ele>917.7</ele>
        <time>2021-11-25T12:45:19Z</time>
      </trkpt>
      <trkpt lat="46.62466" lon="6.04441">
        <ele>919.1</ele>
        <time>2021-11-25T12:45:24Z</time>
      </trkpt>
      <trkpt lat="46.62461" lon="6.04437">
        <ele>921.5</ele>
        <time>2021-11-25T12:45:30Z</time>
      </trkpt>
      <trkpt lat="46.62457" lon="6.04437">
        <ele>923.2</ele>
        <time>2021-11-25T12:45:36Z</time>
      </trkpt>
      <trkpt lat="46.62452" lon="6.04436">
        <ele>924.8</ele>
        <time>2021-11-25T12:45:42Z</time>
      </trkpt>
      <trkpt lat="46.62447" lon="6.04436">
        <ele>925.7</ele>
        <time>2021-11-25T12:45:46Z</time>
      </trkpt>
      <trkpt lat="46.62443" lon="6.04434">
        <ele>926.3</ele>
        <time>2021-11-25T12:45:53Z</time>
      </trkpt>
      <trkpt lat="46.62439" lon="6.04428">
        <ele>925.9</ele>
        <time>2021-11-25T12:45:58Z</time>
      </trkpt>
      <trkpt lat="46.62434" lon="6.04432">
        <ele>924.2</ele>
        <time>2021-11-25T12:46:07Z</time>
      </trkpt>
      <trkpt lat="46.62429" lon="6.04433">
        <ele>923.1</ele>
        <time>2021-11-25T12:46:12Z</time>
      </trkpt>
      <trkpt lat="46.62424" lon="6.04435">
        <ele>922.7</ele>
        <time>2021-11-25T12:46:16Z</time>
      </trkpt>
      <trkpt lat="46.62419" lon="6.04434">
        <ele>922.3</ele>
        <time>2021-11-25T12:46:20Z</time>
      </trkpt>
      <trkpt lat="46.62415" lon="6.04431">
        <ele>922.6</ele>
        <time>2021-11-25T12:46:25Z</time>
      </trkpt>
      <trkpt lat="46.62411" lon="6.04427">
        <ele>923.4</ele>
        <time>2021-11-25T12:46:29Z</time>
      </trkpt>
      <trkpt lat="46.62408" lon="6.04422">
        <ele>924.4</ele>
        <time>2021-11-25T12:46:34Z</time>
      </trkpt>
      <trkpt lat="46.62403" lon="6.04419">
        <ele>925.6</ele>
        <time>2021-11-25T12:46:39Z</time>
      </trkpt>
      <trkpt lat="46.62399" lon="6.04415">
        <ele>926.9</ele>
        <time>2021-11-25T12:46:45Z</time>
      </trkpt>
      <trkpt lat="46.62395" lon="6.04412">
        <ele>928</ele>
        <time>2021-11-25T12:46:50Z</time>
      </trkpt>
      <trkpt lat="46.62392" lon="6.04407">
        <ele>929.2</ele>
        <time>2021-11-25T12:46:56Z</time>
      </trkpt>
      <trkpt lat="46.62388" lon="6.04402">
        <ele>929.6</ele>
        <time>2021-11-25T12:47:00Z</time>
      </trkpt>
      <trkpt lat="46.62383" lon="6.04399">
        <ele>929.8</ele>
        <time>2021-11-25T12:47:04Z</time>
      </trkpt>
      <trkpt lat="46.62378" lon="6.04399">
        <ele>929.3</ele>
        <time>2021-11-25T12:47:09Z</time>
      </trkpt>
      <trkpt lat="46.62374" lon="6.04397">
        <ele>928.2</ele>
        <time>2021-11-25T12:47:14Z</time>
      </trkpt>
      <trkpt lat="46.62369" lon="6.04392">
        <ele>927.6</ele>
        <time>2021-11-25T12:47:22Z</time>
      </trkpt>
      <trkpt lat="46.62365" lon="6.04387">
        <ele>927.6</ele>
        <time>2021-11-25T12:47:26Z</time>
      </trkpt>
      <trkpt lat="46.62361" lon="6.04384">
        <ele>927.8</ele>
        <time>2021-11-25T12:47:30Z</time>
      </trkpt>
      <trkpt lat="46.62357" lon="6.04379">
        <ele>928.2</ele>
        <time>2021-11-25T12:47:37Z</time>
      </trkpt>
      <trkpt lat="46.62353" lon="6.04373">
        <ele>928.5</ele>
        <time>2021-11-25T12:47:42Z</time>
      </trkpt>
      <trkpt lat="46.62349" lon="6.04368">
        <ele>928.1</ele>
        <time>2021-11-25T12:47:46Z</time>
      </trkpt>
      <trkpt lat="46.62346" lon="6.04363">
        <ele>927.2</ele>
        <time>2021-11-25T12:47:50Z</time>
      </trkpt>
      <trkpt lat="46.62342" lon="6.04358">
        <ele>925.4</ele>
        <time>2021-11-25T12:47:56Z</time>
      </trkpt>
      <trkpt lat="46.62338" lon="6.04355">
        <ele>924.1</ele>
        <time>2021-11-25T12:48:00Z</time>
      </trkpt>
      <trkpt lat="46.62334" lon="6.0435">
        <ele>922.2</ele>
        <time>2021-11-25T12:48:06Z</time>
      </trkpt>
      <trkpt lat="46.62331" lon="6.04344">
        <ele>921.5</ele>
        <time>2021-11-25T12:48:12Z</time>
      </trkpt>
      <trkpt lat="46.62327" lon="6.0434">
        <ele>921.2</ele>
        <time>2021-11-25T12:48:16Z</time>
      </trkpt>
      <trkpt lat="46.62323" lon="6.04335">
        <ele>920.7</ele>
        <time>2021-11-25T12:48:22Z</time>
      </trkpt>
      <trkpt lat="46.6232" lon="6.0433">
        <ele>920.5</ele>
        <time>2021-11-25T12:48:27Z</time>
      </trkpt>
      <trkpt lat="46.62316" lon="6.04327">
        <ele>921</ele>
        <time>2021-11-25T12:48:33Z</time>
      </trkpt>
      <trkpt lat="46.62313" lon="6.0432">
        <ele>921.5</ele>
        <time>2021-11-25T12:48:38Z</time>
      </trkpt>
      <trkpt lat="46.62312" lon="6.04312">
        <ele>921.2</ele>
        <time>2021-11-25T12:48:42Z</time>
      </trkpt>
      <trkpt lat="46.6231" lon="6.04305">
        <ele>920.4</ele>
        <time>2021-11-25T12:48:46Z</time>
      </trkpt>
      <trkpt lat="46.62307" lon="6.04298">
        <ele>920.2</ele>
        <time>2021-11-25T12:48:50Z</time>
      </trkpt>
      <trkpt lat="46.62305" lon="6.04291">
        <ele>920.8</ele>
        <time>2021-11-25T12:48:54Z</time>
      </trkpt>
      <trkpt lat="46.62302" lon="6.04283">
        <ele>921.1</ele>
        <time>2021-11-25T12:48:58Z</time>
      </trkpt>
      <trkpt lat="46.62299" lon="6.04278">
        <ele>921</ele>
        <time>2021-11-25T12:49:02Z</time>
      </trkpt>
      <trkpt lat="46.62295" lon="6.04272">
        <ele>922</ele>
        <time>2021-11-25T12:49:07Z</time>
      </trkpt>
      <trkpt lat="46.62293" lon="6.04265">
        <ele>923.8</ele>
        <time>2021-11-25T12:49:14Z</time>
      </trkpt>
      <trkpt lat="46.62292" lon="6.04259">
        <ele>924.6</ele>
        <time>2021-11-25T12:49:18Z</time>
      </trkpt>
      <trkpt lat="46.62293" lon="6.04251">
        <ele>925.2</ele>
        <time>2021-11-25T12:49:23Z</time>
      </trkpt>
      <trkpt lat="46.62292" lon="6.04244">
        <ele>925.3</ele>
        <time>2021-11-25T12:49:28Z</time>
      </trkpt>
      <trkpt lat="46.62292" lon="6.04237">
        <ele>925</ele>
        <time>2021-11-25T12:49:32Z</time>
      </trkpt>
      <trkpt lat="46.62291" lon="6.04229">
        <ele>924.6</ele>
        <time>2021-11-25T12:49:36Z</time>
      </trkpt>
      <trkpt lat="46.62291" lon="6.04223">
        <ele>924.1</ele>
        <time>2021-11-25T12:49:40Z</time>
      </trkpt>
      <trkpt lat="46.62288" lon="6.04217">
        <ele>923.8</ele>
        <time>2021-11-25T12:49:47Z</time>
      </trkpt>
      <trkpt lat="46.62284" lon="6.04213">
        <ele>922.9</ele>
        <time>2021-11-25T12:49:54Z</time>
      </trkpt>
      <trkpt lat="46.62283" lon="6.04207">
        <ele>921.6</ele>
        <time>2021-11-25T12:49:59Z</time>
      </trkpt>
      <trkpt lat="46.6228" lon="6.04202">
        <ele>920.6</ele>
        <time>2021-11-25T12:50:04Z</time>
      </trkpt>
      <trkpt lat="46.62276" lon="6.04198">
        <ele>918.6</ele>
        <time>2021-11-25T12:50:10Z</time>
      </trkpt>
      <trkpt lat="46.62273" lon="6.04192">
        <ele>916.8</ele>
        <time>2021-11-25T12:50:14Z</time>
      </trkpt>
      <trkpt lat="46.62268" lon="6.04188">
        <ele>915</ele>
        <time>2021-11-25T12:50:19Z</time>
      </trkpt>
      <trkpt lat="46.62264" lon="6.04185">
        <ele>913.8</ele>
        <time>2021-11-25T12:50:23Z</time>
      </trkpt>
      <trkpt lat="46.62259" lon="6.04181">
        <ele>913.2</ele>
        <time>2021-11-25T12:50:26Z</time>
      </trkpt>
      <trkpt lat="46.62256" lon="6.04176">
        <ele>912.9</ele>
        <time>2021-11-25T12:50:30Z</time>
      </trkpt>
      <trkpt lat="46.62251" lon="6.04174">
        <ele>912.5</ele>
        <time>2021-11-25T12:50:34Z</time>
      </trkpt>
      <trkpt lat="46.62245" lon="6.04175">
        <ele>910.4</ele>
        <time>2021-11-25T12:50:39Z</time>
      </trkpt>
      <trkpt lat="46.62241" lon="6.04177">
        <ele>908.1</ele>
        <time>2021-11-25T12:50:43Z</time>
      </trkpt>
      <trkpt lat="46.62237" lon="6.04181">
        <ele>906.2</ele>
        <time>2021-11-25T12:50:47Z</time>
      </trkpt>
      <trkpt lat="46.62232" lon="6.04184">
        <ele>904.2</ele>
        <time>2021-11-25T12:50:51Z</time>
      </trkpt>
      <trkpt lat="46.62228" lon="6.04184">
        <ele>902.9</ele>
        <time>2021-11-25T12:50:54Z</time>
      </trkpt>
      <trkpt lat="46.62223" lon="6.04184">
        <ele>901.7</ele>
        <time>2021-11-25T12:50:57Z</time>
      </trkpt>
      <trkpt lat="46.62218" lon="6.04184">
        <ele>901.1</ele>
        <time>2021-11-25T12:51:00Z</time>
      </trkpt>
      <trkpt lat="46.62213" lon="6.04182">
        <ele>901.2</ele>
        <time>2021-11-25T12:51:04Z</time>
      </trkpt>
      <trkpt lat="46.62208" lon="6.0418">
        <ele>903</ele>
        <time>2021-11-25T12:51:10Z</time>
      </trkpt>
      <trkpt lat="46.62205" lon="6.04174">
        <ele>904.1</ele>
        <time>2021-11-25T12:51:15Z</time>
      </trkpt>
      <trkpt lat="46.62202" lon="6.04169">
        <ele>906.3</ele>
        <time>2021-11-25T12:51:21Z</time>
      </trkpt>
      <trkpt lat="46.62199" lon="6.04163">
        <ele>908.4</ele>
        <time>2021-11-25T12:51:27Z</time>
      </trkpt>
      <trkpt lat="46.62195" lon="6.04157">
        <ele>910.6</ele>
        <time>2021-11-25T12:51:31Z</time>
      </trkpt>
      <trkpt lat="46.62193" lon="6.04151">
        <ele>914</ele>
        <time>2021-11-25T12:51:37Z</time>
      </trkpt>
      <trkpt lat="46.6219" lon="6.04146">
        <ele>915.9</ele>
        <time>2021-11-25T12:51:43Z</time>
      </trkpt>
      <trkpt lat="46.62184" lon="6.04145">
        <ele>916.6</ele>
        <time>2021-11-25T12:51:49Z</time>
      </trkpt>
      <trkpt lat="46.62179" lon="6.04142">
        <ele>917.7</ele>
        <time>2021-11-25T12:51:54Z</time>
      </trkpt>
      <trkpt lat="46.62175" lon="6.04137">
        <ele>918.3</ele>
        <time>2021-11-25T12:51:59Z</time>
      </trkpt>
      <trkpt lat="46.6217" lon="6.04136">
        <ele>918.9</ele>
        <time>2021-11-25T12:52:03Z</time>
      </trkpt>
      <trkpt lat="46.62164" lon="6.04135">
        <ele>919.7</ele>
        <time>2021-11-25T12:52:08Z</time>
      </trkpt>
      <trkpt lat="46.62159" lon="6.0413">
        <ele>920.9</ele>
        <time>2021-11-25T12:52:12Z</time>
      </trkpt>
      <trkpt lat="46.62155" lon="6.04125">
        <ele>922.6</ele>
        <time>2021-11-25T12:52:17Z</time>
      </trkpt>
      <trkpt lat="46.62152" lon="6.04119">
        <ele>924.6</ele>
        <time>2021-11-25T12:52:22Z</time>
      </trkpt>
      <trkpt lat="46.62148" lon="6.04114">
        <ele>926.9</ele>
        <time>2021-11-25T12:52:27Z</time>
      </trkpt>
      <trkpt lat="46.62145" lon="6.04107">
        <ele>928.7</ele>
        <time>2021-11-25T12:52:32Z</time>
      </trkpt>
      <trkpt lat="46.62142" lon="6.04103">
        <ele>929.4</ele>
        <time>2021-11-25T12:52:36Z</time>
      </trkpt>
      <trkpt lat="46.6214" lon="6.0411">
        <ele>926.8</ele>
        <time>2021-11-25T12:52:46Z</time>
      </trkpt>
      <trkpt lat="46.62137" lon="6.04115">
        <ele>925</ele>
        <time>2021-11-25T12:52:51Z</time>
      </trkpt>
      <trkpt lat="46.62141" lon="6.04112">
        <ele>923</ele>
        <time>2021-11-25T12:53:02Z</time>
      </trkpt>
      <trkpt lat="46.62139" lon="6.04105">
        <ele>923.6</ele>
        <time>2021-11-25T12:53:26Z</time>
      </trkpt>
      <trkpt lat="46.62134" lon="6.04102">
        <ele>925.1</ele>
        <time>2021-11-25T12:53:44Z</time>
      </trkpt>
      <trkpt lat="46.62131" lon="6.04095">
        <ele>925.1</ele>
        <time>2021-11-25T12:53:48Z</time>
      </trkpt>
      <trkpt lat="46.62131" lon="6.04087">
        <ele>925.4</ele>
        <time>2021-11-25T12:53:52Z</time>
      </trkpt>
      <trkpt lat="46.62127" lon="6.04082">
        <ele>925.4</ele>
        <time>2021-11-25T12:53:55Z</time>
      </trkpt>
      <trkpt lat="46.62125" lon="6.04076">
        <ele>925</ele>
        <time>2021-11-25T12:53:58Z</time>
      </trkpt>
      <trkpt lat="46.62125" lon="6.0407">
        <ele>924.5</ele>
        <time>2021-11-25T12:54:02Z</time>
      </trkpt>
      <trkpt lat="46.62123" lon="6.04063">
        <ele>922.8</ele>
        <time>2021-11-25T12:54:09Z</time>
      </trkpt>
      <trkpt lat="46.62121" lon="6.04055">
        <ele>921.3</ele>
        <time>2021-11-25T12:54:14Z</time>
      </trkpt>
      <trkpt lat="46.62118" lon="6.04048">
        <ele>920.1</ele>
        <time>2021-11-25T12:54:18Z</time>
      </trkpt>
      <trkpt lat="46.62116" lon="6.04041">
        <ele>919.1</ele>
        <time>2021-11-25T12:54:22Z</time>
      </trkpt>
      <trkpt lat="46.62115" lon="6.04035">
        <ele>917.1</ele>
        <time>2021-11-25T12:54:28Z</time>
      </trkpt>
      <trkpt lat="46.62112" lon="6.04029">
        <ele>915.9</ele>
        <time>2021-11-25T12:54:33Z</time>
      </trkpt>
      <trkpt lat="46.62109" lon="6.04023">
        <ele>915.5</ele>
        <time>2021-11-25T12:54:37Z</time>
      </trkpt>
      <trkpt lat="46.62108" lon="6.04016">
        <ele>915</ele>
        <time>2021-11-25T12:54:42Z</time>
      </trkpt>
      <trkpt lat="46.62109" lon="6.04009">
        <ele>915.4</ele>
        <time>2021-11-25T12:54:47Z</time>
      </trkpt>
      <trkpt lat="46.62105" lon="6.04005">
        <ele>915.7</ele>
        <time>2021-11-25T12:54:51Z</time>
      </trkpt>
      <trkpt lat="46.62101" lon="6.04001">
        <ele>916</ele>
        <time>2021-11-25T12:54:56Z</time>
      </trkpt>
      <trkpt lat="46.62097" lon="6.03996">
        <ele>915.5</ele>
        <time>2021-11-25T12:55:01Z</time>
      </trkpt>
      <trkpt lat="46.62092" lon="6.03992">
        <ele>915.2</ele>
        <time>2021-11-25T12:55:05Z</time>
      </trkpt>
      <trkpt lat="46.62089" lon="6.03987">
        <ele>915.2</ele>
        <time>2021-11-25T12:55:11Z</time>
      </trkpt>
      <trkpt lat="46.62086" lon="6.0398">
        <ele>915.4</ele>
        <time>2021-11-25T12:55:16Z</time>
      </trkpt>
      <trkpt lat="46.62082" lon="6.03976">
        <ele>915.8</ele>
        <time>2021-11-25T12:55:21Z</time>
      </trkpt>
      <trkpt lat="46.62078" lon="6.03972">
        <ele>915.9</ele>
        <time>2021-11-25T12:55:27Z</time>
      </trkpt>
      <trkpt lat="46.62074" lon="6.0397">
        <ele>915.7</ele>
        <time>2021-11-25T12:55:32Z</time>
      </trkpt>
      <trkpt lat="46.6207" lon="6.03964">
        <ele>915.6</ele>
        <time>2021-11-25T12:55:37Z</time>
      </trkpt>
      <trkpt lat="46.62068" lon="6.03958">
        <ele>916.4</ele>
        <time>2021-11-25T12:55:42Z</time>
      </trkpt>
      <trkpt lat="46.62066" lon="6.0395">
        <ele>918.1</ele>
        <time>2021-11-25T12:55:47Z</time>
      </trkpt>
      <trkpt lat="46.62063" lon="6.03944">
        <ele>919.8</ele>
        <time>2021-11-25T12:55:52Z</time>
      </trkpt>
      <trkpt lat="46.62063" lon="6.03936">
        <ele>921.1</ele>
        <time>2021-11-25T12:55:58Z</time>
      </trkpt>
      <trkpt lat="46.62063" lon="6.0393">
        <ele>921.9</ele>
        <time>2021-11-25T12:56:02Z</time>
      </trkpt>
      <trkpt lat="46.62063" lon="6.03923">
        <ele>922.7</ele>
        <time>2021-11-25T12:56:07Z</time>
      </trkpt>
      <trkpt lat="46.62062" lon="6.03916">
        <ele>924.1</ele>
        <time>2021-11-25T12:56:12Z</time>
      </trkpt>
      <trkpt lat="46.62063" lon="6.03908">
        <ele>925.6</ele>
        <time>2021-11-25T12:56:18Z</time>
      </trkpt>
      <trkpt lat="46.62062" lon="6.03901">
        <ele>925.9</ele>
        <time>2021-11-25T12:56:22Z</time>
      </trkpt>
      <trkpt lat="46.62061" lon="6.03895">
        <ele>926.1</ele>
        <time>2021-11-25T12:56:26Z</time>
      </trkpt>
      <trkpt lat="46.62059" lon="6.03888">
        <ele>926.1</ele>
        <time>2021-11-25T12:56:31Z</time>
      </trkpt>
      <trkpt lat="46.62056" lon="6.03883">
        <ele>926.2</ele>
        <time>2021-11-25T12:56:37Z</time>
      </trkpt>
      <trkpt lat="46.62051" lon="6.03879">
        <ele>926.2</ele>
        <time>2021-11-25T12:56:43Z</time>
      </trkpt>
      <trkpt lat="46.62046" lon="6.03878">
        <ele>925.3</ele>
        <time>2021-11-25T12:56:48Z</time>
      </trkpt>
      <trkpt lat="46.62041" lon="6.03876">
        <ele>923.6</ele>
        <time>2021-11-25T12:56:53Z</time>
      </trkpt>
      <trkpt lat="46.62037" lon="6.03873">
        <ele>921</ele>
        <time>2021-11-25T12:56:58Z</time>
      </trkpt>
      <trkpt lat="46.62032" lon="6.0387">
        <ele>919.3</ele>
        <time>2021-11-25T12:57:02Z</time>
      </trkpt>
      <trkpt lat="46.62028" lon="6.03867">
        <ele>917.4</ele>
        <time>2021-11-25T12:57:06Z</time>
      </trkpt>
      <trkpt lat="46.62024" lon="6.03861">
        <ele>915.1</ele>
        <time>2021-11-25T12:57:11Z</time>
      </trkpt>
      <trkpt lat="46.62021" lon="6.03856">
        <ele>913.2</ele>
        <time>2021-11-25T12:57:18Z</time>
      </trkpt>
      <trkpt lat="46.62016" lon="6.03852">
        <ele>912.1</ele>
        <time>2021-11-25T12:57:23Z</time>
      </trkpt>
      <trkpt lat="46.62013" lon="6.03848">
        <ele>911.1</ele>
        <time>2021-11-25T12:57:27Z</time>
      </trkpt>
      <trkpt lat="46.62009" lon="6.03844">
        <ele>910.6</ele>
        <time>2021-11-25T12:57:31Z</time>
      </trkpt>
      <trkpt lat="46.62005" lon="6.03839">
        <ele>910.2</ele>
        <time>2021-11-25T12:57:36Z</time>
      </trkpt>
      <trkpt lat="46.62001" lon="6.03833">
        <ele>909.3</ele>
        <time>2021-11-25T12:57:42Z</time>
      </trkpt>
      <trkpt lat="46.61998" lon="6.03828">
        <ele>909.1</ele>
        <time>2021-11-25T12:57:46Z</time>
      </trkpt>
      <trkpt lat="46.61994" lon="6.03824">
        <ele>908.9</ele>
        <time>2021-11-25T12:57:50Z</time>
      </trkpt>
      <trkpt lat="46.6199" lon="6.03822">
        <ele>909.3</ele>
        <time>2021-11-25T12:57:54Z</time>
      </trkpt>
      <trkpt lat="46.61987" lon="6.03816">
        <ele>910.4</ele>
        <time>2021-11-25T12:58:00Z</time>
      </trkpt>
      <trkpt lat="46.61984" lon="6.03811">
        <ele>911.9</ele>
        <time>2021-11-25T12:58:05Z</time>
      </trkpt>
      <trkpt lat="46.6198" lon="6.03805">
        <ele>912.9</ele>
        <time>2021-11-25T12:58:09Z</time>
      </trkpt>
      <trkpt lat="46.61977" lon="6.03799">
        <ele>913.9</ele>
        <time>2021-11-25T12:58:13Z</time>
      </trkpt>
      <trkpt lat="46.61972" lon="6.03796">
        <ele>914.7</ele>
        <time>2021-11-25T12:58:19Z</time>
      </trkpt>
      <trkpt lat="46.61969" lon="6.03792">
        <ele>915.1</ele>
        <time>2021-11-25T12:58:24Z</time>
      </trkpt>
      <trkpt lat="46.61965" lon="6.03787">
        <ele>915.2</ele>
        <time>2021-11-25T12:58:27Z</time>
      </trkpt>
      <trkpt lat="46.6196" lon="6.03783">
        <ele>915.5</ele>
        <time>2021-11-25T12:58:31Z</time>
      </trkpt>
      <trkpt lat="46.61956" lon="6.03778">
        <ele>916.3</ele>
        <time>2021-11-25T12:58:37Z</time>
      </trkpt>
      <trkpt lat="46.61952" lon="6.03773">
        <ele>917.1</ele>
        <time>2021-11-25T12:58:42Z</time>
      </trkpt>
      <trkpt lat="46.61948" lon="6.03769">
        <ele>917.7</ele>
        <time>2021-11-25T12:58:46Z</time>
      </trkpt>
      <trkpt lat="46.61943" lon="6.03766">
        <ele>917.8</ele>
        <time>2021-11-25T12:58:51Z</time>
      </trkpt>
      <trkpt lat="46.61939" lon="6.03762">
        <ele>918.7</ele>
        <time>2021-11-25T12:58:56Z</time>
      </trkpt>
      <trkpt lat="46.61935" lon="6.03759">
        <ele>919.3</ele>
        <time>2021-11-25T12:59:00Z</time>
      </trkpt>
      <trkpt lat="46.6193" lon="6.03757">
        <ele>919.8</ele>
        <time>2021-11-25T12:59:04Z</time>
      </trkpt>
      <trkpt lat="46.61925" lon="6.03754">
        <ele>920.5</ele>
        <time>2021-11-25T12:59:09Z</time>
      </trkpt>
      <trkpt lat="46.61921" lon="6.03751">
        <ele>921.2</ele>
        <time>2021-11-25T12:59:14Z</time>
      </trkpt>
      <trkpt lat="46.61917" lon="6.03747">
        <ele>921.5</ele>
        <time>2021-11-25T12:59:20Z</time>
      </trkpt>
      <trkpt lat="46.61913" lon="6.03742">
        <ele>922.4</ele>
        <time>2021-11-25T12:59:25Z</time>
      </trkpt>
      <trkpt lat="46.6191" lon="6.03736">
        <ele>922.8</ele>
        <time>2021-11-25T12:59:29Z</time>
      </trkpt>
      <trkpt lat="46.61906" lon="6.0373">
        <ele>922.6</ele>
        <time>2021-11-25T12:59:33Z</time>
      </trkpt>
      <trkpt lat="46.61901" lon="6.03728">
        <ele>922.4</ele>
        <time>2021-11-25T12:59:38Z</time>
      </trkpt>
      <trkpt lat="46.61896" lon="6.03725">
        <ele>923.3</ele>
        <time>2021-11-25T12:59:43Z</time>
      </trkpt>
      <trkpt lat="46.61891" lon="6.03723">
        <ele>924.6</ele>
        <time>2021-11-25T12:59:47Z</time>
      </trkpt>
      <trkpt lat="46.61887" lon="6.03718">
        <ele>926.1</ele>
        <time>2021-11-25T12:59:52Z</time>
      </trkpt>
      <trkpt lat="46.61885" lon="6.03711">
        <ele>926.8</ele>
        <time>2021-11-25T12:59:57Z</time>
      </trkpt>
      <trkpt lat="46.61883" lon="6.03704">
        <ele>926.7</ele>
        <time>2021-11-25T13:00:02Z</time>
      </trkpt>
      <trkpt lat="46.61882" lon="6.03697">
        <ele>926.9</ele>
        <time>2021-11-25T13:00:07Z</time>
      </trkpt>
      <trkpt lat="46.61879" lon="6.03692">
        <ele>927.3</ele>
        <time>2021-11-25T13:00:12Z</time>
      </trkpt>
      <trkpt lat="46.61875" lon="6.0369">
        <ele>928.2</ele>
        <time>2021-11-25T13:00:17Z</time>
      </trkpt>
      <trkpt lat="46.6187" lon="6.03687">
        <ele>929.1</ele>
        <time>2021-11-25T13:00:22Z</time>
      </trkpt>
      <trkpt lat="46.61867" lon="6.03679">
        <ele>931</ele>
        <time>2021-11-25T13:00:27Z</time>
      </trkpt>
      <trkpt lat="46.61866" lon="6.03672">
        <ele>932.7</ele>
        <time>2021-11-25T13:00:31Z</time>
      </trkpt>
      <trkpt lat="46.61865" lon="6.03664">
        <ele>934</ele>
        <time>2021-11-25T13:00:35Z</time>
      </trkpt>
      <trkpt lat="46.61865" lon="6.03658">
        <ele>934.6</ele>
        <time>2021-11-25T13:00:39Z</time>
      </trkpt>
      <trkpt lat="46.61864" lon="6.03651">
        <ele>935.2</ele>
        <time>2021-11-25T13:00:42Z</time>
      </trkpt>
      <trkpt lat="46.61866" lon="6.03643">
        <ele>935.6</ele>
        <time>2021-11-25T13:00:46Z</time>
      </trkpt>
      <trkpt lat="46.61866" lon="6.03637">
        <ele>935.9</ele>
        <time>2021-11-25T13:00:51Z</time>
      </trkpt>
      <trkpt lat="46.61862" lon="6.03632">
        <ele>935.8</ele>
        <time>2021-11-25T13:01:00Z</time>
      </trkpt>
      <trkpt lat="46.61859" lon="6.03627">
        <ele>936.5</ele>
        <time>2021-11-25T13:01:07Z</time>
      </trkpt>
      <trkpt lat="46.61857" lon="6.0362">
        <ele>936.9</ele>
        <time>2021-11-25T13:01:11Z</time>
      </trkpt>
      <trkpt lat="46.61855" lon="6.03614">
        <ele>937.6</ele>
        <time>2021-11-25T13:01:20Z</time>
      </trkpt>
      <trkpt lat="46.61852" lon="6.03609">
        <ele>937.9</ele>
        <time>2021-11-25T13:01:24Z</time>
      </trkpt>
      <trkpt lat="46.61849" lon="6.03603">
        <ele>938.1</ele>
        <time>2021-11-25T13:01:28Z</time>
      </trkpt>
      <trkpt lat="46.61847" lon="6.03596">
        <ele>937.6</ele>
        <time>2021-11-25T13:01:33Z</time>
      </trkpt>
      <trkpt lat="46.61844" lon="6.03589">
        <ele>936.5</ele>
        <time>2021-11-25T13:01:37Z</time>
      </trkpt>
      <trkpt lat="46.61841" lon="6.03584">
        <ele>935.2</ele>
        <time>2021-11-25T13:01:41Z</time>
      </trkpt>
      <trkpt lat="46.61839" lon="6.03578">
        <ele>933.8</ele>
        <time>2021-11-25T13:01:46Z</time>
      </trkpt>
      <trkpt lat="46.61836" lon="6.03573">
        <ele>933.3</ele>
        <time>2021-11-25T13:01:50Z</time>
      </trkpt>
      <trkpt lat="46.61831" lon="6.0357">
        <ele>933.4</ele>
        <time>2021-11-25T13:01:54Z</time>
      </trkpt>
      <trkpt lat="46.61827" lon="6.03568">
        <ele>933.8</ele>
        <time>2021-11-25T13:01:58Z</time>
      </trkpt>
      <trkpt lat="46.61822" lon="6.03566">
        <ele>934.1</ele>
        <time>2021-11-25T13:02:04Z</time>
      </trkpt>
      <trkpt lat="46.61821" lon="6.03559">
        <ele>934.1</ele>
        <time>2021-11-25T13:02:10Z</time>
      </trkpt>
      <trkpt lat="46.61819" lon="6.03553">
        <ele>933.4</ele>
        <time>2021-11-25T13:02:15Z</time>
      </trkpt>
      <trkpt lat="46.61815" lon="6.03548">
        <ele>932.4</ele>
        <time>2021-11-25T13:02:19Z</time>
      </trkpt>
      <trkpt lat="46.61811" lon="6.03544">
        <ele>931.5</ele>
        <time>2021-11-25T13:02:23Z</time>
      </trkpt>
      <trkpt lat="46.61806" lon="6.03543">
        <ele>931.1</ele>
        <time>2021-11-25T13:02:28Z</time>
      </trkpt>
      <trkpt lat="46.61801" lon="6.03543">
        <ele>931.3</ele>
        <time>2021-11-25T13:02:32Z</time>
      </trkpt>
      <trkpt lat="46.61796" lon="6.03542">
        <ele>931.6</ele>
        <time>2021-11-25T13:02:36Z</time>
      </trkpt>
      <trkpt lat="46.61792" lon="6.0354">
        <ele>932.7</ele>
        <time>2021-11-25T13:02:41Z</time>
      </trkpt>
      <trkpt lat="46.61788" lon="6.03535">
        <ele>933.8</ele>
        <time>2021-11-25T13:02:46Z</time>
      </trkpt>
      <trkpt lat="46.61784" lon="6.0353">
        <ele>934.5</ele>
        <time>2021-11-25T13:02:51Z</time>
      </trkpt>
      <trkpt lat="46.61781" lon="6.03525">
        <ele>935.8</ele>
        <time>2021-11-25T13:02:57Z</time>
      </trkpt>
      <trkpt lat="46.61777" lon="6.0352">
        <ele>936.3</ele>
        <time>2021-11-25T13:03:01Z</time>
      </trkpt>
      <trkpt lat="46.61773" lon="6.03515">
        <ele>937.2</ele>
        <time>2021-11-25T13:03:06Z</time>
      </trkpt>
      <trkpt lat="46.61772" lon="6.03507">
        <ele>936.9</ele>
        <time>2021-11-25T13:03:11Z</time>
      </trkpt>
      <trkpt lat="46.61772" lon="6.03501">
        <ele>936.4</ele>
        <time>2021-11-25T13:03:15Z</time>
      </trkpt>
      <trkpt lat="46.6177" lon="6.03493">
        <ele>934.9</ele>
        <time>2021-11-25T13:03:23Z</time>
      </trkpt>
      <trkpt lat="46.61765" lon="6.03488">
        <ele>934</ele>
        <time>2021-11-25T13:03:28Z</time>
      </trkpt>
      <trkpt lat="46.61762" lon="6.03483">
        <ele>933.8</ele>
        <time>2021-11-25T13:03:31Z</time>
      </trkpt>
      <trkpt lat="46.61758" lon="6.03478">
        <ele>933.8</ele>
        <time>2021-11-25T13:03:34Z</time>
      </trkpt>
      <trkpt lat="46.61755" lon="6.03472">
        <ele>934.3</ele>
        <time>2021-11-25T13:03:39Z</time>
      </trkpt>
      <trkpt lat="46.61753" lon="6.03465">
        <ele>935.5</ele>
        <time>2021-11-25T13:03:44Z</time>
      </trkpt>
      <trkpt lat="46.61752" lon="6.03459">
        <ele>936.2</ele>
        <time>2021-11-25T13:03:47Z</time>
      </trkpt>
      <trkpt lat="46.6175" lon="6.03452">
        <ele>936.6</ele>
        <time>2021-11-25T13:03:51Z</time>
      </trkpt>
      <trkpt lat="46.61748" lon="6.03446">
        <ele>935.9</ele>
        <time>2021-11-25T13:03:55Z</time>
      </trkpt>
      <trkpt lat="46.61744" lon="6.03441">
        <ele>934.8</ele>
        <time>2021-11-25T13:04:00Z</time>
      </trkpt>
      <trkpt lat="46.6174" lon="6.03443">
        <ele>933</ele>
        <time>2021-11-25T13:04:06Z</time>
      </trkpt>
      <trkpt lat="46.61738" lon="6.03435">
        <ele>931.1</ele>
        <time>2021-11-25T13:04:22Z</time>
      </trkpt>
      <trkpt lat="46.61733" lon="6.03436">
        <ele>930.3</ele>
        <time>2021-11-25T13:04:26Z</time>
      </trkpt>
      <trkpt lat="46.61729" lon="6.03435">
        <ele>929.5</ele>
        <time>2021-11-25T13:04:30Z</time>
      </trkpt>
      <trkpt lat="46.61724" lon="6.03434">
        <ele>928.6</ele>
        <time>2021-11-25T13:04:35Z</time>
      </trkpt>
      <trkpt lat="46.61719" lon="6.03429">
        <ele>928.1</ele>
        <time>2021-11-25T13:04:40Z</time>
      </trkpt>
      <trkpt lat="46.61716" lon="6.03424">
        <ele>927.9</ele>
        <time>2021-11-25T13:04:44Z</time>
      </trkpt>
      <trkpt lat="46.61713" lon="6.03419">
        <ele>927.7</ele>
        <time>2021-11-25T13:04:53Z</time>
      </trkpt>
      <trkpt lat="46.61709" lon="6.03416">
        <ele>927.8</ele>
        <time>2021-11-25T13:05:01Z</time>
      </trkpt>
      <trkpt lat="46.61707" lon="6.0341">
        <ele>927.8</ele>
        <time>2021-11-25T13:05:06Z</time>
      </trkpt>
      <trkpt lat="46.61704" lon="6.03403">
        <ele>927.7</ele>
        <time>2021-11-25T13:05:10Z</time>
      </trkpt>
      <trkpt lat="46.61702" lon="6.03397">
        <ele>927.4</ele>
        <time>2021-11-25T13:05:14Z</time>
      </trkpt>
      <trkpt lat="46.61698" lon="6.03392">
        <ele>926.1</ele>
        <time>2021-11-25T13:05:19Z</time>
      </trkpt>
      <trkpt lat="46.61694" lon="6.03387">
        <ele>924.6</ele>
        <time>2021-11-25T13:05:24Z</time>
      </trkpt>
      <trkpt lat="46.6169" lon="6.03382">
        <ele>923.4</ele>
        <time>2021-11-25T13:05:29Z</time>
      </trkpt>
      <trkpt lat="46.61686" lon="6.03379">
        <ele>922.7</ele>
        <time>2021-11-25T13:05:35Z</time>
      </trkpt>
      <trkpt lat="46.61683" lon="6.03375">
        <ele>922.2</ele>
        <time>2021-11-25T13:05:39Z</time>
      </trkpt>
      <trkpt lat="46.61678" lon="6.0337">
        <ele>921.6</ele>
        <time>2021-11-25T13:05:43Z</time>
      </trkpt>
      <trkpt lat="46.61674" lon="6.03366">
        <ele>920.9</ele>
        <time>2021-11-25T13:05:48Z</time>
      </trkpt>
      <trkpt lat="46.6167" lon="6.03363">
        <ele>920.5</ele>
        <time>2021-11-25T13:05:55Z</time>
      </trkpt>
      <trkpt lat="46.61665" lon="6.0336">
        <ele>921.6</ele>
        <time>2021-11-25T13:06:02Z</time>
      </trkpt>
      <trkpt lat="46.61662" lon="6.03355">
        <ele>923.3</ele>
        <time>2021-11-25T13:06:07Z</time>
      </trkpt>
      <trkpt lat="46.61658" lon="6.03348">
        <ele>924.5</ele>
        <time>2021-11-25T13:06:11Z</time>
      </trkpt>
      <trkpt lat="46.61654" lon="6.03345">
        <ele>926.5</ele>
        <time>2021-11-25T13:06:17Z</time>
      </trkpt>
      <trkpt lat="46.61651" lon="6.0334">
        <ele>927.8</ele>
        <time>2021-11-25T13:06:23Z</time>
      </trkpt>
      <trkpt lat="46.61652" lon="6.03334">
        <ele>927.6</ele>
        <time>2021-11-25T13:06:30Z</time>
      </trkpt>
      <trkpt lat="46.61652" lon="6.03327">
        <ele>927.5</ele>
        <time>2021-11-25T13:06:37Z</time>
      </trkpt>
      <trkpt lat="46.61649" lon="6.0332">
        <ele>927.4</ele>
        <time>2021-11-25T13:06:43Z</time>
      </trkpt>
      <trkpt lat="46.61645" lon="6.03314">
        <ele>927</ele>
        <time>2021-11-25T13:06:49Z</time>
      </trkpt>
      <trkpt lat="46.61643" lon="6.03307">
        <ele>926.8</ele>
        <time>2021-11-25T13:06:54Z</time>
      </trkpt>
      <trkpt lat="46.61642" lon="6.03299">
        <ele>926.4</ele>
        <time>2021-11-25T13:06:58Z</time>
      </trkpt>
      <trkpt lat="46.61638" lon="6.03294">
        <ele>926.3</ele>
        <time>2021-11-25T13:07:03Z</time>
      </trkpt>
      <trkpt lat="46.61635" lon="6.03289">
        <ele>926.6</ele>
        <time>2021-11-25T13:07:08Z</time>
      </trkpt>
      <trkpt lat="46.61629" lon="6.03286">
        <ele>927.1</ele>
        <time>2021-11-25T13:07:19Z</time>
      </trkpt>
      <trkpt lat="46.61625" lon="6.03283">
        <ele>927.8</ele>
        <time>2021-11-25T13:07:25Z</time>
      </trkpt>
      <trkpt lat="46.61621" lon="6.03278">
        <ele>928.7</ele>
        <time>2021-11-25T13:07:33Z</time>
      </trkpt>
      <trkpt lat="46.61619" lon="6.03272">
        <ele>928.2</ele>
        <time>2021-11-25T13:07:41Z</time>
      </trkpt>
      <trkpt lat="46.61617" lon="6.03266">
        <ele>928.1</ele>
        <time>2021-11-25T13:07:47Z</time>
      </trkpt>
      <trkpt lat="46.61615" lon="6.03259">
        <ele>927.4</ele>
        <time>2021-11-25T13:08:00Z</time>
      </trkpt>
      <trkpt lat="46.61613" lon="6.03253">
        <ele>927.4</ele>
        <time>2021-11-25T13:08:07Z</time>
      </trkpt>
      <trkpt lat="46.61609" lon="6.03247">
        <ele>927.2</ele>
        <time>2021-11-25T13:08:14Z</time>
      </trkpt>
      <trkpt lat="46.61606" lon="6.03242">
        <ele>927.2</ele>
        <time>2021-11-25T13:08:19Z</time>
      </trkpt>
      <trkpt lat="46.61602" lon="6.03239">
        <ele>927.4</ele>
        <time>2021-11-25T13:08:24Z</time>
      </trkpt>
      <trkpt lat="46.61597" lon="6.03237">
        <ele>927.6</ele>
        <time>2021-11-25T13:08:30Z</time>
      </trkpt>
      <trkpt lat="46.61592" lon="6.03233">
        <ele>927.3</ele>
        <time>2021-11-25T13:08:35Z</time>
      </trkpt>
      <trkpt lat="46.61592" lon="6.03226">
        <ele>927</ele>
        <time>2021-11-25T13:08:42Z</time>
      </trkpt>
      <trkpt lat="46.61591" lon="6.0322">
        <ele>927.9</ele>
        <time>2021-11-25T13:08:46Z</time>
      </trkpt>
      <trkpt lat="46.61589" lon="6.03214">
        <ele>929</ele>
        <time>2021-11-25T13:08:50Z</time>
      </trkpt>
      <trkpt lat="46.61584" lon="6.03211">
        <ele>930.7</ele>
        <time>2021-11-25T13:08:57Z</time>
      </trkpt>
      <trkpt lat="46.6158" lon="6.03206">
        <ele>933.1</ele>
        <time>2021-11-25T13:09:05Z</time>
      </trkpt>
      <trkpt lat="46.61576" lon="6.03202">
        <ele>934.8</ele>
        <time>2021-11-25T13:09:10Z</time>
      </trkpt>
      <trkpt lat="46.61573" lon="6.03195">
        <ele>936.3</ele>
        <time>2021-11-25T13:09:15Z</time>
      </trkpt>
      <trkpt lat="46.6157" lon="6.03188">
        <ele>938.3</ele>
        <time>2021-11-25T13:09:20Z</time>
      </trkpt>
      <trkpt lat="46.61567" lon="6.03183">
        <ele>940.4</ele>
        <time>2021-11-25T13:09:27Z</time>
      </trkpt>
      <trkpt lat="46.61563" lon="6.03179">
        <ele>941.2</ele>
        <time>2021-11-25T13:09:32Z</time>
      </trkpt>
      <trkpt lat="46.61562" lon="6.03171">
        <ele>940.5</ele>
        <time>2021-11-25T13:09:37Z</time>
      </trkpt>
      <trkpt lat="46.6156" lon="6.03164">
        <ele>939.8</ele>
        <time>2021-11-25T13:09:41Z</time>
      </trkpt>
      <trkpt lat="46.61557" lon="6.03159">
        <ele>939</ele>
        <time>2021-11-25T13:09:47Z</time>
      </trkpt>
      <trkpt lat="46.61553" lon="6.03154">
        <ele>938.1</ele>
        <time>2021-11-25T13:09:54Z</time>
      </trkpt>
      <trkpt lat="46.61553" lon="6.03146">
        <ele>939.6</ele>
        <time>2021-11-25T13:10:06Z</time>
      </trkpt>
      <trkpt lat="46.61552" lon="6.03139">
        <ele>945.2</ele>
        <time>2021-11-25T13:10:30Z</time>
      </trkpt>
      <trkpt lat="46.61549" lon="6.03132">
        <ele>946.1</ele>
        <time>2021-11-25T13:10:34Z</time>
      </trkpt>
      <trkpt lat="46.61545" lon="6.03129">
        <ele>946.5</ele>
        <time>2021-11-25T13:10:47Z</time>
      </trkpt>
      <trkpt lat="46.61541" lon="6.03125">
        <ele>946.4</ele>
        <time>2021-11-25T13:10:52Z</time>
      </trkpt>
      <trkpt lat="46.61536" lon="6.03125">
        <ele>946.7</ele>
        <time>2021-11-25T13:10:57Z</time>
      </trkpt>
      <trkpt lat="46.61531" lon="6.03121">
        <ele>947.8</ele>
        <time>2021-11-25T13:11:02Z</time>
      </trkpt>
      <trkpt lat="46.61528" lon="6.03116">
        <ele>949.1</ele>
        <time>2021-11-25T13:11:10Z</time>
      </trkpt>
      <trkpt lat="46.61527" lon="6.03109">
        <ele>949.9</ele>
        <time>2021-11-25T13:11:17Z</time>
      </trkpt>
      <trkpt lat="46.61524" lon="6.03103">
        <ele>950.1</ele>
        <time>2021-11-25T13:11:26Z</time>
      </trkpt>
      <trkpt lat="46.6152" lon="6.03101">
        <ele>947.7</ele>
        <time>2021-11-25T13:11:37Z</time>
      </trkpt>
      <trkpt lat="46.61515" lon="6.03098">
        <ele>948.1</ele>
        <time>2021-11-25T13:11:48Z</time>
      </trkpt>
      <trkpt lat="46.61509" lon="6.03094">
        <ele>948.7</ele>
        <time>2021-11-25T13:11:53Z</time>
      </trkpt>
      <trkpt lat="46.61506" lon="6.03087">
        <ele>949</ele>
        <time>2021-11-25T13:11:57Z</time>
      </trkpt>
      <trkpt lat="46.61504" lon="6.03081">
        <ele>949.2</ele>
        <time>2021-11-25T13:12:00Z</time>
      </trkpt>
      <trkpt lat="46.61501" lon="6.03075">
        <ele>949.3</ele>
        <time>2021-11-25T13:12:05Z</time>
      </trkpt>
      <trkpt lat="46.61498" lon="6.03068">
        <ele>949.5</ele>
        <time>2021-11-25T13:12:13Z</time>
      </trkpt>
      <trkpt lat="46.61494" lon="6.03063">
        <ele>950</ele>
        <time>2021-11-25T13:12:18Z</time>
      </trkpt>
      <trkpt lat="46.61489" lon="6.0306">
        <ele>950.1</ele>
        <time>2021-11-25T13:12:24Z</time>
      </trkpt>
      <trkpt lat="46.61484" lon="6.0306">
        <ele>949.9</ele>
        <time>2021-11-25T13:12:28Z</time>
      </trkpt>
      <trkpt lat="46.6148" lon="6.03058">
        <ele>949.6</ele>
        <time>2021-11-25T13:12:33Z</time>
      </trkpt>
      <trkpt lat="46.61475" lon="6.03056">
        <ele>948.9</ele>
        <time>2021-11-25T13:12:39Z</time>
      </trkpt>
      <trkpt lat="46.61472" lon="6.0305">
        <ele>947.6</ele>
        <time>2021-11-25T13:12:45Z</time>
      </trkpt>
      <trkpt lat="46.61469" lon="6.03044">
        <ele>946.4</ele>
        <time>2021-11-25T13:12:50Z</time>
      </trkpt>
      <trkpt lat="46.61468" lon="6.03037">
        <ele>945.5</ele>
        <time>2021-11-25T13:12:54Z</time>
      </trkpt>
      <trkpt lat="46.61466" lon="6.0303">
        <ele>944.8</ele>
        <time>2021-11-25T13:12:58Z</time>
      </trkpt>
      <trkpt lat="46.61466" lon="6.03022">
        <ele>944.8</ele>
        <time>2021-11-25T13:13:03Z</time>
      </trkpt>
      <trkpt lat="46.61463" lon="6.03014">
        <ele>944.7</ele>
        <time>2021-11-25T13:13:08Z</time>
      </trkpt>
      <trkpt lat="46.6146" lon="6.03009">
        <ele>944.7</ele>
        <time>2021-11-25T13:13:14Z</time>
      </trkpt>
      <trkpt lat="46.61458" lon="6.03002">
        <ele>944.3</ele>
        <time>2021-11-25T13:13:18Z</time>
      </trkpt>
      <trkpt lat="46.61456" lon="6.02996">
        <ele>943.9</ele>
        <time>2021-11-25T13:13:21Z</time>
      </trkpt>
      <trkpt lat="46.61453" lon="6.02989">
        <ele>943</ele>
        <time>2021-11-25T13:13:25Z</time>
      </trkpt>
      <trkpt lat="46.61448" lon="6.02984">
        <ele>942</ele>
        <time>2021-11-25T13:13:29Z</time>
      </trkpt>
      <trkpt lat="46.61444" lon="6.02981">
        <ele>940.8</ele>
        <time>2021-11-25T13:13:34Z</time>
      </trkpt>
      <trkpt lat="46.6144" lon="6.02977">
        <ele>939.5</ele>
        <time>2021-11-25T13:13:39Z</time>
      </trkpt>
      <trkpt lat="46.61436" lon="6.02972">
        <ele>938.6</ele>
        <time>2021-11-25T13:13:43Z</time>
      </trkpt>
      <trkpt lat="46.61432" lon="6.02967">
        <ele>937.1</ele>
        <time>2021-11-25T13:13:48Z</time>
      </trkpt>
      <trkpt lat="46.61428" lon="6.02963">
        <ele>935.8</ele>
        <time>2021-11-25T13:13:53Z</time>
      </trkpt>
      <trkpt lat="46.61424" lon="6.02959">
        <ele>934.9</ele>
        <time>2021-11-25T13:13:59Z</time>
      </trkpt>
      <trkpt lat="46.61421" lon="6.02953">
        <ele>934.8</ele>
        <time>2021-11-25T13:14:05Z</time>
      </trkpt>
      <trkpt lat="46.61416" lon="6.0295">
        <ele>934.9</ele>
        <time>2021-11-25T13:14:10Z</time>
      </trkpt>
      <trkpt lat="46.61412" lon="6.02947">
        <ele>934.7</ele>
        <time>2021-11-25T13:14:15Z</time>
      </trkpt>
      <trkpt lat="46.61408" lon="6.02944">
        <ele>934.2</ele>
        <time>2021-11-25T13:14:20Z</time>
      </trkpt>
      <trkpt lat="46.61404" lon="6.02939">
        <ele>933.9</ele>
        <time>2021-11-25T13:14:25Z</time>
      </trkpt>
      <trkpt lat="46.61401" lon="6.02933">
        <ele>933.9</ele>
        <time>2021-11-25T13:14:30Z</time>
      </trkpt>
      <trkpt lat="46.61399" lon="6.02927">
        <ele>934</ele>
        <time>2021-11-25T13:14:34Z</time>
      </trkpt>
      <trkpt lat="46.61397" lon="6.02919">
        <ele>934.3</ele>
        <time>2021-11-25T13:14:38Z</time>
      </trkpt>
      <trkpt lat="46.61395" lon="6.02912">
        <ele>934.8</ele>
        <time>2021-11-25T13:14:42Z</time>
      </trkpt>
      <trkpt lat="46.61393" lon="6.02904">
        <ele>935.2</ele>
        <time>2021-11-25T13:14:46Z</time>
      </trkpt>
      <trkpt lat="46.61391" lon="6.02897">
        <ele>935.5</ele>
        <time>2021-11-25T13:14:49Z</time>
      </trkpt>
      <trkpt lat="46.61389" lon="6.0289">
        <ele>935.8</ele>
        <time>2021-11-25T13:14:52Z</time>
      </trkpt>
      <trkpt lat="46.61388" lon="6.02884">
        <ele>936.1</ele>
        <time>2021-11-25T13:14:55Z</time>
      </trkpt>
      <trkpt lat="46.61387" lon="6.02877">
        <ele>936.8</ele>
        <time>2021-11-25T13:15:00Z</time>
      </trkpt>
      <trkpt lat="46.61384" lon="6.02872">
        <ele>938</ele>
        <time>2021-11-25T13:15:08Z</time>
      </trkpt>
      <trkpt lat="46.6138" lon="6.02867">
        <ele>938.8</ele>
        <time>2021-11-25T13:15:16Z</time>
      </trkpt>
      <trkpt lat="46.61377" lon="6.02861">
        <ele>938.7</ele>
        <time>2021-11-25T13:15:22Z</time>
      </trkpt>
      <trkpt lat="46.61373" lon="6.02856">
        <ele>938.2</ele>
        <time>2021-11-25T13:15:26Z</time>
      </trkpt>
      <trkpt lat="46.61369" lon="6.02851">
        <ele>937.5</ele>
        <time>2021-11-25T13:15:29Z</time>
      </trkpt>
      <trkpt lat="46.61366" lon="6.02844">
        <ele>936.7</ele>
        <time>2021-11-25T13:15:33Z</time>
      </trkpt>
      <trkpt lat="46.61363" lon="6.02838">
        <ele>936.1</ele>
        <time>2021-11-25T13:15:37Z</time>
      </trkpt>
      <trkpt lat="46.6136" lon="6.02831">
        <ele>935.5</ele>
        <time>2021-11-25T13:15:42Z</time>
      </trkpt>
      <trkpt lat="46.61359" lon="6.02824">
        <ele>934.7</ele>
        <time>2021-11-25T13:15:48Z</time>
      </trkpt>
      <trkpt lat="46.61358" lon="6.02817">
        <ele>934.6</ele>
        <time>2021-11-25T13:15:53Z</time>
      </trkpt>
      <trkpt lat="46.61357" lon="6.0281">
        <ele>934.6</ele>
        <time>2021-11-25T13:15:57Z</time>
      </trkpt>
      <trkpt lat="46.61355" lon="6.02803">
        <ele>934.6</ele>
        <time>2021-11-25T13:16:01Z</time>
      </trkpt>
      <trkpt lat="46.61353" lon="6.02797">
        <ele>934.6</ele>
        <time>2021-11-25T13:16:07Z</time>
      </trkpt>
      <trkpt lat="46.61351" lon="6.02791">
        <ele>934.4</ele>
        <time>2021-11-25T13:16:12Z</time>
      </trkpt>
      <trkpt lat="46.61349" lon="6.02785">
        <ele>934.3</ele>
        <time>2021-11-25T13:16:16Z</time>
      </trkpt>
      <trkpt lat="46.61348" lon="6.02778">
        <ele>934.4</ele>
        <time>2021-11-25T13:16:21Z</time>
      </trkpt>
      <trkpt lat="46.61346" lon="6.02771">
        <ele>934.4</ele>
        <time>2021-11-25T13:16:27Z</time>
      </trkpt>
      <trkpt lat="46.61351" lon="6.02775">
        <ele>934.2</ele>
        <time>2021-11-25T13:17:05Z</time>
      </trkpt>
      <trkpt lat="46.61349" lon="6.02769">
        <ele>936.4</ele>
        <time>2021-11-25T13:17:28Z</time>
      </trkpt>
      <trkpt lat="46.61345" lon="6.02766">
        <ele>938.8</ele>
        <time>2021-11-25T13:17:46Z</time>
      </trkpt>
      <trkpt lat="46.6134" lon="6.02766">
        <ele>939.4</ele>
        <time>2021-11-25T13:17:55Z</time>
      </trkpt>
      <trkpt lat="46.61343" lon="6.0276">
        <ele>939.4</ele>
        <time>2021-11-25T13:18:02Z</time>
      </trkpt>
      <trkpt lat="46.61346" lon="6.02752">
        <ele>939.2</ele>
        <time>2021-11-25T13:18:05Z</time>
      </trkpt>
      <trkpt lat="46.6135" lon="6.02746">
        <ele>938.7</ele>
        <time>2021-11-25T13:18:09Z</time>
      </trkpt>
      <trkpt lat="46.61352" lon="6.0274">
        <ele>937.2</ele>
        <time>2021-11-25T13:18:19Z</time>
      </trkpt>
      <trkpt lat="46.61354" lon="6.02733">
        <ele>933.1</ele>
        <time>2021-11-25T13:21:20Z</time>
      </trkpt>
      <trkpt lat="46.61358" lon="6.02729">
        <ele>933.6</ele>
        <time>2021-11-25T13:21:25Z</time>
      </trkpt>
      <trkpt lat="46.6136" lon="6.02722">
        <ele>933.9</ele>
        <time>2021-11-25T13:21:30Z</time>
      </trkpt>
      <trkpt lat="46.61364" lon="6.02716">
        <ele>933.2</ele>
        <time>2021-11-25T13:21:35Z</time>
      </trkpt>
      <trkpt lat="46.61369" lon="6.02715">
        <ele>931.9</ele>
        <time>2021-11-25T13:21:41Z</time>
      </trkpt>
      <trkpt lat="46.61372" lon="6.0271">
        <ele>930</ele>
        <time>2021-11-25T13:21:47Z</time>
      </trkpt>
      <trkpt lat="46.61375" lon="6.02704">
        <ele>928.8</ele>
        <time>2021-11-25T13:21:52Z</time>
      </trkpt>
      <trkpt lat="46.61379" lon="6.02699">
        <ele>928.2</ele>
        <time>2021-11-25T13:21:57Z</time>
      </trkpt>
      <trkpt lat="46.61381" lon="6.02693">
        <ele>927.9</ele>
        <time>2021-11-25T13:22:02Z</time>
      </trkpt>
      <trkpt lat="46.61384" lon="6.02686">
        <ele>927.9</ele>
        <time>2021-11-25T13:22:06Z</time>
      </trkpt>
      <trkpt lat="46.61387" lon="6.02681">
        <ele>927.8</ele>
        <time>2021-11-25T13:22:10Z</time>
      </trkpt>
      <trkpt lat="46.61389" lon="6.02675">
        <ele>927.8</ele>
        <time>2021-11-25T13:22:15Z</time>
      </trkpt>
      <trkpt lat="46.61392" lon="6.02668">
        <ele>927.6</ele>
        <time>2021-11-25T13:22:20Z</time>
      </trkpt>
      <trkpt lat="46.61395" lon="6.02663">
        <ele>927.8</ele>
        <time>2021-11-25T13:22:24Z</time>
      </trkpt>
      <trkpt lat="46.61398" lon="6.02658">
        <ele>928.3</ele>
        <time>2021-11-25T13:22:29Z</time>
      </trkpt>
      <trkpt lat="46.61402" lon="6.02653">
        <ele>929.1</ele>
        <time>2021-11-25T13:22:35Z</time>
      </trkpt>
      <trkpt lat="46.61406" lon="6.02649">
        <ele>929.5</ele>
        <time>2021-11-25T13:22:40Z</time>
      </trkpt>
      <trkpt lat="46.6141" lon="6.02645">
        <ele>929.8</ele>
        <time>2021-11-25T13:22:44Z</time>
      </trkpt>
      <trkpt lat="46.61415" lon="6.02641">
        <ele>929.9</ele>
        <time>2021-11-25T13:22:48Z</time>
      </trkpt>
      <trkpt lat="46.61419" lon="6.02636">
        <ele>930</ele>
        <time>2021-11-25T13:22:53Z</time>
      </trkpt>
      <trkpt lat="46.61422" lon="6.0263">
        <ele>930.1</ele>
        <time>2021-11-25T13:22:58Z</time>
      </trkpt>
      <trkpt lat="46.61425" lon="6.02625">
        <ele>930.3</ele>
        <time>2021-11-25T13:23:03Z</time>
      </trkpt>
      <trkpt lat="46.6143" lon="6.02621">
        <ele>930.4</ele>
        <time>2021-11-25T13:23:08Z</time>
      </trkpt>
      <trkpt lat="46.61434" lon="6.02617">
        <ele>930.5</ele>
        <time>2021-11-25T13:23:12Z</time>
      </trkpt>
      <trkpt lat="46.61438" lon="6.02613">
        <ele>930.7</ele>
        <time>2021-11-25T13:23:17Z</time>
      </trkpt>
      <trkpt lat="46.61442" lon="6.02607">
        <ele>930.6</ele>
        <time>2021-11-25T13:23:23Z</time>
      </trkpt>
      <trkpt lat="46.61446" lon="6.02605">
        <ele>930.4</ele>
        <time>2021-11-25T13:23:28Z</time>
      </trkpt>
      <trkpt lat="46.61451" lon="6.02601">
        <ele>929.9</ele>
        <time>2021-11-25T13:23:33Z</time>
      </trkpt>
      <trkpt lat="46.61456" lon="6.02597">
        <ele>929.3</ele>
        <time>2021-11-25T13:23:38Z</time>
      </trkpt>
      <trkpt lat="46.6146" lon="6.02595">
        <ele>929.6</ele>
        <time>2021-11-25T13:23:43Z</time>
      </trkpt>
      <trkpt lat="46.61464" lon="6.02591">
        <ele>929.9</ele>
        <time>2021-11-25T13:23:48Z</time>
      </trkpt>
      <trkpt lat="46.61469" lon="6.02589">
        <ele>930.4</ele>
        <time>2021-11-25T13:23:52Z</time>
      </trkpt>
      <trkpt lat="46.61474" lon="6.02589">
        <ele>931</ele>
        <time>2021-11-25T13:23:57Z</time>
      </trkpt>
      <trkpt lat="46.61479" lon="6.02589">
        <ele>931.7</ele>
        <time>2021-11-25T13:24:02Z</time>
      </trkpt>
      <trkpt lat="46.61484" lon="6.02588">
        <ele>932.5</ele>
        <time>2021-11-25T13:24:07Z</time>
      </trkpt>
      <trkpt lat="46.61488" lon="6.02586">
        <ele>934.8</ele>
        <time>2021-11-25T13:24:32Z</time>
      </trkpt>
      <trkpt lat="46.6149" lon="6.02592">
        <ele>929.5</ele>
        <time>2021-11-25T13:25:43Z</time>
      </trkpt>
      <trkpt lat="46.61495" lon="6.02592">
        <ele>929.9</ele>
        <time>2021-11-25T13:26:51Z</time>
      </trkpt>
      <trkpt lat="46.61498" lon="6.02588">
        <ele>931.1</ele>
        <time>2021-11-25T13:27:00Z</time>
      </trkpt>
      <trkpt lat="46.61503" lon="6.0259">
        <ele>935.4</ele>
        <time>2021-11-25T13:29:18Z</time>
      </trkpt>
      <trkpt lat="46.61508" lon="6.0259">
        <ele>934.5</ele>
        <time>2021-11-25T13:29:24Z</time>
      </trkpt>
      <trkpt lat="46.61513" lon="6.0259">
        <ele>933.7</ele>
        <time>2021-11-25T13:29:31Z</time>
      </trkpt>
      <trkpt lat="46.61518" lon="6.02589">
        <ele>933.2</ele>
        <time>2021-11-25T13:29:37Z</time>
      </trkpt>
      <trkpt lat="46.61523" lon="6.02588">
        <ele>933.1</ele>
        <time>2021-11-25T13:29:43Z</time>
      </trkpt>
      <trkpt lat="46.61528" lon="6.02588">
        <ele>932.5</ele>
        <time>2021-11-25T13:29:50Z</time>
      </trkpt>
      <trkpt lat="46.61533" lon="6.02587">
        <ele>932.2</ele>
        <time>2021-11-25T13:29:56Z</time>
      </trkpt>
      <trkpt lat="46.61537" lon="6.02583">
        <ele>932.5</ele>
        <time>2021-11-25T13:30:01Z</time>
      </trkpt>
      <trkpt lat="46.61541" lon="6.02578">
        <ele>932.3</ele>
        <time>2021-11-25T13:30:09Z</time>
      </trkpt>
      <trkpt lat="46.61541" lon="6.02571">
        <ele>931.8</ele>
        <time>2021-11-25T13:30:16Z</time>
      </trkpt>
      <trkpt lat="46.61538" lon="6.02565">
        <ele>931.5</ele>
        <time>2021-11-25T13:30:21Z</time>
      </trkpt>
      <trkpt lat="46.61535" lon="6.02557">
        <ele>931.6</ele>
        <time>2021-11-25T13:30:26Z</time>
      </trkpt>
      <trkpt lat="46.61533" lon="6.02551">
        <ele>931.9</ele>
        <time>2021-11-25T13:30:30Z</time>
      </trkpt>
      <trkpt lat="46.61533" lon="6.02544">
        <ele>931.9</ele>
        <time>2021-11-25T13:30:34Z</time>
      </trkpt>
      <trkpt lat="46.6153" lon="6.02538">
        <ele>931.3</ele>
        <time>2021-11-25T13:30:40Z</time>
      </trkpt>
      <trkpt lat="46.61526" lon="6.02532">
        <ele>931</ele>
        <time>2021-11-25T13:30:46Z</time>
      </trkpt>
      <trkpt lat="46.61523" lon="6.02526">
        <ele>930.8</ele>
        <time>2021-11-25T13:30:51Z</time>
      </trkpt>
      <trkpt lat="46.61522" lon="6.0252">
        <ele>930.7</ele>
        <time>2021-11-25T13:30:56Z</time>
      </trkpt>
      <trkpt lat="46.61521" lon="6.02513">
        <ele>931</ele>
        <time>2021-11-25T13:31:03Z</time>
      </trkpt>
      <trkpt lat="46.61522" lon="6.02505">
        <ele>931.5</ele>
        <time>2021-11-25T13:31:08Z</time>
      </trkpt>
      <trkpt lat="46.61521" lon="6.02497">
        <ele>932</ele>
        <time>2021-11-25T13:31:13Z</time>
      </trkpt>
      <trkpt lat="46.61519" lon="6.02491">
        <ele>932.4</ele>
        <time>2021-11-25T13:31:18Z</time>
      </trkpt>
      <trkpt lat="46.61517" lon="6.02484">
        <ele>933.3</ele>
        <time>2021-11-25T13:31:23Z</time>
      </trkpt>
      <trkpt lat="46.61514" lon="6.02478">
        <ele>934.5</ele>
        <time>2021-11-25T13:31:29Z</time>
      </trkpt>
      <trkpt lat="46.61513" lon="6.02471">
        <ele>934.7</ele>
        <time>2021-11-25T13:31:34Z</time>
      </trkpt>
      <trkpt lat="46.61511" lon="6.02465">
        <ele>935</ele>
        <time>2021-11-25T13:31:38Z</time>
      </trkpt>
      <trkpt lat="46.61508" lon="6.02459">
        <ele>935</ele>
        <time>2021-11-25T13:31:42Z</time>
      </trkpt>
      <trkpt lat="46.61505" lon="6.02453">
        <ele>934.3</ele>
        <time>2021-11-25T13:31:47Z</time>
      </trkpt>
      <trkpt lat="46.615" lon="6.0245">
        <ele>933.8</ele>
        <time>2021-11-25T13:31:52Z</time>
      </trkpt>
      <trkpt lat="46.61495" lon="6.02447">
        <ele>933.8</ele>
        <time>2021-11-25T13:31:56Z</time>
      </trkpt>
      <trkpt lat="46.61492" lon="6.02443">
        <ele>933.9</ele>
        <time>2021-11-25T13:32:00Z</time>
      </trkpt>
      <trkpt lat="46.61488" lon="6.02438">
        <ele>934.4</ele>
        <time>2021-11-25T13:32:04Z</time>
      </trkpt>
      <trkpt lat="46.61486" lon="6.02432">
        <ele>935.3</ele>
        <time>2021-11-25T13:32:09Z</time>
      </trkpt>
      <trkpt lat="46.61484" lon="6.02425">
        <ele>936.1</ele>
        <time>2021-11-25T13:32:14Z</time>
      </trkpt>
      <trkpt lat="46.6148" lon="6.02419">
        <ele>936.4</ele>
        <time>2021-11-25T13:32:19Z</time>
      </trkpt>
      <trkpt lat="46.61478" lon="6.02412">
        <ele>936.3</ele>
        <time>2021-11-25T13:32:24Z</time>
      </trkpt>
      <trkpt lat="46.61474" lon="6.02407">
        <ele>936.3</ele>
        <time>2021-11-25T13:32:28Z</time>
      </trkpt>
      <trkpt lat="46.61471" lon="6.02401">
        <ele>936.1</ele>
        <time>2021-11-25T13:32:32Z</time>
      </trkpt>
      <trkpt lat="46.61468" lon="6.02395">
        <ele>936.1</ele>
        <time>2021-11-25T13:32:36Z</time>
      </trkpt>
      <trkpt lat="46.61466" lon="6.0239">
        <ele>935.8</ele>
        <time>2021-11-25T13:32:40Z</time>
      </trkpt>
      <trkpt lat="46.61463" lon="6.02383">
        <ele>935.4</ele>
        <time>2021-11-25T13:32:45Z</time>
      </trkpt>
      <trkpt lat="46.61462" lon="6.02376">
        <ele>934.8</ele>
        <time>2021-11-25T13:32:50Z</time>
      </trkpt>
      <trkpt lat="46.61458" lon="6.02372">
        <ele>933.8</ele>
        <time>2021-11-25T13:32:56Z</time>
      </trkpt>
      <trkpt lat="46.61455" lon="6.02366">
        <ele>933.2</ele>
        <time>2021-11-25T13:33:00Z</time>
      </trkpt>
      <trkpt lat="46.61453" lon="6.0236">
        <ele>932.5</ele>
        <time>2021-11-25T13:33:04Z</time>
      </trkpt>
      <trkpt lat="46.61449" lon="6.02355">
        <ele>932.3</ele>
        <time>2021-11-25T13:33:08Z</time>
      </trkpt>
      <trkpt lat="46.61446" lon="6.02349">
        <ele>932.1</ele>
        <time>2021-11-25T13:33:12Z</time>
      </trkpt>
      <trkpt lat="46.61442" lon="6.02344">
        <ele>931.4</ele>
        <time>2021-11-25T13:33:17Z</time>
      </trkpt>
      <trkpt lat="46.61439" lon="6.02338">
        <ele>930.7</ele>
        <time>2021-11-25T13:33:22Z</time>
      </trkpt>
      <trkpt lat="46.61435" lon="6.02331">
        <ele>930.3</ele>
        <time>2021-11-25T13:33:27Z</time>
      </trkpt>
      <trkpt lat="46.61432" lon="6.02326">
        <ele>930.1</ele>
        <time>2021-11-25T13:33:32Z</time>
      </trkpt>
      <trkpt lat="46.61427" lon="6.02322">
        <ele>929.7</ele>
        <time>2021-11-25T13:33:36Z</time>
      </trkpt>
      <trkpt lat="46.61422" lon="6.02318">
        <ele>929.9</ele>
        <time>2021-11-25T13:33:41Z</time>
      </trkpt>
      <trkpt lat="46.61419" lon="6.02314">
        <ele>930.3</ele>
        <time>2021-11-25T13:33:45Z</time>
      </trkpt>
      <trkpt lat="46.61415" lon="6.0231">
        <ele>930.6</ele>
        <time>2021-11-25T13:33:49Z</time>
      </trkpt>
      <trkpt lat="46.61411" lon="6.02308">
        <ele>931.2</ele>
        <time>2021-11-25T13:33:54Z</time>
      </trkpt>
      <trkpt lat="46.61406" lon="6.02305">
        <ele>932.6</ele>
        <time>2021-11-25T13:33:59Z</time>
      </trkpt>
      <trkpt lat="46.61401" lon="6.02304">
        <ele>934.2</ele>
        <time>2021-11-25T13:34:05Z</time>
      </trkpt>
      <trkpt lat="46.61396" lon="6.02301">
        <ele>935.1</ele>
        <time>2021-11-25T13:34:10Z</time>
      </trkpt>
      <trkpt lat="46.61392" lon="6.023">
        <ele>935.5</ele>
        <time>2021-11-25T13:34:14Z</time>
      </trkpt>
      <trkpt lat="46.61387" lon="6.02297">
        <ele>936</ele>
        <time>2021-11-25T13:34:20Z</time>
      </trkpt>
      <trkpt lat="46.61382" lon="6.02296">
        <ele>935.7</ele>
        <time>2021-11-25T13:34:25Z</time>
      </trkpt>
      <trkpt lat="46.61376" lon="6.02296">
        <ele>935.3</ele>
        <time>2021-11-25T13:34:29Z</time>
      </trkpt>
      <trkpt lat="46.61372" lon="6.02294">
        <ele>935.2</ele>
        <time>2021-11-25T13:34:34Z</time>
      </trkpt>
      <trkpt lat="46.61368" lon="6.02291">
        <ele>935.4</ele>
        <time>2021-11-25T13:34:38Z</time>
      </trkpt>
      <trkpt lat="46.61362" lon="6.02288">
        <ele>936.2</ele>
        <time>2021-11-25T13:34:42Z</time>
      </trkpt>
      <trkpt lat="46.61358" lon="6.02285">
        <ele>937</ele>
        <time>2021-11-25T13:34:46Z</time>
      </trkpt>
      <trkpt lat="46.61354" lon="6.02282">
        <ele>937.8</ele>
        <time>2021-11-25T13:34:50Z</time>
      </trkpt>
      <trkpt lat="46.6135" lon="6.02277">
        <ele>938.6</ele>
        <time>2021-11-25T13:34:55Z</time>
      </trkpt>
      <trkpt lat="46.61345" lon="6.02274">
        <ele>938.9</ele>
        <time>2021-11-25T13:35:01Z</time>
      </trkpt>
      <trkpt lat="46.6134" lon="6.02272">
        <ele>938.8</ele>
        <time>2021-11-25T13:35:06Z</time>
      </trkpt>
      <trkpt lat="46.61336" lon="6.02268">
        <ele>938.6</ele>
        <time>2021-11-25T13:35:11Z</time>
      </trkpt>
      <trkpt lat="46.61333" lon="6.02262">
        <ele>938.2</ele>
        <time>2021-11-25T13:35:15Z</time>
      </trkpt>
      <trkpt lat="46.6133" lon="6.02257">
        <ele>937.6</ele>
        <time>2021-11-25T13:35:19Z</time>
      </trkpt>
      <trkpt lat="46.61325" lon="6.02252">
        <ele>936.4</ele>
        <time>2021-11-25T13:35:24Z</time>
      </trkpt>
      <trkpt lat="46.61321" lon="6.02248">
        <ele>936.1</ele>
        <time>2021-11-25T13:35:29Z</time>
      </trkpt>
      <trkpt lat="46.61318" lon="6.02243">
        <ele>936</ele>
        <time>2021-11-25T13:35:34Z</time>
      </trkpt>
      <trkpt lat="46.61314" lon="6.02238">
        <ele>935.9</ele>
        <time>2021-11-25T13:35:38Z</time>
      </trkpt>
      <trkpt lat="46.61312" lon="6.02232">
        <ele>935.4</ele>
        <time>2021-11-25T13:35:42Z</time>
      </trkpt>
      <trkpt lat="46.61309" lon="6.02227">
        <ele>934.9</ele>
        <time>2021-11-25T13:35:46Z</time>
      </trkpt>
      <trkpt lat="46.61306" lon="6.02221">
        <ele>934.5</ele>
        <time>2021-11-25T13:35:50Z</time>
      </trkpt>
      <trkpt lat="46.61302" lon="6.02217">
        <ele>933.7</ele>
        <time>2021-11-25T13:35:54Z</time>
      </trkpt>
      <trkpt lat="46.61298" lon="6.02212">
        <ele>932.5</ele>
        <time>2021-11-25T13:35:59Z</time>
      </trkpt>
      <trkpt lat="46.61295" lon="6.02206">
        <ele>931</ele>
        <time>2021-11-25T13:36:04Z</time>
      </trkpt>
      <trkpt lat="46.61292" lon="6.02199">
        <ele>930</ele>
        <time>2021-11-25T13:36:09Z</time>
      </trkpt>
      <trkpt lat="46.6129" lon="6.02193">
        <ele>929.7</ele>
        <time>2021-11-25T13:36:13Z</time>
      </trkpt>
      <trkpt lat="46.61288" lon="6.02187">
        <ele>929.2</ele>
        <time>2021-11-25T13:36:18Z</time>
      </trkpt>
      <trkpt lat="46.61285" lon="6.0218">
        <ele>928.6</ele>
        <time>2021-11-25T13:36:23Z</time>
      </trkpt>
      <trkpt lat="46.61281" lon="6.02175">
        <ele>927.9</ele>
        <time>2021-11-25T13:36:27Z</time>
      </trkpt>
      <trkpt lat="46.61278" lon="6.02169">
        <ele>926.8</ele>
        <time>2021-11-25T13:36:32Z</time>
      </trkpt>
      <trkpt lat="46.61275" lon="6.02164">
        <ele>926.2</ele>
        <time>2021-11-25T13:36:36Z</time>
      </trkpt>
      <trkpt lat="46.61272" lon="6.02159">
        <ele>926</ele>
        <time>2021-11-25T13:36:40Z</time>
      </trkpt>
      <trkpt lat="46.61268" lon="6.02154">
        <ele>925.7</ele>
        <time>2021-11-25T13:36:44Z</time>
      </trkpt>
      <trkpt lat="46.61265" lon="6.02149">
        <ele>925.4</ele>
        <time>2021-11-25T13:36:48Z</time>
      </trkpt>
      <trkpt lat="46.61262" lon="6.02145">
        <ele>925</ele>
        <time>2021-11-25T13:36:52Z</time>
      </trkpt>
      <trkpt lat="46.61259" lon="6.02139">
        <ele>925.2</ele>
        <time>2021-11-25T13:36:56Z</time>
      </trkpt>
      <trkpt lat="46.61256" lon="6.02133">
        <ele>925.7</ele>
        <time>2021-11-25T13:37:00Z</time>
      </trkpt>
      <trkpt lat="46.61253" lon="6.02127">
        <ele>925.9</ele>
        <time>2021-11-25T13:37:05Z</time>
      </trkpt>
      <trkpt lat="46.6125" lon="6.02121">
        <ele>926</ele>
        <time>2021-11-25T13:37:10Z</time>
      </trkpt>
      <trkpt lat="46.61246" lon="6.02115">
        <ele>926.4</ele>
        <time>2021-11-25T13:37:15Z</time>
      </trkpt>
      <trkpt lat="46.61241" lon="6.0211">
        <ele>928</ele>
        <time>2021-11-25T13:37:20Z</time>
      </trkpt>
      <trkpt lat="46.61237" lon="6.02105">
        <ele>930.5</ele>
        <time>2021-11-25T13:37:26Z</time>
      </trkpt>
      <trkpt lat="46.61235" lon="6.02098">
        <ele>931.4</ele>
        <time>2021-11-25T13:37:30Z</time>
      </trkpt>
      <trkpt lat="46.61233" lon="6.02092">
        <ele>931.7</ele>
        <time>2021-11-25T13:37:34Z</time>
      </trkpt>
      <trkpt lat="46.6123" lon="6.02086">
        <ele>931.7</ele>
        <time>2021-11-25T13:37:39Z</time>
      </trkpt>
      <trkpt lat="46.61226" lon="6.0208">
        <ele>931.3</ele>
        <time>2021-11-25T13:37:44Z</time>
      </trkpt>
      <trkpt lat="46.61223" lon="6.02076">
        <ele>931.1</ele>
        <time>2021-11-25T13:37:48Z</time>
      </trkpt>
      <trkpt lat="46.61219" lon="6.0207">
        <ele>931.2</ele>
        <time>2021-11-25T13:37:53Z</time>
      </trkpt>
      <trkpt lat="46.61217" lon="6.02064">
        <ele>931.2</ele>
        <time>2021-11-25T13:37:57Z</time>
      </trkpt>
      <trkpt lat="46.61213" lon="6.02058">
        <ele>930.7</ele>
        <time>2021-11-25T13:38:02Z</time>
      </trkpt>
      <trkpt lat="46.61211" lon="6.02053">
        <ele>930.1</ele>
        <time>2021-11-25T13:38:06Z</time>
      </trkpt>
      <trkpt lat="46.61208" lon="6.02048">
        <ele>930.2</ele>
        <time>2021-11-25T13:38:10Z</time>
      </trkpt>
      <trkpt lat="46.61204" lon="6.02043">
        <ele>931</ele>
        <time>2021-11-25T13:38:14Z</time>
      </trkpt>
      <trkpt lat="46.61201" lon="6.02037">
        <ele>931.7</ele>
        <time>2021-11-25T13:38:18Z</time>
      </trkpt>
      <trkpt lat="46.61198" lon="6.02031">
        <ele>932.8</ele>
        <time>2021-11-25T13:38:23Z</time>
      </trkpt>
      <trkpt lat="46.61195" lon="6.02026">
        <ele>933.4</ele>
        <time>2021-11-25T13:38:27Z</time>
      </trkpt>
      <trkpt lat="46.61192" lon="6.02019">
        <ele>934</ele>
        <time>2021-11-25T13:38:32Z</time>
      </trkpt>
      <trkpt lat="46.6119" lon="6.02013">
        <ele>934.2</ele>
        <time>2021-11-25T13:38:37Z</time>
      </trkpt>
      <trkpt lat="46.61186" lon="6.02007">
        <ele>934.3</ele>
        <time>2021-11-25T13:38:42Z</time>
      </trkpt>
      <trkpt lat="46.61182" lon="6.02002">
        <ele>933.9</ele>
        <time>2021-11-25T13:38:47Z</time>
      </trkpt>
      <trkpt lat="46.61179" lon="6.01995">
        <ele>933.1</ele>
        <time>2021-11-25T13:38:52Z</time>
      </trkpt>
      <trkpt lat="46.61176" lon="6.0199">
        <ele>933</ele>
        <time>2021-11-25T13:38:56Z</time>
      </trkpt>
      <trkpt lat="46.61173" lon="6.01984">
        <ele>932.8</ele>
        <time>2021-11-25T13:39:00Z</time>
      </trkpt>
      <trkpt lat="46.6117" lon="6.01979">
        <ele>932.8</ele>
        <time>2021-11-25T13:39:04Z</time>
      </trkpt>
      <trkpt lat="46.61166" lon="6.01974">
        <ele>932.9</ele>
        <time>2021-11-25T13:39:08Z</time>
      </trkpt>
      <trkpt lat="46.61162" lon="6.01969">
        <ele>933.2</ele>
        <time>2021-11-25T13:39:12Z</time>
      </trkpt>
      <trkpt lat="46.61159" lon="6.01964">
        <ele>933.6</ele>
        <time>2021-11-25T13:39:16Z</time>
      </trkpt>
      <trkpt lat="46.61156" lon="6.01959">
        <ele>933.9</ele>
        <time>2021-11-25T13:39:20Z</time>
      </trkpt>
      <trkpt lat="46.61153" lon="6.01952">
        <ele>934.7</ele>
        <time>2021-11-25T13:39:25Z</time>
      </trkpt>
      <trkpt lat="46.6115" lon="6.01946">
        <ele>935.5</ele>
        <time>2021-11-25T13:39:30Z</time>
      </trkpt>
      <trkpt lat="46.61146" lon="6.01942">
        <ele>935.3</ele>
        <time>2021-11-25T13:39:35Z</time>
      </trkpt>
      <trkpt lat="46.61141" lon="6.01937">
        <ele>934.9</ele>
        <time>2021-11-25T13:39:40Z</time>
      </trkpt>
      <trkpt lat="46.61138" lon="6.01931">
        <ele>934.5</ele>
        <time>2021-11-25T13:39:45Z</time>
      </trkpt>
      <trkpt lat="46.61134" lon="6.01927">
        <ele>934.4</ele>
        <time>2021-11-25T13:39:49Z</time>
      </trkpt>
      <trkpt lat="46.61131" lon="6.01922">
        <ele>934.4</ele>
        <time>2021-11-25T13:39:53Z</time>
      </trkpt>
      <trkpt lat="46.61128" lon="6.01916">
        <ele>934.6</ele>
        <time>2021-11-25T13:39:58Z</time>
      </trkpt>
      <trkpt lat="46.61124" lon="6.01911">
        <ele>935.2</ele>
        <time>2021-11-25T13:40:02Z</time>
      </trkpt>
      <trkpt lat="46.61121" lon="6.01906">
        <ele>935.5</ele>
        <time>2021-11-25T13:40:06Z</time>
      </trkpt>
      <trkpt lat="46.61118" lon="6.019">
        <ele>935.4</ele>
        <time>2021-11-25T13:40:11Z</time>
      </trkpt>
      <trkpt lat="46.61115" lon="6.01894">
        <ele>935.6</ele>
        <time>2021-11-25T13:40:16Z</time>
      </trkpt>
      <trkpt lat="46.61111" lon="6.01889">
        <ele>935.8</ele>
        <time>2021-11-25T13:40:20Z</time>
      </trkpt>
      <trkpt lat="46.61107" lon="6.01884">
        <ele>936.3</ele>
        <time>2021-11-25T13:40:25Z</time>
      </trkpt>
      <trkpt lat="46.61103" lon="6.01879">
        <ele>936</ele>
        <time>2021-11-25T13:40:31Z</time>
      </trkpt>
      <trkpt lat="46.611" lon="6.01873">
        <ele>934</ele>
        <time>2021-11-25T13:40:37Z</time>
      </trkpt>
      <trkpt lat="46.61096" lon="6.01867">
        <ele>932.4</ele>
        <time>2021-11-25T13:40:42Z</time>
      </trkpt>
      <trkpt lat="46.61092" lon="6.01863">
        <ele>931.4</ele>
        <time>2021-11-25T13:40:46Z</time>
      </trkpt>
      <trkpt lat="46.61088" lon="6.01858">
        <ele>930.3</ele>
        <time>2021-11-25T13:40:51Z</time>
      </trkpt>
      <trkpt lat="46.61084" lon="6.01854">
        <ele>929.3</ele>
        <time>2021-11-25T13:40:55Z</time>
      </trkpt>
      <trkpt lat="46.61082" lon="6.01847">
        <ele>928.3</ele>
        <time>2021-11-25T13:40:59Z</time>
      </trkpt>
      <trkpt lat="46.61079" lon="6.01841">
        <ele>927.8</ele>
        <time>2021-11-25T13:41:04Z</time>
      </trkpt>
      <trkpt lat="46.61076" lon="6.01837">
        <ele>927.5</ele>
        <time>2021-11-25T13:41:09Z</time>
      </trkpt>
      <trkpt lat="46.61072" lon="6.01832">
        <ele>927.1</ele>
        <time>2021-11-25T13:41:15Z</time>
      </trkpt>
      <trkpt lat="46.61068" lon="6.01827">
        <ele>926.2</ele>
        <time>2021-11-25T13:41:21Z</time>
      </trkpt>
      <trkpt lat="46.61065" lon="6.0182">
        <ele>925.7</ele>
        <time>2021-11-25T13:41:26Z</time>
      </trkpt>
      <trkpt lat="46.61063" lon="6.01814">
        <ele>925.6</ele>
        <time>2021-11-25T13:41:32Z</time>
      </trkpt>
      <trkpt lat="46.61059" lon="6.01808">
        <ele>925.9</ele>
        <time>2021-11-25T13:41:37Z</time>
      </trkpt>
      <trkpt lat="46.61055" lon="6.01802">
        <ele>926.2</ele>
        <time>2021-11-25T13:41:41Z</time>
      </trkpt>
      <trkpt lat="46.61052" lon="6.01797">
        <ele>926.4</ele>
        <time>2021-11-25T13:41:45Z</time>
      </trkpt>
      <trkpt lat="46.61049" lon="6.01792">
        <ele>926.6</ele>
        <time>2021-11-25T13:41:50Z</time>
      </trkpt>
      <trkpt lat="46.61045" lon="6.01787">
        <ele>926.9</ele>
        <time>2021-11-25T13:41:55Z</time>
      </trkpt>
      <trkpt lat="46.61042" lon="6.01781">
        <ele>927.3</ele>
        <time>2021-11-25T13:42:00Z</time>
      </trkpt>
      <trkpt lat="46.61039" lon="6.01776">
        <ele>927.2</ele>
        <time>2021-11-25T13:42:04Z</time>
      </trkpt>
      <trkpt lat="46.61035" lon="6.01771">
        <ele>926.7</ele>
        <time>2021-11-25T13:42:09Z</time>
      </trkpt>
      <trkpt lat="46.61032" lon="6.01765">
        <ele>926.3</ele>
        <time>2021-11-25T13:42:14Z</time>
      </trkpt>
      <trkpt lat="46.61028" lon="6.0176">
        <ele>926.4</ele>
        <time>2021-11-25T13:42:18Z</time>
      </trkpt>
      <trkpt lat="46.61024" lon="6.01755">
        <ele>927.5</ele>
        <time>2021-11-25T13:42:23Z</time>
      </trkpt>
      <trkpt lat="46.61021" lon="6.01749">
        <ele>928.8</ele>
        <time>2021-11-25T13:42:28Z</time>
      </trkpt>
      <trkpt lat="46.61018" lon="6.01744">
        <ele>929.4</ele>
        <time>2021-11-25T13:42:32Z</time>
      </trkpt>
      <trkpt lat="46.61014" lon="6.01738">
        <ele>929.1</ele>
        <time>2021-11-25T13:42:36Z</time>
      </trkpt>
      <trkpt lat="46.6101" lon="6.01733">
        <ele>928.8</ele>
        <time>2021-11-25T13:42:41Z</time>
      </trkpt>
      <trkpt lat="46.61007" lon="6.01727">
        <ele>928.1</ele>
        <time>2021-11-25T13:42:46Z</time>
      </trkpt>
      <trkpt lat="46.61004" lon="6.01722">
        <ele>926.8</ele>
        <time>2021-11-25T13:42:51Z</time>
      </trkpt>
      <trkpt lat="46.61001" lon="6.01717">
        <ele>925.7</ele>
        <time>2021-11-25T13:42:55Z</time>
      </trkpt>
      <trkpt lat="46.60998" lon="6.0171">
        <ele>925</ele>
        <time>2021-11-25T13:42:59Z</time>
      </trkpt>
      <trkpt lat="46.60994" lon="6.01705">
        <ele>924.6</ele>
        <time>2021-11-25T13:43:03Z</time>
      </trkpt>
      <trkpt lat="46.60991" lon="6.01699">
        <ele>924.4</ele>
        <time>2021-11-25T13:43:08Z</time>
      </trkpt>
      <trkpt lat="46.60988" lon="6.01694">
        <ele>924</ele>
        <time>2021-11-25T13:43:13Z</time>
      </trkpt>
      <trkpt lat="46.60984" lon="6.01689">
        <ele>923.5</ele>
        <time>2021-11-25T13:43:18Z</time>
      </trkpt>
      <trkpt lat="46.60982" lon="6.01683">
        <ele>922.6</ele>
        <time>2021-11-25T13:43:23Z</time>
      </trkpt>
      <trkpt lat="46.60979" lon="6.01677">
        <ele>922.2</ele>
        <time>2021-11-25T13:43:27Z</time>
      </trkpt>
      <trkpt lat="46.60976" lon="6.01671">
        <ele>922.5</ele>
        <time>2021-11-25T13:43:31Z</time>
      </trkpt>
      <trkpt lat="46.60974" lon="6.01666">
        <ele>922.9</ele>
        <time>2021-11-25T13:43:35Z</time>
      </trkpt>
      <trkpt lat="46.60971" lon="6.0166">
        <ele>923.5</ele>
        <time>2021-11-25T13:43:40Z</time>
      </trkpt>
      <trkpt lat="46.60968" lon="6.01653">
        <ele>923.7</ele>
        <time>2021-11-25T13:43:45Z</time>
      </trkpt>
      <trkpt lat="46.60965" lon="6.01648">
        <ele>923.6</ele>
        <time>2021-11-25T13:43:49Z</time>
      </trkpt>
      <trkpt lat="46.60962" lon="6.01643">
        <ele>923.7</ele>
        <time>2021-11-25T13:43:53Z</time>
      </trkpt>
      <trkpt lat="46.6096" lon="6.01636">
        <ele>923.9</ele>
        <time>2021-11-25T13:43:59Z</time>
      </trkpt>
      <trkpt lat="46.60956" lon="6.01631">
        <ele>924.3</ele>
        <time>2021-11-25T13:44:04Z</time>
      </trkpt>
      <trkpt lat="46.60953" lon="6.01625">
        <ele>924.2</ele>
        <time>2021-11-25T13:44:10Z</time>
      </trkpt>
      <trkpt lat="46.6095" lon="6.01619">
        <ele>923.3</ele>
        <time>2021-11-25T13:44:14Z</time>
      </trkpt>
      <trkpt lat="46.60946" lon="6.01612">
        <ele>923.1</ele>
        <time>2021-11-25T13:44:18Z</time>
      </trkpt>
      <trkpt lat="46.60944" lon="6.01606">
        <ele>923.5</ele>
        <time>2021-11-25T13:44:22Z</time>
      </trkpt>
      <trkpt lat="46.60941" lon="6.016">
        <ele>923.8</ele>
        <time>2021-11-25T13:44:26Z</time>
      </trkpt>
      <trkpt lat="46.60938" lon="6.01594">
        <ele>924.6</ele>
        <time>2021-11-25T13:44:31Z</time>
      </trkpt>
      <trkpt lat="46.60935" lon="6.01587">
        <ele>925.3</ele>
        <time>2021-11-25T13:44:36Z</time>
      </trkpt>
      <trkpt lat="46.60933" lon="6.01581">
        <ele>925.5</ele>
        <time>2021-11-25T13:44:40Z</time>
      </trkpt>
      <trkpt lat="46.60931" lon="6.01575">
        <ele>925.4</ele>
        <time>2021-11-25T13:44:44Z</time>
      </trkpt>
      <trkpt lat="46.60927" lon="6.0157">
        <ele>925.8</ele>
        <time>2021-11-25T13:44:49Z</time>
      </trkpt>
      <trkpt lat="46.60924" lon="6.01565">
        <ele>926.1</ele>
        <time>2021-11-25T13:44:53Z</time>
      </trkpt>
      <trkpt lat="46.60921" lon="6.01558">
        <ele>926.4</ele>
        <time>2021-11-25T13:44:58Z</time>
      </trkpt>
      <trkpt lat="46.60919" lon="6.01553">
        <ele>926.7</ele>
        <time>2021-11-25T13:45:02Z</time>
      </trkpt>
      <trkpt lat="46.60916" lon="6.01548">
        <ele>927.5</ele>
        <time>2021-11-25T13:45:06Z</time>
      </trkpt>
      <trkpt lat="46.60913" lon="6.01542">
        <ele>928.5</ele>
        <time>2021-11-25T13:45:10Z</time>
      </trkpt>
      <trkpt lat="46.6091" lon="6.01536">
        <ele>929.5</ele>
        <time>2021-11-25T13:45:15Z</time>
      </trkpt>
      <trkpt lat="46.60908" lon="6.0153">
        <ele>930.3</ele>
        <time>2021-11-25T13:45:20Z</time>
      </trkpt>
      <trkpt lat="46.60905" lon="6.01523">
        <ele>930.5</ele>
        <time>2021-11-25T13:45:25Z</time>
      </trkpt>
      <trkpt lat="46.60902" lon="6.01517">
        <ele>929.9</ele>
        <time>2021-11-25T13:45:29Z</time>
      </trkpt>
      <trkpt lat="46.60897" lon="6.01513">
        <ele>929</ele>
        <time>2021-11-25T13:45:34Z</time>
      </trkpt>
      <trkpt lat="46.60894" lon="6.01507">
        <ele>928.4</ele>
        <time>2021-11-25T13:45:38Z</time>
      </trkpt>
      <trkpt lat="46.60893" lon="6.01501">
        <ele>927.6</ele>
        <time>2021-11-25T13:45:43Z</time>
      </trkpt>
      <trkpt lat="46.6089" lon="6.01495">
        <ele>926.5</ele>
        <time>2021-11-25T13:45:47Z</time>
      </trkpt>
      <trkpt lat="46.60887" lon="6.0149">
        <ele>925.3</ele>
        <time>2021-11-25T13:45:51Z</time>
      </trkpt>
      <trkpt lat="46.60883" lon="6.01485">
        <ele>924.8</ele>
        <time>2021-11-25T13:45:55Z</time>
      </trkpt>
      <trkpt lat="46.60879" lon="6.0148">
        <ele>924.6</ele>
        <time>2021-11-25T13:46:00Z</time>
      </trkpt>
      <trkpt lat="46.60875" lon="6.01475">
        <ele>924.6</ele>
        <time>2021-11-25T13:46:05Z</time>
      </trkpt>
      <trkpt lat="46.60871" lon="6.01469">
        <ele>924.1</ele>
        <time>2021-11-25T13:46:10Z</time>
      </trkpt>
      <trkpt lat="46.60868" lon="6.01462">
        <ele>923.6</ele>
        <time>2021-11-25T13:46:15Z</time>
      </trkpt>
      <trkpt lat="46.60865" lon="6.01456">
        <ele>923.3</ele>
        <time>2021-11-25T13:46:20Z</time>
      </trkpt>
      <trkpt lat="46.60862" lon="6.0145">
        <ele>923.1</ele>
        <time>2021-11-25T13:46:25Z</time>
      </trkpt>
      <trkpt lat="46.60859" lon="6.01444">
        <ele>922.8</ele>
        <time>2021-11-25T13:46:29Z</time>
      </trkpt>
      <trkpt lat="46.60856" lon="6.01438">
        <ele>922.5</ele>
        <time>2021-11-25T13:46:33Z</time>
      </trkpt>
      <trkpt lat="46.60853" lon="6.01432">
        <ele>922.2</ele>
        <time>2021-11-25T13:46:37Z</time>
      </trkpt>
      <trkpt lat="46.6085" lon="6.01427">
        <ele>922.6</ele>
        <time>2021-11-25T13:46:42Z</time>
      </trkpt>
      <trkpt lat="46.60847" lon="6.01421">
        <ele>922.8</ele>
        <time>2021-11-25T13:46:46Z</time>
      </trkpt>
      <trkpt lat="46.60844" lon="6.01415">
        <ele>923.4</ele>
        <time>2021-11-25T13:46:50Z</time>
      </trkpt>
      <trkpt lat="46.60841" lon="6.0141">
        <ele>923.9</ele>
        <time>2021-11-25T13:46:54Z</time>
      </trkpt>
      <trkpt lat="46.60837" lon="6.01404">
        <ele>924.3</ele>
        <time>2021-11-25T13:46:59Z</time>
      </trkpt>
      <trkpt lat="46.60834" lon="6.01399">
        <ele>924.4</ele>
        <time>2021-11-25T13:47:04Z</time>
      </trkpt>
      <trkpt lat="46.60831" lon="6.01395">
        <ele>924.1</ele>
        <time>2021-11-25T13:47:08Z</time>
      </trkpt>
      <trkpt lat="46.60828" lon="6.01389">
        <ele>923.4</ele>
        <time>2021-11-25T13:47:13Z</time>
      </trkpt>
      <trkpt lat="46.60827" lon="6.01381">
        <ele>923.2</ele>
        <time>2021-11-25T13:47:18Z</time>
      </trkpt>
      <trkpt lat="46.60824" lon="6.01374">
        <ele>923.2</ele>
        <time>2021-11-25T13:47:23Z</time>
      </trkpt>
      <trkpt lat="46.60821" lon="6.01368">
        <ele>923.2</ele>
        <time>2021-11-25T13:47:27Z</time>
      </trkpt>
      <trkpt lat="46.60817" lon="6.01361">
        <ele>923</ele>
        <time>2021-11-25T13:47:32Z</time>
      </trkpt>
      <trkpt lat="46.60814" lon="6.01356">
        <ele>922.6</ele>
        <time>2021-11-25T13:47:36Z</time>
      </trkpt>
      <trkpt lat="46.60811" lon="6.0135">
        <ele>921.7</ele>
        <time>2021-11-25T13:47:41Z</time>
      </trkpt>
      <trkpt lat="46.60808" lon="6.01343">
        <ele>920.5</ele>
        <time>2021-11-25T13:47:46Z</time>
      </trkpt>
      <trkpt lat="46.60805" lon="6.01337">
        <ele>919.4</ele>
        <time>2021-11-25T13:47:51Z</time>
      </trkpt>
      <trkpt lat="46.60801" lon="6.01332">
        <ele>918.5</ele>
        <time>2021-11-25T13:47:56Z</time>
      </trkpt>
      <trkpt lat="46.60799" lon="6.01327">
        <ele>918.2</ele>
        <time>2021-11-25T13:48:00Z</time>
      </trkpt>
      <trkpt lat="46.60796" lon="6.0132">
        <ele>917.9</ele>
        <time>2021-11-25T13:48:05Z</time>
      </trkpt>
      <trkpt lat="46.60792" lon="6.01315">
        <ele>917.9</ele>
        <time>2021-11-25T13:48:09Z</time>
      </trkpt>
      <trkpt lat="46.60788" lon="6.0131">
        <ele>917.8</ele>
        <time>2021-11-25T13:48:14Z</time>
      </trkpt>
      <trkpt lat="46.60785" lon="6.01304">
        <ele>917.8</ele>
        <time>2021-11-25T13:48:19Z</time>
      </trkpt>
      <trkpt lat="46.60781" lon="6.01299">
        <ele>917.7</ele>
        <time>2021-11-25T13:48:23Z</time>
      </trkpt>
      <trkpt lat="46.60778" lon="6.01293">
        <ele>918</ele>
        <time>2021-11-25T13:48:27Z</time>
      </trkpt>
      <trkpt lat="46.60775" lon="6.01287">
        <ele>918.4</ele>
        <time>2021-11-25T13:48:31Z</time>
      </trkpt>
      <trkpt lat="46.60773" lon="6.0128">
        <ele>918.7</ele>
        <time>2021-11-25T13:48:36Z</time>
      </trkpt>
      <trkpt lat="46.6077" lon="6.01275">
        <ele>919.2</ele>
        <time>2021-11-25T13:48:41Z</time>
      </trkpt>
      <trkpt lat="46.60766" lon="6.01271">
        <ele>919.5</ele>
        <time>2021-11-25T13:48:45Z</time>
      </trkpt>
      <trkpt lat="46.6076" lon="6.01272">
        <ele>920.1</ele>
        <time>2021-11-25T13:48:49Z</time>
      </trkpt>
      <trkpt lat="46.60755" lon="6.01272">
        <ele>920.4</ele>
        <time>2021-11-25T13:48:53Z</time>
      </trkpt>
      <trkpt lat="46.6075" lon="6.01275">
        <ele>920.3</ele>
        <time>2021-11-25T13:49:04Z</time>
      </trkpt>
      <trkpt lat="46.60755" lon="6.01272">
        <ele>922.9</ele>
        <time>2021-11-25T13:49:48Z</time>
      </trkpt>
      <trkpt lat="46.60757" lon="6.01265">
        <ele>923.6</ele>
        <time>2021-11-25T13:49:52Z</time>
      </trkpt>
      <trkpt lat="46.60757" lon="6.01258">
        <ele>924.1</ele>
        <time>2021-11-25T13:49:56Z</time>
      </trkpt>
      <trkpt lat="46.60756" lon="6.01251">
        <ele>924.4</ele>
        <time>2021-11-25T13:50:00Z</time>
      </trkpt>
      <trkpt lat="46.60754" lon="6.01245">
        <ele>924.5</ele>
        <time>2021-11-25T13:50:04Z</time>
      </trkpt>
      <trkpt lat="46.60751" lon="6.01238">
        <ele>924.4</ele>
        <time>2021-11-25T13:50:08Z</time>
      </trkpt>
      <trkpt lat="46.60748" lon="6.01233">
        <ele>924.5</ele>
        <time>2021-11-25T13:50:12Z</time>
      </trkpt>
      <trkpt lat="46.60743" lon="6.01227">
        <ele>924.6</ele>
        <time>2021-11-25T13:50:16Z</time>
      </trkpt>
      <trkpt lat="46.6074" lon="6.0122">
        <ele>924.8</ele>
        <time>2021-11-25T13:50:20Z</time>
      </trkpt>
      <trkpt lat="46.60737" lon="6.01215">
        <ele>925</ele>
        <time>2021-11-25T13:50:24Z</time>
      </trkpt>
      <trkpt lat="46.60734" lon="6.0121">
        <ele>925.2</ele>
        <time>2021-11-25T13:50:28Z</time>
      </trkpt>
      <trkpt lat="46.60732" lon="6.01203">
        <ele>925.3</ele>
        <time>2021-11-25T13:50:32Z</time>
      </trkpt>
      <trkpt lat="46.60729" lon="6.01198">
        <ele>925.3</ele>
        <time>2021-11-25T13:50:35Z</time>
      </trkpt>
      <trkpt lat="46.60726" lon="6.01193">
        <ele>925.3</ele>
        <time>2021-11-25T13:50:38Z</time>
      </trkpt>
      <trkpt lat="46.60724" lon="6.01185">
        <ele>924.9</ele>
        <time>2021-11-25T13:50:42Z</time>
      </trkpt>
      <trkpt lat="46.60721" lon="6.01179">
        <ele>924.3</ele>
        <time>2021-11-25T13:50:46Z</time>
      </trkpt>
      <trkpt lat="46.60717" lon="6.01173">
        <ele>924.2</ele>
        <time>2021-11-25T13:50:50Z</time>
      </trkpt>
      <trkpt lat="46.60713" lon="6.01168">
        <ele>924</ele>
        <time>2021-11-25T13:50:53Z</time>
      </trkpt>
      <trkpt lat="46.6071" lon="6.01162">
        <ele>924.7</ele>
        <time>2021-11-25T13:50:57Z</time>
      </trkpt>
      <trkpt lat="46.60707" lon="6.01155">
        <ele>925.8</ele>
        <time>2021-11-25T13:51:01Z</time>
      </trkpt>
      <trkpt lat="46.60704" lon="6.01148">
        <ele>927.2</ele>
        <time>2021-11-25T13:51:05Z</time>
      </trkpt>
      <trkpt lat="46.60701" lon="6.01143">
        <ele>928.4</ele>
        <time>2021-11-25T13:51:09Z</time>
      </trkpt>
      <trkpt lat="46.60698" lon="6.01138">
        <ele>929.2</ele>
        <time>2021-11-25T13:51:12Z</time>
      </trkpt>
      <trkpt lat="46.60695" lon="6.0113">
        <ele>929.9</ele>
        <time>2021-11-25T13:51:16Z</time>
      </trkpt>
      <trkpt lat="46.60693" lon="6.01124">
        <ele>930</ele>
        <time>2021-11-25T13:51:19Z</time>
      </trkpt>
      <trkpt lat="46.6069" lon="6.01118">
        <ele>929.7</ele>
        <time>2021-11-25T13:51:23Z</time>
      </trkpt>
      <trkpt lat="46.60687" lon="6.01113">
        <ele>929.4</ele>
        <time>2021-11-25T13:51:26Z</time>
      </trkpt>
      <trkpt lat="46.60682" lon="6.01107">
        <ele>929.5</ele>
        <time>2021-11-25T13:51:30Z</time>
      </trkpt>
      <trkpt lat="46.60679" lon="6.01103">
        <ele>929.5</ele>
        <time>2021-11-25T13:51:33Z</time>
      </trkpt>
      <trkpt lat="46.60676" lon="6.01098">
        <ele>929.8</ele>
        <time>2021-11-25T13:51:37Z</time>
      </trkpt>
      <trkpt lat="46.60672" lon="6.01092">
        <ele>930.3</ele>
        <time>2021-11-25T13:51:41Z</time>
      </trkpt>
      <trkpt lat="46.6067" lon="6.01086">
        <ele>930.8</ele>
        <time>2021-11-25T13:51:45Z</time>
      </trkpt>
      <trkpt lat="46.60666" lon="6.01081">
        <ele>931.3</ele>
        <time>2021-11-25T13:51:49Z</time>
      </trkpt>
      <trkpt lat="46.60662" lon="6.01077">
        <ele>931.9</ele>
        <time>2021-11-25T13:51:54Z</time>
      </trkpt>
      <trkpt lat="46.60656" lon="6.01073">
        <ele>932.4</ele>
        <time>2021-11-25T13:51:58Z</time>
      </trkpt>
      <trkpt lat="46.60652" lon="6.01069">
        <ele>932.8</ele>
        <time>2021-11-25T13:52:01Z</time>
      </trkpt>
      <trkpt lat="46.60647" lon="6.01066">
        <ele>932.7</ele>
        <time>2021-11-25T13:52:04Z</time>
      </trkpt>
      <trkpt lat="46.60643" lon="6.01063">
        <ele>932.8</ele>
        <time>2021-11-25T13:52:08Z</time>
      </trkpt>
      <trkpt lat="46.60638" lon="6.01063">
        <ele>932.7</ele>
        <time>2021-11-25T13:52:11Z</time>
      </trkpt>
      <trkpt lat="46.60633" lon="6.01063">
        <ele>932.9</ele>
        <time>2021-11-25T13:52:14Z</time>
      </trkpt>
      <trkpt lat="46.60627" lon="6.01062">
        <ele>933.3</ele>
        <time>2021-11-25T13:52:18Z</time>
      </trkpt>
      <trkpt lat="46.60623" lon="6.0106">
        <ele>933.4</ele>
        <time>2021-11-25T13:52:21Z</time>
      </trkpt>
      <trkpt lat="46.60618" lon="6.01057">
        <ele>933.8</ele>
        <time>2021-11-25T13:52:24Z</time>
      </trkpt>
      <trkpt lat="46.60614" lon="6.01052">
        <ele>934.2</ele>
        <time>2021-11-25T13:52:28Z</time>
      </trkpt>
      <trkpt lat="46.6061" lon="6.01045">
        <ele>934.8</ele>
        <time>2021-11-25T13:52:32Z</time>
      </trkpt>
      <trkpt lat="46.60608" lon="6.01039">
        <ele>935.1</ele>
        <time>2021-11-25T13:52:36Z</time>
      </trkpt>
      <trkpt lat="46.60607" lon="6.01031">
        <ele>934.6</ele>
        <time>2021-11-25T13:52:40Z</time>
      </trkpt>
      <trkpt lat="46.60604" lon="6.01024">
        <ele>933.7</ele>
        <time>2021-11-25T13:52:44Z</time>
      </trkpt>
      <trkpt lat="46.60601" lon="6.01017">
        <ele>933.1</ele>
        <time>2021-11-25T13:52:47Z</time>
      </trkpt>
      <trkpt lat="46.60598" lon="6.01011">
        <ele>932.6</ele>
        <time>2021-11-25T13:52:50Z</time>
      </trkpt>
      <trkpt lat="46.60595" lon="6.01005">
        <ele>932</ele>
        <time>2021-11-25T13:52:54Z</time>
      </trkpt>
      <trkpt lat="46.60591" lon="6.00999">
        <ele>931.6</ele>
        <time>2021-11-25T13:52:59Z</time>
      </trkpt>
      <trkpt lat="46.60587" lon="6.00994">
        <ele>931.7</ele>
        <time>2021-11-25T13:53:03Z</time>
      </trkpt>
      <trkpt lat="46.60583" lon="6.00988">
        <ele>932.3</ele>
        <time>2021-11-25T13:53:07Z</time>
      </trkpt>
      <trkpt lat="46.60579" lon="6.00983">
        <ele>933.1</ele>
        <time>2021-11-25T13:53:10Z</time>
      </trkpt>
      <trkpt lat="46.60576" lon="6.00977">
        <ele>934</ele>
        <time>2021-11-25T13:53:14Z</time>
      </trkpt>
      <trkpt lat="46.60573" lon="6.00971">
        <ele>934.2</ele>
        <time>2021-11-25T13:53:18Z</time>
      </trkpt>
      <trkpt lat="46.6057" lon="6.00964">
        <ele>933.9</ele>
        <time>2021-11-25T13:53:23Z</time>
      </trkpt>
      <trkpt lat="46.60566" lon="6.00958">
        <ele>933.6</ele>
        <time>2021-11-25T13:53:27Z</time>
      </trkpt>
      <trkpt lat="46.60564" lon="6.00951">
        <ele>933.1</ele>
        <time>2021-11-25T13:53:30Z</time>
      </trkpt>
      <trkpt lat="46.60562" lon="6.00945">
        <ele>932.5</ele>
        <time>2021-11-25T13:53:33Z</time>
      </trkpt>
      <trkpt lat="46.60559" lon="6.0094">
        <ele>931.9</ele>
        <time>2021-11-25T13:53:36Z</time>
      </trkpt>
      <trkpt lat="46.60555" lon="6.00933">
        <ele>931.4</ele>
        <time>2021-11-25T13:53:40Z</time>
      </trkpt>
      <trkpt lat="46.60551" lon="6.00929">
        <ele>931.1</ele>
        <time>2021-11-25T13:53:44Z</time>
      </trkpt>
      <trkpt lat="46.60548" lon="6.00924">
        <ele>930.7</ele>
        <time>2021-11-25T13:53:47Z</time>
      </trkpt>
      <trkpt lat="46.60544" lon="6.00918">
        <ele>930.4</ele>
        <time>2021-11-25T13:53:51Z</time>
      </trkpt>
      <trkpt lat="46.6054" lon="6.00914">
        <ele>930.1</ele>
        <time>2021-11-25T13:53:55Z</time>
      </trkpt>
      <trkpt lat="46.60536" lon="6.00909">
        <ele>929.5</ele>
        <time>2021-11-25T13:54:00Z</time>
      </trkpt>
      <trkpt lat="46.60531" lon="6.00905">
        <ele>929.2</ele>
        <time>2021-11-25T13:54:05Z</time>
      </trkpt>
      <trkpt lat="46.60527" lon="6.00902">
        <ele>929</ele>
        <time>2021-11-25T13:54:11Z</time>
      </trkpt>
      <trkpt lat="46.60522" lon="6.00898">
        <ele>929.2</ele>
        <time>2021-11-25T13:54:16Z</time>
      </trkpt>
      <trkpt lat="46.60517" lon="6.00895">
        <ele>929.6</ele>
        <time>2021-11-25T13:54:20Z</time>
      </trkpt>
      <trkpt lat="46.60512" lon="6.00893">
        <ele>929.9</ele>
        <time>2021-11-25T13:54:24Z</time>
      </trkpt>
      <trkpt lat="46.60508" lon="6.00889">
        <ele>930.6</ele>
        <time>2021-11-25T13:54:29Z</time>
      </trkpt>
      <trkpt lat="46.60504" lon="6.00885">
        <ele>931.5</ele>
        <time>2021-11-25T13:54:33Z</time>
      </trkpt>
      <trkpt lat="46.605" lon="6.00881">
        <ele>933</ele>
        <time>2021-11-25T13:54:37Z</time>
      </trkpt>
      <trkpt lat="46.60495" lon="6.00878">
        <ele>934.9</ele>
        <time>2021-11-25T13:54:43Z</time>
      </trkpt>
      <trkpt lat="46.60492" lon="6.00874">
        <ele>935.1</ele>
        <time>2021-11-25T13:54:47Z</time>
      </trkpt>
      <trkpt lat="46.60487" lon="6.00869">
        <ele>935.2</ele>
        <time>2021-11-25T13:54:51Z</time>
      </trkpt>
      <trkpt lat="46.60483" lon="6.00864">
        <ele>935.4</ele>
        <time>2021-11-25T13:54:55Z</time>
      </trkpt>
      <trkpt lat="46.60478" lon="6.0086">
        <ele>936.6</ele>
        <time>2021-11-25T13:54:59Z</time>
      </trkpt>
      <trkpt lat="46.60474" lon="6.00856">
        <ele>938.1</ele>
        <time>2021-11-25T13:55:04Z</time>
      </trkpt>
      <trkpt lat="46.6047" lon="6.00851">
        <ele>938.4</ele>
        <time>2021-11-25T13:55:09Z</time>
      </trkpt>
      <trkpt lat="46.60466" lon="6.00847">
        <ele>937.4</ele>
        <time>2021-11-25T13:55:14Z</time>
      </trkpt>
      <trkpt lat="46.60462" lon="6.00842">
        <ele>936.1</ele>
        <time>2021-11-25T13:55:19Z</time>
      </trkpt>
      <trkpt lat="46.60458" lon="6.00839">
        <ele>933</ele>
        <time>2021-11-25T13:55:27Z</time>
      </trkpt>
      <trkpt lat="46.60453" lon="6.00839">
        <ele>931.4</ele>
        <time>2021-11-25T13:55:32Z</time>
      </trkpt>
      <trkpt lat="46.60448" lon="6.00837">
        <ele>930.7</ele>
        <time>2021-11-25T13:55:36Z</time>
      </trkpt>
      <trkpt lat="46.60444" lon="6.00835">
        <ele>930</ele>
        <time>2021-11-25T13:55:40Z</time>
      </trkpt>
      <trkpt lat="46.60439" lon="6.00832">
        <ele>929.8</ele>
        <time>2021-11-25T13:55:45Z</time>
      </trkpt>
      <trkpt lat="46.60435" lon="6.00826">
        <ele>929.6</ele>
        <time>2021-11-25T13:55:51Z</time>
      </trkpt>
      <trkpt lat="46.60432" lon="6.00821">
        <ele>929.2</ele>
        <time>2021-11-25T13:55:55Z</time>
      </trkpt>
      <trkpt lat="46.60429" lon="6.00816">
        <ele>928.5</ele>
        <time>2021-11-25T13:56:00Z</time>
      </trkpt>
      <trkpt lat="46.60426" lon="6.0081">
        <ele>927.9</ele>
        <time>2021-11-25T13:56:05Z</time>
      </trkpt>
      <trkpt lat="46.60424" lon="6.00804">
        <ele>927.1</ele>
        <time>2021-11-25T13:56:09Z</time>
      </trkpt>
      <trkpt lat="46.60421" lon="6.00797">
        <ele>926.5</ele>
        <time>2021-11-25T13:56:13Z</time>
      </trkpt>
      <trkpt lat="46.6042" lon="6.0079">
        <ele>925.9</ele>
        <time>2021-11-25T13:56:18Z</time>
      </trkpt>
      <trkpt lat="46.6042" lon="6.00783">
        <ele>925.6</ele>
        <time>2021-11-25T13:56:24Z</time>
      </trkpt>
      <trkpt lat="46.6042" lon="6.00776">
        <ele>925</ele>
        <time>2021-11-25T13:56:28Z</time>
      </trkpt>
      <trkpt lat="46.6042" lon="6.00767">
        <ele>924.8</ele>
        <time>2021-11-25T13:56:32Z</time>
      </trkpt>
      <trkpt lat="46.60421" lon="6.0076">
        <ele>924.6</ele>
        <time>2021-11-25T13:56:36Z</time>
      </trkpt>
      <trkpt lat="46.60423" lon="6.00753">
        <ele>924.7</ele>
        <time>2021-11-25T13:56:41Z</time>
      </trkpt>
      <trkpt lat="46.60422" lon="6.00746">
        <ele>925.2</ele>
        <time>2021-11-25T13:56:45Z</time>
      </trkpt>
      <trkpt lat="46.60422" lon="6.00739">
        <ele>926.1</ele>
        <time>2021-11-25T13:56:50Z</time>
      </trkpt>
      <trkpt lat="46.60421" lon="6.00732">
        <ele>927</ele>
        <time>2021-11-25T13:56:55Z</time>
      </trkpt>
      <trkpt lat="46.60421" lon="6.00725">
        <ele>927.5</ele>
        <time>2021-11-25T13:56:59Z</time>
      </trkpt>
      <trkpt lat="46.60421" lon="6.00718">
        <ele>927.8</ele>
        <time>2021-11-25T13:57:04Z</time>
      </trkpt>
      <trkpt lat="46.6042" lon="6.00711">
        <ele>927.7</ele>
        <time>2021-11-25T13:57:09Z</time>
      </trkpt>
      <trkpt lat="46.6042" lon="6.00704">
        <ele>927.4</ele>
        <time>2021-11-25T13:57:13Z</time>
      </trkpt>
      <trkpt lat="46.60421" lon="6.00697">
        <ele>927.2</ele>
        <time>2021-11-25T13:57:17Z</time>
      </trkpt>
      <trkpt lat="46.6042" lon="6.0069">
        <ele>926.7</ele>
        <time>2021-11-25T13:57:22Z</time>
      </trkpt>
      <trkpt lat="46.6042" lon="6.00683">
        <ele>926.5</ele>
        <time>2021-11-25T13:57:26Z</time>
      </trkpt>
      <trkpt lat="46.6042" lon="6.00676">
        <ele>926.3</ele>
        <time>2021-11-25T13:57:30Z</time>
      </trkpt>
      <trkpt lat="46.60419" lon="6.0067">
        <ele>926.1</ele>
        <time>2021-11-25T13:57:34Z</time>
      </trkpt>
      <trkpt lat="46.60419" lon="6.00663">
        <ele>926</ele>
        <time>2021-11-25T13:57:38Z</time>
      </trkpt>
      <trkpt lat="46.60419" lon="6.00656">
        <ele>926.1</ele>
        <time>2021-11-25T13:57:42Z</time>
      </trkpt>
      <trkpt lat="46.6042" lon="6.00649">
        <ele>926.2</ele>
        <time>2021-11-25T13:57:46Z</time>
      </trkpt>
      <trkpt lat="46.60421" lon="6.00642">
        <ele>926.3</ele>
        <time>2021-11-25T13:57:50Z</time>
      </trkpt>
      <trkpt lat="46.60422" lon="6.00635">
        <ele>926.4</ele>
        <time>2021-11-25T13:57:54Z</time>
      </trkpt>
      <trkpt lat="46.60422" lon="6.00627">
        <ele>926.4</ele>
        <time>2021-11-25T13:58:00Z</time>
      </trkpt>
      <trkpt lat="46.60422" lon="6.0062">
        <ele>926.2</ele>
        <time>2021-11-25T13:58:05Z</time>
      </trkpt>
      <trkpt lat="46.60421" lon="6.00612">
        <ele>926.2</ele>
        <time>2021-11-25T13:58:09Z</time>
      </trkpt>
      <trkpt lat="46.60421" lon="6.00605">
        <ele>926.9</ele>
        <time>2021-11-25T13:58:13Z</time>
      </trkpt>
      <trkpt lat="46.60421" lon="6.00597">
        <ele>928.3</ele>
        <time>2021-11-25T13:58:17Z</time>
      </trkpt>
      <trkpt lat="46.60422" lon="6.0059">
        <ele>929.6</ele>
        <time>2021-11-25T13:58:22Z</time>
      </trkpt>
      <trkpt lat="46.60422" lon="6.00582">
        <ele>930</ele>
        <time>2021-11-25T13:58:27Z</time>
      </trkpt>
      <trkpt lat="46.60421" lon="6.00575">
        <ele>930.7</ele>
        <time>2021-11-25T13:58:32Z</time>
      </trkpt>
      <trkpt lat="46.6042" lon="6.00568">
        <ele>931.2</ele>
        <time>2021-11-25T13:58:37Z</time>
      </trkpt>
      <trkpt lat="46.60418" lon="6.00562">
        <ele>930.6</ele>
        <time>2021-11-25T13:58:43Z</time>
      </trkpt>
      <trkpt lat="46.60416" lon="6.00556">
        <ele>929.6</ele>
        <time>2021-11-25T13:58:48Z</time>
      </trkpt>
      <trkpt lat="46.60414" lon="6.00548">
        <ele>929.5</ele>
        <time>2021-11-25T13:58:53Z</time>
      </trkpt>
      <trkpt lat="46.60413" lon="6.00542">
        <ele>929.4</ele>
        <time>2021-11-25T13:58:57Z</time>
      </trkpt>
      <trkpt lat="46.60411" lon="6.00535">
        <ele>929.2</ele>
        <time>2021-11-25T13:59:02Z</time>
      </trkpt>
      <trkpt lat="46.60408" lon="6.00529">
        <ele>929</ele>
        <time>2021-11-25T13:59:07Z</time>
      </trkpt>
      <trkpt lat="46.60406" lon="6.00523">
        <ele>929.5</ele>
        <time>2021-11-25T13:59:12Z</time>
      </trkpt>
      <trkpt lat="46.60403" lon="6.00517">
        <ele>929.5</ele>
        <time>2021-11-25T13:59:17Z</time>
      </trkpt>
      <trkpt lat="46.60399" lon="6.00512">
        <ele>929.5</ele>
        <time>2021-11-25T13:59:22Z</time>
      </trkpt>
      <trkpt lat="46.60395" lon="6.00508">
        <ele>929.8</ele>
        <time>2021-11-25T13:59:26Z</time>
      </trkpt>
      <trkpt lat="46.60392" lon="6.00503">
        <ele>930.1</ele>
        <time>2021-11-25T13:59:30Z</time>
      </trkpt>
      <trkpt lat="46.60388" lon="6.00498">
        <ele>930.8</ele>
        <time>2021-11-25T13:59:34Z</time>
      </trkpt>
      <trkpt lat="46.60386" lon="6.00491">
        <ele>931.3</ele>
        <time>2021-11-25T13:59:38Z</time>
      </trkpt>
      <trkpt lat="46.60383" lon="6.00485">
        <ele>931.6</ele>
        <time>2021-11-25T13:59:42Z</time>
      </trkpt>
      <trkpt lat="46.6038" lon="6.00478">
        <ele>932.3</ele>
        <time>2021-11-25T13:59:48Z</time>
      </trkpt>
      <trkpt lat="46.60377" lon="6.00472">
        <ele>932.5</ele>
        <time>2021-11-25T13:59:52Z</time>
      </trkpt>
      <trkpt lat="46.60373" lon="6.00466">
        <ele>932.9</ele>
        <time>2021-11-25T13:59:56Z</time>
      </trkpt>
      <trkpt lat="46.6037" lon="6.00462">
        <ele>933.2</ele>
        <time>2021-11-25T14:00:00Z</time>
      </trkpt>
      <trkpt lat="46.60366" lon="6.00456">
        <ele>933.2</ele>
        <time>2021-11-25T14:00:04Z</time>
      </trkpt>
      <trkpt lat="46.60363" lon="6.00451">
        <ele>933.2</ele>
        <time>2021-11-25T14:00:08Z</time>
      </trkpt>
      <trkpt lat="46.6036" lon="6.00446">
        <ele>933.2</ele>
        <time>2021-11-25T14:00:13Z</time>
      </trkpt>
      <trkpt lat="46.60358" lon="6.0044">
        <ele>933.5</ele>
        <time>2021-11-25T14:00:18Z</time>
      </trkpt>
      <trkpt lat="46.60356" lon="6.00434">
        <ele>933.5</ele>
        <time>2021-11-25T14:00:22Z</time>
      </trkpt>
      <trkpt lat="46.60353" lon="6.00428">
        <ele>933.9</ele>
        <time>2021-11-25T14:00:26Z</time>
      </trkpt>
      <trkpt lat="46.60351" lon="6.00421">
        <ele>934.6</ele>
        <time>2021-11-25T14:00:31Z</time>
      </trkpt>
      <trkpt lat="46.60349" lon="6.00415">
        <ele>934.6</ele>
        <time>2021-11-25T14:00:36Z</time>
      </trkpt>
      <trkpt lat="46.60347" lon="6.0041">
        <ele>934.3</ele>
        <time>2021-11-25T14:00:42Z</time>
      </trkpt>
      <trkpt lat="46.60347" lon="6.00403">
        <ele>932.4</ele>
        <time>2021-11-25T14:01:40Z</time>
      </trkpt>
    </trkseg>
  </trk>
</gpx>